<?xml version='1.0' encoding='UTF-8'?><gpx version="1.1" creator="JPX - https://github.com/jenetics/jpx" xmlns="http://www.topografix.com/GPX/1/1"><trk><trkseg><trkpt lat="44.99651651702705" lon="8.566755865633537"><ele>236.0</ele><time>2026-03-28T07:31:36.999Z</time></trkpt><trkpt lat="44.99651718408204" lon="8.566589917959519"><ele>236.00000000000003</ele><time>2026-03-28T07:31:39.999Z</time></trkpt><trkpt lat="44.99661119909713" lon="8.566414191562968"><ele>236.00000000000003</ele><time>2026-03-28T07:31:41.999Z</time></trkpt><trkpt lat="44.99665114233096" lon="8.566299317016073"><ele>236.0</ele><time>2026-03-28T07:31:42.999Z</time></trkpt><trkpt lat="44.996696866578084" lon="8.56620683704722"><ele>236.0</ele><time>2026-03-28T07:31:43.999Z</time></trkpt><trkpt lat="44.9967430568617" lon="8.566059747580983"><ele>236.0</ele><time>2026-03-28T07:31:45.999Z</time></trkpt><trkpt lat="44.99670774253981" lon="8.566189644330064"><ele>236.00000000000003</ele><time>2026-03-28T07:31:52.999Z</time></trkpt><trkpt lat="44.99664626233206" lon="8.566348755829255"><ele>236.00000000000003</ele><time>2026-03-28T07:31:54.999Z</time></trkpt><trkpt lat="44.99660968910176" lon="8.56643449132671"><ele>236.0</ele><time>2026-03-28T07:31:56.998Z</time></trkpt><trkpt lat="44.99649854531951" lon="8.566440438012204"><ele>236.0</ele><time>2026-03-28T07:31:59Z</time></trkpt><trkpt lat="44.99636159350899" lon="8.566318550372023"><ele>236.0</ele><time>2026-03-28T07:32:02Z</time></trkpt><trkpt lat="44.99623455704521" lon="8.566325752798507"><ele>236.00000000000003</ele><time>2026-03-28T07:32:05Z</time></trkpt><trkpt lat="44.996172971730154" lon="8.566346966595393"><ele>236.00000000000003</ele><time>2026-03-28T07:32:06Z</time></trkpt><trkpt lat="44.99606760299858" lon="8.56629609259264"><ele>236.0</ele><time>2026-03-28T07:32:08Z</time></trkpt><trkpt lat="44.99599375654687" lon="8.566241557410635"><ele>236.0</ele><time>2026-03-28T07:32:10Z</time></trkpt><trkpt lat="44.99592737837734" lon="8.566325354133337"><ele>236.00000000000003</ele><time>2026-03-28T07:32:12Z</time></trkpt><trkpt lat="44.99593822638524" lon="8.56643836295474"><ele>236.0</ele><time>2026-03-28T07:32:14Z</time></trkpt><trkpt lat="44.99586801066174" lon="8.566527038598002"><ele>236.0</ele><time>2026-03-28T07:32:16Z</time></trkpt><trkpt lat="44.99581632444052" lon="8.56645317173161"><ele>236.0</ele><time>2026-03-28T07:32:19Z</time></trkpt><trkpt lat="44.995739444092436" lon="8.566485330605703"><ele>236.00000000000003</ele><time>2026-03-28T07:32:21Z</time></trkpt><trkpt lat="44.995628044012825" lon="8.566499942628187"><ele>236.0</ele><time>2026-03-28T07:32:23Z</time></trkpt><trkpt lat="44.9955388608742" lon="8.566496524567627"><ele>233.83333333333334</ele><time>2026-03-28T07:32:25Z</time></trkpt><trkpt lat="44.9954589188149" lon="8.566470028312684"><ele>231.66666666666669</ele><time>2026-03-28T07:32:27.999Z</time></trkpt><trkpt lat="44.99547037522743" lon="8.566356025987325"><ele>229.5</ele><time>2026-03-28T07:32:30.999Z</time></trkpt><trkpt lat="44.99542078269212" lon="8.566253493593733"><ele>227.33333333333331</ele><time>2026-03-28T07:32:39.999Z</time></trkpt><trkpt lat="44.99532224110201" lon="8.566332234103188"><ele>225.16666666666666</ele><time>2026-03-28T07:32:40.999Z</time></trkpt><trkpt lat="44.995265178955435" lon="8.566413210323011"><ele>223.0</ele><time>2026-03-28T07:32:42.999Z</time></trkpt><trkpt lat="44.99517141914087" lon="8.56646464963147"><ele>221.0</ele><time>2026-03-28T07:32:45.999Z</time></trkpt><trkpt lat="44.99498816815355" lon="8.56629978327528"><ele>219.0</ele><time>2026-03-28T07:32:47.999Z</time></trkpt><trkpt lat="44.994869408347874" lon="8.56620490894371"><ele>217.0</ele><time>2026-03-28T07:32:48.999Z</time></trkpt><trkpt lat="44.994769443346335" lon="8.566114523976331"><ele>215.0</ele><time>2026-03-28T07:32:49.999Z</time></trkpt><trkpt lat="44.99466557982963" lon="8.566020691121818"><ele>213.0</ele><time>2026-03-28T07:32:50.999Z</time></trkpt><trkpt lat="44.994546666389695" lon="8.565900883892212"><ele>211.0</ele><time>2026-03-28T07:32:51.999Z</time></trkpt><trkpt lat="44.99440961571627" lon="8.565769422364957"><ele>209.0</ele><time>2026-03-28T07:32:52.999Z</time></trkpt><trkpt lat="44.99428509948783" lon="8.565640803764195"><ele>209.0</ele><time>2026-03-28T07:32:53.999Z</time></trkpt><trkpt lat="44.99417832512371" lon="8.565496970336127"><ele>209.0</ele><time>2026-03-28T07:32:54.999Z</time></trkpt><trkpt lat="44.99410560192081" lon="8.565326912476623"><ele>209.0</ele><time>2026-03-28T07:32:55.999Z</time></trkpt><trkpt lat="44.99405387537506" lon="8.565166175970848"><ele>209.0</ele><time>2026-03-28T07:32:56.999Z</time></trkpt><trkpt lat="44.99399557436826" lon="8.56502208546771"><ele>208.5</ele><time>2026-03-28T07:32:57.999Z</time></trkpt><trkpt lat="44.993946772141165" lon="8.564903512209229"><ele>208.0</ele><time>2026-03-28T07:32:58.999Z</time></trkpt><trkpt lat="44.99386668888181" lon="8.56477500380811"><ele>207.5</ele><time>2026-03-28T07:32:59.999Z</time></trkpt><trkpt lat="44.99376064327783" lon="8.564675263094065"><ele>207.0</ele><time>2026-03-28T07:33:00.999Z</time></trkpt><trkpt lat="44.99365007416492" lon="8.564573538869757"><ele>206.25</ele><time>2026-03-28T07:33:01.999Z</time></trkpt><trkpt lat="44.993507717421856" lon="8.564513739464234"><ele>205.5</ele><time>2026-03-28T07:33:02.999Z</time></trkpt><trkpt lat="44.99337927672662" lon="8.564428957663495"><ele>204.75</ele><time>2026-03-28T07:33:03.999Z</time></trkpt><trkpt lat="44.99325772850063" lon="8.564320021606305"><ele>204.0</ele><time>2026-03-28T07:33:04.999Z</time></trkpt><trkpt lat="44.99315700505061" lon="8.564175252511019"><ele>204.0</ele><time>2026-03-28T07:33:05.999Z</time></trkpt><trkpt lat="44.993066287789816" lon="8.564028652999376"><ele>204.0</ele><time>2026-03-28T07:33:06.999Z</time></trkpt><trkpt lat="44.99296569230787" lon="8.563892774663948"><ele>204.0</ele><time>2026-03-28T07:33:07.999Z</time></trkpt><trkpt lat="44.99285167245416" lon="8.563765298277355"><ele>204.0</ele><time>2026-03-28T07:33:08.999Z</time></trkpt><trkpt lat="44.99272770764987" lon="8.563684989468781"><ele>205.25</ele><time>2026-03-28T07:33:09.999Z</time></trkpt><trkpt lat="44.99259196195361" lon="8.563639635773592"><ele>206.5</ele><time>2026-03-28T07:33:10.999Z</time></trkpt><trkpt lat="44.99245202087642" lon="8.563654089167388"><ele>207.75</ele><time>2026-03-28T07:33:11.999Z</time></trkpt><trkpt lat="44.99233017475039" lon="8.563722478053947"><ele>209.0</ele><time>2026-03-28T07:33:12.999Z</time></trkpt><trkpt lat="44.99220972443586" lon="8.563842430356724"><ele>209.0</ele><time>2026-03-28T07:33:13.999Z</time></trkpt><trkpt lat="44.99211415046521" lon="8.564005479983527"><ele>209.0</ele><time>2026-03-28T07:33:14.999Z</time></trkpt><trkpt lat="44.992012761327764" lon="8.564204256781258"><ele>209.0</ele><time>2026-03-28T07:33:15.999Z</time></trkpt><trkpt lat="44.99193941733783" lon="8.564430471455504"><ele>213.33333333333334</ele><time>2026-03-28T07:33:16.999Z</time></trkpt><trkpt lat="44.991867599558546" lon="8.564641761024015"><ele>217.66666666666669</ele><time>2026-03-28T07:33:17.999Z</time></trkpt><trkpt lat="44.99177104654864" lon="8.564813082856263"><ele>222.0</ele><time>2026-03-28T07:33:18.999Z</time></trkpt><trkpt lat="44.991700565608994" lon="8.564976974088147"><ele>217.5</ele><time>2026-03-28T07:33:19.999Z</time></trkpt><trkpt lat="44.9916012115288" lon="8.565089800892034"><ele>213.0</ele><time>2026-03-28T07:33:20.999Z</time></trkpt><trkpt lat="44.99147113300626" lon="8.565146544332444"><ele>208.5</ele><time>2026-03-28T07:33:21.999Z</time></trkpt><trkpt lat="44.99132777420442" lon="8.565147265681086"><ele>204.0</ele><time>2026-03-28T07:33:22.999Z</time></trkpt><trkpt lat="44.991199489669974" lon="8.565012516138616"><ele>204.0</ele><time>2026-03-28T07:33:23.999Z</time></trkpt><trkpt lat="44.99105728703516" lon="8.564954229361092"><ele>204.0</ele><time>2026-03-28T07:33:24.999Z</time></trkpt><trkpt lat="44.99091628495506" lon="8.564924929822794"><ele>204.0</ele><time>2026-03-28T07:33:25.999Z</time></trkpt><trkpt lat="44.99076872858051" lon="8.564939182470967"><ele>204.0</ele><time>2026-03-28T07:33:26.999Z</time></trkpt><trkpt lat="44.99062455261757" lon="8.565029558866287"><ele>203.0</ele><time>2026-03-28T07:33:27.999Z</time></trkpt><trkpt lat="44.99049795747417" lon="8.565174200414301"><ele>202.0</ele><time>2026-03-28T07:33:28.999Z</time></trkpt><trkpt lat="44.990379386520274" lon="8.565354955029381"><ele>201.0</ele><time>2026-03-28T07:33:29.999Z</time></trkpt><trkpt lat="44.990265993451" lon="8.5655299399112"><ele>200.75</ele><time>2026-03-28T07:33:30.999Z</time></trkpt><trkpt lat="44.99015070267318" lon="8.565682739922286"><ele>200.5</ele><time>2026-03-28T07:33:31.999Z</time></trkpt><trkpt lat="44.990051915814085" lon="8.565814476034573"><ele>200.25</ele><time>2026-03-28T07:33:32.999Z</time></trkpt><trkpt lat="44.9899530037053" lon="8.5659111456609"><ele>200.0</ele><time>2026-03-28T07:33:33.999Z</time></trkpt><trkpt lat="44.98985005045625" lon="8.56597353867089"><ele>200.0</ele><time>2026-03-28T07:33:34.999Z</time></trkpt><trkpt lat="44.989742248367044" lon="8.566007753610664"><ele>200.0</ele><time>2026-03-28T07:33:35.999Z</time></trkpt><trkpt lat="44.98962923375371" lon="8.565994272102337"><ele>200.0</ele><time>2026-03-28T07:33:36.999Z</time></trkpt><trkpt lat="44.9895068172885" lon="8.565943189366171"><ele>200.0</ele><time>2026-03-28T07:33:37.999Z</time></trkpt><trkpt lat="44.989381276144385" lon="8.565866820126615"><ele>200.00000000000003</ele><time>2026-03-28T07:33:38.999Z</time></trkpt><trkpt lat="44.989274922184066" lon="8.56579773059741"><ele>200.0</ele><time>2026-03-28T07:33:39.999Z</time></trkpt><trkpt lat="44.989188452536695" lon="8.565761740590613"><ele>200.0</ele><time>2026-03-28T07:33:40.999Z</time></trkpt><trkpt lat="44.98911412750165" lon="8.565709965629772"><ele>200.0</ele><time>2026-03-28T07:33:41.999Z</time></trkpt><trkpt lat="44.98905156885185" lon="8.56566939867493"><ele>200.00000000000003</ele><time>2026-03-28T07:33:42.999Z</time></trkpt><trkpt lat="44.988990549823924" lon="8.565628739715901"><ele>200.0</ele><time>2026-03-28T07:33:43.999Z</time></trkpt><trkpt lat="44.98892021762986" lon="8.565585167639295"><ele>200.2</ele><time>2026-03-28T07:33:44.999Z</time></trkpt><trkpt lat="44.98883769376793" lon="8.565538640151425"><ele>200.4</ele><time>2026-03-28T07:33:45.999Z</time></trkpt><trkpt lat="44.98874626399219" lon="8.56551046338921"><ele>200.60000000000002</ele><time>2026-03-28T07:33:46.999Z</time></trkpt><trkpt lat="44.98863979296336" lon="8.565493093735205"><ele>200.8</ele><time>2026-03-28T07:33:47.999Z</time></trkpt><trkpt lat="44.988513274576576" lon="8.565488479115741"><ele>201.0</ele><time>2026-03-28T07:33:48.999Z</time></trkpt><trkpt lat="44.98837543009329" lon="8.565486213627901"><ele>202.66666666666669</ele><time>2026-03-28T07:33:49.999Z</time></trkpt><trkpt lat="44.98823231649034" lon="8.565487940785374"><ele>204.33333333333334</ele><time>2026-03-28T07:33:50.999Z</time></trkpt><trkpt lat="44.988081672551715" lon="8.565494356028873"><ele>206.0</ele><time>2026-03-28T07:33:51.999Z</time></trkpt><trkpt lat="44.987924406725256" lon="8.56549611122857"><ele>206.0</ele><time>2026-03-28T07:33:52.999Z</time></trkpt><trkpt lat="44.987770762536094" lon="8.565519508132372"><ele>206.0</ele><time>2026-03-28T07:33:53.999Z</time></trkpt><trkpt lat="44.987621156250384" lon="8.565573029323566"><ele>206.0</ele><time>2026-03-28T07:33:54.999Z</time></trkpt><trkpt lat="44.98750043325732" lon="8.565659828491835"><ele>206.0</ele><time>2026-03-28T07:33:55.999Z</time></trkpt><trkpt lat="44.987393432176106" lon="8.565764062045512"><ele>203.75</ele><time>2026-03-28T07:33:56.999Z</time></trkpt><trkpt lat="44.98728873125339" lon="8.565892478600523"><ele>201.5</ele><time>2026-03-28T07:33:57.999Z</time></trkpt><trkpt lat="44.98718561449343" lon="8.5660077587942"><ele>199.25</ele><time>2026-03-28T07:33:58.999Z</time></trkpt><trkpt lat="44.98707342007824" lon="8.566101296077028"><ele>197.0</ele><time>2026-03-28T07:33:59.999Z</time></trkpt><trkpt lat="44.9869468109567" lon="8.566150988603589"><ele>197.0</ele><time>2026-03-28T07:34:00.999Z</time></trkpt><trkpt lat="44.986808930642184" lon="8.566184825859487"><ele>197.0</ele><time>2026-03-28T07:34:01.999Z</time></trkpt><trkpt lat="44.98668315278745" lon="8.56617163322634"><ele>197.0</ele><time>2026-03-28T07:34:02.999Z</time></trkpt><trkpt lat="44.98655044067667" lon="8.566131084071511"><ele>197.0</ele><time>2026-03-28T07:34:03.999Z</time></trkpt><trkpt lat="44.98642750113406" lon="8.566077855404993"><ele>195.75</ele><time>2026-03-28T07:34:05Z</time></trkpt><trkpt lat="44.98631021118427" lon="8.566027466089109"><ele>194.5</ele><time>2026-03-28T07:34:06Z</time></trkpt><trkpt lat="44.986190921056355" lon="8.565996761094196"><ele>193.25</ele><time>2026-03-28T07:34:07Z</time></trkpt><trkpt lat="44.98608105945064" lon="8.565947417902862"><ele>192.0</ele><time>2026-03-28T07:34:08Z</time></trkpt><trkpt lat="44.98596217115614" lon="8.56589824604569"><ele>192.0</ele><time>2026-03-28T07:34:09Z</time></trkpt><trkpt lat="44.98584732340627" lon="8.565825273515767"><ele>192.0</ele><time>2026-03-28T07:34:10Z</time></trkpt><trkpt lat="44.985734776409096" lon="8.565775348951966"><ele>192.0</ele><time>2026-03-28T07:34:11Z</time></trkpt><trkpt lat="44.98562994461515" lon="8.565732720041511"><ele>192.0</ele><time>2026-03-28T07:34:12Z</time></trkpt><trkpt lat="44.98552020532032" lon="8.56571107653562"><ele>192.5</ele><time>2026-03-28T07:34:13Z</time></trkpt><trkpt lat="44.98540795420253" lon="8.565662771700897"><ele>193.0</ele><time>2026-03-28T07:34:14Z</time></trkpt><trkpt lat="44.98529257186809" lon="8.565588006331236"><ele>193.5</ele><time>2026-03-28T07:34:15Z</time></trkpt><trkpt lat="44.98516605844829" lon="8.56553243633799"><ele>194.0</ele><time>2026-03-28T07:34:16Z</time></trkpt><trkpt lat="44.985038480906724" lon="8.56550983521572"><ele>194.0</ele><time>2026-03-28T07:34:17Z</time></trkpt><trkpt lat="44.9849247771955" lon="8.565449427692755"><ele>194.0</ele><time>2026-03-28T07:34:18Z</time></trkpt><trkpt lat="44.98481107197849" lon="8.56538055503303"><ele>194.0</ele><time>2026-03-28T07:34:19Z</time></trkpt><trkpt lat="44.98469309192366" lon="8.5653038067109"><ele>194.0</ele><time>2026-03-28T07:34:20Z</time></trkpt><trkpt lat="44.98457665505307" lon="8.565221775206645"><ele>192.0</ele><time>2026-03-28T07:34:21Z</time></trkpt><trkpt lat="44.98446464201719" lon="8.56512217171609"><ele>190.0</ele><time>2026-03-28T07:34:22Z</time></trkpt><trkpt lat="44.98436403335265" lon="8.565022159319625"><ele>188.0</ele><time>2026-03-28T07:34:23Z</time></trkpt><trkpt lat="44.984286329331354" lon="8.564888048121007"><ele>186.0</ele><time>2026-03-28T07:34:24Z</time></trkpt><trkpt lat="44.984194691559075" lon="8.564779301682979"><ele>185.5</ele><time>2026-03-28T07:34:25Z</time></trkpt><trkpt lat="44.98410509513076" lon="8.564664751401407"><ele>185.0</ele><time>2026-03-28T07:34:26Z</time></trkpt><trkpt lat="44.98401411850083" lon="8.564547871901034"><ele>184.5</ele><time>2026-03-28T07:34:27Z</time></trkpt><trkpt lat="44.983904170461415" lon="8.564437674889456"><ele>184.0</ele><time>2026-03-28T07:34:28Z</time></trkpt><trkpt lat="44.983818264005485" lon="8.564295140618967"><ele>184.0</ele><time>2026-03-28T07:34:29Z</time></trkpt><trkpt lat="44.983730685825755" lon="8.564207023220922"><ele>184.0</ele><time>2026-03-28T07:34:30Z</time></trkpt><trkpt lat="44.983649979855855" lon="8.564098996202507"><ele>184.0</ele><time>2026-03-28T07:34:31Z</time></trkpt><trkpt lat="44.983571011583955" lon="8.564001125181354"><ele>184.0</ele><time>2026-03-28T07:34:32Z</time></trkpt><trkpt lat="44.983489307345245" lon="8.563898675059281"><ele>184.0</ele><time>2026-03-28T07:34:33Z</time></trkpt><trkpt lat="44.98340115961841" lon="8.563804247293215"><ele>184.39999999999998</ele><time>2026-03-28T07:34:34Z</time></trkpt><trkpt lat="44.98331758509912" lon="8.563717912151173"><ele>184.8</ele><time>2026-03-28T07:34:35Z</time></trkpt><trkpt lat="44.98323183701443" lon="8.563667295874803"><ele>185.2</ele><time>2026-03-28T07:34:36Z</time></trkpt><trkpt lat="44.98313994308943" lon="8.563639015080593"><ele>185.60000000000002</ele><time>2026-03-28T07:34:37Z</time></trkpt><trkpt lat="44.98303684875454" lon="8.563632245812162"><ele>186.0</ele><time>2026-03-28T07:34:38Z</time></trkpt><trkpt lat="44.98292112652056" lon="8.563651901036435"><ele>186.8</ele><time>2026-03-28T07:34:39Z</time></trkpt><trkpt lat="44.98281848966468" lon="8.5637062616551"><ele>187.60000000000002</ele><time>2026-03-28T07:34:40Z</time></trkpt><trkpt lat="44.982727554773255" lon="8.563795423871913"><ele>188.4</ele><time>2026-03-28T07:34:41Z</time></trkpt><trkpt lat="44.982637972558095" lon="8.563891406066238"><ele>189.2</ele><time>2026-03-28T07:34:41.999Z</time></trkpt><trkpt lat="44.982558219006805" lon="8.563988738111204"><ele>190.0</ele><time>2026-03-28T07:34:42.999Z</time></trkpt><trkpt lat="44.982489192347465" lon="8.564075316130754"><ele>190.0</ele><time>2026-03-28T07:34:43.999Z</time></trkpt><trkpt lat="44.982413962719754" lon="8.56416666447371"><ele>190.0</ele><time>2026-03-28T07:34:44.999Z</time></trkpt><trkpt lat="44.98233309573701" lon="8.564261806466444"><ele>190.0</ele><time>2026-03-28T07:34:45.999Z</time></trkpt><trkpt lat="44.982266041384435" lon="8.564340070877472"><ele>190.0</ele><time>2026-03-28T07:34:46.999Z</time></trkpt><trkpt lat="44.982216209087305" lon="8.564400241384762"><ele>190.0</ele><time>2026-03-28T07:34:47.999Z</time></trkpt><trkpt lat="44.98215670696266" lon="8.564464916162867"><ele>190.0</ele><time>2026-03-28T07:34:48.999Z</time></trkpt><trkpt lat="44.982079399054356" lon="8.564536726344715"><ele>189.5</ele><time>2026-03-28T07:34:49.999Z</time></trkpt><trkpt lat="44.981983258994966" lon="8.564615790110977"><ele>189.0</ele><time>2026-03-28T07:34:50.999Z</time></trkpt><trkpt lat="44.98183952805499" lon="8.564716641835982"><ele>188.5</ele><time>2026-03-28T07:34:51.999Z</time></trkpt><trkpt lat="44.98171676310523" lon="8.564804398273003"><ele>188.0</ele><time>2026-03-28T07:34:52.999Z</time></trkpt><trkpt lat="44.98159582332935" lon="8.564910199780345"><ele>188.0</ele><time>2026-03-28T07:34:53.999Z</time></trkpt><trkpt lat="44.981466382100855" lon="8.564994951488625"><ele>188.0</ele><time>2026-03-28T07:34:54.999Z</time></trkpt><trkpt lat="44.98133526792685" lon="8.565058652793674"><ele>188.0</ele><time>2026-03-28T07:34:55.999Z</time></trkpt><trkpt lat="44.981209482675965" lon="8.5651596774019"><ele>188.0</ele><time>2026-03-28T07:34:56.999Z</time></trkpt><trkpt lat="44.98110061872286" lon="8.565232073925145"><ele>188.0</ele><time>2026-03-28T07:34:57.999Z</time></trkpt><trkpt lat="44.98099094434829" lon="8.565309492661427"><ele>188.0</ele><time>2026-03-28T07:34:58.999Z</time></trkpt><trkpt lat="44.98089360693077" lon="8.5653892164831"><ele>188.0</ele><time>2026-03-28T07:34:59.999Z</time></trkpt><trkpt lat="44.9808070894907" lon="8.565454880113279"><ele>188.0</ele><time>2026-03-28T07:35:00.999Z</time></trkpt><trkpt lat="44.98073481370856" lon="8.565509553631136"><ele>188.0</ele><time>2026-03-28T07:35:01.999Z</time></trkpt><trkpt lat="44.980673375056085" lon="8.565558266448717"><ele>187.66666666666666</ele><time>2026-03-28T07:35:02.999Z</time></trkpt><trkpt lat="44.98057915527234" lon="8.565581371688511"><ele>187.33333333333331</ele><time>2026-03-28T07:35:04.999Z</time></trkpt><trkpt lat="44.98049345010747" lon="8.565640033010705"><ele>187.0</ele><time>2026-03-28T07:35:06.999Z</time></trkpt><trkpt lat="44.98045886790308" lon="8.565732744268253"><ele>186.66666666666666</ele><time>2026-03-28T07:35:33.999Z</time></trkpt><trkpt lat="44.980379586120876" lon="8.565752026008967"><ele>186.33333333333334</ele><time>2026-03-28T07:38:21Z</time></trkpt><trkpt lat="44.98045806615189" lon="8.565831246049523"><ele>186.0</ele><time>2026-03-28T07:38:32Z</time></trkpt><trkpt lat="44.98051572179468" lon="8.565773156852662"><ele>186.0</ele><time>2026-03-28T07:38:33Z</time></trkpt><trkpt lat="44.98057302753641" lon="8.565683394797096"><ele>186.0</ele><time>2026-03-28T07:38:34Z</time></trkpt><trkpt lat="44.98066466025541" lon="8.565604953009215"><ele>186.0</ele><time>2026-03-28T07:38:35Z</time></trkpt><trkpt lat="44.98076405887747" lon="8.56553936178728"><ele>186.0</ele><time>2026-03-28T07:38:36Z</time></trkpt><trkpt lat="44.98086374254093" lon="8.5654527118763"><ele>186.0</ele><time>2026-03-28T07:38:37Z</time></trkpt><trkpt lat="44.98096008728584" lon="8.565362251076099"><ele>186.4</ele><time>2026-03-28T07:38:38Z</time></trkpt><trkpt lat="44.98104955209887" lon="8.565284838798222"><ele>186.8</ele><time>2026-03-28T07:38:39Z</time></trkpt><trkpt lat="44.98112710491716" lon="8.565217739022517"><ele>187.20000000000002</ele><time>2026-03-28T07:38:40Z</time></trkpt><trkpt lat="44.981223520061135" lon="8.565180647457803"><ele>187.60000000000002</ele><time>2026-03-28T07:38:41Z</time></trkpt><trkpt lat="44.981314516891075" lon="8.565123168377674"><ele>188.0</ele><time>2026-03-28T07:38:42Z</time></trkpt><trkpt lat="44.9813990495148" lon="8.565046782210436"><ele>188.0</ele><time>2026-03-28T07:38:43Z</time></trkpt><trkpt lat="44.981471546300774" lon="8.56500191683038"><ele>188.0</ele><time>2026-03-28T07:38:44Z</time></trkpt><trkpt lat="44.981539997309" lon="8.564978616595234"><ele>188.0</ele><time>2026-03-28T07:38:45Z</time></trkpt><trkpt lat="44.98160800525955" lon="8.564933656090004"><ele>188.0</ele><time>2026-03-28T07:38:46Z</time></trkpt><trkpt lat="44.9815928430589" lon="8.564769144712502"><ele>188.0</ele><time>2026-03-28T07:38:47Z</time></trkpt><trkpt lat="44.98160206166112" lon="8.564649643884922"><ele>188.0</ele><time>2026-03-28T07:38:48Z</time></trkpt><trkpt lat="44.98164461583198" lon="8.564551909818833"><ele>188.33333333333331</ele><time>2026-03-28T07:38:49Z</time></trkpt><trkpt lat="44.981730952207656" lon="8.564513799981587"><ele>188.66666666666666</ele><time>2026-03-28T07:38:50Z</time></trkpt><trkpt lat="44.98179320096848" lon="8.56445693538337"><ele>189.0</ele><time>2026-03-28T07:38:51Z</time></trkpt><trkpt lat="44.98185939681773" lon="8.564413920552413"><ele>189.33333333333334</ele><time>2026-03-28T07:38:52Z</time></trkpt><trkpt lat="44.98188044765246" lon="8.564318691536876"><ele>189.66666666666669</ele><time>2026-03-28T07:38:53Z</time></trkpt><trkpt lat="44.981832915841444" lon="8.564146116023105"><ele>190.0</ele><time>2026-03-28T07:38:55Z</time></trkpt><trkpt lat="44.98172678165693" lon="8.564127461789537"><ele>187.75</ele><time>2026-03-28T07:38:56Z</time></trkpt><trkpt lat="44.981619701068354" lon="8.564149031329062"><ele>185.5</ele><time>2026-03-28T07:38:57Z</time></trkpt><trkpt lat="44.98149360870169" lon="8.564202103870132"><ele>183.25</ele><time>2026-03-28T07:38:58Z</time></trkpt><trkpt lat="44.98137471524422" lon="8.564253351284515"><ele>181.0</ele><time>2026-03-28T07:38:59Z</time></trkpt><trkpt lat="44.98126501758173" lon="8.564240429018867"><ele>181.0</ele><time>2026-03-28T07:39:00Z</time></trkpt><trkpt lat="44.98116712577419" lon="8.564212061985303"><ele>181.0</ele><time>2026-03-28T07:39:00.999Z</time></trkpt><trkpt lat="44.98105738677515" lon="8.564171423439868"><ele>181.0</ele><time>2026-03-28T07:39:01.999Z</time></trkpt><trkpt lat="44.98096944702033" lon="8.564014836334414"><ele>181.0</ele><time>2026-03-28T07:39:02.999Z</time></trkpt><trkpt lat="44.980881727074326" lon="8.563834532273766"><ele>177.66666666666669</ele><time>2026-03-28T07:39:03.999Z</time></trkpt><trkpt lat="44.98080101573808" lon="8.563632770756639"><ele>174.33333333333334</ele><time>2026-03-28T07:39:04.999Z</time></trkpt><trkpt lat="44.98071228371997" lon="8.563412316983106"><ele>171.0</ele><time>2026-03-28T07:39:05.999Z</time></trkpt><trkpt lat="44.980623433668" lon="8.563189817870112"><ele>171.0</ele><time>2026-03-28T07:39:06.999Z</time></trkpt><trkpt lat="44.98053546983069" lon="8.562963014244712"><ele>171.0</ele><time>2026-03-28T07:39:07.999Z</time></trkpt><trkpt lat="44.98044742839517" lon="8.56274287300055"><ele>171.0</ele><time>2026-03-28T07:39:08.999Z</time></trkpt><trkpt lat="44.980360847827086" lon="8.562526064983194"><ele>168.33333333333334</ele><time>2026-03-28T07:39:09.999Z</time></trkpt><trkpt lat="44.980271677171906" lon="8.562303606310895"><ele>165.66666666666669</ele><time>2026-03-28T07:39:10.999Z</time></trkpt><trkpt lat="44.9801854692449" lon="8.562088576292107"><ele>163.0</ele><time>2026-03-28T07:39:11.999Z</time></trkpt><trkpt lat="44.98009799003717" lon="8.561867012859617"><ele>162.0</ele><time>2026-03-28T07:39:12.999Z</time></trkpt><trkpt lat="44.98001048711874" lon="8.561644249730827"><ele>161.0</ele><time>2026-03-28T07:39:13.999Z</time></trkpt><trkpt lat="44.979907186586" lon="8.561431034658693"><ele>160.0</ele><time>2026-03-28T07:39:14.999Z</time></trkpt><trkpt lat="44.97982121552544" lon="8.5612155230076"><ele>157.66666666666669</ele><time>2026-03-28T07:39:15.999Z</time></trkpt><trkpt lat="44.97974538607268" lon="8.561010352591472"><ele>155.33333333333334</ele><time>2026-03-28T07:39:16.999Z</time></trkpt><trkpt lat="44.97966744933191" lon="8.560797659589284"><ele>153.0</ele><time>2026-03-28T07:39:17.999Z</time></trkpt><trkpt lat="44.979618553544434" lon="8.560579205394538"><ele>151.33333333333334</ele><time>2026-03-28T07:39:18.999Z</time></trkpt><trkpt lat="44.979566497809635" lon="8.56036628809615"><ele>149.66666666666669</ele><time>2026-03-28T07:39:19.999Z</time></trkpt><trkpt lat="44.9795294558487" lon="8.560133287348423"><ele>148.0</ele><time>2026-03-28T07:39:20.999Z</time></trkpt><trkpt lat="44.97948976967497" lon="8.559896214649577"><ele>148.0</ele><time>2026-03-28T07:39:21.999Z</time></trkpt><trkpt lat="44.97944235049425" lon="8.559665060156298"><ele>148.0</ele><time>2026-03-28T07:39:22.999Z</time></trkpt><trkpt lat="44.979413366067384" lon="8.559427362306124"><ele>148.0</ele><time>2026-03-28T07:39:23.999Z</time></trkpt><trkpt lat="44.97941107694972" lon="8.559247181082233"><ele>146.75</ele><time>2026-03-28T07:39:24.999Z</time></trkpt><trkpt lat="44.97938657622321" lon="8.559057872018998"><ele>145.5</ele><time>2026-03-28T07:39:25.999Z</time></trkpt><trkpt lat="44.97938667822489" lon="8.558876332689172"><ele>144.25</ele><time>2026-03-28T07:39:26.999Z</time></trkpt><trkpt lat="44.97935227285779" lon="8.558686512288471"><ele>143.0</ele><time>2026-03-28T07:39:27.999Z</time></trkpt><trkpt lat="44.97933154305703" lon="8.558500530368836"><ele>142.75</ele><time>2026-03-28T07:39:28.999Z</time></trkpt><trkpt lat="44.97928518101856" lon="8.558323315747046"><ele>142.5</ele><time>2026-03-28T07:39:29.999Z</time></trkpt><trkpt lat="44.97921018308212" lon="8.558152956276723"><ele>142.25</ele><time>2026-03-28T07:39:30.999Z</time></trkpt><trkpt lat="44.97910904847611" lon="8.557981991246024"><ele>142.0</ele><time>2026-03-28T07:39:31.999Z</time></trkpt><trkpt lat="44.97900032809523" lon="8.557804906889226"><ele>144.33333333333334</ele><time>2026-03-28T07:39:32.999Z</time></trkpt><trkpt lat="44.97888481736675" lon="8.557614552204038"><ele>146.66666666666666</ele><time>2026-03-28T07:39:33.999Z</time></trkpt><trkpt lat="44.978767158456215" lon="8.557400194740902"><ele>149.0</ele><time>2026-03-28T07:39:34.999Z</time></trkpt><trkpt lat="44.97865081648547" lon="8.557188330699724"><ele>148.66666666666666</ele><time>2026-03-28T07:39:35.999Z</time></trkpt><trkpt lat="44.97853001911861" lon="8.556971521301518"><ele>148.33333333333334</ele><time>2026-03-28T07:39:36.999Z</time></trkpt><trkpt lat="44.978411652153184" lon="8.556764580747483"><ele>148.0</ele><time>2026-03-28T07:39:37.999Z</time></trkpt><trkpt lat="44.97829841510938" lon="8.556558555430625"><ele>149.33333333333334</ele><time>2026-03-28T07:39:38.999Z</time></trkpt><trkpt lat="44.978187881800956" lon="8.556356159208873"><ele>150.66666666666666</ele><time>2026-03-28T07:39:39.999Z</time></trkpt><trkpt lat="44.97808484656527" lon="8.556175755405665"><ele>152.0</ele><time>2026-03-28T07:39:40.999Z</time></trkpt><trkpt lat="44.97797763547744" lon="8.556004427903074"><ele>152.25</ele><time>2026-03-28T07:39:41.999Z</time></trkpt><trkpt lat="44.97787381018147" lon="8.555872873289864"><ele>152.5</ele><time>2026-03-28T07:39:42.999Z</time></trkpt><trkpt lat="44.977766851661436" lon="8.555780180525817"><ele>152.75</ele><time>2026-03-28T07:39:43.999Z</time></trkpt><trkpt lat="44.97766252583342" lon="8.555714809935985"><ele>153.0</ele><time>2026-03-28T07:39:44.999Z</time></trkpt><trkpt lat="44.977561011266374" lon="8.555650955931695"><ele>153.5</ele><time>2026-03-28T07:39:45.999Z</time></trkpt><trkpt lat="44.97745568561326" lon="8.555551832354174"><ele>154.0</ele><time>2026-03-28T07:39:46.999Z</time></trkpt><trkpt lat="44.97733468327759" lon="8.555467841289977"><ele>154.5</ele><time>2026-03-28T07:39:47.999Z</time></trkpt><trkpt lat="44.977205067460915" lon="8.555377871382255"><ele>155.0</ele><time>2026-03-28T07:39:48.999Z</time></trkpt><trkpt lat="44.9770728881648" lon="8.555286122085509"><ele>156.5</ele><time>2026-03-28T07:39:49.999Z</time></trkpt><trkpt lat="44.976940372390935" lon="8.555191269458463"><ele>158.0</ele><time>2026-03-28T07:39:50.999Z</time></trkpt><trkpt lat="44.976811936236054" lon="8.555097783417986"><ele>159.5</ele><time>2026-03-28T07:39:51.999Z</time></trkpt><trkpt lat="44.97668436475645" lon="8.555014656991414"><ele>161.0</ele><time>2026-03-28T07:39:52.999Z</time></trkpt><trkpt lat="44.976545849842566" lon="8.554972475692049"><ele>161.75</ele><time>2026-03-28T07:39:53.999Z</time></trkpt><trkpt lat="44.97640421269159" lon="8.554926968982281"><ele>162.5</ele><time>2026-03-28T07:39:54.999Z</time></trkpt><trkpt lat="44.9762633170283" lon="8.554938187572944"><ele>163.25</ele><time>2026-03-28T07:39:55.999Z</time></trkpt><trkpt lat="44.97611468202128" lon="8.554974210924811"><ele>164.0</ele><time>2026-03-28T07:39:56.999Z</time></trkpt><trkpt lat="44.97596774542683" lon="8.554980432026989"><ele>163.0</ele><time>2026-03-28T07:39:57.999Z</time></trkpt><trkpt lat="44.975836512983" lon="8.554993345252504"><ele>162.0</ele><time>2026-03-28T07:39:58.999Z</time></trkpt><trkpt lat="44.975710444305186" lon="8.555002688893092"><ele>161.0</ele><time>2026-03-28T07:39:59.999Z</time></trkpt><trkpt lat="44.97557741347259" lon="8.555008779832187"><ele>160.0</ele><time>2026-03-28T07:40:00.999Z</time></trkpt><trkpt lat="44.97544026202529" lon="8.5550099346108"><ele>160.0</ele><time>2026-03-28T07:40:01.999Z</time></trkpt><trkpt lat="44.9752994859929" lon="8.555008686756821"><ele>160.0</ele><time>2026-03-28T07:40:02.999Z</time></trkpt><trkpt lat="44.97516282615742" lon="8.555008065202943"><ele>160.0</ele><time>2026-03-28T07:40:03.999Z</time></trkpt><trkpt lat="44.97504242273841" lon="8.555008693003824"><ele>160.0</ele><time>2026-03-28T07:40:04.999Z</time></trkpt><trkpt lat="44.97490352743638" lon="8.555007795141224"><ele>159.0</ele><time>2026-03-28T07:40:05.999Z</time></trkpt><trkpt lat="44.97477267818945" lon="8.554999176875546"><ele>158.0</ele><time>2026-03-28T07:40:06.999Z</time></trkpt><trkpt lat="44.974651925413276" lon="8.554985776420441"><ele>157.0</ele><time>2026-03-28T07:40:07.999Z</time></trkpt><trkpt lat="44.974542287395714" lon="8.554967133189194"><ele>156.0</ele><time>2026-03-28T07:40:08.999Z</time></trkpt><trkpt lat="44.974431523982055" lon="8.554959459693155"><ele>156.0</ele><time>2026-03-28T07:40:09.999Z</time></trkpt><trkpt lat="44.97432270365622" lon="8.5548844494724"><ele>156.0</ele><time>2026-03-28T07:40:10.999Z</time></trkpt><trkpt lat="44.9742133203348" lon="8.554803699766431"><ele>156.0</ele><time>2026-03-28T07:40:11.999Z</time></trkpt><trkpt lat="44.974095931378265" lon="8.554718406072563"><ele>156.0</ele><time>2026-03-28T07:40:12.999Z</time></trkpt><trkpt lat="44.973981937077134" lon="8.55460091247863"><ele>153.75</ele><time>2026-03-28T07:40:13.999Z</time></trkpt><trkpt lat="44.973860584390074" lon="8.554484259655691"><ele>151.5</ele><time>2026-03-28T07:40:14.999Z</time></trkpt><trkpt lat="44.97375359236931" lon="8.554348334498037"><ele>149.25</ele><time>2026-03-28T07:40:15.999Z</time></trkpt><trkpt lat="44.97363651203669" lon="8.554254110324665"><ele>147.0</ele><time>2026-03-28T07:40:16.999Z</time></trkpt><trkpt lat="44.973540048866795" lon="8.554148025635923"><ele>147.0</ele><time>2026-03-28T07:40:17.999Z</time></trkpt><trkpt lat="44.97343361611849" lon="8.55403318950419"><ele>147.0</ele><time>2026-03-28T07:40:18.999Z</time></trkpt><trkpt lat="44.97332112802457" lon="8.553891720134274"><ele>147.0</ele><time>2026-03-28T07:40:19.999Z</time></trkpt><trkpt lat="44.973209428197286" lon="8.553697598335415"><ele>145.66666666666666</ele><time>2026-03-28T07:40:20.999Z</time></trkpt><trkpt lat="44.97308268632995" lon="8.553544028405266"><ele>144.33333333333331</ele><time>2026-03-28T07:40:21.999Z</time></trkpt><trkpt lat="44.972946528873074" lon="8.553360984201559"><ele>143.0</ele><time>2026-03-28T07:40:23Z</time></trkpt><trkpt lat="44.97282896506443" lon="8.55320441321529"><ele>143.0</ele><time>2026-03-28T07:40:24Z</time></trkpt><trkpt lat="44.97272032003499" lon="8.553060236829232"><ele>143.0</ele><time>2026-03-28T07:40:25Z</time></trkpt><trkpt lat="44.97261758929742" lon="8.55290612939844"><ele>143.0</ele><time>2026-03-28T07:40:26Z</time></trkpt><trkpt lat="44.972523320860034" lon="8.552760587991894"><ele>143.0</ele><time>2026-03-28T07:40:27Z</time></trkpt><trkpt lat="44.9724181923293" lon="8.552623097941481"><ele>142.33333333333331</ele><time>2026-03-28T07:40:28Z</time></trkpt><trkpt lat="44.97229063635737" lon="8.552516710644735"><ele>141.66666666666666</ele><time>2026-03-28T07:40:29Z</time></trkpt><trkpt lat="44.97212184943607" lon="8.552437819490303"><ele>141.0</ele><time>2026-03-28T07:40:30Z</time></trkpt><trkpt lat="44.97193970791699" lon="8.552379469001515"><ele>141.0</ele><time>2026-03-28T07:40:31Z</time></trkpt><trkpt lat="44.97175128117089" lon="8.552305042203894"><ele>141.0</ele><time>2026-03-28T07:40:32Z</time></trkpt><trkpt lat="44.97154957159439" lon="8.552218731646796"><ele>141.0</ele><time>2026-03-28T07:40:33Z</time></trkpt><trkpt lat="44.971365160721135" lon="8.552144778568131"><ele>138.33333333333334</ele><time>2026-03-28T07:40:34Z</time></trkpt><trkpt lat="44.97116954469319" lon="8.552088890978212"><ele>135.66666666666669</ele><time>2026-03-28T07:40:35Z</time></trkpt><trkpt lat="44.97098588340936" lon="8.552029102886976"><ele>133.0</ele><time>2026-03-28T07:40:36Z</time></trkpt><trkpt lat="44.970819453066724" lon="8.551972944288096"><ele>131.0</ele><time>2026-03-28T07:40:37Z</time></trkpt><trkpt lat="44.97062496127596" lon="8.551931677347508"><ele>129.0</ele><time>2026-03-28T07:40:38Z</time></trkpt><trkpt lat="44.970459416828774" lon="8.551886421922474"><ele>127.0</ele><time>2026-03-28T07:40:39Z</time></trkpt><trkpt lat="44.970286298618994" lon="8.551855402590707"><ele>127.0</ele><time>2026-03-28T07:40:40Z</time></trkpt><trkpt lat="44.97010813701597" lon="8.551859166096856"><ele>127.0</ele><time>2026-03-28T07:40:41Z</time></trkpt><trkpt lat="44.96991926309717" lon="8.551902206251324"><ele>127.0</ele><time>2026-03-28T07:40:42Z</time></trkpt><trkpt lat="44.96973102543649" lon="8.55196096521406"><ele>126.0</ele><time>2026-03-28T07:40:43Z</time></trkpt><trkpt lat="44.969539379877794" lon="8.552043978800146"><ele>125.0</ele><time>2026-03-28T07:40:44Z</time></trkpt><trkpt lat="44.96932609881792" lon="8.552149385826667"><ele>124.0</ele><time>2026-03-28T07:40:45Z</time></trkpt><trkpt lat="44.969103904419704" lon="8.552265889650927"><ele>122.0</ele><time>2026-03-28T07:40:46Z</time></trkpt><trkpt lat="44.968932518948336" lon="8.55233574154691"><ele>120.0</ele><time>2026-03-28T07:40:47Z</time></trkpt><trkpt lat="44.96878621995885" lon="8.552397739181906"><ele>118.0</ele><time>2026-03-28T07:40:48Z</time></trkpt><trkpt lat="44.9686524533726" lon="8.552443655041841"><ele>118.0</ele><time>2026-03-28T07:40:49Z</time></trkpt><trkpt lat="44.96853511876063" lon="8.552474222125658"><ele>118.0</ele><time>2026-03-28T07:40:50Z</time></trkpt><trkpt lat="44.968419257938535" lon="8.552427595674951"><ele>118.0</ele><time>2026-03-28T07:40:51Z</time></trkpt><trkpt lat="44.9683076714415" lon="8.552349920188476"><ele>118.0</ele><time>2026-03-28T07:40:52Z</time></trkpt><trkpt lat="44.96821262079587" lon="8.55221401352456"><ele>117.66666666666667</ele><time>2026-03-28T07:40:53Z</time></trkpt><trkpt lat="44.96811721422765" lon="8.552069276883747"><ele>117.33333333333334</ele><time>2026-03-28T07:40:54Z</time></trkpt><trkpt lat="44.96807447923801" lon="8.551856100354302"><ele>117.0</ele><time>2026-03-28T07:40:55Z</time></trkpt><trkpt lat="44.96803892412478" lon="8.55163347561679"><ele>117.0</ele><time>2026-03-28T07:40:56Z</time></trkpt><trkpt lat="44.96800297718217" lon="8.551440651311376"><ele>117.0</ele><time>2026-03-28T07:40:57Z</time></trkpt><trkpt lat="44.967940364843685" lon="8.551250235957557"><ele>117.0</ele><time>2026-03-28T07:40:58Z</time></trkpt><trkpt lat="44.96793732533141" lon="8.551033894928596"><ele>117.0</ele><time>2026-03-28T07:40:59Z</time></trkpt><trkpt lat="44.96790713202791" lon="8.55083274960165"><ele>117.0</ele><time>2026-03-28T07:41:00Z</time></trkpt><trkpt lat="44.96788320420536" lon="8.550637812217445"><ele>117.0</ele><time>2026-03-28T07:41:01Z</time></trkpt><trkpt lat="44.96786443092266" lon="8.550473148256765"><ele>117.0</ele><time>2026-03-28T07:41:02Z</time></trkpt><trkpt lat="44.967849023903206" lon="8.550319281678608"><ele>117.0</ele><time>2026-03-28T07:41:03Z</time></trkpt><trkpt lat="44.967836007927765" lon="8.550189293715292"><ele>116.83333333333333</ele><time>2026-03-28T07:41:04Z</time></trkpt><trkpt lat="44.967821073069274" lon="8.550064680202611"><ele>116.66666666666666</ele><time>2026-03-28T07:41:05Z</time></trkpt><trkpt lat="44.96780754093483" lon="8.549959789156855"><ele>116.5</ele><time>2026-03-28T07:41:06Z</time></trkpt><trkpt lat="44.9677774211516" lon="8.549855539600173"><ele>116.33333333333333</ele><time>2026-03-28T07:41:07Z</time></trkpt><trkpt lat="44.96776717851046" lon="8.549751695945973"><ele>116.16666666666666</ele><time>2026-03-28T07:41:07.999Z</time></trkpt><trkpt lat="44.967754770096" lon="8.54963104096477"><ele>116.0</ele><time>2026-03-28T07:41:08.999Z</time></trkpt><trkpt lat="44.96774760177129" lon="8.549515947771884"><ele>115.66666666666666</ele><time>2026-03-28T07:41:09.999Z</time></trkpt><trkpt lat="44.96774821860322" lon="8.54941309199806"><ele>115.33333333333333</ele><time>2026-03-28T07:41:10.999Z</time></trkpt><trkpt lat="44.96775677376869" lon="8.549302800515061"><ele>115.0</ele><time>2026-03-28T07:41:11.999Z</time></trkpt><trkpt lat="44.96777420420041" lon="8.549211489213029"><ele>114.66666666666666</ele><time>2026-03-28T07:41:12.999Z</time></trkpt><trkpt lat="44.967815414461995" lon="8.549117182967722"><ele>114.33333333333333</ele><time>2026-03-28T07:41:13.999Z</time></trkpt><trkpt lat="44.96782686052696" lon="8.549020279084036"><ele>114.0</ele><time>2026-03-28T07:41:14.999Z</time></trkpt><trkpt lat="44.96791674415827" lon="8.548918577916671"><ele>114.0</ele><time>2026-03-28T07:41:16.999Z</time></trkpt><trkpt lat="44.968067041954264" lon="8.548992782175961"><ele>114.0</ele><time>2026-03-28T07:41:17.999Z</time></trkpt><trkpt lat="44.96819033711877" lon="8.548998456358223"><ele>114.0</ele><time>2026-03-28T07:41:18.999Z</time></trkpt><trkpt lat="44.96836348342573" lon="8.549022282499747"><ele>114.25</ele><time>2026-03-28T07:41:19.999Z</time></trkpt><trkpt lat="44.96851639378378" lon="8.549039232507171"><ele>114.5</ele><time>2026-03-28T07:41:20.999Z</time></trkpt><trkpt lat="44.96864039987203" lon="8.549058257426276"><ele>114.75</ele><time>2026-03-28T07:41:21.999Z</time></trkpt><trkpt lat="44.96875988133721" lon="8.549067763998334"><ele>115.0</ele><time>2026-03-28T07:41:22.999Z</time></trkpt><trkpt lat="44.96887855641588" lon="8.549062964566653"><ele>115.0</ele><time>2026-03-28T07:41:23.999Z</time></trkpt><trkpt lat="44.968993082746444" lon="8.54905314021392"><ele>115.0</ele><time>2026-03-28T07:41:24.999Z</time></trkpt><trkpt lat="44.969094787951605" lon="8.54906157748906"><ele>115.0</ele><time>2026-03-28T07:41:25.999Z</time></trkpt><trkpt lat="44.969227931760095" lon="8.549048115297124"><ele>115.0</ele><time>2026-03-28T07:41:26.999Z</time></trkpt><trkpt lat="44.96935139236252" lon="8.54906720594694"><ele>115.5</ele><time>2026-03-28T07:41:27.999Z</time></trkpt><trkpt lat="44.969457772774604" lon="8.549091789683258"><ele>116.0</ele><time>2026-03-28T07:41:28.999Z</time></trkpt><trkpt lat="44.969572100934236" lon="8.549132990995837"><ele>116.5</ele><time>2026-03-28T07:41:29.999Z</time></trkpt><trkpt lat="44.96968951083488" lon="8.549156846802136"><ele>117.0</ele><time>2026-03-28T07:41:30.999Z</time></trkpt><trkpt lat="44.969804247081036" lon="8.549182610329455"><ele>117.0</ele><time>2026-03-28T07:41:31.999Z</time></trkpt><trkpt lat="44.96990197981532" lon="8.549197426196745"><ele>117.0</ele><time>2026-03-28T07:41:32.999Z</time></trkpt><trkpt lat="44.9700056439289" lon="8.549199250783575"><ele>117.0</ele><time>2026-03-28T07:41:33.999Z</time></trkpt><trkpt lat="44.97013325251058" lon="8.549162734332777"><ele>117.0</ele><time>2026-03-28T07:41:34.999Z</time></trkpt><trkpt lat="44.970267701238456" lon="8.549107759049441"><ele>118.33333333333334</ele><time>2026-03-28T07:41:35.999Z</time></trkpt><trkpt lat="44.970403200844785" lon="8.549044567534386"><ele>119.66666666666667</ele><time>2026-03-28T07:41:36.999Z</time></trkpt><trkpt lat="44.97057749856327" lon="8.548989313307844"><ele>121.0</ele><time>2026-03-28T07:41:37.999Z</time></trkpt><trkpt lat="44.97076793093761" lon="8.548901612207755"><ele>121.66666666666667</ele><time>2026-03-28T07:41:38.999Z</time></trkpt><trkpt lat="44.970947130314634" lon="8.548821381498804"><ele>122.33333333333334</ele><time>2026-03-28T07:41:39.999Z</time></trkpt><trkpt lat="44.971111292694054" lon="8.548750717211481"><ele>123.0</ele><time>2026-03-28T07:41:40.999Z</time></trkpt><trkpt lat="44.971281900909034" lon="8.548685107793627"><ele>120.66666666666666</ele><time>2026-03-28T07:41:41.999Z</time></trkpt><trkpt lat="44.97146746615888" lon="8.548619601678785"><ele>118.33333333333333</ele><time>2026-03-28T07:41:42.999Z</time></trkpt><trkpt lat="44.971633221472295" lon="8.548571762979568"><ele>116.0</ele><time>2026-03-28T07:41:43.999Z</time></trkpt><trkpt lat="44.971813689669695" lon="8.548537627239192"><ele>116.0</ele><time>2026-03-28T07:41:44.999Z</time></trkpt><trkpt lat="44.972001771936085" lon="8.548515295861126"><ele>116.0</ele><time>2026-03-28T07:41:45.999Z</time></trkpt><trkpt lat="44.97218780227805" lon="8.548503183819708"><ele>116.0</ele><time>2026-03-28T07:41:46.999Z</time></trkpt><trkpt lat="44.97238775287681" lon="8.548496949794306"><ele>117.0</ele><time>2026-03-28T07:41:47.999Z</time></trkpt><trkpt lat="44.97254560222824" lon="8.548489221847081"><ele>118.0</ele><time>2026-03-28T07:41:48.999Z</time></trkpt><trkpt lat="44.9727060968516" lon="8.54843785870707"><ele>119.0</ele><time>2026-03-28T07:41:49.999Z</time></trkpt><trkpt lat="44.972866606665974" lon="8.548366853956908"><ele>119.0</ele><time>2026-03-28T07:41:50.999Z</time></trkpt><trkpt lat="44.97304846588311" lon="8.548263316606995"><ele>119.0</ele><time>2026-03-28T07:41:51.999Z</time></trkpt><trkpt lat="44.973240594754614" lon="8.548162215562789"><ele>119.0</ele><time>2026-03-28T07:41:52.999Z</time></trkpt><trkpt lat="44.973367053344624" lon="8.54809908968751"><ele>119.0</ele><time>2026-03-28T07:41:53.999Z</time></trkpt><trkpt lat="44.973579927841946" lon="8.548006946243477"><ele>119.0</ele><time>2026-03-28T07:41:54.999Z</time></trkpt><trkpt lat="44.97373964988389" lon="8.547953633624251"><ele>119.0</ele><time>2026-03-28T07:41:55.999Z</time></trkpt><trkpt lat="44.97388708148553" lon="8.547923161141085"><ele>119.0</ele><time>2026-03-28T07:41:56.999Z</time></trkpt><trkpt lat="44.974024221098745" lon="8.54791315595969"><ele>119.0</ele><time>2026-03-28T07:41:57.999Z</time></trkpt><trkpt lat="44.97416551859529" lon="8.547908431749907"><ele>119.0</ele><time>2026-03-28T07:41:58.999Z</time></trkpt><trkpt lat="44.97436271408251" lon="8.547877209749272"><ele>118.33333333333333</ele><time>2026-03-28T07:41:59.999Z</time></trkpt><trkpt lat="44.97455837120329" lon="8.547857139925672"><ele>117.66666666666666</ele><time>2026-03-28T07:42:00.999Z</time></trkpt><trkpt lat="44.97479789364387" lon="8.54782273662964"><ele>117.0</ele><time>2026-03-28T07:42:01.999Z</time></trkpt><trkpt lat="44.97502921443851" lon="8.547787891958267"><ele>116.66666666666666</ele><time>2026-03-28T07:42:02.999Z</time></trkpt><trkpt lat="44.97520996594303" lon="8.547751212094552"><ele>116.33333333333333</ele><time>2026-03-28T07:42:03.999Z</time></trkpt><trkpt lat="44.97537258876046" lon="8.547725735956675"><ele>116.0</ele><time>2026-03-28T07:42:04.999Z</time></trkpt><trkpt lat="44.97551467651644" lon="8.54770070315526"><ele>116.0</ele><time>2026-03-28T07:42:05.999Z</time></trkpt><trkpt lat="44.97563557245442" lon="8.547678684130451"><ele>116.0</ele><time>2026-03-28T07:42:06.999Z</time></trkpt><trkpt lat="44.97575034550044" lon="8.547656309241491"><ele>116.0</ele><time>2026-03-28T07:42:07.999Z</time></trkpt><trkpt lat="44.975853369575816" lon="8.5476284143827"><ele>116.0</ele><time>2026-03-28T07:42:08.999Z</time></trkpt><trkpt lat="44.97594257299596" lon="8.54757379824629"><ele>116.0</ele><time>2026-03-28T07:42:09.999Z</time></trkpt><trkpt lat="44.97601680360502" lon="8.547493751975827"><ele>116.4</ele><time>2026-03-28T07:42:10.999Z</time></trkpt><trkpt lat="44.976085359076755" lon="8.547396026006517"><ele>116.8</ele><time>2026-03-28T07:42:11.999Z</time></trkpt><trkpt lat="44.97615987212334" lon="8.547278562482909"><ele>117.20000000000002</ele><time>2026-03-28T07:42:12.999Z</time></trkpt><trkpt lat="44.97622713792961" lon="8.547181726376769"><ele>117.60000000000001</ele><time>2026-03-28T07:42:13.999Z</time></trkpt><trkpt lat="44.976283982959366" lon="8.547108479844846"><ele>118.0</ele><time>2026-03-28T07:42:14.999Z</time></trkpt><trkpt lat="44.97636221646085" lon="8.547050271566857"><ele>118.0</ele><time>2026-03-28T07:42:16.999Z</time></trkpt><trkpt lat="44.97640740371602" lon="8.547172894884191"><ele>118.00000000000001</ele><time>2026-03-28T07:42:19.999Z</time></trkpt><trkpt lat="44.97648860364351" lon="8.547323181914887"><ele>118.00000000000001</ele><time>2026-03-28T07:42:21.999Z</time></trkpt><trkpt lat="44.97657469985488" lon="8.547483319191278"><ele>118.0</ele><time>2026-03-28T07:42:23.999Z</time></trkpt><trkpt lat="44.97661594750191" lon="8.547560116071647"><ele>118.0</ele><time>2026-03-28T07:42:24.999Z</time></trkpt><trkpt lat="44.97665989846794" lon="8.54763383995985"><ele>118.0</ele><time>2026-03-28T07:42:25.999Z</time></trkpt><trkpt lat="44.97665887367665" lon="8.547749479673753"><ele>118.00000000000001</ele><time>2026-03-28T07:42:28Z</time></trkpt><trkpt lat="44.97661927194698" lon="8.547874996704186"><ele>118.00000000000001</ele><time>2026-03-28T07:42:30Z</time></trkpt><trkpt lat="44.97665918427364" lon="8.548029336292078"><ele>118.0</ele><time>2026-03-28T07:42:32Z</time></trkpt><trkpt lat="44.976715551999824" lon="8.548070448747822"><ele>118.0</ele><time>2026-03-28T07:42:33Z</time></trkpt><trkpt lat="44.976837647251095" lon="8.548144740671495"><ele>117.60000000000001</ele><time>2026-03-28T07:42:35Z</time></trkpt><trkpt lat="44.976933697229406" lon="8.548222000949755"><ele>117.20000000000002</ele><time>2026-03-28T07:42:36Z</time></trkpt><trkpt lat="44.977020932209925" lon="8.548298560721893"><ele>116.8</ele><time>2026-03-28T07:42:37Z</time></trkpt><trkpt lat="44.97712163556113" lon="8.548411324299124"><ele>116.4</ele><time>2026-03-28T07:42:39Z</time></trkpt><trkpt lat="44.9771710913124" lon="8.5484807855512"><ele>116.0</ele><time>2026-03-28T07:42:41Z</time></trkpt><trkpt lat="44.977222966922255" lon="8.548570982084255"><ele>115.99999999999999</ele><time>2026-03-28T07:42:43Z</time></trkpt><trkpt lat="44.9772828513502" lon="8.548627421273501"><ele>116.0</ele><time>2026-03-28T07:42:44Z</time></trkpt><trkpt lat="44.97733945725051" lon="8.548701186757567"><ele>116.0</ele><time>2026-03-28T07:42:45Z</time></trkpt><trkpt lat="44.97737825916064" lon="8.548779106446936"><ele>116.0</ele><time>2026-03-28T07:42:46Z</time></trkpt><trkpt lat="44.97744441213459" lon="8.54883634858551"><ele>115.99999999999999</ele><time>2026-03-28T07:42:47Z</time></trkpt><trkpt lat="44.97750972421138" lon="8.548933350136354"><ele>116.0</ele><time>2026-03-28T07:42:48Z</time></trkpt><trkpt lat="44.97760051414406" lon="8.549055877242974"><ele>116.5</ele><time>2026-03-28T07:42:49Z</time></trkpt><trkpt lat="44.97768793311831" lon="8.549158416096969"><ele>117.0</ele><time>2026-03-28T07:42:50Z</time></trkpt><trkpt lat="44.9777785352397" lon="8.549269557188138"><ele>117.5</ele><time>2026-03-28T07:42:51Z</time></trkpt><trkpt lat="44.97786909012781" lon="8.549400177540974"><ele>118.0</ele><time>2026-03-28T07:42:52Z</time></trkpt><trkpt lat="44.9779746468005" lon="8.549504855349738"><ele>118.5</ele><time>2026-03-28T07:42:53Z</time></trkpt><trkpt lat="44.97808370718384" lon="8.549645725814408"><ele>119.0</ele><time>2026-03-28T07:42:54Z</time></trkpt><trkpt lat="44.97819507172253" lon="8.549781938149321"><ele>119.5</ele><time>2026-03-28T07:42:55Z</time></trkpt><trkpt lat="44.97829011870451" lon="8.549898700789386"><ele>120.0</ele><time>2026-03-28T07:42:56Z</time></trkpt><trkpt lat="44.978384612345494" lon="8.55003604033452"><ele>119.25</ele><time>2026-03-28T07:42:57Z</time></trkpt><trkpt lat="44.97847091348154" lon="8.550174027622537"><ele>118.5</ele><time>2026-03-28T07:42:58Z</time></trkpt><trkpt lat="44.97857509632147" lon="8.550286048674963"><ele>117.75</ele><time>2026-03-28T07:42:59Z</time></trkpt><trkpt lat="44.97867955452873" lon="8.550429561630729"><ele>117.0</ele><time>2026-03-28T07:43:00Z</time></trkpt><trkpt lat="44.97877290225814" lon="8.550560247597268"><ele>117.0</ele><time>2026-03-28T07:43:01Z</time></trkpt><trkpt lat="44.97888321634507" lon="8.550680842737945"><ele>116.99999999999999</ele><time>2026-03-28T07:43:02Z</time></trkpt><trkpt lat="44.978979605273516" lon="8.550796939554077"><ele>116.99999999999999</ele><time>2026-03-28T07:43:03Z</time></trkpt><trkpt lat="44.97906009368373" lon="8.55088406816061"><ele>117.0</ele><time>2026-03-28T07:43:04Z</time></trkpt><trkpt lat="44.9791159742224" lon="8.550956292406909"><ele>117.0</ele><time>2026-03-28T07:43:05Z</time></trkpt><trkpt lat="44.97920318364427" lon="8.551045077908762"><ele>116.75</ele><time>2026-03-28T07:43:06Z</time></trkpt><trkpt lat="44.979316953142735" lon="8.551168983323652"><ele>116.5</ele><time>2026-03-28T07:43:07Z</time></trkpt><trkpt lat="44.979433594575575" lon="8.551300391280911"><ele>116.25</ele><time>2026-03-28T07:43:08Z</time></trkpt><trkpt lat="44.979531255184696" lon="8.551430438604024"><ele>116.0</ele><time>2026-03-28T07:43:10Z</time></trkpt><trkpt lat="44.97963132958651" lon="8.551549259489493"><ele>117.5</ele><time>2026-03-28T07:43:10.999Z</time></trkpt><trkpt lat="44.979714160231396" lon="8.55165566395144"><ele>119.0</ele><time>2026-03-28T07:43:11.999Z</time></trkpt><trkpt lat="44.979802129918205" lon="8.551764513419643"><ele>120.5</ele><time>2026-03-28T07:43:12.999Z</time></trkpt><trkpt lat="44.979902011355186" lon="8.551865592795574"><ele>122.0</ele><time>2026-03-28T07:43:13.999Z</time></trkpt><trkpt lat="44.9799953459764" lon="8.551974698642052"><ele>121.6</ele><time>2026-03-28T07:43:14.999Z</time></trkpt><trkpt lat="44.980084233724746" lon="8.552078906966852"><ele>121.19999999999999</ele><time>2026-03-28T07:43:15.999Z</time></trkpt><trkpt lat="44.98015922521148" lon="8.552167242316553"><ele>120.8</ele><time>2026-03-28T07:43:16.999Z</time></trkpt><trkpt lat="44.98023286515612" lon="8.552257264227306"><ele>120.4</ele><time>2026-03-28T07:43:17.999Z</time></trkpt><trkpt lat="44.98029234945815" lon="8.552338481889892"><ele>120.0</ele><time>2026-03-28T07:43:18.999Z</time></trkpt><trkpt lat="44.9803468276724" lon="8.552422033883794"><ele>120.0</ele><time>2026-03-28T07:43:19.999Z</time></trkpt><trkpt lat="44.9803980134728" lon="8.552489622710624"><ele>120.0</ele><time>2026-03-28T07:43:21.999Z</time></trkpt><trkpt lat="44.980476623708384" lon="8.55244143228714"><ele>120.0</ele><time>2026-03-28T07:44:06.999Z</time></trkpt><trkpt lat="44.980521662789556" lon="8.552372669984045"><ele>120.0</ele><time>2026-03-28T07:44:07.999Z</time></trkpt><trkpt lat="44.98060240520275" lon="8.552324419938198"><ele>120.0</ele><time>2026-03-28T07:44:08.999Z</time></trkpt><trkpt lat="44.980665450644" lon="8.552242726198882"><ele>120.0</ele><time>2026-03-28T07:44:09.999Z</time></trkpt><trkpt lat="44.98073294722713" lon="8.55217250801468"><ele>120.0</ele><time>2026-03-28T07:44:10.999Z</time></trkpt><trkpt lat="44.98081718560442" lon="8.552091655049932"><ele>120.0</ele><time>2026-03-28T07:44:11.999Z</time></trkpt><trkpt lat="44.98090155549874" lon="8.552004669574487"><ele>120.0</ele><time>2026-03-28T07:44:12.999Z</time></trkpt><trkpt lat="44.980976889644694" lon="8.551929811997775"><ele>120.0</ele><time>2026-03-28T07:44:13.999Z</time></trkpt><trkpt lat="44.98104499088966" lon="8.551865302959447"><ele>120.0</ele><time>2026-03-28T07:44:14.999Z</time></trkpt><trkpt lat="44.981102370978164" lon="8.551797621364976"><ele>121.25</ele><time>2026-03-28T07:44:15.999Z</time></trkpt><trkpt lat="44.98118563754782" lon="8.551708799873662"><ele>122.5</ele><time>2026-03-28T07:44:17.999Z</time></trkpt><trkpt lat="44.98125886257101" lon="8.551656107429277"><ele>123.75</ele><time>2026-03-28T07:44:19.999Z</time></trkpt><trkpt lat="44.98136457480567" lon="8.551828732781395"><ele>125.0</ele><time>2026-03-28T07:44:22.999Z</time></trkpt><trkpt lat="44.981430919439795" lon="8.551948051722315"><ele>124.75</ele><time>2026-03-28T07:44:23.999Z</time></trkpt><trkpt lat="44.98151804441444" lon="8.552080614364014"><ele>124.5</ele><time>2026-03-28T07:44:24.999Z</time></trkpt><trkpt lat="44.98161700936729" lon="8.552230270210991"><ele>124.25</ele><time>2026-03-28T07:44:25.999Z</time></trkpt><trkpt lat="44.981717753851896" lon="8.55238925257211"><ele>124.0</ele><time>2026-03-28T07:44:26.999Z</time></trkpt><trkpt lat="44.98182241802826" lon="8.552568420735106"><ele>124.33333333333334</ele><time>2026-03-28T07:44:27.999Z</time></trkpt><trkpt lat="44.98193213051671" lon="8.55278712036809"><ele>124.66666666666666</ele><time>2026-03-28T07:44:28.999Z</time></trkpt><trkpt lat="44.98204059059277" lon="8.55301886753575"><ele>125.0</ele><time>2026-03-28T07:44:29.999Z</time></trkpt><trkpt lat="44.982136226533655" lon="8.553222246894821"><ele>125.0</ele><time>2026-03-28T07:44:30.999Z</time></trkpt><trkpt lat="44.98221718259279" lon="8.55341749973451"><ele>125.0</ele><time>2026-03-28T07:44:31.999Z</time></trkpt><trkpt lat="44.982301804331854" lon="8.553584079557318"><ele>125.0</ele><time>2026-03-28T07:44:32.999Z</time></trkpt><trkpt lat="44.98239668443864" lon="8.553740496644384"><ele>124.75</ele><time>2026-03-28T07:44:34Z</time></trkpt><trkpt lat="44.98249669666489" lon="8.553850961565516"><ele>124.5</ele><time>2026-03-28T07:44:35Z</time></trkpt><trkpt lat="44.982626998348806" lon="8.553938295633737"><ele>124.25</ele><time>2026-03-28T07:44:36Z</time></trkpt><trkpt lat="44.982784843606645" lon="8.553991900930777"><ele>124.0</ele><time>2026-03-28T07:44:37Z</time></trkpt><trkpt lat="44.98294993191229" lon="8.554042348652043"><ele>125.0</ele><time>2026-03-28T07:44:38Z</time></trkpt><trkpt lat="44.98311084051903" lon="8.554155770996827"><ele>126.0</ele><time>2026-03-28T07:44:39Z</time></trkpt><trkpt lat="44.98322973651993" lon="8.554260080199791"><ele>127.0</ele><time>2026-03-28T07:44:40Z</time></trkpt><trkpt lat="44.98335207657954" lon="8.554369346715498"><ele>127.0</ele><time>2026-03-28T07:44:41Z</time></trkpt><trkpt lat="44.98348883673168" lon="8.55449237580594"><ele>127.0</ele><time>2026-03-28T07:44:42Z</time></trkpt><trkpt lat="44.98365256001182" lon="8.554660839141395"><ele>127.0</ele><time>2026-03-28T07:44:43Z</time></trkpt><trkpt lat="44.983825733645034" lon="8.554849775481902"><ele>127.0</ele><time>2026-03-28T07:44:44Z</time></trkpt><trkpt lat="44.98398976875022" lon="8.555027137080002"><ele>127.0</ele><time>2026-03-28T07:44:45Z</time></trkpt><trkpt lat="44.984166493307875" lon="8.555184662632904"><ele>127.0</ele><time>2026-03-28T07:44:46Z</time></trkpt><trkpt lat="44.984350764533445" lon="8.555325114207351"><ele>126.66666666666667</ele><time>2026-03-28T07:44:47Z</time></trkpt><trkpt lat="44.98454776082571" lon="8.555454256915452"><ele>126.33333333333334</ele><time>2026-03-28T07:44:48Z</time></trkpt><trkpt lat="44.98471705285592" lon="8.55557680537722"><ele>126.0</ele><time>2026-03-28T07:44:49Z</time></trkpt><trkpt lat="44.984871745039854" lon="8.555682302357043"><ele>127.33333333333334</ele><time>2026-03-28T07:44:50Z</time></trkpt><trkpt lat="44.98501811199144" lon="8.555793499701565"><ele>128.66666666666669</ele><time>2026-03-28T07:44:51Z</time></trkpt><trkpt lat="44.98517388280965" lon="8.555900616788039"><ele>130.0</ele><time>2026-03-28T07:44:52Z</time></trkpt><trkpt lat="44.98530234633755" lon="8.555995235733768"><ele>130.0</ele><time>2026-03-28T07:44:53Z</time></trkpt><trkpt lat="44.98541353721079" lon="8.556081384352341"><ele>130.0</ele><time>2026-03-28T07:44:54Z</time></trkpt><trkpt lat="44.98551325823572" lon="8.556150425698021"><ele>130.0</ele><time>2026-03-28T07:44:55Z</time></trkpt><trkpt lat="44.985611002366106" lon="8.5562314809803"><ele>130.0</ele><time>2026-03-28T07:44:56Z</time></trkpt><trkpt lat="44.985691047773074" lon="8.556323780016792"><ele>130.25</ele><time>2026-03-28T07:44:57Z</time></trkpt><trkpt lat="44.98575676557995" lon="8.556402774874734"><ele>130.5</ele><time>2026-03-28T07:44:58Z</time></trkpt><trkpt lat="44.98581201623208" lon="8.556469085369866"><ele>130.75</ele><time>2026-03-28T07:44:59Z</time></trkpt><trkpt lat="44.986037327704366" lon="8.556272600546343"><ele>131.0</ele><time>2026-03-28T07:45:03Z</time></trkpt><trkpt lat="44.98607577365399" lon="8.556131263582243"><ele>131.5</ele><time>2026-03-28T07:45:05Z</time></trkpt><trkpt lat="44.986128314143926" lon="8.556023786443378"><ele>132.0</ele><time>2026-03-28T07:45:06Z</time></trkpt><trkpt lat="44.98615083471698" lon="8.55591440145512"><ele>132.5</ele><time>2026-03-28T07:45:07Z</time></trkpt><trkpt lat="44.98617213339178" lon="8.555790148490942"><ele>133.0</ele><time>2026-03-28T07:45:08Z</time></trkpt><trkpt lat="44.986188687019805" lon="8.555678492656897"><ele>133.5</ele><time>2026-03-28T07:45:09Z</time></trkpt><trkpt lat="44.986205718774" lon="8.55556039907549"><ele>134.0</ele><time>2026-03-28T07:45:10Z</time></trkpt><trkpt lat="44.986224523959386" lon="8.555412803489558"><ele>133.75</ele><time>2026-03-28T07:45:10.999Z</time></trkpt><trkpt lat="44.98624361441333" lon="8.555230930173646"><ele>133.5</ele><time>2026-03-28T07:45:11.999Z</time></trkpt><trkpt lat="44.98626626197269" lon="8.555023544870942"><ele>133.25</ele><time>2026-03-28T07:45:12.999Z</time></trkpt><trkpt lat="44.986294476656894" lon="8.554789078199493"><ele>133.0</ele><time>2026-03-28T07:45:13.999Z</time></trkpt><trkpt lat="44.98632859450079" lon="8.554549864242624"><ele>133.0</ele><time>2026-03-28T07:45:14.999Z</time></trkpt><trkpt lat="44.98637196458484" lon="8.55431245378514"><ele>133.0</ele><time>2026-03-28T07:45:15.999Z</time></trkpt><trkpt lat="44.986410345786794" lon="8.554113272631206"><ele>133.0</ele><time>2026-03-28T07:45:16.999Z</time></trkpt><trkpt lat="44.98645002661588" lon="8.553907346765447"><ele>133.0</ele><time>2026-03-28T07:45:17.999Z</time></trkpt><trkpt lat="44.986486858535045" lon="8.55371244987245"><ele>133.0</ele><time>2026-03-28T07:45:18.999Z</time></trkpt><trkpt lat="44.98652824466234" lon="8.553491167992927"><ele>133.0</ele><time>2026-03-28T07:45:19.999Z</time></trkpt><trkpt lat="44.986568429921796" lon="8.553272360629396"><ele>133.25</ele><time>2026-03-28T07:45:20.999Z</time></trkpt><trkpt lat="44.986609070983036" lon="8.553051071470804"><ele>133.5</ele><time>2026-03-28T07:45:21.999Z</time></trkpt><trkpt lat="44.986643611304274" lon="8.552863000702555"><ele>133.75</ele><time>2026-03-28T07:45:22.999Z</time></trkpt><trkpt lat="44.98667993624888" lon="8.552673267867544"><ele>134.0</ele><time>2026-03-28T07:45:23.999Z</time></trkpt><trkpt lat="44.98671053124137" lon="8.552524464478026"><ele>136.2</ele><time>2026-03-28T07:45:24.999Z</time></trkpt><trkpt lat="44.98674271043866" lon="8.552388655421492"><ele>138.4</ele><time>2026-03-28T07:45:25.999Z</time></trkpt><trkpt lat="44.986775511767476" lon="8.552269000667474"><ele>140.6</ele><time>2026-03-28T07:45:26.999Z</time></trkpt><trkpt lat="44.9868163704934" lon="8.55217572223898"><ele>142.8</ele><time>2026-03-28T07:45:27.999Z</time></trkpt><trkpt lat="44.986853356207796" lon="8.552080787265988"><ele>145.0</ele><time>2026-03-28T07:45:28.999Z</time></trkpt><trkpt lat="44.986930382154284" lon="8.551974962512586"><ele>145.0</ele><time>2026-03-28T07:45:29.999Z</time></trkpt><trkpt lat="44.98698697624777" lon="8.551841222880643"><ele>145.0</ele><time>2026-03-28T07:45:30.999Z</time></trkpt><trkpt lat="44.98702272993913" lon="8.551752652291187"><ele>145.0</ele><time>2026-03-28T07:45:31.999Z</time></trkpt><trkpt lat="44.98705420866908" lon="8.551675317231252"><ele>145.0</ele><time>2026-03-28T07:45:32.999Z</time></trkpt><trkpt lat="44.98708975268929" lon="8.551586622082647"><ele>145.0</ele><time>2026-03-28T07:45:33.999Z</time></trkpt><trkpt lat="44.98713325571358" lon="8.551478855693631"><ele>145.0</ele><time>2026-03-28T07:45:34.999Z</time></trkpt><trkpt lat="44.987279198358415" lon="8.551428060435972"><ele>145.0</ele><time>2026-03-28T07:45:35.999Z</time></trkpt><trkpt lat="44.98734197920165" lon="8.551352522645344"><ele>145.0</ele><time>2026-03-28T07:45:36.999Z</time></trkpt><trkpt lat="44.9874461060892" lon="8.551204209445492"><ele>145.0</ele><time>2026-03-28T07:45:38.999Z</time></trkpt><trkpt lat="44.987516622517404" lon="8.551091900787583"><ele>145.0</ele><time>2026-03-28T07:45:40.999Z</time></trkpt><trkpt lat="44.9876028039209" lon="8.550983166427049"><ele>146.16666666666669</ele><time>2026-03-28T07:45:42.999Z</time></trkpt><trkpt lat="44.98765946854881" lon="8.55091823761941"><ele>147.33333333333334</ele><time>2026-03-28T07:45:43.999Z</time></trkpt><trkpt lat="44.987719040757575" lon="8.550853850759268"><ele>148.5</ele><time>2026-03-28T07:45:44.999Z</time></trkpt><trkpt lat="44.98777489728328" lon="8.550792624805576"><ele>149.66666666666666</ele><time>2026-03-28T07:45:45.999Z</time></trkpt><trkpt lat="44.987834293047484" lon="8.550728795029608"><ele>150.83333333333331</ele><time>2026-03-28T07:45:46.999Z</time></trkpt><trkpt lat="44.98789891899411" lon="8.55065942634347"><ele>152.0</ele><time>2026-03-28T07:45:47.999Z</time></trkpt><trkpt lat="44.987964029220585" lon="8.550601832386167"><ele>152.0</ele><time>2026-03-28T07:45:48.999Z</time></trkpt><trkpt lat="44.98802658982317" lon="8.550539725854525"><ele>152.0</ele><time>2026-03-28T07:45:49.999Z</time></trkpt><trkpt lat="44.98809705213237" lon="8.550442261612606"><ele>152.0</ele><time>2026-03-28T07:45:51.999Z</time></trkpt><trkpt lat="44.988132996433755" lon="8.550368657583704"><ele>152.0</ele><time>2026-03-28T07:45:55.999Z</time></trkpt><trkpt lat="44.98817882851188" lon="8.550285794373046"><ele>152.0</ele><time>2026-03-28T07:47:29.999Z</time></trkpt><trkpt lat="44.98824448914591" lon="8.550191713942608"><ele>152.0</ele><time>2026-03-28T07:47:31.999Z</time></trkpt><trkpt lat="44.98828965675136" lon="8.550118809983074"><ele>151.66666666666666</ele><time>2026-03-28T07:47:32.999Z</time></trkpt><trkpt lat="44.98834052904415" lon="8.550040029402165"><ele>151.33333333333331</ele><time>2026-03-28T07:47:33.999Z</time></trkpt><trkpt lat="44.98842477608735" lon="8.549917583055118"><ele>151.0</ele><time>2026-03-28T07:47:35.999Z</time></trkpt><trkpt lat="44.98847106706667" lon="8.549837284413503"><ele>150.66666666666666</ele><time>2026-03-28T07:47:36.999Z</time></trkpt><trkpt lat="44.98851292210209" lon="8.54976605259187"><ele>150.33333333333334</ele><time>2026-03-28T07:47:37.999Z</time></trkpt><trkpt lat="44.988570541121945" lon="8.549678476422358"><ele>150.0</ele><time>2026-03-28T07:47:38.999Z</time></trkpt><trkpt lat="44.98864201740133" lon="8.54958920432643"><ele>150.0</ele><time>2026-03-28T07:47:39.999Z</time></trkpt><trkpt lat="44.98869316487597" lon="8.549529943527027"><ele>150.0</ele><time>2026-03-28T07:47:40.999Z</time></trkpt><trkpt lat="44.98876258968701" lon="8.549428562651187"><ele>150.0</ele><time>2026-03-28T07:47:42.999Z</time></trkpt><trkpt lat="44.98882874153556" lon="8.549350876420707"><ele>150.0</ele><time>2026-03-28T07:47:43.999Z</time></trkpt><trkpt lat="44.98890701027389" lon="8.54930228157268"><ele>150.0</ele><time>2026-03-28T07:47:45.999Z</time></trkpt><trkpt lat="44.9890436032612" lon="8.549280352590962"><ele>150.0</ele><time>2026-03-28T07:47:47.999Z</time></trkpt><trkpt lat="44.98913747151587" lon="8.549276775383008"><ele>150.0</ele><time>2026-03-28T07:47:48.999Z</time></trkpt><trkpt lat="44.989219593524915" lon="8.54929478161946"><ele>150.0</ele><time>2026-03-28T07:47:49.999Z</time></trkpt><trkpt lat="44.989333126546036" lon="8.549303581669024"><ele>150.0</ele><time>2026-03-28T07:47:50.999Z</time></trkpt><trkpt lat="44.98943949298534" lon="8.54933222990501"><ele>150.0</ele><time>2026-03-28T07:47:51.999Z</time></trkpt><trkpt lat="44.98953566988138" lon="8.549321891303457"><ele>151.4</ele><time>2026-03-28T07:47:52.999Z</time></trkpt><trkpt lat="44.98960672160856" lon="8.549332026364613"><ele>152.8</ele><time>2026-03-28T07:47:53.999Z</time></trkpt><trkpt lat="44.98967611876681" lon="8.549271574556379"><ele>154.2</ele><time>2026-03-28T07:47:54.999Z</time></trkpt><trkpt lat="44.98976880732135" lon="8.549200654092475"><ele>155.6</ele><time>2026-03-28T07:47:55.999Z</time></trkpt><trkpt lat="44.98987731298658" lon="8.549182130827308"><ele>157.0</ele><time>2026-03-28T07:47:56.999Z</time></trkpt><trkpt lat="44.989968480255285" lon="8.54917955258058"><ele>158.83333333333334</ele><time>2026-03-28T07:47:57.999Z</time></trkpt><trkpt lat="44.9900525872497" lon="8.54916965863911"><ele>160.66666666666669</ele><time>2026-03-28T07:47:58.999Z</time></trkpt><trkpt lat="44.99013671557355" lon="8.549155902903113"><ele>162.5</ele><time>2026-03-28T07:47:59.999Z</time></trkpt><trkpt lat="44.990225117263506" lon="8.54910139228741"><ele>164.33333333333334</ele><time>2026-03-28T07:48:00.999Z</time></trkpt><trkpt lat="44.99030128970243" lon="8.549023455727461"><ele>166.16666666666666</ele><time>2026-03-28T07:48:01.999Z</time></trkpt><trkpt lat="44.99038272462337" lon="8.548970142075403"><ele>168.0</ele><time>2026-03-28T07:48:02.999Z</time></trkpt><trkpt lat="44.9904545589692" lon="8.548947846555931"><ele>168.0</ele><time>2026-03-28T07:48:03.999Z</time></trkpt><trkpt lat="44.99052380066289" lon="8.548922592956135"><ele>168.0</ele><time>2026-03-28T07:48:04.999Z</time></trkpt><trkpt lat="44.99061477493144" lon="8.548909225749208"><ele>168.0</ele><time>2026-03-28T07:48:05.999Z</time></trkpt><trkpt lat="44.99072294960852" lon="8.548899114788004"><ele>168.0</ele><time>2026-03-28T07:48:06.999Z</time></trkpt><trkpt lat="44.99086454491384" lon="8.548871937638475"><ele>168.0</ele><time>2026-03-28T07:48:07.999Z</time></trkpt><trkpt lat="44.99099721554646" lon="8.548864682177939"><ele>168.2</ele><time>2026-03-28T07:48:08.999Z</time></trkpt><trkpt lat="44.99113662628731" lon="8.548920978518177"><ele>168.4</ele><time>2026-03-28T07:48:10.999Z</time></trkpt><trkpt lat="44.991210255468054" lon="8.54891825478659"><ele>168.6</ele><time>2026-03-28T07:48:11.999Z</time></trkpt><trkpt lat="44.99130233491142" lon="8.548919030293254"><ele>168.79999999999998</ele><time>2026-03-28T07:48:12.999Z</time></trkpt><trkpt lat="44.99140267256318" lon="8.548914274787775"><ele>169.0</ele><time>2026-03-28T07:48:13.999Z</time></trkpt><trkpt lat="44.99148611177022" lon="8.548899886324195"><ele>169.0</ele><time>2026-03-28T07:48:14.999Z</time></trkpt><trkpt lat="44.9915837776104" lon="8.548887142526823"><ele>169.0</ele><time>2026-03-28T07:48:15.999Z</time></trkpt><trkpt lat="44.9916563477552" lon="8.548873318302508"><ele>169.0</ele><time>2026-03-28T07:48:16.999Z</time></trkpt><trkpt lat="44.99173932004272" lon="8.548857980643504"><ele>169.0</ele><time>2026-03-28T07:48:17.999Z</time></trkpt><trkpt lat="44.99180127640382" lon="8.54883843877373"><ele>169.0</ele><time>2026-03-28T07:48:18.999Z</time></trkpt><trkpt lat="44.99187106027133" lon="8.548795271377426"><ele>169.0</ele><time>2026-03-28T07:48:19.999Z</time></trkpt><trkpt lat="44.99194832425484" lon="8.548754405366294"><ele>168.79999999999998</ele><time>2026-03-28T07:48:20.999Z</time></trkpt><trkpt lat="44.99201865388246" lon="8.548731010326499"><ele>168.6</ele><time>2026-03-28T07:48:21.999Z</time></trkpt><trkpt lat="44.99211117613616" lon="8.548702761018644"><ele>168.4</ele><time>2026-03-28T07:48:22.999Z</time></trkpt><trkpt lat="44.992193998545844" lon="8.548664617562824"><ele>168.2</ele><time>2026-03-28T07:48:23.999Z</time></trkpt><trkpt lat="44.99230920271042" lon="8.548617851474399"><ele>168.0</ele><time>2026-03-28T07:48:25.999Z</time></trkpt><trkpt lat="44.99239189403025" lon="8.548590930907336"><ele>168.0</ele><time>2026-03-28T07:48:26.999Z</time></trkpt><trkpt lat="44.99247235561311" lon="8.548562481767119"><ele>168.0</ele><time>2026-03-28T07:48:27.999Z</time></trkpt><trkpt lat="44.992546897891174" lon="8.548541769274644"><ele>168.0</ele><time>2026-03-28T07:48:28.999Z</time></trkpt><trkpt lat="44.992629485157394" lon="8.54850842450721"><ele>168.0</ele><time>2026-03-28T07:48:29.999Z</time></trkpt><trkpt lat="44.992703183230226" lon="8.548480379265804"><ele>168.0</ele><time>2026-03-28T07:48:30.999Z</time></trkpt><trkpt lat="44.992768404686146" lon="8.548456166125442"><ele>168.0</ele><time>2026-03-28T07:55:07Z</time></trkpt><trkpt lat="44.99284572192949" lon="8.548459248686253"><ele>169.60000000000002</ele><time>2026-03-28T07:55:09Z</time></trkpt><trkpt lat="44.99292243147269" lon="8.548442632310278"><ele>171.20000000000002</ele><time>2026-03-28T07:55:12Z</time></trkpt><trkpt lat="44.99301765607502" lon="8.548409322865675"><ele>172.8</ele><time>2026-03-28T07:55:14Z</time></trkpt><trkpt lat="44.99314341235562" lon="8.548400635474794"><ele>174.4</ele><time>2026-03-28T07:55:16Z</time></trkpt><trkpt lat="44.993219043976914" lon="8.548393847634424"><ele>176.0</ele><time>2026-03-28T07:55:17Z</time></trkpt><trkpt lat="44.99332106363254" lon="8.548351977665789"><ele>178.20000000000002</ele><time>2026-03-28T07:55:19Z</time></trkpt><trkpt lat="44.99338980672064" lon="8.548331190563864"><ele>180.4</ele><time>2026-03-28T07:55:20Z</time></trkpt><trkpt lat="44.993523013230636" lon="8.548270511839812"><ele>182.6</ele><time>2026-03-28T07:55:22Z</time></trkpt><trkpt lat="44.993588466994865" lon="8.548240939715672"><ele>184.8</ele><time>2026-03-28T07:55:23Z</time></trkpt><trkpt lat="44.99367960021276" lon="8.548205603541053"><ele>187.0</ele><time>2026-03-28T07:55:24Z</time></trkpt><trkpt lat="44.99376040182467" lon="8.548156863999493"><ele>187.0</ele><time>2026-03-28T07:55:25Z</time></trkpt><trkpt lat="44.993837676944324" lon="8.54813319565691"><ele>187.0</ele><time>2026-03-28T07:55:26Z</time></trkpt><trkpt lat="44.99391427116768" lon="8.548099745676927"><ele>187.0</ele><time>2026-03-28T07:55:27Z</time></trkpt><trkpt lat="44.993982121925484" lon="8.548054862113775"><ele>187.0</ele><time>2026-03-28T07:55:28Z</time></trkpt><trkpt lat="44.99405870282796" lon="8.547989462929708"><ele>187.0</ele><time>2026-03-28T07:55:29Z</time></trkpt><trkpt lat="44.99418660134873" lon="8.548008524457757"><ele>189.39999999999998</ele><time>2026-03-28T07:55:31Z</time></trkpt><trkpt lat="44.99425686600316" lon="8.547989371057234"><ele>191.79999999999998</ele><time>2026-03-28T07:55:32Z</time></trkpt><trkpt lat="44.99433215682898" lon="8.547975802664132"><ele>194.2</ele><time>2026-03-28T07:55:33Z</time></trkpt><trkpt lat="44.99440708278206" lon="8.547957117291132"><ele>196.6</ele><time>2026-03-28T07:55:34Z</time></trkpt><trkpt lat="44.9945079672408" lon="8.54793408994544"><ele>199.0</ele><time>2026-03-28T07:55:36Z</time></trkpt><trkpt lat="44.99465211418189" lon="8.54789241781909"><ele>199.16666666666666</ele><time>2026-03-28T07:55:38Z</time></trkpt><trkpt lat="44.994743057173785" lon="8.547860572219282"><ele>199.33333333333331</ele><time>2026-03-28T07:55:39Z</time></trkpt><trkpt lat="44.99482230259584" lon="8.547826525308583"><ele>199.5</ele><time>2026-03-28T07:55:40Z</time></trkpt><trkpt lat="44.99488643019375" lon="8.547798160118791"><ele>199.66666666666669</ele><time>2026-03-28T07:55:41Z</time></trkpt><trkpt lat="44.99496580491272" lon="8.547779532322194"><ele>199.83333333333334</ele><time>2026-03-28T07:55:42Z</time></trkpt><trkpt lat="44.99504743439999" lon="8.5477654755842"><ele>200.0</ele><time>2026-03-28T07:55:43Z</time></trkpt><trkpt lat="44.995130385781756" lon="8.547756252064646"><ele>202.66666666666669</ele><time>2026-03-28T07:55:44Z</time></trkpt><trkpt lat="44.99522091868586" lon="8.547746336721852"><ele>205.33333333333334</ele><time>2026-03-28T07:55:45Z</time></trkpt><trkpt lat="44.995306249861564" lon="8.54773593295711"><ele>208.0</ele><time>2026-03-28T07:55:46Z</time></trkpt><trkpt lat="44.995387765482405" lon="8.547727852834411"><ele>210.66666666666669</ele><time>2026-03-28T07:55:47Z</time></trkpt><trkpt lat="44.995474735283985" lon="8.547713677969618"><ele>213.33333333333334</ele><time>2026-03-28T07:55:48Z</time></trkpt><trkpt lat="44.9955640712438" lon="8.547690244281577"><ele>216.0</ele><time>2026-03-28T07:55:48.999Z</time></trkpt><trkpt lat="44.99564957262512" lon="8.547674653237584"><ele>216.0</ele><time>2026-03-28T07:55:49.999Z</time></trkpt><trkpt lat="44.99572536438086" lon="8.547665349246122"><ele>216.0</ele><time>2026-03-28T07:55:50.999Z</time></trkpt><trkpt lat="44.99581296210816" lon="8.547650123198599"><ele>216.0</ele><time>2026-03-28T07:55:51.999Z</time></trkpt><trkpt lat="44.99589844428741" lon="8.547627280744178"><ele>216.0</ele><time>2026-03-28T07:55:52.999Z</time></trkpt><trkpt lat="44.99597885626228" lon="8.54761633118538"><ele>216.0</ele><time>2026-03-28T07:55:53.999Z</time></trkpt><trkpt lat="44.99605210286881" lon="8.54759933661705"><ele>216.0</ele><time>2026-03-28T07:55:54.999Z</time></trkpt><trkpt lat="44.996152070269446" lon="8.547625009676056"><ele>217.16666666666666</ele><time>2026-03-28T07:55:56.999Z</time></trkpt><trkpt lat="44.996205624723544" lon="8.54776793676387"><ele>218.33333333333331</ele><time>2026-03-28T07:55:58.999Z</time></trkpt><trkpt lat="44.99620952250538" lon="8.547864208782432"><ele>219.5</ele><time>2026-03-28T07:55:59.999Z</time></trkpt><trkpt lat="44.9962069859432" lon="8.547965386135715"><ele>220.66666666666666</ele><time>2026-03-28T07:56:00.999Z</time></trkpt><trkpt lat="44.996247707286244" lon="8.548035553062599"><ele>221.83333333333331</ele><time>2026-03-28T07:56:30.999Z</time></trkpt><trkpt lat="44.996294367233325" lon="8.547937966588515"><ele>223.0</ele><time>2026-03-28T07:56:33.999Z</time></trkpt><trkpt lat="44.99629346571131" lon="8.54782432822659"><ele>223.33333333333331</ele><time>2026-03-28T07:56:34.999Z</time></trkpt><trkpt lat="44.996298909716494" lon="8.547704721122104"><ele>223.66666666666666</ele><time>2026-03-28T07:56:35.999Z</time></trkpt><trkpt lat="44.996303726483" lon="8.547582280935458"><ele>224.0</ele><time>2026-03-28T07:56:36.999Z</time></trkpt><trkpt lat="44.99629464525272" lon="8.547470527348095"><ele>224.33333333333331</ele><time>2026-03-28T07:56:37.999Z</time></trkpt><trkpt lat="44.996307587672874" lon="8.547367936700477"><ele>224.66666666666666</ele><time>2026-03-28T07:56:38.999Z</time></trkpt><trkpt lat="44.99635436749251" lon="8.547234549573583"><ele>225.0</ele><time>2026-03-28T07:56:40.999Z</time></trkpt><trkpt lat="44.996471058449984" lon="8.547159337823809"><ele>224.0</ele><time>2026-03-28T07:56:41.999Z</time></trkpt><trkpt lat="44.99651785121021" lon="8.547042555721838"><ele>223.0</ele><time>2026-03-28T07:56:42.999Z</time></trkpt><trkpt lat="44.99657943042814" lon="8.546895795554038"><ele>222.0</ele><time>2026-03-28T07:56:43.999Z</time></trkpt><trkpt lat="44.996637818092886" lon="8.546731117677188"><ele>221.0</ele><time>2026-03-28T07:56:44.999Z</time></trkpt><trkpt lat="44.99669746922761" lon="8.546530927589046"><ele>218.25</ele><time>2026-03-28T07:56:45.999Z</time></trkpt><trkpt lat="44.99677118131769" lon="8.546327139228916"><ele>215.5</ele><time>2026-03-28T07:56:46.999Z</time></trkpt><trkpt lat="44.996824373314155" lon="8.546156041994479"><ele>212.75</ele><time>2026-03-28T07:56:47.999Z</time></trkpt><trkpt lat="44.99687432110648" lon="8.545999067204772"><ele>210.0</ele><time>2026-03-28T07:56:48.999Z</time></trkpt><trkpt lat="44.99693382715231" lon="8.545818391170933"><ele>210.0</ele><time>2026-03-28T07:56:49.999Z</time></trkpt><trkpt lat="44.99699389589808" lon="8.545652985286633"><ele>210.0</ele><time>2026-03-28T07:56:50.999Z</time></trkpt><trkpt lat="44.99706031020247" lon="8.545503787289102"><ele>210.0</ele><time>2026-03-28T07:56:51.999Z</time></trkpt><trkpt lat="44.99713791970599" lon="8.545351755726472"><ele>210.0</ele><time>2026-03-28T07:56:52.999Z</time></trkpt><trkpt lat="44.99722088944149" lon="8.545160127491888"><ele>209.75</ele><time>2026-03-28T07:56:53.999Z</time></trkpt><trkpt lat="44.997302299305275" lon="8.545015079681471"><ele>209.5</ele><time>2026-03-28T07:56:54.999Z</time></trkpt><trkpt lat="44.997385616531055" lon="8.544862070117953"><ele>209.25</ele><time>2026-03-28T07:56:55.999Z</time></trkpt><trkpt lat="44.99746465693784" lon="8.544720764079855"><ele>209.0</ele><time>2026-03-28T07:56:56.999Z</time></trkpt><trkpt lat="44.99753675057598" lon="8.544586724977577"><ele>207.0</ele><time>2026-03-28T07:56:57.999Z</time></trkpt><trkpt lat="44.99760485186998" lon="8.544442037464242"><ele>205.0</ele><time>2026-03-28T07:56:58.999Z</time></trkpt><trkpt lat="44.99765742345193" lon="8.544268793314723"><ele>203.0</ele><time>2026-03-28T07:56:59.999Z</time></trkpt><trkpt lat="44.99771321389628" lon="8.5440786615873"><ele>201.0</ele><time>2026-03-28T07:57:00.999Z</time></trkpt><trkpt lat="44.99778137949834" lon="8.54391014106978"><ele>201.0</ele><time>2026-03-28T07:57:01.999Z</time></trkpt><trkpt lat="44.997820508289166" lon="8.543747536141506"><ele>201.0</ele><time>2026-03-28T07:57:02.999Z</time></trkpt><trkpt lat="44.99784026014116" lon="8.543578150978055"><ele>201.0</ele><time>2026-03-28T07:57:03.999Z</time></trkpt><trkpt lat="44.99786815581277" lon="8.543377889236924"><ele>201.0</ele><time>2026-03-28T07:57:04.999Z</time></trkpt><trkpt lat="44.99787892891674" lon="8.543174937074223"><ele>200.75</ele><time>2026-03-28T07:57:05.999Z</time></trkpt><trkpt lat="44.99788063736416" lon="8.542998122679112"><ele>200.5</ele><time>2026-03-28T07:57:07Z</time></trkpt><trkpt lat="44.997860739679936" lon="8.542838180167735"><ele>200.25</ele><time>2026-03-28T07:57:08Z</time></trkpt><trkpt lat="44.99783694604459" lon="8.542673649125584"><ele>200.0</ele><time>2026-03-28T07:57:09Z</time></trkpt><trkpt lat="44.997807970682" lon="8.542485455360687"><ele>198.33333333333334</ele><time>2026-03-28T07:57:10Z</time></trkpt><trkpt lat="44.99776805775831" lon="8.542279915551205"><ele>196.66666666666669</ele><time>2026-03-28T07:57:11Z</time></trkpt><trkpt lat="44.99772456537513" lon="8.542054994070732"><ele>195.0</ele><time>2026-03-28T07:57:12Z</time></trkpt><trkpt lat="44.99767355246031" lon="8.541848699566252"><ele>194.5</ele><time>2026-03-28T07:57:13Z</time></trkpt><trkpt lat="44.99761998478191" lon="8.541639624378341"><ele>194.0</ele><time>2026-03-28T07:57:14Z</time></trkpt><trkpt lat="44.9975727411574" lon="8.541459793185432"><ele>193.5</ele><time>2026-03-28T07:57:15Z</time></trkpt><trkpt lat="44.99752473393736" lon="8.541277181498723"><ele>193.0</ele><time>2026-03-28T07:57:16Z</time></trkpt><trkpt lat="44.99748546310154" lon="8.541108107506508"><ele>194.25</ele><time>2026-03-28T07:57:17Z</time></trkpt><trkpt lat="44.997451684828285" lon="8.540952294746834"><ele>195.5</ele><time>2026-03-28T07:57:18Z</time></trkpt><trkpt lat="44.997407116278175" lon="8.54079005535874"><ele>196.75</ele><time>2026-03-28T07:57:19Z</time></trkpt><trkpt lat="44.997385231737546" lon="8.540634630807508"><ele>198.0</ele><time>2026-03-28T07:57:20Z</time></trkpt><trkpt lat="44.99736483570456" lon="8.540478354819047"><ele>198.0</ele><time>2026-03-28T07:57:21Z</time></trkpt><trkpt lat="44.99737464258942" lon="8.540352177726486"><ele>198.0</ele><time>2026-03-28T07:57:22Z</time></trkpt><trkpt lat="44.997390087420534" lon="8.54022511583294"><ele>198.0</ele><time>2026-03-28T07:57:23Z</time></trkpt><trkpt lat="44.99743518946966" lon="8.540071554418098"><ele>198.0</ele><time>2026-03-28T07:57:24Z</time></trkpt><trkpt lat="44.997499889585484" lon="8.53990773441672"><ele>198.0</ele><time>2026-03-28T07:57:25Z</time></trkpt><trkpt lat="44.997579206620784" lon="8.539741928198628"><ele>196.0</ele><time>2026-03-28T07:57:26Z</time></trkpt><trkpt lat="44.99769117629511" lon="8.539551072480283"><ele>194.0</ele><time>2026-03-28T07:57:27Z</time></trkpt><trkpt lat="44.99779793614806" lon="8.539316644988629"><ele>192.0</ele><time>2026-03-28T07:57:28Z</time></trkpt><trkpt lat="44.99789852708442" lon="8.53912720541485"><ele>192.0</ele><time>2026-03-28T07:57:29Z</time></trkpt><trkpt lat="44.997985839037355" lon="8.538914131198204"><ele>192.0</ele><time>2026-03-28T07:57:30Z</time></trkpt><trkpt lat="44.99810394593329" lon="8.538715133710758"><ele>192.0</ele><time>2026-03-28T07:57:31Z</time></trkpt><trkpt lat="44.99820409375346" lon="8.538516351116424"><ele>192.0</ele><time>2026-03-28T07:57:32Z</time></trkpt><trkpt lat="44.99829177493854" lon="8.538321152216598"><ele>192.0</ele><time>2026-03-28T07:57:33Z</time></trkpt><trkpt lat="44.998373303033546" lon="8.5381584614189"><ele>192.0</ele><time>2026-03-28T07:57:34Z</time></trkpt><trkpt lat="44.99846716545411" lon="8.53801034482251"><ele>192.0</ele><time>2026-03-28T07:57:35Z</time></trkpt><trkpt lat="44.998542414029934" lon="8.537876108253736"><ele>193.0</ele><time>2026-03-28T07:57:36Z</time></trkpt><trkpt lat="44.998631842212845" lon="8.537765272298103"><ele>194.0</ele><time>2026-03-28T07:57:37Z</time></trkpt><trkpt lat="44.998770771915225" lon="8.537656020785013"><ele>195.0</ele><time>2026-03-28T07:57:38Z</time></trkpt><trkpt lat="44.998934791714795" lon="8.537525729889538"><ele>195.0</ele><time>2026-03-28T07:57:39Z</time></trkpt><trkpt lat="44.9990375098408" lon="8.537405266186484"><ele>195.0</ele><time>2026-03-28T07:57:40Z</time></trkpt><trkpt lat="44.99912036999097" lon="8.537323003323214"><ele>195.0</ele><time>2026-03-28T07:57:41Z</time></trkpt><trkpt lat="44.99918942372938" lon="8.537286914796518"><ele>195.0</ele><time>2026-03-28T07:57:42Z</time></trkpt><trkpt lat="44.9992519212965" lon="8.537230361727747"><ele>195.0</ele><time>2026-03-28T07:57:43Z</time></trkpt><trkpt lat="44.99930681353874" lon="8.53718069059871"><ele>195.0</ele><time>2026-03-28T07:57:44Z</time></trkpt><trkpt lat="44.99936467196106" lon="8.537131545468894"><ele>194.0</ele><time>2026-03-28T07:57:45Z</time></trkpt><trkpt lat="44.99946481088279" lon="8.53702505940251"><ele>193.0</ele><time>2026-03-28T07:57:47Z</time></trkpt><trkpt lat="44.99956763477369" lon="8.53696747400253"><ele>192.0</ele><time>2026-03-28T07:57:49Z</time></trkpt><trkpt lat="44.99965142129001" lon="8.536878720834766"><ele>191.0</ele><time>2026-03-28T07:57:51Z</time></trkpt><trkpt lat="44.99975634323558" lon="8.5368239423383"><ele>191.0</ele><time>2026-03-28T07:57:53Z</time></trkpt><trkpt lat="44.999825029458506" lon="8.536768150838842"><ele>191.0</ele><time>2026-03-28T07:57:54Z</time></trkpt><trkpt lat="44.99989604956605" lon="8.536682892918309"><ele>191.0</ele><time>2026-03-28T07:57:55.999Z</time></trkpt><trkpt lat="45.00000499445116" lon="8.536588909032814"><ele>191.0</ele><time>2026-03-28T07:57:57.999Z</time></trkpt><trkpt lat="45.00005619136444" lon="8.536533177564213"><ele>191.0</ele><time>2026-03-28T07:57:58.999Z</time></trkpt><trkpt lat="45.000138224132726" lon="8.536437930342641"><ele>191.0</ele><time>2026-03-28T07:58:00.999Z</time></trkpt><trkpt lat="45.00022957557275" lon="8.53635748892178"><ele>191.0</ele><time>2026-03-28T07:58:02.999Z</time></trkpt><trkpt lat="45.00027414017853" lon="8.53627177067152"><ele>191.0</ele><time>2026-03-28T07:58:03.999Z</time></trkpt><trkpt lat="45.00034433700914" lon="8.53618689311172"><ele>191.0</ele><time>2026-03-28T07:58:04.999Z</time></trkpt><trkpt lat="45.00041043732922" lon="8.536097644739508"><ele>191.0</ele><time>2026-03-28T07:58:05.999Z</time></trkpt><trkpt lat="45.00047762297729" lon="8.536007815989151"><ele>190.25</ele><time>2026-03-28T07:58:06.999Z</time></trkpt><trkpt lat="45.000546085396024" lon="8.535908897212854"><ele>189.5</ele><time>2026-03-28T07:58:07.999Z</time></trkpt><trkpt lat="45.00063490249109" lon="8.535819312446169"><ele>188.75</ele><time>2026-03-28T07:58:08.999Z</time></trkpt><trkpt lat="45.00072131710708" lon="8.535704994393313"><ele>188.0</ele><time>2026-03-28T07:58:09.999Z</time></trkpt><trkpt lat="45.0008140056943" lon="8.535584182541264"><ele>188.0</ele><time>2026-03-28T07:58:10.999Z</time></trkpt><trkpt lat="45.000885794547756" lon="8.535463331544141"><ele>188.0</ele><time>2026-03-28T07:58:11.999Z</time></trkpt><trkpt lat="45.0009938901568" lon="8.535360860714121"><ele>188.0</ele><time>2026-03-28T07:58:12.999Z</time></trkpt><trkpt lat="45.001119576869414" lon="8.535163324449321"><ele>188.0</ele><time>2026-03-28T07:58:13.999Z</time></trkpt><trkpt lat="45.00122264820132" lon="8.535006562795232"><ele>188.0</ele><time>2026-03-28T07:58:14.999Z</time></trkpt><trkpt lat="45.001300112444575" lon="8.53488300489434"><ele>188.0</ele><time>2026-03-28T07:58:15.999Z</time></trkpt><trkpt lat="45.00137641599892" lon="8.534797975500313"><ele>188.0</ele><time>2026-03-28T07:58:16.999Z</time></trkpt><trkpt lat="45.001429232131244" lon="8.534719126984829"><ele>188.0</ele><time>2026-03-28T07:58:17.999Z</time></trkpt><trkpt lat="45.00147334552896" lon="8.534647964868281"><ele>188.0</ele><time>2026-03-28T07:58:18.999Z</time></trkpt><trkpt lat="45.00154006299164" lon="8.534513504022076"><ele>187.83333333333331</ele><time>2026-03-28T07:58:20.999Z</time></trkpt><trkpt lat="45.0015833081337" lon="8.534398788268227"><ele>187.66666666666666</ele><time>2026-03-28T07:58:21.999Z</time></trkpt><trkpt lat="45.00160840661555" lon="8.534278252438703"><ele>187.5</ele><time>2026-03-28T07:58:22.999Z</time></trkpt><trkpt lat="45.00163722626983" lon="8.534194607243396"><ele>187.33333333333334</ele><time>2026-03-28T07:58:23.999Z</time></trkpt><trkpt lat="45.00167250246922" lon="8.534080449327535"><ele>187.16666666666669</ele><time>2026-03-28T07:58:24.999Z</time></trkpt><trkpt lat="45.001703862500705" lon="8.533961321446625"><ele>187.0</ele><time>2026-03-28T07:58:25.999Z</time></trkpt><trkpt lat="45.00172836281209" lon="8.533856580057863"><ele>188.0</ele><time>2026-03-28T07:58:26.999Z</time></trkpt><trkpt lat="45.001746921613346" lon="8.533736594616922"><ele>189.0</ele><time>2026-03-28T07:58:27.999Z</time></trkpt><trkpt lat="45.001757863252266" lon="8.53359797476672"><ele>190.0</ele><time>2026-03-28T07:58:28.999Z</time></trkpt><trkpt lat="45.00177005593287" lon="8.533452643301015"><ele>191.0</ele><time>2026-03-28T07:58:29.999Z</time></trkpt><trkpt lat="45.00177921166553" lon="8.53335291759678"><ele>191.99999999999997</ele><time>2026-03-28T07:58:30.999Z</time></trkpt><trkpt lat="45.00179003158964" lon="8.533257342581402"><ele>193.0</ele><time>2026-03-28T07:58:31.999Z</time></trkpt><trkpt lat="45.00179630516514" lon="8.533167419260947"><ele>193.2</ele><time>2026-03-28T07:58:32.999Z</time></trkpt><trkpt lat="45.001797846477444" lon="8.53300570869108"><ele>193.4</ele><time>2026-03-28T07:58:34.999Z</time></trkpt><trkpt lat="45.001809577686714" lon="8.532854218596839"><ele>193.6</ele><time>2026-03-28T07:58:37.999Z</time></trkpt><trkpt lat="45.00180885721433" lon="8.532745826450745"><ele>193.79999999999998</ele><time>2026-03-28T07:58:39.999Z</time></trkpt><trkpt lat="45.00171516290425" lon="8.532805619607107"><ele>194.0</ele><time>2026-03-28T07:58:46.999Z</time></trkpt><trkpt lat="45.0017766440694" lon="8.532917495256127"><ele>194.00000000000003</ele><time>2026-03-28T07:58:48.999Z</time></trkpt><trkpt lat="45.00179981054502" lon="8.533084834874447"><ele>194.0</ele><time>2026-03-28T07:58:50.999Z</time></trkpt><trkpt lat="45.00178948185053" lon="8.533196678221366"><ele>194.0</ele><time>2026-03-28T07:58:51.999Z</time></trkpt><trkpt lat="45.00178214450581" lon="8.5333220587554"><ele>194.0</ele><time>2026-03-28T07:58:52.999Z</time></trkpt><trkpt lat="45.0017744178321" lon="8.533426737000621"><ele>194.00000000000003</ele><time>2026-03-28T07:58:53.999Z</time></trkpt><trkpt lat="45.00177968896786" lon="8.533543037471135"><ele>194.0</ele><time>2026-03-28T07:58:55.999Z</time></trkpt><trkpt lat="45.00181008327125" lon="8.533632844031224"><ele>193.79999999999998</ele><time>2026-03-28T07:58:57.999Z</time></trkpt><trkpt lat="45.00189240993223" lon="8.533731352344487"><ele>193.6</ele><time>2026-03-28T07:58:59.999Z</time></trkpt><trkpt lat="45.00197394818037" lon="8.53383753571326"><ele>193.4</ele><time>2026-03-28T07:59:01.999Z</time></trkpt><trkpt lat="45.00205049028697" lon="8.533945704784216"><ele>193.2</ele><time>2026-03-28T07:59:03.999Z</time></trkpt><trkpt lat="45.00212563825321" lon="8.533994764066916"><ele>193.0</ele><time>2026-03-28T07:59:05.999Z</time></trkpt><trkpt lat="45.00219230824047" lon="8.533978135061071"><ele>193.0</ele><time>2026-03-28T07:59:08.999Z</time></trkpt><trkpt lat="45.00226868269566" lon="8.533821946412424"><ele>193.0</ele><time>2026-03-28T07:59:10.999Z</time></trkpt><trkpt lat="45.00232892144222" lon="8.533714178271723"><ele>193.0</ele><time>2026-03-28T07:59:11.999Z</time></trkpt><trkpt lat="45.00240317490335" lon="8.533588875564801"><ele>193.0</ele><time>2026-03-28T07:59:13Z</time></trkpt><trkpt lat="45.00245509149476" lon="8.533498987332568"><ele>193.0</ele><time>2026-03-28T07:59:14Z</time></trkpt><trkpt lat="45.00249643028416" lon="8.533416814948179"><ele>193.2</ele><time>2026-03-28T07:59:15Z</time></trkpt><trkpt lat="45.00252784443797" lon="8.533316880994436"><ele>193.4</ele><time>2026-03-28T07:59:16Z</time></trkpt><trkpt lat="45.00255829168395" lon="8.533181309401776"><ele>193.6</ele><time>2026-03-28T07:59:17Z</time></trkpt><trkpt lat="45.002589235595835" lon="8.533024618013876"><ele>193.79999999999998</ele><time>2026-03-28T07:59:18Z</time></trkpt><trkpt lat="45.00262973606343" lon="8.532863222974976"><ele>194.0</ele><time>2026-03-28T07:59:19Z</time></trkpt><trkpt lat="45.00268829277473" lon="8.53271348765377"><ele>194.0</ele><time>2026-03-28T07:59:20Z</time></trkpt><trkpt lat="45.002740001961214" lon="8.532564038709868"><ele>194.0</ele><time>2026-03-28T07:59:21Z</time></trkpt><trkpt lat="45.0027872958413" lon="8.532424172044362"><ele>194.0</ele><time>2026-03-28T07:59:22Z</time></trkpt><trkpt lat="45.002829033840904" lon="8.532287947770442"><ele>194.0</ele><time>2026-03-28T07:59:23Z</time></trkpt><trkpt lat="45.00285598611776" lon="8.532147321821082"><ele>194.0</ele><time>2026-03-28T07:59:24Z</time></trkpt><trkpt lat="45.00289338909494" lon="8.53199046626668"><ele>193.5</ele><time>2026-03-28T07:59:25Z</time></trkpt><trkpt lat="45.00293046602084" lon="8.531839089751683"><ele>193.0</ele><time>2026-03-28T07:59:26Z</time></trkpt><trkpt lat="45.002980121564356" lon="8.531678665735809"><ele>192.5</ele><time>2026-03-28T07:59:27Z</time></trkpt><trkpt lat="45.00303395782451" lon="8.53152068883503"><ele>192.0</ele><time>2026-03-28T07:59:28Z</time></trkpt><trkpt lat="45.00309458679917" lon="8.531380790976314"><ele>192.0</ele><time>2026-03-28T07:59:29Z</time></trkpt><trkpt lat="45.00316497930474" lon="8.531244549558133"><ele>192.0</ele><time>2026-03-28T07:59:30Z</time></trkpt><trkpt lat="45.00323404889147" lon="8.531145778515983"><ele>192.0</ele><time>2026-03-28T07:59:31Z</time></trkpt><trkpt lat="45.00329906609521" lon="8.53107276042886"><ele>192.0</ele><time>2026-03-28T07:59:32Z</time></trkpt><trkpt lat="45.00335675993038" lon="8.531035736435093"><ele>192.0</ele><time>2026-03-28T07:59:33Z</time></trkpt><trkpt lat="45.003424277092364" lon="8.531042326159517"><ele>192.0</ele><time>2026-03-28T07:59:34Z</time></trkpt><trkpt lat="45.00351108990036" lon="8.531108397689808"><ele>192.8</ele><time>2026-03-28T07:59:35Z</time></trkpt><trkpt lat="45.003624706791214" lon="8.531204918916192"><ele>193.6</ele><time>2026-03-28T07:59:36Z</time></trkpt><trkpt lat="45.003701298223746" lon="8.531256843750375"><ele>194.4</ele><time>2026-03-28T07:59:37Z</time></trkpt><trkpt lat="45.00378455256906" lon="8.531250023157469"><ele>195.20000000000002</ele><time>2026-03-28T07:59:38Z</time></trkpt><trkpt lat="45.003867248552616" lon="8.531281786739777"><ele>196.0</ele><time>2026-03-28T07:59:39Z</time></trkpt><trkpt lat="45.00395721983047" lon="8.531277654611639"><ele>196.0</ele><time>2026-03-28T07:59:40Z</time></trkpt><trkpt lat="45.004054645750244" lon="8.531239642393702"><ele>196.0</ele><time>2026-03-28T07:59:41Z</time></trkpt><trkpt lat="45.0041433445492" lon="8.531195026518962"><ele>196.0</ele><time>2026-03-28T07:59:42Z</time></trkpt><trkpt lat="45.00422874310084" lon="8.531137954442318"><ele>196.0</ele><time>2026-03-28T07:59:43Z</time></trkpt><trkpt lat="45.00431521174074" lon="8.53107827580666"><ele>196.0</ele><time>2026-03-28T07:59:44Z</time></trkpt><trkpt lat="45.00439510938482" lon="8.531021883879975"><ele>197.4</ele><time>2026-03-28T07:59:45Z</time></trkpt><trkpt lat="45.00447116478529" lon="8.5309896147027"><ele>198.8</ele><time>2026-03-28T07:59:46Z</time></trkpt><trkpt lat="45.00454388546779" lon="8.530992305164906"><ele>200.20000000000002</ele><time>2026-03-28T07:59:47Z</time></trkpt><trkpt lat="45.00463686097527" lon="8.531032846142374"><ele>201.60000000000002</ele><time>2026-03-28T07:59:48Z</time></trkpt><trkpt lat="45.00473400948598" lon="8.531090641627577"><ele>203.0</ele><time>2026-03-28T07:59:49Z</time></trkpt><trkpt lat="45.00483647659991" lon="8.5311555018823"><ele>203.0</ele><time>2026-03-28T07:59:50Z</time></trkpt><trkpt lat="45.004944399412786" lon="8.531222866391499"><ele>203.0</ele><time>2026-03-28T07:59:51Z</time></trkpt><trkpt lat="45.0050583065873" lon="8.531292484313457"><ele>203.0</ele><time>2026-03-28T07:59:52Z</time></trkpt><trkpt lat="45.00517305972717" lon="8.531360918565314"><ele>203.0</ele><time>2026-03-28T07:59:53Z</time></trkpt><trkpt lat="45.00529070800428" lon="8.531412819192214"><ele>198.75</ele><time>2026-03-28T07:59:54Z</time></trkpt><trkpt lat="45.00541821844554" lon="8.531472981716348"><ele>194.5</ele><time>2026-03-28T07:59:55Z</time></trkpt><trkpt lat="45.0055709316683" lon="8.531561668326876"><ele>190.25</ele><time>2026-03-28T07:59:56Z</time></trkpt><trkpt lat="45.00569110237279" lon="8.531626135797875"><ele>186.0</ele><time>2026-03-28T07:59:56.999Z</time></trkpt><trkpt lat="45.005786231507145" lon="8.531668685008162"><ele>186.8</ele><time>2026-03-28T07:59:57.999Z</time></trkpt><trkpt lat="45.00586409946384" lon="8.53170712848901"><ele>187.60000000000002</ele><time>2026-03-28T07:59:58.999Z</time></trkpt><trkpt lat="45.00595133965821" lon="8.531729103089015"><ele>188.4</ele><time>2026-03-28T07:59:59.999Z</time></trkpt><trkpt lat="45.00606159770736" lon="8.53171577498988"><ele>189.2</ele><time>2026-03-28T08:00:00.999Z</time></trkpt><trkpt lat="45.00619469472745" lon="8.53167913744391"><ele>190.0</ele><time>2026-03-28T08:00:01.999Z</time></trkpt><trkpt lat="45.00633829273057" lon="8.531644703412862"><ele>190.0</ele><time>2026-03-28T08:00:02.999Z</time></trkpt><trkpt lat="45.00648814671461" lon="8.531611728697401"><ele>190.0</ele><time>2026-03-28T08:00:03.999Z</time></trkpt><trkpt lat="45.00661533750722" lon="8.531588849769124"><ele>190.0</ele><time>2026-03-28T08:00:04.999Z</time></trkpt><trkpt lat="45.00674536589369" lon="8.5315707180183"><ele>190.0</ele><time>2026-03-28T08:00:05.999Z</time></trkpt><trkpt lat="45.00685413567371" lon="8.53156388768679"><ele>188.25</ele><time>2026-03-28T08:00:06.999Z</time></trkpt><trkpt lat="45.00697553708795" lon="8.531573910187932"><ele>186.5</ele><time>2026-03-28T08:00:07.999Z</time></trkpt><trkpt lat="45.00710541176241" lon="8.531563583236439"><ele>184.75</ele><time>2026-03-28T08:00:08.999Z</time></trkpt><trkpt lat="45.007217721149544" lon="8.531536088951814"><ele>183.0</ele><time>2026-03-28T08:00:09.999Z</time></trkpt><trkpt lat="45.00730421465669" lon="8.531504806980353"><ele>183.0</ele><time>2026-03-28T08:00:10.999Z</time></trkpt><trkpt lat="45.00738104477394" lon="8.531463318977515"><ele>183.0</ele><time>2026-03-28T08:00:11.999Z</time></trkpt><trkpt lat="45.00746239939421" lon="8.53142322190213"><ele>183.0</ele><time>2026-03-28T08:00:12.999Z</time></trkpt><trkpt lat="45.0075621861977" lon="8.531379810495352"><ele>183.0</ele><time>2026-03-28T08:00:13.999Z</time></trkpt><trkpt lat="45.00765046999212" lon="8.531360151165229"><ele>183.0</ele><time>2026-03-28T08:00:14.999Z</time></trkpt><trkpt lat="45.007751755517056" lon="8.531361378337639"><ele>182.8</ele><time>2026-03-28T08:00:15.999Z</time></trkpt><trkpt lat="45.00786176478912" lon="8.531364482005467"><ele>182.60000000000002</ele><time>2026-03-28T08:00:16.999Z</time></trkpt><trkpt lat="45.00794328758708" lon="8.531364427806137"><ele>182.39999999999998</ele><time>2026-03-28T08:00:17.999Z</time></trkpt><trkpt lat="45.008037066679115" lon="8.531354113819463"><ele>182.2</ele><time>2026-03-28T08:00:18.999Z</time></trkpt><trkpt lat="45.008125357070334" lon="8.531344742272545"><ele>182.0</ele><time>2026-03-28T08:00:19.999Z</time></trkpt><trkpt lat="45.0082254730007" lon="8.531337845422584"><ele>182.0</ele><time>2026-03-28T08:00:20.999Z</time></trkpt><trkpt lat="45.00832162169159" lon="8.53133711710959"><ele>182.0</ele><time>2026-03-28T08:00:21.999Z</time></trkpt><trkpt lat="45.008415673677355" lon="8.531331575169789"><ele>182.0</ele><time>2026-03-28T08:00:22.999Z</time></trkpt><trkpt lat="45.00851025559719" lon="8.53133322506096"><ele>182.0</ele><time>2026-03-28T08:00:23.999Z</time></trkpt><trkpt lat="45.00860475742777" lon="8.531330105894432"><ele>182.0</ele><time>2026-03-28T08:00:24.999Z</time></trkpt><trkpt lat="45.00870430839894" lon="8.531316488730123"><ele>181.16666666666666</ele><time>2026-03-28T08:00:25.999Z</time></trkpt><trkpt lat="45.00880712343638" lon="8.531310549051623"><ele>180.33333333333331</ele><time>2026-03-28T08:00:26.999Z</time></trkpt><trkpt lat="45.00889410920175" lon="8.53131419578011"><ele>179.5</ele><time>2026-03-28T08:00:27.999Z</time></trkpt><trkpt lat="45.00898059674641" lon="8.531325953296498"><ele>178.66666666666666</ele><time>2026-03-28T08:00:28.999Z</time></trkpt><trkpt lat="45.00906532834422" lon="8.531354826640724"><ele>177.83333333333334</ele><time>2026-03-28T08:00:29.999Z</time></trkpt><trkpt lat="45.009135946961074" lon="8.531386524749694"><ele>177.0</ele><time>2026-03-28T08:00:30.999Z</time></trkpt><trkpt lat="45.00922332298456" lon="8.531417589000258"><ele>176.16666666666666</ele><time>2026-03-28T08:00:31.999Z</time></trkpt><trkpt lat="45.00931437021119" lon="8.531475081956376"><ele>175.33333333333334</ele><time>2026-03-28T08:00:32.999Z</time></trkpt><trkpt lat="45.009394096819435" lon="8.531531563559827"><ele>174.5</ele><time>2026-03-28T08:00:33.999Z</time></trkpt><trkpt lat="45.009480235373736" lon="8.531593535614338"><ele>173.66666666666669</ele><time>2026-03-28T08:00:34.999Z</time></trkpt><trkpt lat="45.00955339879328" lon="8.531643688841973"><ele>172.83333333333334</ele><time>2026-03-28T08:00:35.999Z</time></trkpt><trkpt lat="45.00961516546003" lon="8.53170584005893"><ele>172.0</ele><time>2026-03-28T08:00:36.999Z</time></trkpt><trkpt lat="45.00966072199464" lon="8.531810619556511"><ele>172.0</ele><time>2026-03-28T08:00:37.999Z</time></trkpt><trkpt lat="45.00972336826041" lon="8.531933076390773"><ele>172.0</ele><time>2026-03-28T08:00:38.999Z</time></trkpt><trkpt lat="45.00978916696926" lon="8.532048008645145"><ele>172.0</ele><time>2026-03-28T08:00:39.999Z</time></trkpt><trkpt lat="45.00986129059273" lon="8.53213008427246"><ele>172.0</ele><time>2026-03-28T08:00:40.999Z</time></trkpt><trkpt lat="45.00995454084763" lon="8.532189907677349"><ele>172.0</ele><time>2026-03-28T08:00:41.999Z</time></trkpt><trkpt lat="45.01004010386726" lon="8.532229021407407"><ele>169.25</ele><time>2026-03-28T08:00:42.999Z</time></trkpt><trkpt lat="45.01014970625058" lon="8.532280029343118"><ele>166.5</ele><time>2026-03-28T08:00:44.999Z</time></trkpt><trkpt lat="45.01026424248982" lon="8.532319034111671"><ele>163.75</ele><time>2026-03-28T08:00:46.999Z</time></trkpt><trkpt lat="45.010359256921014" lon="8.532366595637031"><ele>161.0</ele><time>2026-03-28T08:00:48.999Z</time></trkpt><trkpt lat="45.01047460133875" lon="8.532422103000714"><ele>161.0</ele><time>2026-03-28T08:00:50.999Z</time></trkpt><trkpt lat="45.01055128921949" lon="8.53245557621727"><ele>161.0</ele><time>2026-03-28T08:00:51.999Z</time></trkpt><trkpt lat="45.01063844632455" lon="8.53250197868252"><ele>161.0</ele><time>2026-03-28T08:00:52.999Z</time></trkpt><trkpt lat="45.010747466912655" lon="8.532556946466062"><ele>161.0</ele><time>2026-03-28T08:00:53.999Z</time></trkpt><trkpt lat="45.01089059710655" lon="8.532627492087219"><ele>161.0</ele><time>2026-03-28T08:00:54.999Z</time></trkpt><trkpt lat="45.011020809056355" lon="8.532690375570452"><ele>161.0</ele><time>2026-03-28T08:00:55.999Z</time></trkpt><trkpt lat="45.01114560857692" lon="8.532751370700122"><ele>161.0</ele><time>2026-03-28T08:00:56.999Z</time></trkpt><trkpt lat="45.01128037656954" lon="8.532818697546562"><ele>161.0</ele><time>2026-03-28T08:00:57.999Z</time></trkpt><trkpt lat="45.01143372315858" lon="8.532901642023178"><ele>161.0</ele><time>2026-03-28T08:00:58.999Z</time></trkpt><trkpt lat="45.011554865258795" lon="8.532984573191483"><ele>159.25</ele><time>2026-03-28T08:00:59.999Z</time></trkpt><trkpt lat="45.01165601364104" lon="8.533060484353097"><ele>157.5</ele><time>2026-03-28T08:01:00.999Z</time></trkpt><trkpt lat="45.011774586335136" lon="8.53314290071664"><ele>155.75</ele><time>2026-03-28T08:01:01.999Z</time></trkpt><trkpt lat="45.011892884971815" lon="8.533196051376914"><ele>154.0</ele><time>2026-03-28T08:01:02.999Z</time></trkpt><trkpt lat="45.01199533122835" lon="8.533270149551184"><ele>153.0</ele><time>2026-03-28T08:01:03.999Z</time></trkpt><trkpt lat="45.01209248004478" lon="8.533325517713088"><ele>152.0</ele><time>2026-03-28T08:01:04.999Z</time></trkpt><trkpt lat="45.01220071801531" lon="8.533366840227963"><ele>151.0</ele><time>2026-03-28T08:01:05.999Z</time></trkpt><trkpt lat="45.012325149554165" lon="8.533395895901267"><ele>150.0</ele><time>2026-03-28T08:01:06.999Z</time></trkpt><trkpt lat="45.01248452856295" lon="8.533393103035898"><ele>149.33333333333334</ele><time>2026-03-28T08:01:07.999Z</time></trkpt><trkpt lat="45.01268023846839" lon="8.533374157314077"><ele>148.66666666666669</ele><time>2026-03-28T08:01:08.999Z</time></trkpt><trkpt lat="45.01283171513468" lon="8.533389237927228"><ele>148.0</ele><time>2026-03-28T08:01:09.999Z</time></trkpt><trkpt lat="45.012947515774584" lon="8.533393018895353"><ele>148.0</ele><time>2026-03-28T08:01:10.999Z</time></trkpt><trkpt lat="45.01307506230991" lon="8.533404018227865"><ele>148.0</ele><time>2026-03-28T08:01:11.999Z</time></trkpt><trkpt lat="45.013208150621395" lon="8.533409476412716"><ele>148.0</ele><time>2026-03-28T08:01:12.999Z</time></trkpt><trkpt lat="45.01331841817051" lon="8.533414351485037"><ele>148.0</ele><time>2026-03-28T08:01:13.999Z</time></trkpt><trkpt lat="45.01344508589524" lon="8.533420321506346"><ele>147.0</ele><time>2026-03-28T08:01:14.999Z</time></trkpt><trkpt lat="45.01354518242903" lon="8.53343747040312"><ele>146.0</ele><time>2026-03-28T08:01:15.999Z</time></trkpt><trkpt lat="45.01364402853552" lon="8.53344553690141"><ele>145.0</ele><time>2026-03-28T08:01:16.999Z</time></trkpt><trkpt lat="45.013721667273344" lon="8.533477813274141"><ele>144.0</ele><time>2026-03-28T08:01:17.999Z</time></trkpt><trkpt lat="45.01380676304861" lon="8.53344318349811"><ele>143.0</ele><time>2026-03-28T08:01:19Z</time></trkpt><trkpt lat="45.01388719522145" lon="8.533444788574217"><ele>143.0</ele><time>2026-03-28T08:01:20Z</time></trkpt><trkpt lat="45.01395276126754" lon="8.533501368029603"><ele>143.0</ele><time>2026-03-28T08:01:21Z</time></trkpt><trkpt lat="45.01403908175412" lon="8.533520106148899"><ele>143.0</ele><time>2026-03-28T08:01:22Z</time></trkpt><trkpt lat="45.01414777209285" lon="8.533582253144878"><ele>143.0</ele><time>2026-03-28T08:01:23Z</time></trkpt><trkpt lat="45.01422314953757" lon="8.533615843213846"><ele>143.0</ele><time>2026-03-28T08:01:24Z</time></trkpt><trkpt lat="45.01430992794753" lon="8.53367670442856"><ele>142.4</ele><time>2026-03-28T08:01:28Z</time></trkpt><trkpt lat="45.014366911948315" lon="8.533524536593198"><ele>141.8</ele><time>2026-03-28T08:01:43Z</time></trkpt><trkpt lat="45.014368917051506" lon="8.533418288811813"><ele>141.2</ele><time>2026-03-28T08:01:44Z</time></trkpt><trkpt lat="45.01438078344284" lon="8.533281649743202"><ele>140.6</ele><time>2026-03-28T08:01:45Z</time></trkpt><trkpt lat="45.01439290177968" lon="8.533125771160673"><ele>140.0</ele><time>2026-03-28T08:01:46Z</time></trkpt><trkpt lat="45.01440954208064" lon="8.53290809741243"><ele>140.2</ele><time>2026-03-28T08:01:47Z</time></trkpt><trkpt lat="45.014424255377705" lon="8.532748763202884"><ele>140.4</ele><time>2026-03-28T08:01:48Z</time></trkpt><trkpt lat="45.014436855697376" lon="8.532620514099023"><ele>140.6</ele><time>2026-03-28T08:01:49Z</time></trkpt><trkpt lat="45.01444767740965" lon="8.532487227193934"><ele>140.8</ele><time>2026-03-28T08:01:50Z</time></trkpt><trkpt lat="45.01447802236751" lon="8.532300858472246"><ele>141.0</ele><time>2026-03-28T08:01:51Z</time></trkpt><trkpt lat="45.01448671889328" lon="8.532035387610726"><ele>141.33333333333334</ele><time>2026-03-28T08:01:52Z</time></trkpt><trkpt lat="45.01451485364301" lon="8.531768876497903"><ele>141.66666666666669</ele><time>2026-03-28T08:01:53Z</time></trkpt><trkpt lat="45.0145535371026" lon="8.53150056408991"><ele>142.0</ele><time>2026-03-28T08:01:54Z</time></trkpt><trkpt lat="45.01457959059177" lon="8.53124424715389"><ele>142.0</ele><time>2026-03-28T08:01:55Z</time></trkpt><trkpt lat="45.014601276371444" lon="8.531044533213718"><ele>142.0</ele><time>2026-03-28T08:01:56Z</time></trkpt><trkpt lat="45.01462676446735" lon="8.530856527508316"><ele>142.0</ele><time>2026-03-28T08:01:57Z</time></trkpt><trkpt lat="45.014671564939405" lon="8.530680874565956"><ele>142.0</ele><time>2026-03-28T08:01:58Z</time></trkpt><trkpt lat="45.01474156765014" lon="8.530492994183161"><ele>141.66666666666669</ele><time>2026-03-28T08:01:59Z</time></trkpt><trkpt lat="45.014822693195434" lon="8.53030534685251"><ele>141.33333333333334</ele><time>2026-03-28T08:02:00Z</time></trkpt><trkpt lat="45.0148977401905" lon="8.53010512756297"><ele>141.0</ele><time>2026-03-28T08:02:01Z</time></trkpt><trkpt lat="45.014991024657114" lon="8.529946515405783"><ele>139.5</ele><time>2026-03-28T08:02:02Z</time></trkpt><trkpt lat="45.01506856023341" lon="8.529790401555806"><ele>138.0</ele><time>2026-03-28T08:02:03Z</time></trkpt><trkpt lat="45.01515389976666" lon="8.52963726099048"><ele>136.5</ele><time>2026-03-28T08:02:04Z</time></trkpt><trkpt lat="45.01525945944458" lon="8.529487676171744"><ele>135.0</ele><time>2026-03-28T08:02:04.999Z</time></trkpt><trkpt lat="45.01537264940494" lon="8.529323015722026"><ele>134.5</ele><time>2026-03-28T08:02:05.999Z</time></trkpt><trkpt lat="45.01548552155507" lon="8.529173864678231"><ele>134.0</ele><time>2026-03-28T08:02:06.999Z</time></trkpt><trkpt lat="45.015583716935225" lon="8.529050968044565"><ele>133.5</ele><time>2026-03-28T08:02:07.999Z</time></trkpt><trkpt lat="45.01568789081722" lon="8.528920340283635"><ele>133.0</ele><time>2026-03-28T08:02:08.999Z</time></trkpt><trkpt lat="45.015831310655464" lon="8.52882254269193"><ele>132.0</ele><time>2026-03-28T08:02:09.999Z</time></trkpt><trkpt lat="45.01596264696265" lon="8.528706505092696"><ele>131.0</ele><time>2026-03-28T08:02:10.999Z</time></trkpt><trkpt lat="45.016105712586025" lon="8.528567014943592"><ele>130.0</ele><time>2026-03-28T08:02:11.999Z</time></trkpt><trkpt lat="45.016211635446595" lon="8.52844672749074"><ele>130.0</ele><time>2026-03-28T08:02:12.999Z</time></trkpt><trkpt lat="45.01632911984445" lon="8.52829747625177"><ele>130.0</ele><time>2026-03-28T08:02:13.999Z</time></trkpt><trkpt lat="45.01643482772429" lon="8.52816255523421"><ele>130.0</ele><time>2026-03-28T08:02:14.999Z</time></trkpt><trkpt lat="45.01655561191657" lon="8.528012900096323"><ele>130.75</ele><time>2026-03-28T08:02:15.999Z</time></trkpt><trkpt lat="45.01666165716568" lon="8.527850037884976"><ele>131.5</ele><time>2026-03-28T08:02:16.999Z</time></trkpt><trkpt lat="45.01675795644474" lon="8.527738789161274"><ele>132.25</ele><time>2026-03-28T08:02:17.999Z</time></trkpt><trkpt lat="45.01685005876486" lon="8.527606655355346"><ele>133.0</ele><time>2026-03-28T08:02:18.999Z</time></trkpt><trkpt lat="45.016948144894656" lon="8.52750435189858"><ele>133.0</ele><time>2026-03-28T08:02:19.999Z</time></trkpt><trkpt lat="45.01703416465469" lon="8.527370211608364"><ele>133.0</ele><time>2026-03-28T08:02:20.999Z</time></trkpt><trkpt lat="45.01714694237195" lon="8.52725380391913"><ele>133.0</ele><time>2026-03-28T08:02:21.999Z</time></trkpt><trkpt lat="45.01726325966706" lon="8.5271426412979"><ele>133.0</ele><time>2026-03-28T08:02:22.999Z</time></trkpt><trkpt lat="45.017390040076435" lon="8.52705090661923"><ele>132.5</ele><time>2026-03-28T08:02:23.999Z</time></trkpt><trkpt lat="45.017495581078265" lon="8.52693644482427"><ele>132.0</ele><time>2026-03-28T08:02:24.999Z</time></trkpt><trkpt lat="45.01760002751255" lon="8.52681869575378"><ele>131.5</ele><time>2026-03-28T08:02:25.999Z</time></trkpt><trkpt lat="45.017684778120525" lon="8.526683073054052"><ele>131.0</ele><time>2026-03-28T08:02:26.999Z</time></trkpt><trkpt lat="45.01773984999676" lon="8.526518400847365"><ele>131.0</ele><time>2026-03-28T08:02:27.999Z</time></trkpt><trkpt lat="45.017778725685204" lon="8.526339236157735"><ele>131.0</ele><time>2026-03-28T08:02:28.999Z</time></trkpt><trkpt lat="45.017817352617264" lon="8.526200659309554"><ele>131.0</ele><time>2026-03-28T08:02:29.999Z</time></trkpt><trkpt lat="45.017856361715495" lon="8.5260705191129"><ele>131.0</ele><time>2026-03-28T08:02:30.999Z</time></trkpt><trkpt lat="45.017918636217345" lon="8.525935450210921"><ele>131.0</ele><time>2026-03-28T08:02:31.999Z</time></trkpt><trkpt lat="45.017990173259705" lon="8.525809628772212"><ele>131.0</ele><time>2026-03-28T08:02:32.999Z</time></trkpt><trkpt lat="45.01805262896496" lon="8.52573872759545"><ele>131.0</ele><time>2026-03-28T08:02:33.999Z</time></trkpt><trkpt lat="45.018135869604194" lon="8.525669340309713"><ele>131.0</ele><time>2026-03-28T08:02:34.999Z</time></trkpt><trkpt lat="45.01825238544968" lon="8.525696788115797"><ele>131.0</ele><time>2026-03-28T08:02:35.999Z</time></trkpt><trkpt lat="45.01840242683761" lon="8.525693068752142"><ele>131.0</ele><time>2026-03-28T08:02:36.999Z</time></trkpt><trkpt lat="45.018621802402706" lon="8.525668041306634"><ele>131.0</ele><time>2026-03-28T08:02:37.999Z</time></trkpt><trkpt lat="45.01877535725538" lon="8.525682436758848"><ele>131.0</ele><time>2026-03-28T08:02:38.999Z</time></trkpt><trkpt lat="45.018939254586535" lon="8.525663142663316"><ele>131.0</ele><time>2026-03-28T08:02:39.999Z</time></trkpt><trkpt lat="45.01912209020401" lon="8.525645745799375"><ele>131.0</ele><time>2026-03-28T08:02:40.999Z</time></trkpt><trkpt lat="45.019316149816255" lon="8.525625786895125"><ele>131.0</ele><time>2026-03-28T08:02:41.999Z</time></trkpt><trkpt lat="45.019510276036875" lon="8.525616587613289"><ele>131.0</ele><time>2026-03-28T08:02:42.999Z</time></trkpt><trkpt lat="45.01968754885296" lon="8.525602375829678"><ele>131.0</ele><time>2026-03-28T08:02:43.999Z</time></trkpt><trkpt lat="45.01989518854452" lon="8.52559497393812"><ele>131.0</ele><time>2026-03-28T08:02:44.999Z</time></trkpt><trkpt lat="45.020078728859154" lon="8.525585457345208"><ele>131.0</ele><time>2026-03-28T08:02:45.999Z</time></trkpt><trkpt lat="45.020240756998675" lon="8.525572424384503"><ele>131.0</ele><time>2026-03-28T08:02:46.999Z</time></trkpt><trkpt lat="45.02041984967277" lon="8.525545884955894"><ele>131.0</ele><time>2026-03-28T08:02:47.999Z</time></trkpt><trkpt lat="45.020611005039115" lon="8.525502888513302"><ele>131.0</ele><time>2026-03-28T08:02:48.999Z</time></trkpt><trkpt lat="45.020814620876266" lon="8.52545071598334"><ele>131.0</ele><time>2026-03-28T08:02:49.999Z</time></trkpt><trkpt lat="45.02102081480036" lon="8.52541099562194"><ele>131.0</ele><time>2026-03-28T08:02:50.999Z</time></trkpt><trkpt lat="45.02122722048551" lon="8.52542890253427"><ele>132.0</ele><time>2026-03-28T08:02:51.999Z</time></trkpt><trkpt lat="45.02144723650203" lon="8.525443608857177"><ele>133.0</ele><time>2026-03-28T08:02:52.999Z</time></trkpt><trkpt lat="45.021705343938784" lon="8.525508313905766"><ele>133.0</ele><time>2026-03-28T08:02:53.999Z</time></trkpt><trkpt lat="45.021994633236" lon="8.525585317421772"><ele>133.0</ele><time>2026-03-28T08:02:54.999Z</time></trkpt><trkpt lat="45.02223565780311" lon="8.525637194227143"><ele>133.0</ele><time>2026-03-28T08:02:55.999Z</time></trkpt><trkpt lat="45.02247045418226" lon="8.525686084102903"><ele>133.0</ele><time>2026-03-28T08:02:56.999Z</time></trkpt><trkpt lat="45.02270370999788" lon="8.525734235103947"><ele>132.0</ele><time>2026-03-28T08:02:57.999Z</time></trkpt><trkpt lat="45.02293470694982" lon="8.525781694072412"><ele>131.0</ele><time>2026-03-28T08:02:58.999Z</time></trkpt><trkpt lat="45.023165928479656" lon="8.525828894945587"><ele>130.5</ele><time>2026-03-28T08:02:59.999Z</time></trkpt><trkpt lat="45.02339446373078" lon="8.525878286199056"><ele>130.0</ele><time>2026-03-28T08:03:00.999Z</time></trkpt><trkpt lat="45.023623632384655" lon="8.525927573287374"><ele>130.0</ele><time>2026-03-28T08:03:01.999Z</time></trkpt><trkpt lat="45.02384778712734" lon="8.525974490283255"><ele>130.0</ele><time>2026-03-28T08:03:02.999Z</time></trkpt><trkpt lat="45.02407664930747" lon="8.526021116860845"><ele>130.0</ele><time>2026-03-28T08:03:03.999Z</time></trkpt><trkpt lat="45.02430002717757" lon="8.52606895436399"><ele>130.0</ele><time>2026-03-28T08:03:04.999Z</time></trkpt><trkpt lat="45.02451452822445" lon="8.526113827896182"><ele>130.0</ele><time>2026-03-28T08:03:05.999Z</time></trkpt><trkpt lat="45.024738172471096" lon="8.526162204639034"><ele>130.0</ele><time>2026-03-28T08:03:06.999Z</time></trkpt><trkpt lat="45.02497332210712" lon="8.52622549691534"><ele>130.0</ele><time>2026-03-28T08:03:07.999Z</time></trkpt><trkpt lat="45.02522493319094" lon="8.526297308247486"><ele>130.5</ele><time>2026-03-28T08:03:08.999Z</time></trkpt><trkpt lat="45.02547039867102" lon="8.526377580040874"><ele>131.0</ele><time>2026-03-28T08:03:09.999Z</time></trkpt><trkpt lat="45.02573908753715" lon="8.5264667326472"><ele>129.5</ele><time>2026-03-28T08:03:10.999Z</time></trkpt><trkpt lat="45.025979151563696" lon="8.526535803912743"><ele>128.0</ele><time>2026-03-28T08:03:11.999Z</time></trkpt><trkpt lat="45.02618056117217" lon="8.526592783619632"><ele>128.0</ele><time>2026-03-28T08:03:12.999Z</time></trkpt><trkpt lat="45.02636013638515" lon="8.526648403316473"><ele>128.0</ele><time>2026-03-28T08:03:13.999Z</time></trkpt><trkpt lat="45.02653128855485" lon="8.52670498122718"><ele>128.0</ele><time>2026-03-28T08:03:14.999Z</time></trkpt><trkpt lat="45.026712577493086" lon="8.526761999010846"><ele>127.33333333333333</ele><time>2026-03-28T08:03:15.999Z</time></trkpt><trkpt lat="45.0268825934984" lon="8.526812084901024"><ele>126.66666666666666</ele><time>2026-03-28T08:03:16.999Z</time></trkpt><trkpt lat="45.02704319852702" lon="8.526860783843928"><ele>126.0</ele><time>2026-03-28T08:03:17.999Z</time></trkpt><trkpt lat="45.02719760571919" lon="8.52690675888288"><ele>126.0</ele><time>2026-03-28T08:03:18.999Z</time></trkpt><trkpt lat="45.027352799711565" lon="8.526954184139946"><ele>126.0</ele><time>2026-03-28T08:03:19.999Z</time></trkpt><trkpt lat="45.02751546188764" lon="8.527007023108506"><ele>126.0</ele><time>2026-03-28T08:03:20.999Z</time></trkpt><trkpt lat="45.027666944607176" lon="8.527056379136484"><ele>126.66666666666666</ele><time>2026-03-28T08:03:21.999Z</time></trkpt><trkpt lat="45.027821609411575" lon="8.527109483065049"><ele>127.33333333333333</ele><time>2026-03-28T08:03:22.999Z</time></trkpt><trkpt lat="45.027983181317694" lon="8.527169728456144"><ele>128.0</ele><time>2026-03-28T08:03:23.999Z</time></trkpt><trkpt lat="45.0281503082723" lon="8.5272213660607"><ele>128.0</ele><time>2026-03-28T08:03:25Z</time></trkpt><trkpt lat="45.02830444455664" lon="8.52726426603222"><ele>128.0</ele><time>2026-03-28T08:03:26Z</time></trkpt><trkpt lat="45.02845895963253" lon="8.52731201910267"><ele>128.0</ele><time>2026-03-28T08:03:27Z</time></trkpt><trkpt lat="45.02861467380679" lon="8.527358632855218"><ele>127.66666666666666</ele><time>2026-03-28T08:03:28Z</time></trkpt><trkpt lat="45.02878176526348" lon="8.527408227395044"><ele>127.33333333333334</ele><time>2026-03-28T08:03:29Z</time></trkpt><trkpt lat="45.02894648018648" lon="8.527450990427752"><ele>127.0</ele><time>2026-03-28T08:03:30Z</time></trkpt><trkpt lat="45.02910610555326" lon="8.52749116734043"><ele>126.66666666666667</ele><time>2026-03-28T08:03:31Z</time></trkpt><trkpt lat="45.02926863099974" lon="8.527539983365461"><ele>126.33333333333334</ele><time>2026-03-28T08:03:32Z</time></trkpt><trkpt lat="45.02943368466246" lon="8.52759101988975"><ele>126.0</ele><time>2026-03-28T08:03:33Z</time></trkpt><trkpt lat="45.02959802106754" lon="8.527636395397263"><ele>126.0</ele><time>2026-03-28T08:03:34Z</time></trkpt><trkpt lat="45.029744002284524" lon="8.527686457706517"><ele>126.0</ele><time>2026-03-28T08:03:35Z</time></trkpt><trkpt lat="45.02988181171754" lon="8.52773014671454"><ele>126.0</ele><time>2026-03-28T08:03:36Z</time></trkpt><trkpt lat="45.03002443986969" lon="8.527778960553995"><ele>126.0</ele><time>2026-03-28T08:03:37Z</time></trkpt><trkpt lat="45.030161657487994" lon="8.527836483997245"><ele>126.0</ele><time>2026-03-28T08:03:38Z</time></trkpt><trkpt lat="45.03029401166638" lon="8.527894329808852"><ele>126.0</ele><time>2026-03-28T08:03:39Z</time></trkpt><trkpt lat="45.03042340928738" lon="8.527932172190996"><ele>126.0</ele><time>2026-03-28T08:03:40Z</time></trkpt><trkpt lat="45.030541083986144" lon="8.527972459442662"><ele>126.0</ele><time>2026-03-28T08:03:41Z</time></trkpt><trkpt lat="45.03067001857025" lon="8.52801683942138"><ele>126.0</ele><time>2026-03-28T08:03:42Z</time></trkpt><trkpt lat="45.03079149024789" lon="8.528058152436651"><ele>126.0</ele><time>2026-03-28T08:03:43Z</time></trkpt><trkpt lat="45.030923367900876" lon="8.52809945116154"><ele>126.0</ele><time>2026-03-28T08:03:44Z</time></trkpt><trkpt lat="45.03104315352475" lon="8.528134122621125"><ele>126.0</ele><time>2026-03-28T08:03:45Z</time></trkpt><trkpt lat="45.03117321845315" lon="8.5281706027403"><ele>126.0</ele><time>2026-03-28T08:03:46Z</time></trkpt><trkpt lat="45.03128192653031" lon="8.528207837266665"><ele>126.0</ele><time>2026-03-28T08:03:47Z</time></trkpt><trkpt lat="45.03138464083407" lon="8.528194998256565"><ele>126.0</ele><time>2026-03-28T08:03:48Z</time></trkpt><trkpt lat="45.03149437542706" lon="8.528224931628028"><ele>126.0</ele><time>2026-03-28T08:03:49Z</time></trkpt><trkpt lat="45.03161714091128" lon="8.528246006356285"><ele>126.0</ele><time>2026-03-28T08:03:50Z</time></trkpt><trkpt lat="45.03174590426048" lon="8.528260448525785"><ele>126.0</ele><time>2026-03-28T08:03:51Z</time></trkpt><trkpt lat="45.031872987059366" lon="8.52826208400996"><ele>126.0</ele><time>2026-03-28T08:03:52Z</time></trkpt><trkpt lat="45.03197483191416" lon="8.528234285510754"><ele>126.0</ele><time>2026-03-28T08:03:53Z</time></trkpt><trkpt lat="45.03206048338087" lon="8.528220990438806"><ele>126.0</ele><time>2026-03-28T08:03:54Z</time></trkpt><trkpt lat="45.03213771003487" lon="8.528212543256824"><ele>126.0</ele><time>2026-03-28T08:03:55Z</time></trkpt><trkpt lat="45.03220238510327" lon="8.528241947910157"><ele>126.0</ele><time>2026-03-28T08:03:56Z</time></trkpt><trkpt lat="45.03232341215188" lon="8.528220375853865"><ele>126.0</ele><time>2026-03-28T08:06:59.999Z</time></trkpt><trkpt lat="45.0323844708667" lon="8.528166059919961"><ele>126.0</ele><time>2026-03-28T08:07:00.999Z</time></trkpt><trkpt lat="45.03244206775987" lon="8.52808662359647"><ele>126.0</ele><time>2026-03-28T08:07:01.999Z</time></trkpt><trkpt lat="45.032509784708324" lon="8.52798929075642"><ele>126.0</ele><time>2026-03-28T08:07:02.999Z</time></trkpt><trkpt lat="45.032591559488395" lon="8.527878155565395"><ele>125.5</ele><time>2026-03-28T08:07:03.999Z</time></trkpt><trkpt lat="45.03268620826954" lon="8.527762071616257"><ele>125.0</ele><time>2026-03-28T08:07:04.999Z</time></trkpt><trkpt lat="45.03278240597125" lon="8.527654472257812"><ele>124.5</ele><time>2026-03-28T08:07:05.999Z</time></trkpt><trkpt lat="45.03287104042882" lon="8.527546053054321"><ele>124.0</ele><time>2026-03-28T08:07:06.999Z</time></trkpt><trkpt lat="45.032959775551205" lon="8.527437867937364"><ele>124.0</ele><time>2026-03-28T08:07:07.999Z</time></trkpt><trkpt lat="45.03306616259605" lon="8.527317437552687"><ele>124.0</ele><time>2026-03-28T08:07:08.999Z</time></trkpt><trkpt lat="45.03317882459971" lon="8.52718663997976"><ele>124.0</ele><time>2026-03-28T08:07:09.999Z</time></trkpt><trkpt lat="45.03329663769189" lon="8.527041708479725"><ele>124.0</ele><time>2026-03-28T08:07:10.999Z</time></trkpt><trkpt lat="45.033414233994286" lon="8.526899683812148"><ele>123.5</ele><time>2026-03-28T08:07:11.999Z</time></trkpt><trkpt lat="45.0335339220307" lon="8.526756967450604"><ele>123.0</ele><time>2026-03-28T08:07:12.999Z</time></trkpt><trkpt lat="45.03364214236375" lon="8.526632462905983"><ele>122.5</ele><time>2026-03-28T08:07:13.999Z</time></trkpt><trkpt lat="45.0337504165583" lon="8.52650251761013"><ele>122.0</ele><time>2026-03-28T08:07:14.999Z</time></trkpt><trkpt lat="45.03384729174517" lon="8.52638843922264"><ele>122.0</ele><time>2026-03-28T08:07:15.999Z</time></trkpt><trkpt lat="45.03395033167251" lon="8.526266809420001"><ele>122.0</ele><time>2026-03-28T08:07:16.999Z</time></trkpt><trkpt lat="45.03404588313534" lon="8.526152275488126"><ele>122.0</ele><time>2026-03-28T08:07:17.999Z</time></trkpt><trkpt lat="45.03413855096198" lon="8.526047289022607"><ele>122.0</ele><time>2026-03-28T08:07:18.999Z</time></trkpt><trkpt lat="45.03422449938404" lon="8.525947961914609"><ele>122.0</ele><time>2026-03-28T08:07:19.999Z</time></trkpt><trkpt lat="45.03429887530325" lon="8.525852498159868"><ele>121.99999999999999</ele><time>2026-03-28T08:07:20.999Z</time></trkpt><trkpt lat="45.034371220114295" lon="8.525742331676668"><ele>121.99999999999999</ele><time>2026-03-28T08:07:21.999Z</time></trkpt><trkpt lat="45.03444335291346" lon="8.52561290570348"><ele>122.0</ele><time>2026-03-28T08:07:22.999Z</time></trkpt><trkpt lat="45.03451703924236" lon="8.525486431322364"><ele>122.0</ele><time>2026-03-28T08:07:23.999Z</time></trkpt><trkpt lat="45.0345807649729" lon="8.525369252847092"><ele>122.0</ele><time>2026-03-28T08:07:24.999Z</time></trkpt><trkpt lat="45.03464070653593" lon="8.525245634259381"><ele>121.99999999999999</ele><time>2026-03-28T08:07:25.999Z</time></trkpt><trkpt lat="45.03469873897712" lon="8.525139492032856"><ele>121.99999999999999</ele><time>2026-03-28T08:07:26.999Z</time></trkpt><trkpt lat="45.03475497512289" lon="8.525044128959966"><ele>122.0</ele><time>2026-03-28T08:07:27.999Z</time></trkpt><trkpt lat="45.03482072722494" lon="8.524932606686276"><ele>122.0</ele><time>2026-03-28T08:07:29.999Z</time></trkpt><trkpt lat="45.034866187905564" lon="8.524834674129822"><ele>122.0</ele><time>2026-03-28T08:07:35.999Z</time></trkpt><trkpt lat="45.034830260428784" lon="8.524688133623924"><ele>121.99999999999999</ele><time>2026-03-28T08:07:39Z</time></trkpt><trkpt lat="45.03478756668596" lon="8.524604836873808"><ele>121.99999999999999</ele><time>2026-03-28T08:07:40Z</time></trkpt><trkpt lat="45.034701190510496" lon="8.524453064365852"><ele>122.0</ele><time>2026-03-28T08:07:42Z</time></trkpt><trkpt lat="45.03465667138495" lon="8.524374310831327"><ele>122.0</ele><time>2026-03-28T08:07:43Z</time></trkpt><trkpt lat="45.03460896272427" lon="8.524289914945932"><ele>122.19999999999999</ele><time>2026-03-28T08:07:44Z</time></trkpt><trkpt lat="45.034544978935024" lon="8.524177974493961"><ele>122.39999999999999</ele><time>2026-03-28T08:07:46Z</time></trkpt><trkpt lat="45.034490914183785" lon="8.5240852975979"><ele>122.60000000000001</ele><time>2026-03-28T08:07:47Z</time></trkpt><trkpt lat="45.03443492656988" lon="8.523990348860721"><ele>122.80000000000001</ele><time>2026-03-28T08:07:48Z</time></trkpt><trkpt lat="45.03436222679444" lon="8.523868975408147"><ele>123.0</ele><time>2026-03-28T08:07:49Z</time></trkpt><trkpt lat="45.034281389721514" lon="8.523739195213018"><ele>123.0</ele><time>2026-03-28T08:07:50Z</time></trkpt><trkpt lat="45.03419697638148" lon="8.523632108468467"><ele>123.0</ele><time>2026-03-28T08:07:51Z</time></trkpt><trkpt lat="45.03413463604202" lon="8.52355064160306"><ele>123.0</ele><time>2026-03-28T08:07:52Z</time></trkpt><trkpt lat="45.0340835504315" lon="8.52344968597068"><ele>123.0</ele><time>2026-03-28T08:07:53Z</time></trkpt><trkpt lat="45.03403683977945" lon="8.523389724176544"><ele>123.0</ele><time>2026-03-28T08:07:54Z</time></trkpt><trkpt lat="45.03396403614475" lon="8.523319408895533"><ele>123.0</ele><time>2026-03-28T08:07:55Z</time></trkpt><trkpt lat="45.03390573740385" lon="8.523251364982617"><ele>122.83333333333333</ele><time>2026-03-28T08:07:56Z</time></trkpt><trkpt lat="45.033855596955064" lon="8.523194022304658"><ele>122.66666666666666</ele><time>2026-03-28T08:07:57Z</time></trkpt><trkpt lat="45.03376944680497" lon="8.52310487530654"><ele>122.5</ele><time>2026-03-28T08:07:59Z</time></trkpt><trkpt lat="45.03370276328081" lon="8.523044732593526"><ele>122.33333333333333</ele><time>2026-03-28T08:08:00Z</time></trkpt><trkpt lat="45.033645399067474" lon="8.522992995132444"><ele>122.16666666666666</ele><time>2026-03-28T08:08:01Z</time></trkpt><trkpt lat="45.03358519282255" lon="8.522938348037423"><ele>122.0</ele><time>2026-03-28T08:08:02Z</time></trkpt><trkpt lat="45.03352292036521" lon="8.522881588101926"><ele>121.99999999999999</ele><time>2026-03-28T08:08:03Z</time></trkpt><trkpt lat="45.03345710394235" lon="8.522821597975545"><ele>122.0</ele><time>2026-03-28T08:08:04Z</time></trkpt><trkpt lat="45.03339350386787" lon="8.522764293892674"><ele>122.0</ele><time>2026-03-28T08:08:05Z</time></trkpt><trkpt lat="45.033328817294944" lon="8.522706617063072"><ele>122.0</ele><time>2026-03-28T08:08:06Z</time></trkpt><trkpt lat="45.03326510137105" lon="8.522652679117714"><ele>121.99999999999999</ele><time>2026-03-28T08:08:07Z</time></trkpt><trkpt lat="45.03317753833432" lon="8.522583547119353"><ele>122.0</ele><time>2026-03-28T08:08:08Z</time></trkpt><trkpt lat="45.033099371472346" lon="8.52252182286926"><ele>122.6</ele><time>2026-03-28T08:08:09Z</time></trkpt><trkpt lat="45.033017952526805" lon="8.522456972730609"><ele>123.19999999999999</ele><time>2026-03-28T08:08:10Z</time></trkpt><trkpt lat="45.03293926609936" lon="8.522393008863475"><ele>123.8</ele><time>2026-03-28T08:08:11Z</time></trkpt><trkpt lat="45.03286154874751" lon="8.522329143513208"><ele>124.4</ele><time>2026-03-28T08:08:12Z</time></trkpt><trkpt lat="45.03278042079788" lon="8.522262152967919"><ele>125.0</ele><time>2026-03-28T08:08:13Z</time></trkpt><trkpt lat="45.032696647577694" lon="8.52218871607382"><ele>125.0</ele><time>2026-03-28T08:08:14Z</time></trkpt><trkpt lat="45.032615668704686" lon="8.522112793375658"><ele>125.0</ele><time>2026-03-28T08:08:15Z</time></trkpt><trkpt lat="45.03253573505877" lon="8.522034064221286"><ele>125.0</ele><time>2026-03-28T08:08:16Z</time></trkpt><trkpt lat="45.03245680890508" lon="8.521950875110754"><ele>125.0</ele><time>2026-03-28T08:08:17Z</time></trkpt><trkpt lat="45.032386887186604" lon="8.521868455256289"><ele>125.0</ele><time>2026-03-28T08:08:18Z</time></trkpt><trkpt lat="45.032323841360196" lon="8.521811949015692"><ele>124.99999999999999</ele><time>2026-03-28T08:08:18.999Z</time></trkpt><trkpt lat="45.0322788886266" lon="8.52174535929368"><ele>125.0</ele><time>2026-03-28T08:08:19.999Z</time></trkpt><trkpt lat="45.032245078525364" lon="8.521659511299744"><ele>125.0</ele><time>2026-03-28T08:08:20.999Z</time></trkpt><trkpt lat="45.03219815739055" lon="8.521579611881139"><ele>125.0</ele><time>2026-03-28T08:08:21.999Z</time></trkpt><trkpt lat="45.03212824584778" lon="8.521461335626624"><ele>124.99999999999999</ele><time>2026-03-28T08:08:22.999Z</time></trkpt><trkpt lat="45.03205001595511" lon="8.521328491420869"><ele>125.0</ele><time>2026-03-28T08:08:23.999Z</time></trkpt><trkpt lat="45.0319886510728" lon="8.521224485580467"><ele>124.99999999999999</ele><time>2026-03-28T08:08:24.999Z</time></trkpt><trkpt lat="45.031938630164134" lon="8.521139925128269"><ele>125.0</ele><time>2026-03-28T08:08:25.999Z</time></trkpt><trkpt lat="45.03189432190555" lon="8.521065021734241"><ele>125.0</ele><time>2026-03-28T08:08:26.999Z</time></trkpt><trkpt lat="45.03183147936708" lon="8.520990876837864"><ele>125.0</ele><time>2026-03-28T08:08:27.999Z</time></trkpt><trkpt lat="45.03176817362065" lon="8.520885230201603"><ele>124.99999999999999</ele><time>2026-03-28T08:08:28.999Z</time></trkpt><trkpt lat="45.03171011057253" lon="8.520797708357744"><ele>125.0</ele><time>2026-03-28T08:08:29.999Z</time></trkpt><trkpt lat="45.03164897844824" lon="8.520715570322956"><ele>124.8</ele><time>2026-03-28T08:08:30.999Z</time></trkpt><trkpt lat="45.031573104174136" lon="8.520599347312439"><ele>124.6</ele><time>2026-03-28T08:08:31.999Z</time></trkpt><trkpt lat="45.031487317999485" lon="8.520504633540694"><ele>124.4</ele><time>2026-03-28T08:08:32.999Z</time></trkpt><trkpt lat="45.03140437558807" lon="8.520424463001735"><ele>124.2</ele><time>2026-03-28T08:08:33.999Z</time></trkpt><trkpt lat="45.03129758092048" lon="8.5203249786819"><ele>124.0</ele><time>2026-03-28T08:08:34.999Z</time></trkpt><trkpt lat="45.03117051852377" lon="8.520206614115425"><ele>123.33333333333334</ele><time>2026-03-28T08:08:35.999Z</time></trkpt><trkpt lat="45.03101461351157" lon="8.520091257988799"><ele>122.66666666666666</ele><time>2026-03-28T08:08:36.999Z</time></trkpt><trkpt lat="45.03085158776509" lon="8.519913661818197"><ele>122.0</ele><time>2026-03-28T08:08:37.999Z</time></trkpt><trkpt lat="45.03068723859694" lon="8.519762850838617"><ele>122.0</ele><time>2026-03-28T08:08:38.999Z</time></trkpt><trkpt lat="45.03051197723661" lon="8.51962722088168"><ele>122.0</ele><time>2026-03-28T08:08:39.999Z</time></trkpt><trkpt lat="45.030358839395404" lon="8.519483553935745"><ele>122.0</ele><time>2026-03-28T08:08:40.999Z</time></trkpt><trkpt lat="45.030202535086914" lon="8.519316822498967"><ele>122.33333333333333</ele><time>2026-03-28T08:08:41.999Z</time></trkpt><trkpt lat="45.03003600981233" lon="8.519170886154821"><ele>122.66666666666666</ele><time>2026-03-28T08:08:42.999Z</time></trkpt><trkpt lat="45.02984600485834" lon="8.519029852781827"><ele>123.0</ele><time>2026-03-28T08:08:43.999Z</time></trkpt><trkpt lat="45.02970026313519" lon="8.518963561901773"><ele>123.0</ele><time>2026-03-28T08:08:44.999Z</time></trkpt><trkpt lat="45.02952958284945" lon="8.518840553141413"><ele>123.0</ele><time>2026-03-28T08:08:45.999Z</time></trkpt><trkpt lat="45.029377126991534" lon="8.518752595702868"><ele>123.0</ele><time>2026-03-28T08:08:46.999Z</time></trkpt><trkpt lat="45.02923976160197" lon="8.51867334465002"><ele>123.66666666666666</ele><time>2026-03-28T08:08:47.999Z</time></trkpt><trkpt lat="45.02909039576635" lon="8.518587169908441"><ele>124.33333333333333</ele><time>2026-03-28T08:08:48.999Z</time></trkpt><trkpt lat="45.028931541589685" lon="8.518517757430857"><ele>125.0</ele><time>2026-03-28T08:08:49.999Z</time></trkpt><trkpt lat="45.028774644861606" lon="8.518401469782075"><ele>125.0</ele><time>2026-03-28T08:08:50.999Z</time></trkpt><trkpt lat="45.02860072747844" lon="8.518297327042916"><ele>125.0</ele><time>2026-03-28T08:08:51.999Z</time></trkpt><trkpt lat="45.028429419333385" lon="8.518221144818542"><ele>125.0</ele><time>2026-03-28T08:08:52.999Z</time></trkpt><trkpt lat="45.028261238440265" lon="8.518124084229148"><ele>125.66666666666666</ele><time>2026-03-28T08:08:53.999Z</time></trkpt><trkpt lat="45.028091197270726" lon="8.518000696712063"><ele>126.33333333333334</ele><time>2026-03-28T08:08:54.999Z</time></trkpt><trkpt lat="45.02790705713262" lon="8.517918775235051"><ele>127.0</ele><time>2026-03-28T08:08:55.999Z</time></trkpt><trkpt lat="45.02772166269435" lon="8.517803188025981"><ele>127.0</ele><time>2026-03-28T08:08:56.999Z</time></trkpt><trkpt lat="45.02751591880332" lon="8.517685284602297"><ele>127.0</ele><time>2026-03-28T08:08:57.999Z</time></trkpt><trkpt lat="45.02733922942171" lon="8.51756238015325"><ele>127.0</ele><time>2026-03-28T08:08:58.999Z</time></trkpt><trkpt lat="45.02716830358665" lon="8.517491229096404"><ele>127.0</ele><time>2026-03-28T08:08:59.999Z</time></trkpt><trkpt lat="45.027001079794516" lon="8.517392005626238"><ele>127.0</ele><time>2026-03-28T08:09:00.999Z</time></trkpt><trkpt lat="45.026847805420736" lon="8.51730312682619"><ele>127.0</ele><time>2026-03-28T08:09:01.999Z</time></trkpt><trkpt lat="45.02670267711293" lon="8.51721519640313"><ele>127.25</ele><time>2026-03-28T08:09:02.999Z</time></trkpt><trkpt lat="45.02656821856094" lon="8.517141704292536"><ele>127.5</ele><time>2026-03-28T08:09:03.999Z</time></trkpt><trkpt lat="45.02643466683126" lon="8.517065068555478"><ele>127.75</ele><time>2026-03-28T08:09:04.999Z</time></trkpt><trkpt lat="45.026286073505716" lon="8.516995280526993"><ele>128.0</ele><time>2026-03-28T08:09:05.999Z</time></trkpt><trkpt lat="45.0261143730125" lon="8.51693687762323"><ele>128.0</ele><time>2026-03-28T08:09:06.999Z</time></trkpt><trkpt lat="45.02591331530344" lon="8.516877780543515"><ele>128.0</ele><time>2026-03-28T08:09:07.999Z</time></trkpt><trkpt lat="45.02567616837495" lon="8.516813214082648"><ele>128.0</ele><time>2026-03-28T08:09:08.999Z</time></trkpt><trkpt lat="45.02547237968847" lon="8.516755420529767"><ele>129.0</ele><time>2026-03-28T08:09:09.999Z</time></trkpt><trkpt lat="45.02530430954317" lon="8.516706500935918"><ele>130.0</ele><time>2026-03-28T08:09:10.999Z</time></trkpt><trkpt lat="45.02514456301984" lon="8.516661350582972"><ele>131.0</ele><time>2026-03-28T08:09:11.999Z</time></trkpt><trkpt lat="45.02500117789084" lon="8.516603615403184"><ele>131.33333333333331</ele><time>2026-03-28T08:09:12.999Z</time></trkpt><trkpt lat="45.0248477347688" lon="8.516576850385677"><ele>131.66666666666666</ele><time>2026-03-28T08:09:13.999Z</time></trkpt><trkpt lat="45.0246567025214" lon="8.516520887815895"><ele>132.0</ele><time>2026-03-28T08:09:14.999Z</time></trkpt><trkpt lat="45.0244553196401" lon="8.516468839339579"><ele>132.0</ele><time>2026-03-28T08:09:15.999Z</time></trkpt><trkpt lat="45.024302189042686" lon="8.51641466402792"><ele>132.0</ele><time>2026-03-28T08:09:16.999Z</time></trkpt><trkpt lat="45.024143274018215" lon="8.516376769182298"><ele>132.0</ele><time>2026-03-28T08:09:17.999Z</time></trkpt><trkpt lat="45.02399377855805" lon="8.51632492495462"><ele>132.5</ele><time>2026-03-28T08:09:18.999Z</time></trkpt><trkpt lat="45.023841894173614" lon="8.5162826054154"><ele>133.0</ele><time>2026-03-28T08:09:19.999Z</time></trkpt><trkpt lat="45.023695290198596" lon="8.516244468122865"><ele>133.5</ele><time>2026-03-28T08:09:20.999Z</time></trkpt><trkpt lat="45.02355514397949" lon="8.516195812437772"><ele>134.0</ele><time>2026-03-28T08:09:21.999Z</time></trkpt><trkpt lat="45.02341983037527" lon="8.516155865197064"><ele>134.33333333333331</ele><time>2026-03-28T08:09:22.999Z</time></trkpt><trkpt lat="45.02327832159839" lon="8.516116047582976"><ele>134.66666666666666</ele><time>2026-03-28T08:09:23.999Z</time></trkpt><trkpt lat="45.023125016569125" lon="8.516073592177277"><ele>135.0</ele><time>2026-03-28T08:09:24.999Z</time></trkpt><trkpt lat="45.022970764727425" lon="8.516031839203567"><ele>135.0</ele><time>2026-03-28T08:09:25.999Z</time></trkpt><trkpt lat="45.022826743382524" lon="8.515969779650185"><ele>135.0</ele><time>2026-03-28T08:09:26.999Z</time></trkpt><trkpt lat="45.022698872818694" lon="8.515892463522459"><ele>135.0</ele><time>2026-03-28T08:09:27.999Z</time></trkpt><trkpt lat="45.02258397791848" lon="8.515809008849132"><ele>135.0</ele><time>2026-03-28T08:09:28.999Z</time></trkpt><trkpt lat="45.022474320553414" lon="8.515722970419736"><ele>135.75</ele><time>2026-03-28T08:09:29.999Z</time></trkpt><trkpt lat="45.02237421221889" lon="8.515651717733645"><ele>136.5</ele><time>2026-03-28T08:09:30.999Z</time></trkpt><trkpt lat="45.0222668055355" lon="8.515574772212391"><ele>137.25</ele><time>2026-03-28T08:09:31.999Z</time></trkpt><trkpt lat="45.022146761872406" lon="8.515486983122504"><ele>138.0</ele><time>2026-03-28T08:09:32.999Z</time></trkpt><trkpt lat="45.022026523330204" lon="8.515405978984688"><ele>137.75</ele><time>2026-03-28T08:09:33.999Z</time></trkpt><trkpt lat="45.02192247723763" lon="8.515329584731191"><ele>137.5</ele><time>2026-03-28T08:09:34.999Z</time></trkpt><trkpt lat="45.02182058444114" lon="8.515249608995624"><ele>137.25</ele><time>2026-03-28T08:09:35.999Z</time></trkpt><trkpt lat="45.02171468912747" lon="8.515171416519264"><ele>137.0</ele><time>2026-03-28T08:09:36.999Z</time></trkpt><trkpt lat="45.021599081315294" lon="8.51509397091014"><ele>137.5</ele><time>2026-03-28T08:09:37.999Z</time></trkpt><trkpt lat="45.02148060240285" lon="8.514984168010002"><ele>138.0</ele><time>2026-03-28T08:09:38.999Z</time></trkpt><trkpt lat="45.02136049610873" lon="8.514896009654256"><ele>138.5</ele><time>2026-03-28T08:09:39.998Z</time></trkpt><trkpt lat="45.02123989095038" lon="8.514830156855362"><ele>139.0</ele><time>2026-03-28T08:09:40.998Z</time></trkpt><trkpt lat="45.02110954289684" lon="8.514736905735715"><ele>139.0</ele><time>2026-03-28T08:09:41.998Z</time></trkpt><trkpt lat="45.02095153817158" lon="8.514599208232392"><ele>139.0</ele><time>2026-03-28T08:09:43Z</time></trkpt><trkpt lat="45.02075563761265" lon="8.514456842905178"><ele>139.0</ele><time>2026-03-28T08:09:44Z</time></trkpt><trkpt lat="45.020546196504576" lon="8.514303955651988"><ele>139.66666666666669</ele><time>2026-03-28T08:09:45Z</time></trkpt><trkpt lat="45.020366803413644" lon="8.514172459499768"><ele>140.33333333333334</ele><time>2026-03-28T08:09:46Z</time></trkpt><trkpt lat="45.0201916462202" lon="8.514060143492955"><ele>141.0</ele><time>2026-03-28T08:09:47Z</time></trkpt><trkpt lat="45.0200376925839" lon="8.513952343345313"><ele>141.5</ele><time>2026-03-28T08:09:48Z</time></trkpt><trkpt lat="45.01991124576223" lon="8.513838063893186"><ele>142.0</ele><time>2026-03-28T08:09:49Z</time></trkpt><trkpt lat="45.019796271858844" lon="8.513753190180887"><ele>142.5</ele><time>2026-03-28T08:09:50Z</time></trkpt><trkpt lat="45.01969030370606" lon="8.513700895251896"><ele>143.0</ele><time>2026-03-28T08:09:51Z</time></trkpt><trkpt lat="45.01959435970478" lon="8.513630437642538"><ele>143.20000000000002</ele><time>2026-03-28T08:09:52Z</time></trkpt><trkpt lat="45.01951535376057" lon="8.513545818150748"><ele>143.4</ele><time>2026-03-28T08:09:53Z</time></trkpt><trkpt lat="45.019424444464846" lon="8.51347923279491"><ele>143.60000000000002</ele><time>2026-03-28T08:09:54Z</time></trkpt><trkpt lat="45.01931992267628" lon="8.513403093694087"><ele>143.8</ele><time>2026-03-28T08:09:55Z</time></trkpt><trkpt lat="45.019208599267195" lon="8.513337668606159"><ele>144.0</ele><time>2026-03-28T08:09:56Z</time></trkpt><trkpt lat="45.01912467629155" lon="8.5132667915196"><ele>144.16666666666666</ele><time>2026-03-28T08:09:57Z</time></trkpt><trkpt lat="45.019060180574236" lon="8.51321806563689"><ele>144.33333333333334</ele><time>2026-03-28T08:09:58Z</time></trkpt><trkpt lat="45.01897019650923" lon="8.513152537368518"><ele>144.5</ele><time>2026-03-28T08:10:00Z</time></trkpt><trkpt lat="45.01889562224675" lon="8.51309601129182"><ele>144.66666666666669</ele><time>2026-03-28T08:10:03Z</time></trkpt><trkpt lat="45.01898963832522" lon="8.51316707807964"><ele>144.83333333333334</ele><time>2026-03-28T08:12:04Z</time></trkpt><trkpt lat="45.01906377496978" lon="8.513217763846104"><ele>145.0</ele><time>2026-03-28T08:12:05Z</time></trkpt><trkpt lat="45.01912616373189" lon="8.513300153298198"><ele>144.83333333333334</ele><time>2026-03-28T08:12:06Z</time></trkpt><trkpt lat="45.01921207435677" lon="8.513361424251372"><ele>144.66666666666669</ele><time>2026-03-28T08:12:07Z</time></trkpt><trkpt lat="45.01929262012308" lon="8.513424154444472"><ele>144.5</ele><time>2026-03-28T08:12:08Z</time></trkpt><trkpt lat="45.01935964609716" lon="8.513472145905789"><ele>144.33333333333334</ele><time>2026-03-28T08:12:09Z</time></trkpt><trkpt lat="45.019422500704465" lon="8.51352165410971"><ele>144.16666666666666</ele><time>2026-03-28T08:12:10Z</time></trkpt><trkpt lat="45.01948129920223" lon="8.513567903431056"><ele>144.0</ele><time>2026-03-28T08:12:11Z</time></trkpt><trkpt lat="45.01954051229636" lon="8.513610421730135"><ele>144.0</ele><time>2026-03-28T08:12:12Z</time></trkpt><trkpt lat="45.01960006207774" lon="8.513653358573748"><ele>144.0</ele><time>2026-03-28T08:12:13Z</time></trkpt><trkpt lat="45.0196651709441" lon="8.513702873012104"><ele>144.0</ele><time>2026-03-28T08:12:14Z</time></trkpt><trkpt lat="45.019729836585476" lon="8.513753420277531"><ele>144.0</ele><time>2026-03-28T08:12:15Z</time></trkpt><trkpt lat="45.01980273034502" lon="8.5138114760143"><ele>144.0</ele><time>2026-03-28T08:12:16Z</time></trkpt><trkpt lat="45.01988007000777" lon="8.513861733406838"><ele>144.0</ele><time>2026-03-28T08:12:17Z</time></trkpt><trkpt lat="45.019963753330494" lon="8.513923944154794"><ele>143.25</ele><time>2026-03-28T08:12:18Z</time></trkpt><trkpt lat="45.0200565049157" lon="8.51398950826368"><ele>142.5</ele><time>2026-03-28T08:12:19Z</time></trkpt><trkpt lat="45.020158517090266" lon="8.514069894642853"><ele>141.75</ele><time>2026-03-28T08:12:20Z</time></trkpt><trkpt lat="45.02027570243362" lon="8.514155049573292"><ele>141.0</ele><time>2026-03-28T08:12:21Z</time></trkpt><trkpt lat="45.02039513211025" lon="8.514238887728485"><ele>141.0</ele><time>2026-03-28T08:12:22Z</time></trkpt><trkpt lat="45.02050488266617" lon="8.514315098602548"><ele>141.0</ele><time>2026-03-28T08:12:23Z</time></trkpt><trkpt lat="45.02061675227547" lon="8.514395406441531"><ele>141.0</ele><time>2026-03-28T08:12:24Z</time></trkpt><trkpt lat="45.0207298837275" lon="8.514486110615596"><ele>141.0</ele><time>2026-03-28T08:12:25Z</time></trkpt><trkpt lat="45.02084888733934" lon="8.514574187711037"><ele>140.5</ele><time>2026-03-28T08:12:25.999Z</time></trkpt><trkpt lat="45.02100314561788" lon="8.514671495843663"><ele>140.0</ele><time>2026-03-28T08:12:26.999Z</time></trkpt><trkpt lat="45.02114686684687" lon="8.514763185167642"><ele>139.5</ele><time>2026-03-28T08:12:27.999Z</time></trkpt><trkpt lat="45.02120856052233" lon="8.51483951420119"><ele>139.0</ele><time>2026-03-28T08:12:28.999Z</time></trkpt><trkpt lat="45.02128625808094" lon="8.514892174445249"><ele>139.0</ele><time>2026-03-28T08:12:29.999Z</time></trkpt><trkpt lat="45.02135762243435" lon="8.514940131056786"><ele>139.0</ele><time>2026-03-28T08:12:30.999Z</time></trkpt><trkpt lat="45.02144491254327" lon="8.514955014994674"><ele>139.0</ele><time>2026-03-28T08:12:32.999Z</time></trkpt><trkpt lat="45.02144724170555" lon="8.514846176911709"><ele>139.0</ele><time>2026-03-28T08:12:34.999Z</time></trkpt><trkpt lat="45.02145543134346" lon="8.514704071231126"><ele>139.0</ele><time>2026-03-28T08:12:36.999Z</time></trkpt><trkpt lat="45.021471889970016" lon="8.514618106110445"><ele>139.0</ele><time>2026-03-28T08:12:37.999Z</time></trkpt><trkpt lat="45.02148645192387" lon="8.514523628273736"><ele>138.83333333333334</ele><time>2026-03-28T08:12:38.999Z</time></trkpt><trkpt lat="45.02150359203178" lon="8.514432106658056"><ele>138.66666666666669</ele><time>2026-03-28T08:12:39.999Z</time></trkpt><trkpt lat="45.021545770979166" lon="8.514261876406582"><ele>138.5</ele><time>2026-03-28T08:12:41.999Z</time></trkpt><trkpt lat="45.02156549646985" lon="8.514152795609913"><ele>138.33333333333334</ele><time>2026-03-28T08:12:42.999Z</time></trkpt><trkpt lat="45.021592863072385" lon="8.514046466773902"><ele>138.16666666666666</ele><time>2026-03-28T08:12:43.999Z</time></trkpt><trkpt lat="45.02161279663818" lon="8.513944107498967"><ele>138.0</ele><time>2026-03-28T08:12:44.999Z</time></trkpt><trkpt lat="45.02163048307964" lon="8.513842569897655"><ele>137.20000000000002</ele><time>2026-03-28T08:12:45.999Z</time></trkpt><trkpt lat="45.02165688803903" lon="8.513684157860336"><ele>136.4</ele><time>2026-03-28T08:12:47.999Z</time></trkpt><trkpt lat="45.02167524453652" lon="8.51355639156158"><ele>135.60000000000002</ele><time>2026-03-28T08:12:49.999Z</time></trkpt><trkpt lat="45.02169866341235" lon="8.51343393830273"><ele>134.8</ele><time>2026-03-28T08:12:50.999Z</time></trkpt><trkpt lat="45.02171888929547" lon="8.513286666139468"><ele>134.0</ele><time>2026-03-28T08:12:51.999Z</time></trkpt><trkpt lat="45.02175171720539" lon="8.51312838765013"><ele>134.0</ele><time>2026-03-28T08:12:52.999Z</time></trkpt><trkpt lat="45.02177428396895" lon="8.512957690249829"><ele>134.0</ele><time>2026-03-28T08:12:53.999Z</time></trkpt><trkpt lat="45.021800811706605" lon="8.512762967632879"><ele>134.0</ele><time>2026-03-28T08:12:54.999Z</time></trkpt><trkpt lat="45.02183405519426" lon="8.512537082499335"><ele>134.0</ele><time>2026-03-28T08:12:55.999Z</time></trkpt><trkpt lat="45.02186955427975" lon="8.512300169926919"><ele>134.66666666666666</ele><time>2026-03-28T08:12:56.999Z</time></trkpt><trkpt lat="45.02190386859674" lon="8.51207116431017"><ele>135.33333333333334</ele><time>2026-03-28T08:12:57.999Z</time></trkpt><trkpt lat="45.02193712438756" lon="8.511855055540597"><ele>136.0</ele><time>2026-03-28T08:12:58.999Z</time></trkpt><trkpt lat="45.02196844976798" lon="8.511653233320096"><ele>136.0</ele><time>2026-03-28T08:12:59.999Z</time></trkpt><trkpt lat="45.02199933092006" lon="8.5114366863401"><ele>136.0</ele><time>2026-03-28T08:13:00.999Z</time></trkpt><trkpt lat="45.02201346541703" lon="8.511218728820761"><ele>136.0</ele><time>2026-03-28T08:13:01.999Z</time></trkpt><trkpt lat="45.02203514910771" lon="8.510976874939587"><ele>136.25</ele><time>2026-03-28T08:13:02.999Z</time></trkpt><trkpt lat="45.02204866828332" lon="8.510770513446051"><ele>136.5</ele><time>2026-03-28T08:13:03.999Z</time></trkpt><trkpt lat="45.02207757484871" lon="8.510557964724967"><ele>136.75</ele><time>2026-03-28T08:13:04.999Z</time></trkpt><trkpt lat="45.022074623934294" lon="8.510365029447735"><ele>137.0</ele><time>2026-03-28T08:13:05.999Z</time></trkpt><trkpt lat="45.02211378720151" lon="8.5101672844162"><ele>137.25</ele><time>2026-03-28T08:13:06.999Z</time></trkpt><trkpt lat="45.02215203177202" lon="8.50998950728839"><ele>137.5</ele><time>2026-03-28T08:13:07.999Z</time></trkpt><trkpt lat="45.022193540351864" lon="8.509833974728863"><ele>137.75</ele><time>2026-03-28T08:13:08.999Z</time></trkpt><trkpt lat="45.022238824332554" lon="8.509663409384105"><ele>138.0</ele><time>2026-03-28T08:13:09.999Z</time></trkpt><trkpt lat="45.022272215425915" lon="8.509481608315804"><ele>138.25</ele><time>2026-03-28T08:13:10.999Z</time></trkpt><trkpt lat="45.022303160112514" lon="8.509272274399377"><ele>138.5</ele><time>2026-03-28T08:13:11.999Z</time></trkpt><trkpt lat="45.022312558590684" lon="8.50906109198468"><ele>138.75</ele><time>2026-03-28T08:13:12.999Z</time></trkpt><trkpt lat="45.02232604594465" lon="8.508852499379707"><ele>139.0</ele><time>2026-03-28T08:13:13.999Z</time></trkpt><trkpt lat="45.02233122178185" lon="8.508633639035699"><ele>140.0</ele><time>2026-03-28T08:13:14.999Z</time></trkpt><trkpt lat="45.022350945395665" lon="8.508413486996494"><ele>141.0</ele><time>2026-03-28T08:13:15.999Z</time></trkpt><trkpt lat="45.02235749503599" lon="8.50819421726148"><ele>142.0</ele><time>2026-03-28T08:13:16.999Z</time></trkpt><trkpt lat="45.022363903729" lon="8.507979665770383"><ele>142.5</ele><time>2026-03-28T08:13:17.999Z</time></trkpt><trkpt lat="45.02237027243946" lon="8.507766453338665"><ele>143.0</ele><time>2026-03-28T08:13:18.999Z</time></trkpt><trkpt lat="45.022376204657576" lon="8.507567853605027"><ele>143.5</ele><time>2026-03-28T08:13:19.999Z</time></trkpt><trkpt lat="45.02238220731038" lon="8.507366896147435"><ele>144.0</ele><time>2026-03-28T08:13:20.999Z</time></trkpt><trkpt lat="45.02238839492593" lon="8.507164196824396"><ele>144.0</ele><time>2026-03-28T08:13:21.999Z</time></trkpt><trkpt lat="45.0223957116417" lon="8.506951541523774"><ele>144.0</ele><time>2026-03-28T08:13:22.999Z</time></trkpt><trkpt lat="45.02240551657717" lon="8.506721830686338"><ele>144.0</ele><time>2026-03-28T08:13:23.999Z</time></trkpt><trkpt lat="45.02241738758644" lon="8.506500714273358"><ele>144.0</ele><time>2026-03-28T08:13:24.999Z</time></trkpt><trkpt lat="45.02242954871047" lon="8.506293752833301"><ele>144.0</ele><time>2026-03-28T08:13:25.999Z</time></trkpt><trkpt lat="45.02244406452057" lon="8.50610370041709"><ele>144.0</ele><time>2026-03-28T08:13:26.999Z</time></trkpt><trkpt lat="45.02246559944731" lon="8.505886994934404"><ele>144.0</ele><time>2026-03-28T08:13:27.999Z</time></trkpt><trkpt lat="45.0224811680517" lon="8.505652039525607"><ele>144.0</ele><time>2026-03-28T08:13:28.999Z</time></trkpt><trkpt lat="45.022540070949404" lon="8.50538478850553"><ele>144.0</ele><time>2026-03-28T08:13:29.999Z</time></trkpt><trkpt lat="45.02256704450111" lon="8.505115434988733"><ele>144.0</ele><time>2026-03-28T08:13:30.999Z</time></trkpt><trkpt lat="45.022608451528484" lon="8.504869425855347"><ele>144.0</ele><time>2026-03-28T08:13:31.999Z</time></trkpt><trkpt lat="45.02265666638726" lon="8.504635151916855"><ele>144.0</ele><time>2026-03-28T08:13:32.999Z</time></trkpt><trkpt lat="45.02269151495368" lon="8.50440808241303"><ele>144.0</ele><time>2026-03-28T08:13:33.999Z</time></trkpt><trkpt lat="45.02272134367704" lon="8.504213722109371"><ele>143.66666666666666</ele><time>2026-03-28T08:13:34.999Z</time></trkpt><trkpt lat="45.022755035211404" lon="8.503994191896735"><ele>143.33333333333331</ele><time>2026-03-28T08:13:35.999Z</time></trkpt><trkpt lat="45.02278828227364" lon="8.503777557776012"><ele>143.0</ele><time>2026-03-28T08:13:36.999Z</time></trkpt><trkpt lat="45.02282184942291" lon="8.503572726783458"><ele>143.0</ele><time>2026-03-28T08:13:37.999Z</time></trkpt><trkpt lat="45.022856198542335" lon="8.50340218760077"><ele>143.0</ele><time>2026-03-28T08:13:38.999Z</time></trkpt><trkpt lat="45.02291140155043" lon="8.503238131928963"><ele>143.0</ele><time>2026-03-28T08:13:39.999Z</time></trkpt><trkpt lat="45.022971001205654" lon="8.50306399530185"><ele>143.0</ele><time>2026-03-28T08:13:40.999Z</time></trkpt><trkpt lat="45.02302430432064" lon="8.502904314908086"><ele>143.6</ele><time>2026-03-28T08:13:41.999Z</time></trkpt><trkpt lat="45.023052500780764" lon="8.502755594577904"><ele>144.20000000000002</ele><time>2026-03-28T08:13:42.999Z</time></trkpt><trkpt lat="45.02308311874103" lon="8.502617951918536"><ele>144.8</ele><time>2026-03-28T08:13:43.999Z</time></trkpt><trkpt lat="45.02309026020882" lon="8.502471109234481"><ele>145.4</ele><time>2026-03-28T08:13:44.999Z</time></trkpt><trkpt lat="45.02306405584634" lon="8.502306124067852"><ele>146.0</ele><time>2026-03-28T08:13:45.999Z</time></trkpt><trkpt lat="45.023007300246235" lon="8.502117832334534"><ele>146.33333333333331</ele><time>2026-03-28T08:13:46.998Z</time></trkpt><trkpt lat="45.02292768324395" lon="8.501888350414355"><ele>146.66666666666666</ele><time>2026-03-28T08:13:47.998Z</time></trkpt><trkpt lat="45.022850551489455" lon="8.501674531768902"><ele>147.0</ele><time>2026-03-28T08:13:48.998Z</time></trkpt><trkpt lat="45.022781359785995" lon="8.501489528913728"><ele>147.0</ele><time>2026-03-28T08:13:49.998Z</time></trkpt><trkpt lat="45.02272565121656" lon="8.501327293596068"><ele>147.0</ele><time>2026-03-28T08:13:50.998Z</time></trkpt><trkpt lat="45.022703982820886" lon="8.501186952607945"><ele>147.0</ele><time>2026-03-28T08:13:51.998Z</time></trkpt><trkpt lat="45.02269052548094" lon="8.501086927577836"><ele>147.0</ele><time>2026-03-28T08:13:52.998Z</time></trkpt><trkpt lat="45.022709296153806" lon="8.500967492295436"><ele>147.0</ele><time>2026-03-28T08:13:55Z</time></trkpt><trkpt lat="45.02283891140343" lon="8.50092939801106"><ele>147.0</ele><time>2026-03-28T08:13:57Z</time></trkpt><trkpt lat="45.022970159787704" lon="8.50086078981353"><ele>147.0</ele><time>2026-03-28T08:13:58Z</time></trkpt><trkpt lat="45.023084923688394" lon="8.50080025334295"><ele>147.0</ele><time>2026-03-28T08:13:59Z</time></trkpt><trkpt lat="45.023206015872574" lon="8.500721611781893"><ele>147.0</ele><time>2026-03-28T08:14:00Z</time></trkpt><trkpt lat="45.023320290074814" lon="8.500649486470126"><ele>146.6</ele><time>2026-03-28T08:14:01Z</time></trkpt><trkpt lat="45.02342473593944" lon="8.500574358184561"><ele>146.2</ele><time>2026-03-28T08:14:02Z</time></trkpt><trkpt lat="45.0235063231218" lon="8.500504644158575"><ele>145.8</ele><time>2026-03-28T08:14:03Z</time></trkpt><trkpt lat="45.023567889132686" lon="8.50042755260109"><ele>145.4</ele><time>2026-03-28T08:14:04Z</time></trkpt><trkpt lat="45.023607382317216" lon="8.500296649561335"><ele>145.0</ele><time>2026-03-28T08:14:05Z</time></trkpt><trkpt lat="45.02361507764776" lon="8.50014968073313"><ele>144.8</ele><time>2026-03-28T08:14:06Z</time></trkpt><trkpt lat="45.023608328945016" lon="8.499984101498448"><ele>144.6</ele><time>2026-03-28T08:14:07Z</time></trkpt><trkpt lat="45.023633408698515" lon="8.499853861167706"><ele>144.4</ele><time>2026-03-28T08:14:08Z</time></trkpt><trkpt lat="45.02368056696398" lon="8.4997076506009"><ele>144.2</ele><time>2026-03-28T08:14:10Z</time></trkpt><trkpt lat="45.02373867362991" lon="8.499579552662057"><ele>144.0</ele><time>2026-03-28T08:14:13Z</time></trkpt><trkpt lat="45.02370587415744" lon="8.499409909589772"><ele>143.8</ele><time>2026-03-28T08:14:14Z</time></trkpt><trkpt lat="45.023743280540614" lon="8.499273627929494"><ele>143.60000000000002</ele><time>2026-03-28T08:14:15Z</time></trkpt><trkpt lat="45.02377678464758" lon="8.4991396583455"><ele>143.4</ele><time>2026-03-28T08:14:16Z</time></trkpt><trkpt lat="45.023822057206814" lon="8.499018639463939"><ele>143.20000000000002</ele><time>2026-03-28T08:14:17Z</time></trkpt><trkpt lat="45.02387881825348" lon="8.498899825659134"><ele>143.0</ele><time>2026-03-28T08:14:18Z</time></trkpt><trkpt lat="45.023944736233766" lon="8.498781984793132"><ele>143.5</ele><time>2026-03-28T08:14:19Z</time></trkpt><trkpt lat="45.02401627647277" lon="8.498663749604539"><ele>144.0</ele><time>2026-03-28T08:14:20Z</time></trkpt><trkpt lat="45.024091498199084" lon="8.498519056687737"><ele>144.5</ele><time>2026-03-28T08:14:21Z</time></trkpt><trkpt lat="45.02418221276305" lon="8.498370386989503"><ele>145.0</ele><time>2026-03-28T08:14:22Z</time></trkpt><trkpt lat="45.02426249699555" lon="8.498212255999086"><ele>145.0</ele><time>2026-03-28T08:14:23Z</time></trkpt><trkpt lat="45.02432507415507" lon="8.498055112742486"><ele>145.0</ele><time>2026-03-28T08:14:24Z</time></trkpt><trkpt lat="45.0243677537307" lon="8.497882062655185"><ele>145.0</ele><time>2026-03-28T08:14:25Z</time></trkpt><trkpt lat="45.024414865248225" lon="8.497660133251248"><ele>145.0</ele><time>2026-03-28T08:14:26Z</time></trkpt><trkpt lat="45.02444966857199" lon="8.497354856085455"><ele>147.0</ele><time>2026-03-28T08:14:27Z</time></trkpt><trkpt lat="45.0244868770573" lon="8.497005763019157"><ele>149.0</ele><time>2026-03-28T08:14:28Z</time></trkpt><trkpt lat="45.024522056931225" lon="8.496670784129389"><ele>149.0</ele><time>2026-03-28T08:14:29Z</time></trkpt><trkpt lat="45.02454856341335" lon="8.49640685028185"><ele>149.0</ele><time>2026-03-28T08:14:30Z</time></trkpt><trkpt lat="45.024568160826426" lon="8.496199331640483"><ele>149.0</ele><time>2026-03-28T08:14:31Z</time></trkpt><trkpt lat="45.024579630853" lon="8.49605815532304"><ele>149.0</ele><time>2026-03-28T08:14:32Z</time></trkpt><trkpt lat="45.02459167103132" lon="8.49586608040934"><ele>148.83333333333331</ele><time>2026-03-28T08:14:33Z</time></trkpt><trkpt lat="45.02460326536279" lon="8.495733888825459"><ele>148.66666666666666</ele><time>2026-03-28T08:14:34Z</time></trkpt><trkpt lat="45.02461573886781" lon="8.495607427127712"><ele>148.5</ele><time>2026-03-28T08:14:35Z</time></trkpt><trkpt lat="45.02465226190248" lon="8.495513378074929"><ele>148.33333333333334</ele><time>2026-03-28T08:14:36Z</time></trkpt><trkpt lat="45.02468764739146" lon="8.495410189663932"><ele>148.16666666666669</ele><time>2026-03-28T08:14:36.999Z</time></trkpt><trkpt lat="45.02470751783109" lon="8.495316452487556"><ele>148.0</ele><time>2026-03-28T08:14:37.999Z</time></trkpt><trkpt lat="45.024738677862096" lon="8.495232045380261"><ele>148.0</ele><time>2026-03-28T08:14:38.999Z</time></trkpt><trkpt lat="45.024774667149416" lon="8.495128246994273"><ele>148.0</ele><time>2026-03-28T08:14:39.999Z</time></trkpt><trkpt lat="45.02481484078091" lon="8.495007428600827"><ele>148.0</ele><time>2026-03-28T08:14:40.999Z</time></trkpt><trkpt lat="45.02486901855931" lon="8.494873702054242"><ele>148.0</ele><time>2026-03-28T08:14:41.999Z</time></trkpt><trkpt lat="45.024907127564504" lon="8.494737885356162"><ele>148.0</ele><time>2026-03-28T08:14:42.999Z</time></trkpt><trkpt lat="45.02492954301582" lon="8.494596940180525"><ele>148.25</ele><time>2026-03-28T08:14:43.999Z</time></trkpt><trkpt lat="45.02497449778496" lon="8.494453633026367"><ele>148.5</ele><time>2026-03-28T08:14:44.999Z</time></trkpt><trkpt lat="45.025011757203586" lon="8.494292656206094"><ele>148.75</ele><time>2026-03-28T08:14:45.999Z</time></trkpt><trkpt lat="45.025062792897586" lon="8.494100878258187"><ele>149.0</ele><time>2026-03-28T08:14:46.999Z</time></trkpt><trkpt lat="45.02511535163608" lon="8.493888214985283"><ele>148.0</ele><time>2026-03-28T08:14:47.999Z</time></trkpt><trkpt lat="45.025178209454836" lon="8.493671545222607"><ele>147.0</ele><time>2026-03-28T08:14:48.999Z</time></trkpt><trkpt lat="45.02524316189813" lon="8.493427825834333"><ele>146.0</ele><time>2026-03-28T08:14:49.999Z</time></trkpt><trkpt lat="45.02530890646931" lon="8.493199006242623"><ele>146.0</ele><time>2026-03-28T08:14:50.999Z</time></trkpt><trkpt lat="45.02537788887824" lon="8.492988408175249"><ele>146.0</ele><time>2026-03-28T08:14:51.999Z</time></trkpt><trkpt lat="45.02547381481628" lon="8.49278357639868"><ele>146.0</ele><time>2026-03-28T08:14:52.999Z</time></trkpt><trkpt lat="45.02554891770433" lon="8.492547534173983"><ele>146.0</ele><time>2026-03-28T08:14:53.999Z</time></trkpt><trkpt lat="45.02563922903065" lon="8.492314551668557"><ele>146.0</ele><time>2026-03-28T08:14:54.999Z</time></trkpt><trkpt lat="45.025730418963576" lon="8.492084980844231"><ele>146.0</ele><time>2026-03-28T08:14:55.999Z</time></trkpt><trkpt lat="45.02582414927603" lon="8.491859830331414"><ele>145.33333333333331</ele><time>2026-03-28T08:14:56.999Z</time></trkpt><trkpt lat="45.025915528025386" lon="8.49163275979272"><ele>144.66666666666666</ele><time>2026-03-28T08:14:57.999Z</time></trkpt><trkpt lat="45.02600150011358" lon="8.491425820822343"><ele>144.0</ele><time>2026-03-28T08:14:58.999Z</time></trkpt><trkpt lat="45.026091032616925" lon="8.491207937443125"><ele>144.0</ele><time>2026-03-28T08:14:59.999Z</time></trkpt><trkpt lat="45.02617346339699" lon="8.490988660697464"><ele>144.0</ele><time>2026-03-28T08:15:00.999Z</time></trkpt><trkpt lat="45.02626002675237" lon="8.490769501931785"><ele>144.0</ele><time>2026-03-28T08:15:01.999Z</time></trkpt><trkpt lat="45.02637052949902" lon="8.490554004988727"><ele>143.66666666666666</ele><time>2026-03-28T08:15:02.999Z</time></trkpt><trkpt lat="45.026447750811684" lon="8.49034265948642"><ele>143.33333333333331</ele><time>2026-03-28T08:15:03.999Z</time></trkpt><trkpt lat="45.02654464449072" lon="8.490137291905267"><ele>143.0</ele><time>2026-03-28T08:15:04.999Z</time></trkpt><trkpt lat="45.0266327237055" lon="8.489954233796542"><ele>142.33333333333331</ele><time>2026-03-28T08:15:05.999Z</time></trkpt><trkpt lat="45.026716290952734" lon="8.489761396687953"><ele>141.66666666666666</ele><time>2026-03-28T08:15:06.999Z</time></trkpt><trkpt lat="45.02679736820467" lon="8.489569903929953"><ele>141.0</ele><time>2026-03-28T08:15:07.999Z</time></trkpt><trkpt lat="45.02686671818385" lon="8.489392871220351"><ele>140.66666666666666</ele><time>2026-03-28T08:15:08.999Z</time></trkpt><trkpt lat="45.02693437003419" lon="8.48919239612548"><ele>140.33333333333331</ele><time>2026-03-28T08:15:09.999Z</time></trkpt><trkpt lat="45.02700125558979" lon="8.488988790714265"><ele>140.0</ele><time>2026-03-28T08:15:10.999Z</time></trkpt><trkpt lat="45.02706237260015" lon="8.488777331865222"><ele>140.0</ele><time>2026-03-28T08:15:11.999Z</time></trkpt><trkpt lat="45.0271177652323" lon="8.488565829805818"><ele>140.0</ele><time>2026-03-28T08:15:12.999Z</time></trkpt><trkpt lat="45.02717412027987" lon="8.488349075601983"><ele>140.0</ele><time>2026-03-28T08:15:13.999Z</time></trkpt><trkpt lat="45.02722335693259" lon="8.48813904100827"><ele>140.0</ele><time>2026-03-28T08:15:14.999Z</time></trkpt><trkpt lat="45.027274676418465" lon="8.487977238647995"><ele>140.0</ele><time>2026-03-28T08:15:15.999Z</time></trkpt><trkpt lat="45.02731345254854" lon="8.487768145112252"><ele>140.0</ele><time>2026-03-28T08:15:16.999Z</time></trkpt><trkpt lat="45.027380694363515" lon="8.487555691294025"><ele>140.0</ele><time>2026-03-28T08:15:17.999Z</time></trkpt><trkpt lat="45.02744801337555" lon="8.487340999395068"><ele>139.66666666666666</ele><time>2026-03-28T08:15:18.999Z</time></trkpt><trkpt lat="45.027520453180465" lon="8.487129808733357"><ele>139.33333333333334</ele><time>2026-03-28T08:15:19.999Z</time></trkpt><trkpt lat="45.02759300756831" lon="8.48690890284741"><ele>139.0</ele><time>2026-03-28T08:15:20.999Z</time></trkpt><trkpt lat="45.02766077653183" lon="8.486704794996363"><ele>139.0</ele><time>2026-03-28T08:15:21.999Z</time></trkpt><trkpt lat="45.02773168759833" lon="8.486479081644571"><ele>139.0</ele><time>2026-03-28T08:15:22.999Z</time></trkpt><trkpt lat="45.027795274334444" lon="8.48628715032896"><ele>139.0</ele><time>2026-03-28T08:15:23.999Z</time></trkpt><trkpt lat="45.027860236732984" lon="8.486102253449799"><ele>139.0</ele><time>2026-03-28T08:15:24.999Z</time></trkpt><trkpt lat="45.02792659297485" lon="8.485813951596583"><ele>139.0</ele><time>2026-03-28T08:15:25.999Z</time></trkpt><trkpt lat="45.02797836544649" lon="8.485582289419277"><ele>139.0</ele><time>2026-03-28T08:15:26.999Z</time></trkpt><trkpt lat="45.02803255097724" lon="8.48534066451019"><ele>139.0</ele><time>2026-03-28T08:15:27.999Z</time></trkpt><trkpt lat="45.028084014491405" lon="8.485113475914064"><ele>139.0</ele><time>2026-03-28T08:15:28.999Z</time></trkpt><trkpt lat="45.02813268039897" lon="8.48488567600659"><ele>139.0</ele><time>2026-03-28T08:15:29.999Z</time></trkpt><trkpt lat="45.02817779640096" lon="8.484665172206089"><ele>138.5</ele><time>2026-03-28T08:15:30.999Z</time></trkpt><trkpt lat="45.02821544685877" lon="8.484476047411562"><ele>138.0</ele><time>2026-03-28T08:15:31.999Z</time></trkpt><trkpt lat="45.02825687725779" lon="8.484329994847538"><ele>137.5</ele><time>2026-03-28T08:15:32.999Z</time></trkpt><trkpt lat="45.02830864477121" lon="8.484206565322923"><ele>137.0</ele><time>2026-03-28T08:15:33.999Z</time></trkpt><trkpt lat="45.028393269083445" lon="8.484097233014722"><ele>137.0</ele><time>2026-03-28T08:15:34.999Z</time></trkpt><trkpt lat="45.0285171159062" lon="8.483981532596223"><ele>137.0</ele><time>2026-03-28T08:15:35.999Z</time></trkpt><trkpt lat="45.028673521977275" lon="8.483855540243624"><ele>137.0</ele><time>2026-03-28T08:15:36.999Z</time></trkpt><trkpt lat="45.0288391699647" lon="8.483688444117837"><ele>136.5</ele><time>2026-03-28T08:15:37.999Z</time></trkpt><trkpt lat="45.02897636533949" lon="8.483567343704475"><ele>136.0</ele><time>2026-03-28T08:15:38.999Z</time></trkpt><trkpt lat="45.02908542524176" lon="8.48345836108986"><ele>135.5</ele><time>2026-03-28T08:15:39.999Z</time></trkpt><trkpt lat="45.0291875260108" lon="8.48336703553833"><ele>135.0</ele><time>2026-03-28T08:15:40.999Z</time></trkpt><trkpt lat="45.02927711092166" lon="8.483287851923876"><ele>135.0</ele><time>2026-03-28T08:15:41.999Z</time></trkpt><trkpt lat="45.02936160611974" lon="8.483204604577582"><ele>135.0</ele><time>2026-03-28T08:15:42.999Z</time></trkpt><trkpt lat="45.02942431104852" lon="8.483136732275886"><ele>135.0</ele><time>2026-03-28T08:15:43.999Z</time></trkpt><trkpt lat="45.029499174407775" lon="8.483060937519541"><ele>135.0</ele><time>2026-03-28T08:15:45.999Z</time></trkpt><trkpt lat="45.02943833692257" lon="8.48291219878923"><ele>135.0</ele><time>2026-03-28T08:16:35.999Z</time></trkpt><trkpt lat="45.02938489442144" lon="8.482833531121392"><ele>134.0</ele><time>2026-03-28T08:16:37.999Z</time></trkpt><trkpt lat="45.029322510752216" lon="8.482764986101516"><ele>133.0</ele><time>2026-03-28T08:16:39.999Z</time></trkpt><trkpt lat="45.02923240677863" lon="8.482676547547227"><ele>132.0</ele><time>2026-03-28T08:16:41.999Z</time></trkpt><trkpt lat="45.029156227687736" lon="8.482618020279634"><ele>131.0</ele><time>2026-03-28T08:16:42.999Z</time></trkpt><trkpt lat="45.029058103603816" lon="8.48255661381384"><ele>130.0</ele><time>2026-03-28T08:16:43.999Z</time></trkpt><trkpt lat="45.028946746666406" lon="8.482518387127469"><ele>129.4</ele><time>2026-03-28T08:16:44.999Z</time></trkpt><trkpt lat="45.02883868888636" lon="8.482469747982773"><ele>128.8</ele><time>2026-03-28T08:16:45.999Z</time></trkpt><trkpt lat="45.028760327426504" lon="8.48241281992353"><ele>128.2</ele><time>2026-03-28T08:16:46.999Z</time></trkpt><trkpt lat="45.028683541279364" lon="8.482380542665378"><ele>127.6</ele><time>2026-03-28T08:16:47.999Z</time></trkpt><trkpt lat="45.02859754904159" lon="8.482349454931738"><ele>127.0</ele><time>2026-03-28T08:16:48.999Z</time></trkpt><trkpt lat="45.028474601959935" lon="8.482352597744118"><ele>127.0</ele><time>2026-03-28T08:16:49.999Z</time></trkpt><trkpt lat="45.02833820115267" lon="8.482330013297352"><ele>127.0</ele><time>2026-03-28T08:16:50.999Z</time></trkpt><trkpt lat="45.02820988080115" lon="8.482274040788113"><ele>127.0</ele><time>2026-03-28T08:16:51.999Z</time></trkpt><trkpt lat="45.02806732215716" lon="8.482203709569692"><ele>127.0</ele><time>2026-03-28T08:16:52.999Z</time></trkpt><trkpt lat="45.027894408804684" lon="8.482070235050202"><ele>126.66666666666667</ele><time>2026-03-28T08:16:53.999Z</time></trkpt><trkpt lat="45.02773708545634" lon="8.481933583573314"><ele>126.33333333333334</ele><time>2026-03-28T08:16:54.999Z</time></trkpt><trkpt lat="45.02761008046858" lon="8.481829833847259"><ele>126.0</ele><time>2026-03-28T08:16:55.999Z</time></trkpt><trkpt lat="45.02750282536063" lon="8.481748222499457"><ele>127.0</ele><time>2026-03-28T08:16:56.998Z</time></trkpt><trkpt lat="45.027403639438866" lon="8.48168473907181"><ele>128.0</ele><time>2026-03-28T08:16:57.998Z</time></trkpt><trkpt lat="45.02728218362194" lon="8.481634006199272"><ele>129.0</ele><time>2026-03-28T08:16:58.998Z</time></trkpt><trkpt lat="45.02712021294102" lon="8.481641399439352"><ele>130.0</ele><time>2026-03-28T08:16:59.998Z</time></trkpt><trkpt lat="45.02694510905295" lon="8.481612140835127"><ele>130.0</ele><time>2026-03-28T08:17:00.998Z</time></trkpt><trkpt lat="45.02675515342299" lon="8.481607413756322"><ele>130.0</ele><time>2026-03-28T08:17:01.998Z</time></trkpt><trkpt lat="45.02659010860155" lon="8.481603486654521"><ele>130.0</ele><time>2026-03-28T08:17:02.998Z</time></trkpt><trkpt lat="45.026404883544096" lon="8.481599895867454"><ele>129.66666666666669</ele><time>2026-03-28T08:17:03.998Z</time></trkpt><trkpt lat="45.026202598934084" lon="8.481595974354182"><ele>129.33333333333334</ele><time>2026-03-28T08:17:04.998Z</time></trkpt><trkpt lat="45.02602035326562" lon="8.481592441322329"><ele>129.0</ele><time>2026-03-28T08:17:05.998Z</time></trkpt><trkpt lat="45.02584938781489" lon="8.48158694745097"><ele>129.0</ele><time>2026-03-28T08:17:06.998Z</time></trkpt><trkpt lat="45.025683044196604" lon="8.48158145707813"><ele>129.0</ele><time>2026-03-28T08:17:07.998Z</time></trkpt><trkpt lat="45.02551970651683" lon="8.481576964998295"><ele>129.0</ele><time>2026-03-28T08:17:08.998Z</time></trkpt><trkpt lat="45.02537352549858" lon="8.481575325927947"><ele>129.0</ele><time>2026-03-28T08:17:09.998Z</time></trkpt><trkpt lat="45.02522537094295" lon="8.481568515124026"><ele>129.0</ele><time>2026-03-28T08:17:10.998Z</time></trkpt><trkpt lat="45.02506567440446" lon="8.481549576457125"><ele>129.0</ele><time>2026-03-28T08:17:11.998Z</time></trkpt><trkpt lat="45.02489544320334" lon="8.481512016256113"><ele>128.0</ele><time>2026-03-28T08:17:12.998Z</time></trkpt><trkpt lat="45.0247285678808" lon="8.481439539048992"><ele>127.0</ele><time>2026-03-28T08:17:13.998Z</time></trkpt><trkpt lat="45.0245486220591" lon="8.481337208102596"><ele>126.0</ele><time>2026-03-28T08:17:14.998Z</time></trkpt><trkpt lat="45.02437266228988" lon="8.481236556382504"><ele>125.0</ele><time>2026-03-28T08:17:15.998Z</time></trkpt><trkpt lat="45.024185226576975" lon="8.48112933828817"><ele>124.0</ele><time>2026-03-28T08:17:16.998Z</time></trkpt><trkpt lat="45.02400142496194" lon="8.481024199062427"><ele>123.0</ele><time>2026-03-28T08:17:17.998Z</time></trkpt><trkpt lat="45.02381871013499" lon="8.480919681355644"><ele>123.0</ele><time>2026-03-28T08:17:18.998Z</time></trkpt><trkpt lat="45.023645821168586" lon="8.48082132307754"><ele>123.0</ele><time>2026-03-28T08:17:19.998Z</time></trkpt><trkpt lat="45.02346077543523" lon="8.480716498847652"><ele>123.0</ele><time>2026-03-28T08:17:20.998Z</time></trkpt><trkpt lat="45.02329558538758" lon="8.4806229220735"><ele>123.66666666666666</ele><time>2026-03-28T08:17:21.998Z</time></trkpt><trkpt lat="45.02315622072596" lon="8.480543974965972"><ele>124.33333333333333</ele><time>2026-03-28T08:17:22.998Z</time></trkpt><trkpt lat="45.02301577940977" lon="8.480487581670955"><ele>125.0</ele><time>2026-03-28T08:17:23.998Z</time></trkpt><trkpt lat="45.022849099573925" lon="8.48036999741624"><ele>125.0</ele><time>2026-03-28T08:17:24.998Z</time></trkpt><trkpt lat="45.02269864596044" lon="8.480306314074424"><ele>125.0</ele><time>2026-03-28T08:17:25.998Z</time></trkpt><trkpt lat="45.02255842417984" lon="8.480229545546122"><ele>125.0</ele><time>2026-03-28T08:17:26.998Z</time></trkpt><trkpt lat="45.0224218951515" lon="8.480127985681897"><ele>125.5</ele><time>2026-03-28T08:17:27.998Z</time></trkpt><trkpt lat="45.02227825829756" lon="8.480064509800656"><ele>126.0</ele><time>2026-03-28T08:17:28.998Z</time></trkpt><trkpt lat="45.02214558057417" lon="8.479987033522606"><ele>126.5</ele><time>2026-03-28T08:17:29.998Z</time></trkpt><trkpt lat="45.02201338843253" lon="8.479913523670577"><ele>127.0</ele><time>2026-03-28T08:17:30.998Z</time></trkpt><trkpt lat="45.021879547106046" lon="8.47983976457004"><ele>127.0</ele><time>2026-03-28T08:17:31.998Z</time></trkpt><trkpt lat="45.021746519218325" lon="8.479765121189475"><ele>127.0</ele><time>2026-03-28T08:17:32.998Z</time></trkpt><trkpt lat="45.021625287007254" lon="8.479697795701098"><ele>127.0</ele><time>2026-03-28T08:17:33.998Z</time></trkpt><trkpt lat="45.02150458607868" lon="8.47962102322912"><ele>127.0</ele><time>2026-03-28T08:17:34.998Z</time></trkpt><trkpt lat="45.021390714911725" lon="8.4795579524449"><ele>126.5</ele><time>2026-03-28T08:17:35.998Z</time></trkpt><trkpt lat="45.02127548577535" lon="8.47949480325647"><ele>126.0</ele><time>2026-03-28T08:17:36.998Z</time></trkpt><trkpt lat="45.021156789092046" lon="8.479392463150871"><ele>125.5</ele><time>2026-03-28T08:17:37.998Z</time></trkpt><trkpt lat="45.021040414704615" lon="8.479298592306478"><ele>125.0</ele><time>2026-03-28T08:17:38.998Z</time></trkpt><trkpt lat="45.02093326269567" lon="8.4792294982428"><ele>125.0</ele><time>2026-03-28T08:17:39.998Z</time></trkpt><trkpt lat="45.02084377764383" lon="8.479149777080325"><ele>125.0</ele><time>2026-03-28T08:17:40.998Z</time></trkpt><trkpt lat="45.020761282367275" lon="8.479071282639216"><ele>125.0</ele><time>2026-03-28T08:17:41.998Z</time></trkpt><trkpt lat="45.02067656312194" lon="8.478998490387816"><ele>125.0</ele><time>2026-03-28T08:17:42.998Z</time></trkpt><trkpt lat="45.02060414691794" lon="8.478923895838829"><ele>125.0</ele><time>2026-03-28T08:17:43.998Z</time></trkpt><trkpt lat="45.020535867127045" lon="8.478863273131742"><ele>125.6</ele><time>2026-03-28T08:17:44.998Z</time></trkpt><trkpt lat="45.020483555826594" lon="8.478790013289219"><ele>126.2</ele><time>2026-03-28T08:17:45.998Z</time></trkpt><trkpt lat="45.02042694087485" lon="8.47873457833223"><ele>126.80000000000001</ele><time>2026-03-28T08:17:46.998Z</time></trkpt><trkpt lat="45.02031821980739" lon="8.478655144890771"><ele>127.4</ele><time>2026-03-28T08:17:48.998Z</time></trkpt><trkpt lat="45.02023731470152" lon="8.478547174486907"><ele>128.0</ele><time>2026-03-28T08:17:50.998Z</time></trkpt><trkpt lat="45.02008503789122" lon="8.4787115480746"><ele>128.0</ele><time>2026-03-28T08:17:54.998Z</time></trkpt><trkpt lat="45.020031578832906" lon="8.478790809977298"><ele>128.0</ele><time>2026-03-28T08:17:55.998Z</time></trkpt><trkpt lat="45.01997587220878" lon="8.478870841854887"><ele>128.0</ele><time>2026-03-28T08:17:56.998Z</time></trkpt><trkpt lat="45.01991337753562" lon="8.478958691744719"><ele>128.0</ele><time>2026-03-28T08:17:57.998Z</time></trkpt><trkpt lat="45.01981881704345" lon="8.479109978370452"><ele>128.0</ele><time>2026-03-28T08:17:59.998Z</time></trkpt><trkpt lat="45.01976270424749" lon="8.479220479535291"><ele>129.75</ele><time>2026-03-28T08:18:00.998Z</time></trkpt><trkpt lat="45.01971821602555" lon="8.479351769607835"><ele>131.5</ele><time>2026-03-28T08:18:01.998Z</time></trkpt><trkpt lat="45.01966734989882" lon="8.479511941723489"><ele>133.25</ele><time>2026-03-28T08:18:02.998Z</time></trkpt><trkpt lat="45.019621688842385" lon="8.479667365618614"><ele>135.0</ele><time>2026-03-28T08:18:03.998Z</time></trkpt><trkpt lat="45.01957374033006" lon="8.479838205757256"><ele>135.5</ele><time>2026-03-28T08:18:04.998Z</time></trkpt><trkpt lat="45.01951885739198" lon="8.480013881528858"><ele>136.0</ele><time>2026-03-28T08:18:05.998Z</time></trkpt><trkpt lat="45.019469221372105" lon="8.480171526217623"><ele>136.5</ele><time>2026-03-28T08:18:06.999Z</time></trkpt><trkpt lat="45.019414292608026" lon="8.480343446565403"><ele>137.0</ele><time>2026-03-28T08:18:07.999Z</time></trkpt><trkpt lat="45.01937409129717" lon="8.480482967708312"><ele>137.6</ele><time>2026-03-28T08:18:08.999Z</time></trkpt><trkpt lat="45.019349581600906" lon="8.480624908520731"><ele>138.2</ele><time>2026-03-28T08:18:09.999Z</time></trkpt><trkpt lat="45.019357546748886" lon="8.480776637447882"><ele>138.8</ele><time>2026-03-28T08:18:10.999Z</time></trkpt><trkpt lat="45.01939748705852" lon="8.480926491785132"><ele>139.4</ele><time>2026-03-28T08:18:11.999Z</time></trkpt><trkpt lat="45.01943722395881" lon="8.481042345140077"><ele>140.0</ele><time>2026-03-28T08:18:12.999Z</time></trkpt><trkpt lat="45.01943542792523" lon="8.481149522812265"><ele>140.0</ele><time>2026-03-28T08:18:13.999Z</time></trkpt><trkpt lat="45.01937642118681" lon="8.481227650782134"><ele>140.0</ele><time>2026-03-28T08:18:14.999Z</time></trkpt><trkpt lat="45.01930180685362" lon="8.48125332269205"><ele>140.0</ele><time>2026-03-28T08:18:15.999Z</time></trkpt><trkpt lat="45.01921366178776" lon="8.48131874429908"><ele>140.0</ele><time>2026-03-28T08:18:16.999Z</time></trkpt><trkpt lat="45.019112951002384" lon="8.481408229028577"><ele>140.0</ele><time>2026-03-28T08:18:17.999Z</time></trkpt><trkpt lat="45.01900230003868" lon="8.481474189414701"><ele>140.66666666666666</ele><time>2026-03-28T08:18:18.999Z</time></trkpt><trkpt lat="45.01891294457165" lon="8.48154614335225"><ele>141.33333333333331</ele><time>2026-03-28T08:18:19.999Z</time></trkpt><trkpt lat="45.01885760058605" lon="8.481620870769781"><ele>142.0</ele><time>2026-03-28T08:18:20.999Z</time></trkpt><trkpt lat="45.018831513169815" lon="8.481721933605625"><ele>142.66666666666666</ele><time>2026-03-28T08:18:21.999Z</time></trkpt><trkpt lat="45.01884322676427" lon="8.481832786148306"><ele>143.33333333333334</ele><time>2026-03-28T08:18:22.999Z</time></trkpt><trkpt lat="45.018884342453106" lon="8.481972843633429"><ele>144.0</ele><time>2026-03-28T08:18:23.999Z</time></trkpt><trkpt lat="45.01892853429308" lon="8.482135115669335"><ele>145.2</ele><time>2026-03-28T08:18:24.999Z</time></trkpt><trkpt lat="45.01896485841424" lon="8.482286238451495"><ele>146.4</ele><time>2026-03-28T08:18:25.999Z</time></trkpt><trkpt lat="45.01899743360663" lon="8.482399696929159"><ele>147.6</ele><time>2026-03-28T08:18:27Z</time></trkpt><trkpt lat="45.019023848234625" lon="8.482512731929734"><ele>148.8</ele><time>2026-03-28T08:18:28Z</time></trkpt><trkpt lat="45.01905657930266" lon="8.482621756061157"><ele>150.0</ele><time>2026-03-28T08:18:29Z</time></trkpt><trkpt lat="45.01908877150943" lon="8.482756784972075"><ele>150.0</ele><time>2026-03-28T08:18:30Z</time></trkpt><trkpt lat="45.01911413454349" lon="8.482882453669903"><ele>150.0</ele><time>2026-03-28T08:18:31Z</time></trkpt><trkpt lat="45.01913735909925" lon="8.483013174185006"><ele>150.0</ele><time>2026-03-28T08:18:32Z</time></trkpt><trkpt lat="45.01915870906866" lon="8.483143520984099"><ele>150.0</ele><time>2026-03-28T08:18:33Z</time></trkpt><trkpt lat="45.019180150941295" lon="8.483265758428114"><ele>150.0</ele><time>2026-03-28T08:18:34Z</time></trkpt><trkpt lat="45.01922263664033" lon="8.483341372194346"><ele>150.0</ele><time>2026-03-28T08:18:35Z</time></trkpt><trkpt lat="45.01934938386761" lon="8.483455245540425"><ele>152.83333333333334</ele><time>2026-03-28T08:18:37Z</time></trkpt><trkpt lat="45.01942479033688" lon="8.483525764471732"><ele>155.66666666666666</ele><time>2026-03-28T08:18:38Z</time></trkpt><trkpt lat="45.01949082576887" lon="8.483616777161185"><ele>158.5</ele><time>2026-03-28T08:18:39Z</time></trkpt><trkpt lat="45.01954154435271" lon="8.483671439730623"><ele>161.33333333333331</ele><time>2026-03-28T08:18:39.999Z</time></trkpt><trkpt lat="45.01957986644898" lon="8.483782088731521"><ele>164.16666666666666</ele><time>2026-03-28T08:18:41.999Z</time></trkpt><trkpt lat="45.01955541593122" lon="8.483890741172967"><ele>167.0</ele><time>2026-03-28T08:18:43.999Z</time></trkpt><trkpt lat="45.019489453617375" lon="8.483937735415138"><ele>169.39999999999998</ele><time>2026-03-28T08:18:44.999Z</time></trkpt><trkpt lat="45.019412214905024" lon="8.484018843890906"><ele>171.79999999999998</ele><time>2026-03-28T08:18:45.999Z</time></trkpt><trkpt lat="45.01934063123025" lon="8.484121864823976"><ele>174.2</ele><time>2026-03-28T08:18:46.999Z</time></trkpt><trkpt lat="45.01928388347222" lon="8.4842366104989"><ele>176.6</ele><time>2026-03-28T08:18:47.999Z</time></trkpt><trkpt lat="45.01925138789833" lon="8.484365993962324"><ele>179.0</ele><time>2026-03-28T08:18:48.999Z</time></trkpt><trkpt lat="45.019233570398356" lon="8.484516946540866"><ele>179.79999999999998</ele><time>2026-03-28T08:18:49.999Z</time></trkpt><trkpt lat="45.01922494800875" lon="8.484679692268738"><ele>180.6</ele><time>2026-03-28T08:18:50.999Z</time></trkpt><trkpt lat="45.01921267829265" lon="8.48484936748077"><ele>181.4</ele><time>2026-03-28T08:18:51.999Z</time></trkpt><trkpt lat="45.01919798805211" lon="8.484987268359387"><ele>182.2</ele><time>2026-03-28T08:18:52.999Z</time></trkpt><trkpt lat="45.019190545388895" lon="8.485099748379957"><ele>183.0</ele><time>2026-03-28T08:18:53.999Z</time></trkpt><trkpt lat="45.01917284158572" lon="8.485211193673717"><ele>183.0</ele><time>2026-03-28T08:18:54.999Z</time></trkpt><trkpt lat="45.01913606050007" lon="8.485359283266897"><ele>183.0</ele><time>2026-03-28T08:18:56.999Z</time></trkpt><trkpt lat="45.01901314687672" lon="8.485433037926255"><ele>183.0</ele><time>2026-03-28T08:18:58.999Z</time></trkpt><trkpt lat="45.01893123285609" lon="8.48544403571706"><ele>183.0</ele><time>2026-03-28T08:18:59.999Z</time></trkpt><trkpt lat="45.018842170260434" lon="8.4854612541074"><ele>183.0</ele><time>2026-03-28T08:19:00.999Z</time></trkpt><trkpt lat="45.01872994621078" lon="8.48546600664399"><ele>183.5</ele><time>2026-03-28T08:19:01.999Z</time></trkpt><trkpt lat="45.018599976266756" lon="8.485466721606"><ele>184.0</ele><time>2026-03-28T08:19:02.999Z</time></trkpt><trkpt lat="45.01845696107892" lon="8.485465330394202"><ele>184.5</ele><time>2026-03-28T08:19:03.999Z</time></trkpt><trkpt lat="45.01830004940752" lon="8.48548862708842"><ele>185.0</ele><time>2026-03-28T08:19:04.999Z</time></trkpt><trkpt lat="45.01812267792878" lon="8.48551848558776"><ele>188.5</ele><time>2026-03-28T08:19:05.999Z</time></trkpt><trkpt lat="45.017954458731275" lon="8.48556484346386"><ele>192.0</ele><time>2026-03-28T08:19:06.999Z</time></trkpt><trkpt lat="45.01782746753217" lon="8.485607698992485"><ele>195.5</ele><time>2026-03-28T08:19:07.999Z</time></trkpt><trkpt lat="45.017719032327506" lon="8.485668277368843"><ele>199.0</ele><time>2026-03-28T08:19:08.999Z</time></trkpt><trkpt lat="45.01763262345109" lon="8.48576571919448"><ele>199.0</ele><time>2026-03-28T08:19:09.999Z</time></trkpt><trkpt lat="45.01754104603817" lon="8.48591402993579"><ele>199.0</ele><time>2026-03-28T08:19:10.999Z</time></trkpt><trkpt lat="45.01743503087803" lon="8.486043683572838"><ele>199.0</ele><time>2026-03-28T08:19:11.999Z</time></trkpt><trkpt lat="45.01732538831453" lon="8.486145616566565"><ele>199.0</ele><time>2026-03-28T08:19:12.999Z</time></trkpt><trkpt lat="45.01721101253342" lon="8.486236120395072"><ele>199.83333333333331</ele><time>2026-03-28T08:19:13.999Z</time></trkpt><trkpt lat="45.017116891332925" lon="8.486304355889162"><ele>200.66666666666666</ele><time>2026-03-28T08:19:14.999Z</time></trkpt><trkpt lat="45.01704635917481" lon="8.486352270918394"><ele>201.5</ele><time>2026-03-28T08:19:15.999Z</time></trkpt><trkpt lat="45.0169281666778" lon="8.48639897887202"><ele>202.33333333333331</ele><time>2026-03-28T08:19:17.999Z</time></trkpt><trkpt lat="45.01685422253272" lon="8.486384529635206"><ele>203.16666666666666</ele><time>2026-03-28T08:19:18.999Z</time></trkpt><trkpt lat="45.01681034404239" lon="8.48631370827266"><ele>204.0</ele><time>2026-03-28T08:19:19.999Z</time></trkpt><trkpt lat="45.0167402147286" lon="8.486246548106752"><ele>204.79999999999998</ele><time>2026-03-28T08:19:20.999Z</time></trkpt><trkpt lat="45.016664894881856" lon="8.486186666951149"><ele>205.6</ele><time>2026-03-28T08:19:21.999Z</time></trkpt><trkpt lat="45.01658280773113" lon="8.486122472629377"><ele>206.4</ele><time>2026-03-28T08:19:22.999Z</time></trkpt><trkpt lat="45.016482949879446" lon="8.486102599706378"><ele>207.2</ele><time>2026-03-28T08:19:24.999Z</time></trkpt><trkpt lat="45.01639412351721" lon="8.486075929892946"><ele>208.0</ele><time>2026-03-28T08:19:25.999Z</time></trkpt><trkpt lat="45.01631281239016" lon="8.486070935815906"><ele>208.60000000000002</ele><time>2026-03-28T08:19:26.999Z</time></trkpt><trkpt lat="45.01622474555922" lon="8.48606609121222"><ele>209.20000000000002</ele><time>2026-03-28T08:19:27.999Z</time></trkpt><trkpt lat="45.016136527948845" lon="8.486071012425361"><ele>209.8</ele><time>2026-03-28T08:19:28.999Z</time></trkpt><trkpt lat="45.01603118369948" lon="8.486076630138124"><ele>210.4</ele><time>2026-03-28T08:19:29.999Z</time></trkpt><trkpt lat="45.01592858907796" lon="8.486066933479943"><ele>211.0</ele><time>2026-03-28T08:19:30.999Z</time></trkpt><trkpt lat="45.01581729411556" lon="8.486056077700647"><ele>211.8</ele><time>2026-03-28T08:19:31.999Z</time></trkpt><trkpt lat="45.01573738613818" lon="8.486039074017974"><ele>212.60000000000002</ele><time>2026-03-28T08:19:32.999Z</time></trkpt><trkpt lat="45.01564293056478" lon="8.485997278035693"><ele>213.4</ele><time>2026-03-28T08:19:33.999Z</time></trkpt><trkpt lat="45.015525649649035" lon="8.485962544552919"><ele>214.2</ele><time>2026-03-28T08:19:34.999Z</time></trkpt><trkpt lat="45.01540370816353" lon="8.485907350383275"><ele>215.0</ele><time>2026-03-28T08:19:35.999Z</time></trkpt><trkpt lat="45.01528930900724" lon="8.485876185626099"><ele>215.0</ele><time>2026-03-28T08:19:36.999Z</time></trkpt><trkpt lat="45.01519228401935" lon="8.48587046864528"><ele>215.0</ele><time>2026-03-28T08:19:37.999Z</time></trkpt><trkpt lat="45.01511508552864" lon="8.485881921730202"><ele>215.0</ele><time>2026-03-28T08:19:38.999Z</time></trkpt><trkpt lat="45.01503061984107" lon="8.48592440623551"><ele>215.0</ele><time>2026-03-28T08:19:39.999Z</time></trkpt><trkpt lat="45.0149378370356" lon="8.486006619131633"><ele>215.0</ele><time>2026-03-28T08:19:40.999Z</time></trkpt><trkpt lat="45.01481426062033" lon="8.486088173430348"><ele>214.25</ele><time>2026-03-28T08:19:41.999Z</time></trkpt><trkpt lat="45.014702416406884" lon="8.486136940266823"><ele>213.5</ele><time>2026-03-28T08:19:42.999Z</time></trkpt><trkpt lat="45.01459255170645" lon="8.486169294995157"><ele>212.75</ele><time>2026-03-28T08:19:43.999Z</time></trkpt><trkpt lat="45.01446221216475" lon="8.486209605155901"><ele>212.0</ele><time>2026-03-28T08:19:44.999Z</time></trkpt><trkpt lat="45.01433786623851" lon="8.486240514810259"><ele>212.0</ele><time>2026-03-28T08:19:45.999Z</time></trkpt><trkpt lat="45.01421615140164" lon="8.486235096813795"><ele>212.0</ele><time>2026-03-28T08:19:46.999Z</time></trkpt><trkpt lat="45.01408202183692" lon="8.486224180758045"><ele>212.0</ele><time>2026-03-28T08:19:47.999Z</time></trkpt><trkpt lat="45.013933230655454" lon="8.486226521596585"><ele>212.0</ele><time>2026-03-28T08:19:48.999Z</time></trkpt><trkpt lat="45.01379828608931" lon="8.486200611468076"><ele>211.25</ele><time>2026-03-28T08:19:49.999Z</time></trkpt><trkpt lat="45.01366080284781" lon="8.486133560040745"><ele>210.5</ele><time>2026-03-28T08:19:50.999Z</time></trkpt><trkpt lat="45.013527287054224" lon="8.486067388533426"><ele>209.75</ele><time>2026-03-28T08:19:51.999Z</time></trkpt><trkpt lat="45.01340277486433" lon="8.485997248827577"><ele>209.0</ele><time>2026-03-28T08:19:52.999Z</time></trkpt><trkpt lat="45.01329152638818" lon="8.48594760321562"><ele>209.0</ele><time>2026-03-28T08:19:53.999Z</time></trkpt><trkpt lat="45.01317512237147" lon="8.485893406554746"><ele>209.0</ele><time>2026-03-28T08:19:54.999Z</time></trkpt><trkpt lat="45.01307114679746" lon="8.485846597815767"><ele>209.0</ele><time>2026-03-28T08:19:55.999Z</time></trkpt><trkpt lat="45.012979844764416" lon="8.485808352812535"><ele>209.0</ele><time>2026-03-28T08:19:56.999Z</time></trkpt><trkpt lat="45.01290917653563" lon="8.485801697666522"><ele>209.0</ele><time>2026-03-28T08:19:57.999Z</time></trkpt><trkpt lat="45.01282082768353" lon="8.485855562733201"><ele>209.0</ele><time>2026-03-28T08:19:59.999Z</time></trkpt><trkpt lat="45.012796528485374" lon="8.485712566566141"><ele>209.0</ele><time>2026-03-28T08:20:38Z</time></trkpt><trkpt lat="45.012771572444414" lon="8.485549410691808"><ele>209.0</ele><time>2026-03-28T08:20:41Z</time></trkpt><trkpt lat="45.01267638239747" lon="8.485530585199898"><ele>209.0</ele><time>2026-03-28T08:20:42Z</time></trkpt><trkpt lat="45.01252057193352" lon="8.485596400503132"><ele>206.2</ele><time>2026-03-28T08:20:44Z</time></trkpt><trkpt lat="45.012422048088276" lon="8.485622620525909"><ele>203.39999999999998</ele><time>2026-03-28T08:20:45Z</time></trkpt><trkpt lat="45.01232429148596" lon="8.485648636369717"><ele>200.6</ele><time>2026-03-28T08:20:46Z</time></trkpt><trkpt lat="45.01223952466263" lon="8.485668549997119"><ele>197.8</ele><time>2026-03-28T08:20:47Z</time></trkpt><trkpt lat="45.01215436790136" lon="8.48568821655891"><ele>195.0</ele><time>2026-03-28T08:20:48Z</time></trkpt><trkpt lat="45.012076149079604" lon="8.485702648352412"><ele>195.0</ele><time>2026-03-28T08:20:49Z</time></trkpt><trkpt lat="45.01198995551807" lon="8.485704621792136"><ele>195.0</ele><time>2026-03-28T08:20:50Z</time></trkpt><trkpt lat="45.0119007924721" lon="8.485684075654422"><ele>195.0</ele><time>2026-03-28T08:20:51Z</time></trkpt><trkpt lat="45.01181692539937" lon="8.485652742280815"><ele>195.0</ele><time>2026-03-28T08:20:51.999Z</time></trkpt><trkpt lat="45.01173811387259" lon="8.485664218331065"><ele>195.0</ele><time>2026-03-28T08:20:52.999Z</time></trkpt><trkpt lat="45.01167447862482" lon="8.485660406322157"><ele>195.0</ele><time>2026-03-28T08:20:53.999Z</time></trkpt><trkpt lat="45.01159615355198" lon="8.48568428723809"><ele>193.2</ele><time>2026-03-28T08:20:54.999Z</time></trkpt><trkpt lat="45.01149227123217" lon="8.485695371360821"><ele>191.4</ele><time>2026-03-28T08:20:55.999Z</time></trkpt><trkpt lat="45.01139626271877" lon="8.485720136491288"><ele>189.60000000000002</ele><time>2026-03-28T08:20:56.999Z</time></trkpt><trkpt lat="45.011289433058145" lon="8.48574363106875"><ele>187.8</ele><time>2026-03-28T08:20:57.999Z</time></trkpt><trkpt lat="45.01118166210787" lon="8.485762129097145"><ele>186.0</ele><time>2026-03-28T08:20:58.999Z</time></trkpt><trkpt lat="45.01108450851707" lon="8.485769014757535"><ele>186.0</ele><time>2026-03-28T08:20:59.999Z</time></trkpt><trkpt lat="45.010992604167264" lon="8.485756263314082"><ele>186.0</ele><time>2026-03-28T08:21:00.999Z</time></trkpt><trkpt lat="45.01088104865898" lon="8.48575124499459"><ele>186.0</ele><time>2026-03-28T08:21:01.999Z</time></trkpt><trkpt lat="45.01078391804524" lon="8.485764318879053"><ele>186.0</ele><time>2026-03-28T08:21:02.999Z</time></trkpt><trkpt lat="45.01068267423026" lon="8.485752693860956"><ele>186.0</ele><time>2026-03-28T08:21:03.999Z</time></trkpt><trkpt lat="45.01058621138247" lon="8.485746679716"><ele>185.5</ele><time>2026-03-28T08:21:04.999Z</time></trkpt><trkpt lat="45.0104875327665" lon="8.485740614034343"><ele>185.0</ele><time>2026-03-28T08:21:05.999Z</time></trkpt><trkpt lat="45.01037928401448" lon="8.485756359223648"><ele>184.5</ele><time>2026-03-28T08:21:06.999Z</time></trkpt><trkpt lat="45.01025444215871" lon="8.485800924226941"><ele>184.0</ele><time>2026-03-28T08:21:07.999Z</time></trkpt><trkpt lat="45.01012560978789" lon="8.48583775779187"><ele>184.0</ele><time>2026-03-28T08:21:08.999Z</time></trkpt><trkpt lat="45.010024266319775" lon="8.48592129785563"><ele>184.0</ele><time>2026-03-28T08:21:09.999Z</time></trkpt><trkpt lat="45.00992819384168" lon="8.485954085707421"><ele>184.0</ele><time>2026-03-28T08:21:10.999Z</time></trkpt><trkpt lat="45.00985085303145" lon="8.485983147463037"><ele>184.0</ele><time>2026-03-28T08:21:11.999Z</time></trkpt><trkpt lat="45.00977813108195" lon="8.486023767030549"><ele>184.0</ele><time>2026-03-28T08:21:12.999Z</time></trkpt><trkpt lat="45.00969171145312" lon="8.48605947082161"><ele>184.33333333333334</ele><time>2026-03-28T08:21:13.999Z</time></trkpt><trkpt lat="45.00961513250138" lon="8.486121028314866"><ele>184.66666666666669</ele><time>2026-03-28T08:21:14.999Z</time></trkpt><trkpt lat="45.00952859015664" lon="8.486194717699238"><ele>185.0</ele><time>2026-03-28T08:21:15.999Z</time></trkpt><trkpt lat="45.00946023249865" lon="8.486257293116534"><ele>185.33333333333334</ele><time>2026-03-28T08:21:16.999Z</time></trkpt><trkpt lat="45.00936998461921" lon="8.486334712329302"><ele>185.66666666666666</ele><time>2026-03-28T08:21:18.999Z</time></trkpt><trkpt lat="45.00930798824494" lon="8.4863737755861"><ele>186.0</ele><time>2026-03-28T08:21:21.999Z</time></trkpt><trkpt lat="45.0092462093995" lon="8.486444031217713"><ele>186.0</ele><time>2026-03-28T08:21:39.999Z</time></trkpt><trkpt lat="45.009189544529306" lon="8.486497831656806"><ele>186.0</ele><time>2026-03-28T08:21:40.999Z</time></trkpt><trkpt lat="45.00913628366232" lon="8.486546459100147"><ele>186.0</ele><time>2026-03-28T08:21:41.999Z</time></trkpt><trkpt lat="45.009031183394576" lon="8.486634605459566"><ele>186.0</ele><time>2026-03-28T08:21:43.999Z</time></trkpt><trkpt lat="45.00897106838223" lon="8.48667671306152"><ele>186.0</ele><time>2026-03-28T08:21:44.999Z</time></trkpt><trkpt lat="45.00886706756375" lon="8.486697277414738"><ele>186.0</ele><time>2026-03-28T08:21:46.999Z</time></trkpt><trkpt lat="45.008776375523475" lon="8.48656479112414"><ele>185.20000000000002</ele><time>2026-03-28T08:21:48.999Z</time></trkpt><trkpt lat="45.008717294917204" lon="8.48648233890044"><ele>184.4</ele><time>2026-03-28T08:21:49.999Z</time></trkpt><trkpt lat="45.00865103319915" lon="8.486431353603344"><ele>183.6</ele><time>2026-03-28T08:21:50.999Z</time></trkpt><trkpt lat="45.00853548298499" lon="8.486373544085811"><ele>182.8</ele><time>2026-03-28T08:21:52.999Z</time></trkpt><trkpt lat="45.0084612317237" lon="8.486416882183306"><ele>182.0</ele><time>2026-03-28T08:21:53.999Z</time></trkpt><trkpt lat="45.008362890365675" lon="8.48646773986269"><ele>181.8</ele><time>2026-03-28T08:21:54.999Z</time></trkpt><trkpt lat="45.00825938198789" lon="8.48652753318351"><ele>181.6</ele><time>2026-03-28T08:21:55.999Z</time></trkpt><trkpt lat="45.008142153855054" lon="8.486590686115521"><ele>181.4</ele><time>2026-03-28T08:21:56.999Z</time></trkpt><trkpt lat="45.008067690842715" lon="8.486629618834533"><ele>181.20000000000002</ele><time>2026-03-28T08:21:57.999Z</time></trkpt><trkpt lat="45.007985765873684" lon="8.486664752403943"><ele>181.0</ele><time>2026-03-28T08:21:58.999Z</time></trkpt><trkpt lat="45.007897047552284" lon="8.486689454413723"><ele>181.0</ele><time>2026-03-28T08:21:59.999Z</time></trkpt><trkpt lat="45.00782016276816" lon="8.48668733498041"><ele>181.0</ele><time>2026-03-28T08:22:00.999Z</time></trkpt><trkpt lat="45.00773810626343" lon="8.486652941450512"><ele>181.0</ele><time>2026-03-28T08:22:01.999Z</time></trkpt><trkpt lat="45.00763981555874" lon="8.486602158988797"><ele>181.0</ele><time>2026-03-28T08:22:02.999Z</time></trkpt><trkpt lat="45.0075233001774" lon="8.486539182796884"><ele>181.0</ele><time>2026-03-28T08:22:03.999Z</time></trkpt><trkpt lat="45.00738888859459" lon="8.486466536993824"><ele>183.33333333333334</ele><time>2026-03-28T08:22:04.999Z</time></trkpt><trkpt lat="45.007246447247816" lon="8.486385252109072"><ele>185.66666666666666</ele><time>2026-03-28T08:22:05.999Z</time></trkpt><trkpt lat="45.00710920674118" lon="8.486306935175575"><ele>188.0</ele><time>2026-03-28T08:22:06.999Z</time></trkpt><trkpt lat="45.00693754463463" lon="8.4862092560905"><ele>188.0</ele><time>2026-03-28T08:22:07.999Z</time></trkpt><trkpt lat="45.00680045463984" lon="8.48613155102875"><ele>188.0</ele><time>2026-03-28T08:22:08.999Z</time></trkpt><trkpt lat="45.00672102477903" lon="8.486082227285001"><ele>188.0</ele><time>2026-03-28T08:22:09.999Z</time></trkpt><trkpt lat="45.00665104746115" lon="8.486032002278039"><ele>188.0</ele><time>2026-03-28T08:22:10.999Z</time></trkpt><trkpt lat="45.006581923079004" lon="8.48595096760376"><ele>188.0</ele><time>2026-03-28T08:22:11.999Z</time></trkpt><trkpt lat="45.00653734734569" lon="8.485854736665631"><ele>191.0</ele><time>2026-03-28T08:22:12.998Z</time></trkpt><trkpt lat="45.00653427710551" lon="8.485715971935052"><ele>194.0</ele><time>2026-03-28T08:22:13.998Z</time></trkpt><trkpt lat="45.00651451978679" lon="8.485514077929567"><ele>197.0</ele><time>2026-03-28T08:22:14.998Z</time></trkpt><trkpt lat="45.00649065760758" lon="8.485312250674717"><ele>200.0</ele><time>2026-03-28T08:22:15.998Z</time></trkpt><trkpt lat="45.006465609803946" lon="8.485112730257026"><ele>200.5</ele><time>2026-03-28T08:22:16.998Z</time></trkpt><trkpt lat="45.00644080596608" lon="8.484920331824105"><ele>201.0</ele><time>2026-03-28T08:22:17.998Z</time></trkpt><trkpt lat="45.00640972216759" lon="8.484689265051973"><ele>201.5</ele><time>2026-03-28T08:22:19Z</time></trkpt><trkpt lat="45.00638453643405" lon="8.484513894414365"><ele>202.0</ele><time>2026-03-28T08:22:20Z</time></trkpt><trkpt lat="45.006365989276865" lon="8.484388669545284"><ele>202.49999999999997</ele><time>2026-03-28T08:22:21Z</time></trkpt><trkpt lat="45.00634624859946" lon="8.484271673960782"><ele>203.0</ele><time>2026-03-28T08:22:23Z</time></trkpt><trkpt lat="45.00632930528662" lon="8.48418009693402"><ele>203.5</ele><time>2026-03-28T08:22:25Z</time></trkpt><trkpt lat="45.00630347169819" lon="8.484065843962009"><ele>204.0</ele><time>2026-03-28T08:23:05.999Z</time></trkpt><trkpt lat="45.00626021913276" lon="8.48392800157671"><ele>204.49999999999997</ele><time>2026-03-28T08:23:06.999Z</time></trkpt><trkpt lat="45.00620097381119" lon="8.483838330529355"><ele>205.0</ele><time>2026-03-28T08:23:07.999Z</time></trkpt><trkpt lat="45.006154193464695" lon="8.483737841171171"><ele>205.8</ele><time>2026-03-28T08:23:08.999Z</time></trkpt><trkpt lat="45.00610082274402" lon="8.483623464454162"><ele>206.6</ele><time>2026-03-28T08:23:09.999Z</time></trkpt><trkpt lat="45.00601472034331" lon="8.483515607652864"><ele>207.39999999999998</ele><time>2026-03-28T08:23:10.999Z</time></trkpt><trkpt lat="45.005906166290785" lon="8.483420748206568"><ele>208.2</ele><time>2026-03-28T08:23:11.999Z</time></trkpt><trkpt lat="45.005851886632094" lon="8.483335725008326"><ele>209.0</ele><time>2026-03-28T08:23:12.999Z</time></trkpt><trkpt lat="45.00573885160464" lon="8.483212604038899"><ele>213.66666666666669</ele><time>2026-03-28T08:23:13.999Z</time></trkpt><trkpt lat="45.00561037076504" lon="8.483076318584736"><ele>218.33333333333331</ele><time>2026-03-28T08:23:14.999Z</time></trkpt><trkpt lat="45.005484970797966" lon="8.482947906087078"><ele>223.0</ele><time>2026-03-28T08:23:15.999Z</time></trkpt><trkpt lat="45.00537283136404" lon="8.482833249653028"><ele>223.0</ele><time>2026-03-28T08:23:16.999Z</time></trkpt><trkpt lat="45.005278535307546" lon="8.482739686744043"><ele>223.0</ele><time>2026-03-28T08:23:17.999Z</time></trkpt><trkpt lat="45.005178557051394" lon="8.4826769779658"><ele>223.0</ele><time>2026-03-28T08:23:18.999Z</time></trkpt><trkpt lat="45.00508823966464" lon="8.482613040695487"><ele>223.0</ele><time>2026-03-28T08:23:19.999Z</time></trkpt><trkpt lat="45.004988494401346" lon="8.48257954785458"><ele>223.0</ele><time>2026-03-28T08:23:20.999Z</time></trkpt><trkpt lat="45.00488457279677" lon="8.482655017981745"><ele>224.0</ele><time>2026-03-28T08:23:21.999Z</time></trkpt><trkpt lat="45.004775793566864" lon="8.482755830866253"><ele>225.0</ele><time>2026-03-28T08:23:22.999Z</time></trkpt><trkpt lat="45.00467616771863" lon="8.482793948937863"><ele>226.0</ele><time>2026-03-28T08:23:23.999Z</time></trkpt><trkpt lat="45.00460775110746" lon="8.48281733440649"><ele>227.0</ele><time>2026-03-28T08:23:24.999Z</time></trkpt><trkpt lat="45.00453642552901" lon="8.482777281690643"><ele>228.0</ele><time>2026-03-28T08:23:26.999Z</time></trkpt><trkpt lat="45.004453422925145" lon="8.4827960463579"><ele>228.0</ele><time>2026-03-28T08:23:29.999Z</time></trkpt><trkpt lat="45.00437090312404" lon="8.482863049277649"><ele>228.0</ele><time>2026-03-28T08:23:30.999Z</time></trkpt><trkpt lat="45.00426695150675" lon="8.482859175770894"><ele>228.0</ele><time>2026-03-28T08:23:31.999Z</time></trkpt><trkpt lat="45.004136863537425" lon="8.482850312065567"><ele>228.0</ele><time>2026-03-28T08:23:32.999Z</time></trkpt><trkpt lat="45.004011588560694" lon="8.482853941242496"><ele>231.0</ele><time>2026-03-28T08:23:33.999Z</time></trkpt><trkpt lat="45.003864992135966" lon="8.482855859299027"><ele>234.0</ele><time>2026-03-28T08:23:34.999Z</time></trkpt><trkpt lat="45.003719582590534" lon="8.482830972845697"><ele>237.0</ele><time>2026-03-28T08:23:35.999Z</time></trkpt><trkpt lat="45.00356102277305" lon="8.482839573410331"><ele>237.0</ele><time>2026-03-28T08:23:36.999Z</time></trkpt><trkpt lat="45.00343595355772" lon="8.48282256915424"><ele>237.0</ele><time>2026-03-28T08:23:37.999Z</time></trkpt><trkpt lat="45.003294189921064" lon="8.482768845560704"><ele>237.0</ele><time>2026-03-28T08:23:38.999Z</time></trkpt><trkpt lat="45.003172357535504" lon="8.482708671744538"><ele>237.0</ele><time>2026-03-28T08:23:39.999Z</time></trkpt><trkpt lat="45.003046894134826" lon="8.482645446303401"><ele>241.0</ele><time>2026-03-28T08:23:40.999Z</time></trkpt><trkpt lat="45.00291610979547" lon="8.482628682525068"><ele>245.0</ele><time>2026-03-28T08:23:41.999Z</time></trkpt><trkpt lat="45.00281729807339" lon="8.4826360235172"><ele>249.0</ele><time>2026-03-28T08:23:42.999Z</time></trkpt><trkpt lat="45.00272888781532" lon="8.482642450917643"><ele>253.0</ele><time>2026-03-28T08:23:43.999Z</time></trkpt><trkpt lat="45.00268085614358" lon="8.482569388517513"><ele>257.0</ele><time>2026-03-28T08:23:44.999Z</time></trkpt><trkpt lat="45.00266089254726" lon="8.482465236145927"><ele>257.0</ele><time>2026-03-28T08:23:45.999Z</time></trkpt><trkpt lat="45.00259650385686" lon="8.482333073084186"><ele>257.0</ele><time>2026-03-28T08:23:46.999Z</time></trkpt><trkpt lat="45.002516467629114" lon="8.482141830586638"><ele>257.0</ele><time>2026-03-28T08:23:47.999Z</time></trkpt><trkpt lat="45.00244413542562" lon="8.48187362958566"><ele>257.2</ele><time>2026-03-28T08:23:48.999Z</time></trkpt><trkpt lat="45.00239188822896" lon="8.481758749165508"><ele>257.4</ele><time>2026-03-28T08:23:49.999Z</time></trkpt><trkpt lat="45.002354330309494" lon="8.481686508276564"><ele>257.6</ele><time>2026-03-28T08:23:50.999Z</time></trkpt><trkpt lat="45.00229513342102" lon="8.481634095945656"><ele>257.8</ele><time>2026-03-28T08:23:52.999Z</time></trkpt><trkpt lat="45.00227722920511" lon="8.481887323661358"><ele>258.0</ele><time>2026-03-28T08:23:55.999Z</time></trkpt><trkpt lat="45.002315521034234" lon="8.482028640319008"><ele>264.3333333333333</ele><time>2026-03-28T08:23:56.999Z</time></trkpt><trkpt lat="45.00236151251569" lon="8.48222306153851"><ele>270.66666666666663</ele><time>2026-03-28T08:23:57.999Z</time></trkpt><trkpt lat="45.00239861206541" lon="8.482451982182473"><ele>277.0</ele><time>2026-03-28T08:23:58.999Z</time></trkpt><trkpt lat="45.00242622785484" lon="8.482682371045742"><ele>277.0</ele><time>2026-03-28T08:23:59.999Z</time></trkpt><trkpt lat="45.00245989828408" lon="8.482864694168526"><ele>277.0</ele><time>2026-03-28T08:24:00.999Z</time></trkpt><trkpt lat="45.00251719511571" lon="8.483031435885021"><ele>277.0</ele><time>2026-03-28T08:24:01.999Z</time></trkpt><trkpt lat="45.002602532839575" lon="8.48318458813497"><ele>277.0</ele><time>2026-03-28T08:24:02.999Z</time></trkpt><trkpt lat="45.00270010923908" lon="8.483298301022074"><ele>274.2</ele><time>2026-03-28T08:24:03.999Z</time></trkpt><trkpt lat="45.00278882698419" lon="8.483383389316645"><ele>271.4</ele><time>2026-03-28T08:24:04.999Z</time></trkpt><trkpt lat="45.002857965057515" lon="8.483470967007964"><ele>268.6</ele><time>2026-03-28T08:24:05.999Z</time></trkpt><trkpt lat="45.00292134037212" lon="8.483564021466156"><ele>265.8</ele><time>2026-03-28T08:24:06.999Z</time></trkpt><trkpt lat="45.002979466856594" lon="8.483648809739897"><ele>263.0</ele><time>2026-03-28T08:24:07.999Z</time></trkpt><trkpt lat="45.00302394545779" lon="8.483737590856052"><ele>264.6666666666667</ele><time>2026-03-28T08:24:08.999Z</time></trkpt><trkpt lat="45.0030640624036" lon="8.483819689866854"><ele>266.33333333333337</ele><time>2026-03-28T08:24:09.999Z</time></trkpt><trkpt lat="45.00310138648358" lon="8.483894048903696"><ele>268.0</ele><time>2026-03-28T08:24:10.999Z</time></trkpt><trkpt lat="45.00314217311764" lon="8.484014887212075"><ele>269.6666666666667</ele><time>2026-03-28T08:24:12.999Z</time></trkpt><trkpt lat="45.00318820558905" lon="8.484139159770416"><ele>271.3333333333333</ele><time>2026-03-28T08:24:14.999Z</time></trkpt><trkpt lat="45.00320900784193" lon="8.484236018147467"><ele>273.0</ele><time>2026-03-28T08:24:15.999Z</time></trkpt><trkpt lat="45.00321732973955" lon="8.484327546449087"><ele>273.0</ele><time>2026-03-28T08:24:16.999Z</time></trkpt><trkpt lat="45.00325690093036" lon="8.48444608477277"><ele>273.0</ele><time>2026-03-28T08:24:18.999Z</time></trkpt><trkpt lat="45.00328287742262" lon="8.4846252109374"><ele>273.0</ele><time>2026-03-28T08:24:20.999Z</time></trkpt><trkpt lat="45.00329269794262" lon="8.484793956882715"><ele>273.0</ele><time>2026-03-28T08:24:22.999Z</time></trkpt><trkpt lat="45.00329278773864" lon="8.484972684666111"><ele>273.6</ele><time>2026-03-28T08:24:25Z</time></trkpt><trkpt lat="45.003284980100446" lon="8.4850805771036"><ele>274.20000000000005</ele><time>2026-03-28T08:24:26Z</time></trkpt><trkpt lat="45.00324721007354" lon="8.485225996295103"><ele>274.8</ele><time>2026-03-28T08:24:27Z</time></trkpt><trkpt lat="45.003228595220826" lon="8.48535433581573"><ele>275.40000000000003</ele><time>2026-03-28T08:24:28Z</time></trkpt><trkpt lat="45.00322228431763" lon="8.48548149674211"><ele>276.0</ele><time>2026-03-28T08:24:29Z</time></trkpt><trkpt lat="45.003214320021065" lon="8.485620221288814"><ele>276.0</ele><time>2026-03-28T08:24:30Z</time></trkpt><trkpt lat="45.0031928047144" lon="8.485742516288083"><ele>276.0</ele><time>2026-03-28T08:24:31Z</time></trkpt><trkpt lat="45.00317726614756" lon="8.485850948182815"><ele>276.0</ele><time>2026-03-28T08:24:32Z</time></trkpt><trkpt lat="45.00316551301199" lon="8.48594972557513"><ele>276.0</ele><time>2026-03-28T08:24:33Z</time></trkpt><trkpt lat="45.003153170137054" lon="8.486067357930636"><ele>276.0</ele><time>2026-03-28T08:24:34Z</time></trkpt><trkpt lat="45.00314207339445" lon="8.486199581444556"><ele>276.0</ele><time>2026-03-28T08:24:35Z</time></trkpt><trkpt lat="45.00312733707687" lon="8.486325195099537"><ele>274.6666666666667</ele><time>2026-03-28T08:24:36Z</time></trkpt><trkpt lat="45.00311735200092" lon="8.486431202037663"><ele>273.3333333333333</ele><time>2026-03-28T08:24:37Z</time></trkpt><trkpt lat="45.00310493544337" lon="8.486553431922482"><ele>272.0</ele><time>2026-03-28T08:24:38Z</time></trkpt><trkpt lat="45.00309267514954" lon="8.486653923965157"><ele>270.66666666666663</ele><time>2026-03-28T08:24:39Z</time></trkpt><trkpt lat="45.00307841932805" lon="8.486743805648654"><ele>269.3333333333333</ele><time>2026-03-28T08:24:40Z</time></trkpt><trkpt lat="45.0030649369068" lon="8.486831058591404"><ele>268.0</ele><time>2026-03-28T08:24:41Z</time></trkpt><trkpt lat="45.003022298456756" lon="8.486985989996162"><ele>267.0</ele><time>2026-03-28T08:24:43Z</time></trkpt><trkpt lat="45.002987271208674" lon="8.487122843148743"><ele>266.0</ele><time>2026-03-28T08:24:45Z</time></trkpt><trkpt lat="45.00296089655791" lon="8.487211650445644"><ele>265.0</ele><time>2026-03-28T08:24:47Z</time></trkpt><trkpt lat="45.002907947635876" lon="8.487306767412862"><ele>264.0</ele><time>2026-03-28T08:24:50Z</time></trkpt><trkpt lat="45.00288799368314" lon="8.487392667917431"><ele>263.0</ele><time>2026-03-28T08:24:55Z</time></trkpt><trkpt lat="45.00285471679291" lon="8.48751055093918"><ele>262.0</ele><time>2026-03-28T08:24:57Z</time></trkpt><trkpt lat="45.002755921214224" lon="8.487520441168156"><ele>262.0</ele><time>2026-03-28T08:24:59Z</time></trkpt><trkpt lat="45.00269465718172" lon="8.48748477488506"><ele>262.0</ele><time>2026-03-28T08:25:00Z</time></trkpt><trkpt lat="45.002570255429696" lon="8.487402320979376"><ele>262.0</ele><time>2026-03-28T08:25:02Z</time></trkpt><trkpt lat="45.002486128196765" lon="8.48733013433288"><ele>262.0</ele><time>2026-03-28T08:25:03Z</time></trkpt><trkpt lat="45.00241500051945" lon="8.487265872778586"><ele>262.0</ele><time>2026-03-28T08:25:04Z</time></trkpt><trkpt lat="45.00234002170241" lon="8.487214446443545"><ele>262.0</ele><time>2026-03-28T08:25:05Z</time></trkpt><trkpt lat="45.002270405348916" lon="8.487165569431378"><ele>262.0</ele><time>2026-03-28T08:25:05.999Z</time></trkpt><trkpt lat="45.00218732208949" lon="8.487107671067347"><ele>262.0</ele><time>2026-03-28T08:25:06.999Z</time></trkpt><trkpt lat="45.00211327355344" lon="8.487055874891759"><ele>262.0</ele><time>2026-03-28T08:25:07.999Z</time></trkpt><trkpt lat="45.00204438741542" lon="8.487006708426817"><ele>262.0</ele><time>2026-03-28T08:25:08.999Z</time></trkpt><trkpt lat="45.00197059587073" lon="8.486978153574896"><ele>262.0</ele><time>2026-03-28T08:25:09.999Z</time></trkpt><trkpt lat="45.00191092618146" lon="8.486925353989351"><ele>262.0</ele><time>2026-03-28T08:25:10.999Z</time></trkpt><trkpt lat="45.00184123365183" lon="8.486871062893757"><ele>262.0</ele><time>2026-03-28T08:25:11.999Z</time></trkpt><trkpt lat="45.00176962340463" lon="8.486828535404442"><ele>262.0</ele><time>2026-03-28T08:25:12.999Z</time></trkpt><trkpt lat="45.00171143694325" lon="8.486778789813515"><ele>262.0</ele><time>2026-03-28T08:25:13.999Z</time></trkpt><trkpt lat="45.00164662153294" lon="8.486705183637943"><ele>262.0</ele><time>2026-03-28T08:25:14.999Z</time></trkpt><trkpt lat="45.00157736099323" lon="8.486618255142627"><ele>262.0</ele><time>2026-03-28T08:25:15.999Z</time></trkpt><trkpt lat="45.00151191789962" lon="8.48653329345755"><ele>261.4</ele><time>2026-03-28T08:25:16.999Z</time></trkpt><trkpt lat="45.00146259783477" lon="8.486439383218094"><ele>260.79999999999995</ele><time>2026-03-28T08:25:17.999Z</time></trkpt><trkpt lat="45.00141381460345" lon="8.486343376204289"><ele>260.2</ele><time>2026-03-28T08:25:18.999Z</time></trkpt><trkpt lat="45.00136810378636" lon="8.486215511891464"><ele>259.59999999999997</ele><time>2026-03-28T08:25:19.999Z</time></trkpt><trkpt lat="45.00129597443348" lon="8.48605741285551"><ele>259.0</ele><time>2026-03-28T08:25:20.999Z</time></trkpt><trkpt lat="45.001178891156826" lon="8.485801225054614"><ele>259.0</ele><time>2026-03-28T08:25:21.999Z</time></trkpt><trkpt lat="45.00106987483618" lon="8.485595819918027"><ele>259.0</ele><time>2026-03-28T08:25:22.999Z</time></trkpt><trkpt lat="45.00097413785821" lon="8.485383286303566"><ele>259.0</ele><time>2026-03-28T08:25:23.999Z</time></trkpt><trkpt lat="45.00088844364674" lon="8.485159208051885"><ele>261.0</ele><time>2026-03-28T08:25:24.999Z</time></trkpt><trkpt lat="45.000806912999664" lon="8.48498170837346"><ele>263.0</ele><time>2026-03-28T08:25:25.999Z</time></trkpt><trkpt lat="45.00071552594354" lon="8.484822210268138"><ele>265.0</ele><time>2026-03-28T08:25:26.999Z</time></trkpt><trkpt lat="45.00064315912055" lon="8.484657819106626"><ele>267.0</ele><time>2026-03-28T08:25:27.999Z</time></trkpt><trkpt lat="45.00057001637158" lon="8.484502982759507"><ele>268.8</ele><time>2026-03-28T08:25:28.999Z</time></trkpt><trkpt lat="45.00048780947185" lon="8.484365616302012"><ele>270.6</ele><time>2026-03-28T08:25:29.999Z</time></trkpt><trkpt lat="45.000410716064884" lon="8.484257566470486"><ele>272.40000000000003</ele><time>2026-03-28T08:25:30.999Z</time></trkpt><trkpt lat="45.000328873939445" lon="8.48417695844847"><ele>274.2</ele><time>2026-03-28T08:25:31.999Z</time></trkpt><trkpt lat="45.00022316120438" lon="8.484130657754777"><ele>276.0</ele><time>2026-03-28T08:25:32.999Z</time></trkpt><trkpt lat="45.00009528929767" lon="8.484135782856606"><ele>276.0</ele><time>2026-03-28T08:25:33.999Z</time></trkpt><trkpt lat="44.999982965403255" lon="8.484148082784893"><ele>276.0</ele><time>2026-03-28T08:25:34.999Z</time></trkpt><trkpt lat="44.99984387527547" lon="8.484224736929589"><ele>276.0</ele><time>2026-03-28T08:25:35.999Z</time></trkpt><trkpt lat="44.99968990822508" lon="8.484288655253959"><ele>276.0</ele><time>2026-03-28T08:25:36.999Z</time></trkpt><trkpt lat="44.99955175200634" lon="8.484340717403162"><ele>276.0</ele><time>2026-03-28T08:25:37.999Z</time></trkpt><trkpt lat="44.999424212819164" lon="8.484353165529722"><ele>276.0</ele><time>2026-03-28T08:25:38.999Z</time></trkpt><trkpt lat="44.999317463319144" lon="8.484375544400855"><ele>276.0</ele><time>2026-03-28T08:25:39.999Z</time></trkpt><trkpt lat="44.999221473976434" lon="8.484423352934737"><ele>276.0</ele><time>2026-03-28T08:25:40.999Z</time></trkpt><trkpt lat="44.99912512631961" lon="8.484413978195446"><ele>276.0</ele><time>2026-03-28T08:25:41.999Z</time></trkpt><trkpt lat="44.99903875700937" lon="8.484412189128845"><ele>276.6</ele><time>2026-03-28T08:25:42.999Z</time></trkpt><trkpt lat="44.99894819279863" lon="8.484378506192508"><ele>277.20000000000005</ele><time>2026-03-28T08:25:43.999Z</time></trkpt><trkpt lat="44.99885649239866" lon="8.484307387896676"><ele>277.79999999999995</ele><time>2026-03-28T08:25:44.999Z</time></trkpt><trkpt lat="44.99875997797735" lon="8.484227086978677"><ele>278.4</ele><time>2026-03-28T08:25:45.999Z</time></trkpt><trkpt lat="44.99867480916125" lon="8.484156640957668"><ele>279.0</ele><time>2026-03-28T08:25:46.999Z</time></trkpt><trkpt lat="44.99859761060634" lon="8.484090010693397"><ele>279.0</ele><time>2026-03-28T08:25:47.999Z</time></trkpt><trkpt lat="44.99853546245348" lon="8.484032549650216"><ele>279.0</ele><time>2026-03-28T08:25:48.999Z</time></trkpt><trkpt lat="44.99845753734134" lon="8.483956190034572"><ele>279.0</ele><time>2026-03-28T08:25:50.999Z</time></trkpt><trkpt lat="44.9984103899934" lon="8.483870815644295"><ele>279.0</ele><time>2026-03-28T08:25:52.999Z</time></trkpt><trkpt lat="44.99827665183332" lon="8.483785404717933"><ele>279.0</ele><time>2026-03-28T08:25:55.999Z</time></trkpt><trkpt lat="44.99819696317054" lon="8.483951326861439"><ele>277.59999999999997</ele><time>2026-03-28T08:25:56.999Z</time></trkpt><trkpt lat="44.99812380782191" lon="8.483962502042877"><ele>276.2</ele><time>2026-03-28T08:25:57.999Z</time></trkpt><trkpt lat="44.99802669883395" lon="8.484007498421654"><ele>274.79999999999995</ele><time>2026-03-28T08:25:58.999Z</time></trkpt><trkpt lat="44.99792152394389" lon="8.484053863918778"><ele>273.4</ele><time>2026-03-28T08:25:59.999Z</time></trkpt><trkpt lat="44.99780811567737" lon="8.484105259799362"><ele>272.0</ele><time>2026-03-28T08:26:00.999Z</time></trkpt><trkpt lat="44.99769056195488" lon="8.484158035753627"><ele>272.0</ele><time>2026-03-28T08:26:01.999Z</time></trkpt><trkpt lat="44.997565699938285" lon="8.48421072347632"><ele>272.0</ele><time>2026-03-28T08:26:02.999Z</time></trkpt><trkpt lat="44.99744092998383" lon="8.484261684088183"><ele>272.0</ele><time>2026-03-28T08:26:03.999Z</time></trkpt><trkpt lat="44.997314502612845" lon="8.484307579558736"><ele>272.0</ele><time>2026-03-28T08:26:04.999Z</time></trkpt><trkpt lat="44.99719399777487" lon="8.484343460009526"><ele>270.75</ele><time>2026-03-28T08:26:05.999Z</time></trkpt><trkpt lat="44.997055419373524" lon="8.48437268387927"><ele>269.5</ele><time>2026-03-28T08:26:06.999Z</time></trkpt><trkpt lat="44.9969226465944" lon="8.484399726043625"><ele>268.25</ele><time>2026-03-28T08:26:07.999Z</time></trkpt><trkpt lat="44.9968016299507" lon="8.484422886791831"><ele>267.0</ele><time>2026-03-28T08:26:08.999Z</time></trkpt><trkpt lat="44.9966898832069" lon="8.484446280655547"><ele>267.2</ele><time>2026-03-28T08:26:09.999Z</time></trkpt><trkpt lat="44.99658509046147" lon="8.484470613083356"><ele>267.4</ele><time>2026-03-28T08:26:10.999Z</time></trkpt><trkpt lat="44.99648257188917" lon="8.484486078937179"><ele>267.6</ele><time>2026-03-28T08:26:11.999Z</time></trkpt><trkpt lat="44.996383652065916" lon="8.484502594138535"><ele>267.8</ele><time>2026-03-28T08:26:12.999Z</time></trkpt><trkpt lat="44.996285156758404" lon="8.484505961545212"><ele>268.0</ele><time>2026-03-28T08:26:13.999Z</time></trkpt><trkpt lat="44.99620299968595" lon="8.48446280252601"><ele>268.0</ele><time>2026-03-28T08:26:14.999Z</time></trkpt><trkpt lat="44.996136409025596" lon="8.484439532157896"><ele>268.0</ele><time>2026-03-28T08:26:15.999Z</time></trkpt><trkpt lat="44.99603194346823" lon="8.484425218259467"><ele>268.0</ele><time>2026-03-28T08:26:17.999Z</time></trkpt><trkpt lat="44.99596036973831" lon="8.484431975469102"><ele>268.0</ele><time>2026-03-28T08:26:18.999Z</time></trkpt><trkpt lat="44.99586296558353" lon="8.484435298014034"><ele>268.0</ele><time>2026-03-28T08:26:19.999Z</time></trkpt><trkpt lat="44.99577264033913" lon="8.484433745272968"><ele>268.0</ele><time>2026-03-28T08:26:20.999Z</time></trkpt><trkpt lat="44.99568448538709" lon="8.484432227971567"><ele>265.6</ele><time>2026-03-28T08:26:21.999Z</time></trkpt><trkpt lat="44.99560853027247" lon="8.484431751816974"><ele>263.20000000000005</ele><time>2026-03-28T08:26:22.999Z</time></trkpt><trkpt lat="44.9955351844952" lon="8.484431949395303"><ele>260.8</ele><time>2026-03-28T08:26:23.999Z</time></trkpt><trkpt lat="44.99537366623043" lon="8.484432384493003"><ele>258.40000000000003</ele><time>2026-03-28T08:26:24.999Z</time></trkpt><trkpt lat="44.995249305213235" lon="8.484432719498546"><ele>256.0</ele><time>2026-03-28T08:26:25.999Z</time></trkpt><trkpt lat="44.99513399949219" lon="8.48443303011043"><ele>256.0</ele><time>2026-03-28T08:26:26.999Z</time></trkpt><trkpt lat="44.99502119581932" lon="8.484443028669501"><ele>256.0</ele><time>2026-03-28T08:26:27.998Z</time></trkpt><trkpt lat="44.99490096083325" lon="8.484427190926317"><ele>256.0</ele><time>2026-03-28T08:26:28.998Z</time></trkpt><trkpt lat="44.99478516829939" lon="8.484405675605089"><ele>256.0</ele><time>2026-03-28T08:26:29.998Z</time></trkpt><trkpt lat="44.994675304630015" lon="8.48444236143344"><ele>253.0</ele><time>2026-03-28T08:26:31Z</time></trkpt><trkpt lat="44.99455665576108" lon="8.484447837518793"><ele>250.0</ele><time>2026-03-28T08:26:32Z</time></trkpt><trkpt lat="44.994435939536146" lon="8.484355239537933"><ele>247.0</ele><time>2026-03-28T08:26:33Z</time></trkpt><trkpt lat="44.994321736044704" lon="8.484402449417395"><ele>244.0</ele><time>2026-03-28T08:26:34Z</time></trkpt><trkpt lat="44.994207180652595" lon="8.48440113332425"><ele>241.5</ele><time>2026-03-28T08:26:35Z</time></trkpt><trkpt lat="44.99408767224513" lon="8.484396856984905"><ele>239.0</ele><time>2026-03-28T08:26:36Z</time></trkpt><trkpt lat="44.993967730804165" lon="8.484388397410562"><ele>236.5</ele><time>2026-03-28T08:26:37Z</time></trkpt><trkpt lat="44.99384069945826" lon="8.484323547934569"><ele>234.0</ele><time>2026-03-28T08:26:38Z</time></trkpt><trkpt lat="44.993724463135045" lon="8.484290654979072"><ele>234.0</ele><time>2026-03-28T08:26:39Z</time></trkpt><trkpt lat="44.99361680223703" lon="8.484246405614494"><ele>234.0</ele><time>2026-03-28T08:26:40Z</time></trkpt><trkpt lat="44.9935087188735" lon="8.484185769712328"><ele>234.0</ele><time>2026-03-28T08:26:41Z</time></trkpt><trkpt lat="44.993384479503085" lon="8.484112292775668"><ele>234.0</ele><time>2026-03-28T08:26:42Z</time></trkpt><trkpt lat="44.99324878610723" lon="8.48402618906128"><ele>231.33333333333331</ele><time>2026-03-28T08:26:43Z</time></trkpt><trkpt lat="44.993125105025584" lon="8.483906613120569"><ele>228.66666666666666</ele><time>2026-03-28T08:26:44Z</time></trkpt><trkpt lat="44.99301419068088" lon="8.483744317752608"><ele>226.0</ele><time>2026-03-28T08:26:45Z</time></trkpt><trkpt lat="44.99289786720911" lon="8.483572437960081"><ele>226.0</ele><time>2026-03-28T08:26:46Z</time></trkpt><trkpt lat="44.992755956655685" lon="8.483398481304626"><ele>226.0</ele><time>2026-03-28T08:26:47Z</time></trkpt><trkpt lat="44.99260609591224" lon="8.483270985727179"><ele>226.0</ele><time>2026-03-28T08:26:48Z</time></trkpt><trkpt lat="44.99242551966416" lon="8.48314108435009"><ele>226.0</ele><time>2026-03-28T08:26:49Z</time></trkpt><trkpt lat="44.99224324041227" lon="8.483015235584562"><ele>226.0</ele><time>2026-03-28T08:26:50Z</time></trkpt><trkpt lat="44.99212288451892" lon="8.482955720832784"><ele>226.0</ele><time>2026-03-28T08:26:51Z</time></trkpt><trkpt lat="44.99198135113046" lon="8.482854279117808"><ele>226.0</ele><time>2026-03-28T08:26:52Z</time></trkpt><trkpt lat="44.99183834983564" lon="8.48273618190616"><ele>226.0</ele><time>2026-03-28T08:26:53Z</time></trkpt><trkpt lat="44.99167830798119" lon="8.482636767728991"><ele>226.0</ele><time>2026-03-28T08:26:54Z</time></trkpt><trkpt lat="44.991522175733365" lon="8.482543337256523"><ele>220.33333333333331</ele><time>2026-03-28T08:26:55Z</time></trkpt><trkpt lat="44.991367838858" lon="8.482443689344874"><ele>214.66666666666669</ele><time>2026-03-28T08:26:56Z</time></trkpt><trkpt lat="44.99121156244048" lon="8.482328223811313"><ele>209.0</ele><time>2026-03-28T08:26:57Z</time></trkpt><trkpt lat="44.991057064979444" lon="8.482198862284758"><ele>207.75</ele><time>2026-03-28T08:26:58Z</time></trkpt><trkpt lat="44.99093037199377" lon="8.482082029080026"><ele>206.5</ele><time>2026-03-28T08:26:59Z</time></trkpt><trkpt lat="44.9908202592405" lon="8.481980487323435"><ele>205.25</ele><time>2026-03-28T08:27:00Z</time></trkpt><trkpt lat="44.99071465803443" lon="8.481886539167355"><ele>204.0</ele><time>2026-03-28T08:27:01Z</time></trkpt><trkpt lat="44.990617232554705" lon="8.481800536841305"><ele>204.0</ele><time>2026-03-28T08:27:02Z</time></trkpt><trkpt lat="44.99051988356851" lon="8.481735086252035"><ele>204.0</ele><time>2026-03-28T08:27:03Z</time></trkpt><trkpt lat="44.990438888691536" lon="8.481665321879092"><ele>204.0</ele><time>2026-03-28T08:27:04Z</time></trkpt><trkpt lat="44.99036152159573" lon="8.48159896535766"><ele>204.0</ele><time>2026-03-28T08:27:05Z</time></trkpt><trkpt lat="44.99029113861003" lon="8.48153094820931"><ele>204.0</ele><time>2026-03-28T08:27:06Z</time></trkpt><trkpt lat="44.9902201016957" lon="8.481466314082414"><ele>204.0</ele><time>2026-03-28T08:27:07Z</time></trkpt><trkpt lat="44.990153842337534" lon="8.481411299324286"><ele>204.0</ele><time>2026-03-28T08:27:08Z</time></trkpt><trkpt lat="44.99010367972072" lon="8.481342143497216"><ele>204.0</ele><time>2026-03-28T08:27:09Z</time></trkpt><trkpt lat="44.99004246308446" lon="8.481291177422598"><ele>204.0</ele><time>2026-03-28T08:27:10Z</time></trkpt><trkpt lat="44.98997802157277" lon="8.481270985403667"><ele>204.0</ele><time>2026-03-28T08:27:11Z</time></trkpt><trkpt lat="44.98988076903873" lon="8.481202538113951"><ele>204.0</ele><time>2026-03-28T08:27:13Z</time></trkpt><trkpt lat="44.989749280896156" lon="8.481207210402367"><ele>203.0</ele><time>2026-03-28T08:27:15Z</time></trkpt><trkpt lat="44.989683165274215" lon="8.48121402096016"><ele>202.0</ele><time>2026-03-28T08:27:15.999Z</time></trkpt><trkpt lat="44.98957096849099" lon="8.481171682728384"><ele>201.0</ele><time>2026-03-28T08:27:17.999Z</time></trkpt><trkpt lat="44.98945230907041" lon="8.480962423883387"><ele>200.0</ele><time>2026-03-28T08:27:19.999Z</time></trkpt><trkpt lat="44.98939474991846" lon="8.480899421306288"><ele>199.0</ele><time>2026-03-28T08:27:20.999Z</time></trkpt><trkpt lat="44.98933982841671" lon="8.480847564868617"><ele>198.99999999999997</ele><time>2026-03-28T08:27:21.999Z</time></trkpt><trkpt lat="44.989289375432755" lon="8.480776559858029"><ele>199.0</ele><time>2026-03-28T08:27:22.999Z</time></trkpt><trkpt lat="44.98922848506436" lon="8.480701937855466"><ele>199.0</ele><time>2026-03-28T08:27:23.999Z</time></trkpt><trkpt lat="44.98917412178207" lon="8.480621506731584"><ele>199.0</ele><time>2026-03-28T08:27:24.999Z</time></trkpt><trkpt lat="44.98911588291591" lon="8.480547767590956"><ele>198.99999999999997</ele><time>2026-03-28T08:27:25.999Z</time></trkpt><trkpt lat="44.98905904746884" lon="8.480476230018478"><ele>199.0</ele><time>2026-03-28T08:27:26.999Z</time></trkpt><trkpt lat="44.98900596418517" lon="8.48039983342046"><ele>196.99999999999997</ele><time>2026-03-28T08:27:27.999Z</time></trkpt><trkpt lat="44.9889547999007" lon="8.48032020663421"><ele>195.0</ele><time>2026-03-28T08:27:28.999Z</time></trkpt><trkpt lat="44.98890589455235" lon="8.480244105891499"><ele>193.0</ele><time>2026-03-28T08:27:29.999Z</time></trkpt><trkpt lat="44.98884681376316" lon="8.480161878059887"><ele>191.0</ele><time>2026-03-28T08:27:30.999Z</time></trkpt><trkpt lat="44.98880065777963" lon="8.480067737186573"><ele>189.0</ele><time>2026-03-28T08:27:31.999Z</time></trkpt><trkpt lat="44.98875401681306" lon="8.479958770876689"><ele>187.0</ele><time>2026-03-28T08:27:32.999Z</time></trkpt><trkpt lat="44.98871513756274" lon="8.479866635718745"><ele>187.0</ele><time>2026-03-28T08:27:33.999Z</time></trkpt><trkpt lat="44.988681901297724" lon="8.47976916864002"><ele>187.0</ele><time>2026-03-28T08:27:34.999Z</time></trkpt><trkpt lat="44.98865284030851" lon="8.479670754386836"><ele>187.0</ele><time>2026-03-28T08:27:35.999Z</time></trkpt><trkpt lat="44.988626705008166" lon="8.47958266891092"><ele>187.0</ele><time>2026-03-28T08:27:36.999Z</time></trkpt><trkpt lat="44.988605895882976" lon="8.479488168284265"><ele>187.0</ele><time>2026-03-28T08:27:37.999Z</time></trkpt><trkpt lat="44.98858287622413" lon="8.479388830519534"><ele>187.0</ele><time>2026-03-28T08:27:38.999Z</time></trkpt><trkpt lat="44.98855995234979" lon="8.479291648815883"><ele>187.0</ele><time>2026-03-28T08:27:39.999Z</time></trkpt><trkpt lat="44.988535735239026" lon="8.479199657301216"><ele>185.83333333333334</ele><time>2026-03-28T08:27:40.999Z</time></trkpt><trkpt lat="44.9885041731378" lon="8.479109863923274"><ele>184.66666666666669</ele><time>2026-03-28T08:27:41.999Z</time></trkpt><trkpt lat="44.988473545109024" lon="8.479031086233924"><ele>183.5</ele><time>2026-03-28T08:27:42.999Z</time></trkpt><trkpt lat="44.98843985803315" lon="8.478951756571222"><ele>182.33333333333334</ele><time>2026-03-28T08:27:43.999Z</time></trkpt><trkpt lat="44.98839306354644" lon="8.478858761190018"><ele>181.16666666666666</ele><time>2026-03-28T08:27:44.999Z</time></trkpt><trkpt lat="44.988341935485025" lon="8.478756717953518"><ele>180.0</ele><time>2026-03-28T08:27:45.999Z</time></trkpt><trkpt lat="44.98828813777078" lon="8.478635199523307"><ele>178.33333333333334</ele><time>2026-03-28T08:27:46.999Z</time></trkpt><trkpt lat="44.98824220319362" lon="8.478523479768954"><ele>176.66666666666666</ele><time>2026-03-28T08:27:47.999Z</time></trkpt><trkpt lat="44.98818978385086" lon="8.478411482004454"><ele>175.0</ele><time>2026-03-28T08:27:48.999Z</time></trkpt><trkpt lat="44.988148160207" lon="8.47831776367437"><ele>173.33333333333331</ele><time>2026-03-28T08:27:49.999Z</time></trkpt><trkpt lat="44.98812534392562" lon="8.478226923219644"><ele>171.66666666666666</ele><time>2026-03-28T08:27:50.999Z</time></trkpt><trkpt lat="44.98810915970163" lon="8.478121665728072"><ele>170.0</ele><time>2026-03-28T08:27:51.999Z</time></trkpt><trkpt lat="44.988111271302735" lon="8.478023213172433"><ele>170.2</ele><time>2026-03-28T08:27:52.999Z</time></trkpt><trkpt lat="44.988150256810606" lon="8.477863290587795"><ele>170.4</ele><time>2026-03-28T08:27:54.999Z</time></trkpt><trkpt lat="44.98818469657133" lon="8.477713424896338"><ele>170.60000000000002</ele><time>2026-03-28T08:27:57.999Z</time></trkpt><trkpt lat="44.988233214049686" lon="8.477575191132997"><ele>170.8</ele><time>2026-03-28T08:28:24.999Z</time></trkpt><trkpt lat="44.98830328651222" lon="8.477545142079302"><ele>171.0</ele><time>2026-03-28T08:28:25.999Z</time></trkpt><trkpt lat="44.98837428240411" lon="8.477528300671853"><ele>171.0</ele><time>2026-03-28T08:28:26.999Z</time></trkpt><trkpt lat="44.98846543933844" lon="8.477507469091842"><ele>171.0</ele><time>2026-03-28T08:28:27.999Z</time></trkpt><trkpt lat="44.98853830260168" lon="8.477448091391393"><ele>171.0</ele><time>2026-03-28T08:28:28.999Z</time></trkpt><trkpt lat="44.988613011496156" lon="8.477421212266535"><ele>171.0</ele><time>2026-03-28T08:28:29.999Z</time></trkpt><trkpt lat="44.98870438413599" lon="8.477378788106327"><ele>171.0</ele><time>2026-03-28T08:28:30.999Z</time></trkpt><trkpt lat="44.98880443029939" lon="8.477333923008596"><ele>171.0</ele><time>2026-03-28T08:28:31.999Z</time></trkpt><trkpt lat="44.98888421721828" lon="8.477296865614948"><ele>171.0</ele><time>2026-03-28T08:28:32.999Z</time></trkpt><trkpt lat="44.98894602365532" lon="8.47725810159061"><ele>171.0</ele><time>2026-03-28T08:28:33.999Z</time></trkpt><trkpt lat="44.98901251721512" lon="8.477233040063023"><ele>171.0</ele><time>2026-03-28T08:28:34.999Z</time></trkpt><trkpt lat="44.98909042699065" lon="8.47721174285507"><ele>171.0</ele><time>2026-03-28T08:28:35.999Z</time></trkpt><trkpt lat="44.989173969560234" lon="8.477199128410453"><ele>171.0</ele><time>2026-03-28T08:28:37Z</time></trkpt><trkpt lat="44.989267634370606" lon="8.477208033590411"><ele>174.0</ele><time>2026-03-28T08:28:38Z</time></trkpt><trkpt lat="44.98935685534743" lon="8.477223719508133"><ele>177.0</ele><time>2026-03-28T08:28:40Z</time></trkpt><trkpt lat="44.98940250815565" lon="8.477045093118566"><ele>180.0</ele><time>2026-03-28T08:28:43Z</time></trkpt><trkpt lat="44.98948228475382" lon="8.476886147657819"><ele>183.0</ele><time>2026-03-28T08:28:45Z</time></trkpt><trkpt lat="44.989548353724004" lon="8.476800146362756"><ele>184.8</ele><time>2026-03-28T08:28:46Z</time></trkpt><trkpt lat="44.989611157129495" lon="8.47671047616443"><ele>186.60000000000002</ele><time>2026-03-28T08:28:47Z</time></trkpt><trkpt lat="44.98967857206099" lon="8.476589492532074"><ele>188.39999999999998</ele><time>2026-03-28T08:28:48Z</time></trkpt><trkpt lat="44.98974804337104" lon="8.476470342578493"><ele>190.2</ele><time>2026-03-28T08:28:49Z</time></trkpt><trkpt lat="44.989820523655524" lon="8.476364787416376"><ele>192.0</ele><time>2026-03-28T08:28:50Z</time></trkpt><trkpt lat="44.989880729896385" lon="8.476273593204374"><ele>194.0</ele><time>2026-03-28T08:28:51Z</time></trkpt><trkpt lat="44.989947734496255" lon="8.476169142183991"><ele>196.0</ele><time>2026-03-28T08:28:52Z</time></trkpt><trkpt lat="44.99000347929743" lon="8.476114618091373"><ele>198.0</ele><time>2026-03-28T08:28:53Z</time></trkpt><trkpt lat="44.990016539269874" lon="8.475963061530132"><ele>200.0</ele><time>2026-03-28T08:28:55Z</time></trkpt><trkpt lat="44.98998632110177" lon="8.475853642908165"><ele>202.0</ele><time>2026-03-28T08:28:56Z</time></trkpt><trkpt lat="44.989922964906285" lon="8.475735561653744"><ele>201.99999999999997</ele><time>2026-03-28T08:28:57Z</time></trkpt><trkpt lat="44.98986781960981" lon="8.475648943807727"><ele>202.0</ele><time>2026-03-28T08:28:58Z</time></trkpt><trkpt lat="44.989830570086845" lon="8.475538321760913"><ele>202.0</ele><time>2026-03-28T08:29:00Z</time></trkpt><trkpt lat="44.98983573268111" lon="8.475433551821059"><ele>202.0</ele><time>2026-03-28T08:29:02Z</time></trkpt><trkpt lat="44.98989782730494" lon="8.475302583896738"><ele>201.99999999999997</ele><time>2026-03-28T08:29:03.999Z</time></trkpt><trkpt lat="44.98995036865755" lon="8.475206579237552"><ele>202.0</ele><time>2026-03-28T08:29:04.999Z</time></trkpt><trkpt lat="44.99000821599708" lon="8.475099556120194"><ele>205.2</ele><time>2026-03-28T08:29:05.999Z</time></trkpt><trkpt lat="44.990067861866436" lon="8.475031355056691"><ele>208.39999999999998</ele><time>2026-03-28T08:29:06.999Z</time></trkpt><trkpt lat="44.990192575525754" lon="8.475016810913552"><ele>211.60000000000002</ele><time>2026-03-28T08:29:08.999Z</time></trkpt><trkpt lat="44.99026543534931" lon="8.475048205221263"><ele>214.8</ele><time>2026-03-28T08:29:09.999Z</time></trkpt><trkpt lat="44.9903510548329" lon="8.475073273465757"><ele>218.0</ele><time>2026-03-28T08:29:10.999Z</time></trkpt><trkpt lat="44.990469619945095" lon="8.475032143488164"><ele>218.0</ele><time>2026-03-28T08:29:12.999Z</time></trkpt><trkpt lat="44.99058947460954" lon="8.475110348739936"><ele>218.0</ele><time>2026-03-28T08:29:14.999Z</time></trkpt><trkpt lat="44.99062885636389" lon="8.475202364395876"><ele>218.0</ele><time>2026-03-28T08:29:15.999Z</time></trkpt><trkpt lat="44.99065809403449" lon="8.475313011748755"><ele>218.0</ele><time>2026-03-28T08:29:16.999Z</time></trkpt><trkpt lat="44.990739348013086" lon="8.475409624423772"><ele>218.0</ele><time>2026-03-28T08:29:17.999Z</time></trkpt><trkpt lat="44.99082622467318" lon="8.475465289373775"><ele>221.00000000000003</ele><time>2026-03-28T08:29:18.999Z</time></trkpt><trkpt lat="44.990917536493775" lon="8.47552261495984"><ele>224.0</ele><time>2026-03-28T08:29:19.999Z</time></trkpt><trkpt lat="44.99100131166115" lon="8.47555182069766"><ele>227.0</ele><time>2026-03-28T08:29:20.999Z</time></trkpt><trkpt lat="44.9910667650514" lon="8.475563219418868"><ele>230.0</ele><time>2026-03-28T08:29:21.999Z</time></trkpt><trkpt lat="44.99115169508162" lon="8.47559041215758"><ele>233.00000000000003</ele><time>2026-03-28T08:29:22.999Z</time></trkpt><trkpt lat="44.99124219369524" lon="8.475623074713253"><ele>236.0</ele><time>2026-03-28T08:29:23.999Z</time></trkpt><trkpt lat="44.99130795785418" lon="8.475652567376974"><ele>236.0</ele><time>2026-03-28T08:29:24.999Z</time></trkpt><trkpt lat="44.99142821520458" lon="8.47569812153146"><ele>236.00000000000003</ele><time>2026-03-28T08:29:26.999Z</time></trkpt><trkpt lat="44.99150010958257" lon="8.475723746928137"><ele>236.00000000000003</ele><time>2026-03-28T08:29:28.999Z</time></trkpt><trkpt lat="44.99157855141763" lon="8.475746241836541"><ele>236.0</ele><time>2026-03-28T08:29:30.999Z</time></trkpt><trkpt lat="44.99166825771652" lon="8.475753084988334"><ele>236.0</ele><time>2026-03-28T08:29:33.999Z</time></trkpt><trkpt lat="44.991751036902414" lon="8.475699563529064"><ele>236.4</ele><time>2026-03-28T08:29:50.999Z</time></trkpt><trkpt lat="44.99181974996837" lon="8.475604764581227"><ele>236.8</ele><time>2026-03-28T08:29:52.999Z</time></trkpt><trkpt lat="44.99194795836269" lon="8.475538115481775"><ele>237.20000000000002</ele><time>2026-03-28T08:29:54.999Z</time></trkpt><trkpt lat="44.9920222157926" lon="8.475509818121294"><ele>237.60000000000002</ele><time>2026-03-28T08:29:55.999Z</time></trkpt><trkpt lat="44.99209476289722" lon="8.475431652469247"><ele>238.0</ele><time>2026-03-28T08:29:57.999Z</time></trkpt><trkpt lat="44.99217805025982" lon="8.475374628938134"><ele>237.99999999999997</ele><time>2026-03-28T08:29:59.999Z</time></trkpt><trkpt lat="44.99225560053997" lon="8.475336573390072"><ele>238.0</ele><time>2026-03-28T08:30:01.999Z</time></trkpt><trkpt lat="44.99231100739212" lon="8.47540790281009"><ele>238.0</ele><time>2026-03-28T08:30:35.998Z</time></trkpt><trkpt lat="44.99221473662624" lon="8.475456846190008"><ele>238.0</ele><time>2026-03-28T08:30:37.998Z</time></trkpt><trkpt lat="44.99214040683667" lon="8.475461267671342"><ele>237.99999999999997</ele><time>2026-03-28T08:30:38.998Z</time></trkpt><trkpt lat="44.99206992888744" lon="8.47547715468922"><ele>238.0</ele><time>2026-03-28T08:30:39.998Z</time></trkpt><trkpt lat="44.991959146046774" lon="8.475535375881913"><ele>237.66666666666666</ele><time>2026-03-28T08:30:41.998Z</time></trkpt><trkpt lat="44.991875213015035" lon="8.47557773470933"><ele>237.33333333333331</ele><time>2026-03-28T08:30:42.999Z</time></trkpt><trkpt lat="44.991803614713696" lon="8.475620757087626"><ele>237.0</ele><time>2026-03-28T08:30:43.999Z</time></trkpt><trkpt lat="44.99171855166033" lon="8.475663547522876"><ele>236.66666666666669</ele><time>2026-03-28T08:30:44.999Z</time></trkpt><trkpt lat="44.991638597664334" lon="8.47569893338726"><ele>236.33333333333334</ele><time>2026-03-28T08:30:46Z</time></trkpt><trkpt lat="44.99154519219619" lon="8.475724878483911"><ele>236.0</ele><time>2026-03-28T08:30:47Z</time></trkpt><trkpt lat="44.991456224575316" lon="8.475729017558104"><ele>236.0</ele><time>2026-03-28T08:30:49Z</time></trkpt><trkpt lat="44.99138267803076" lon="8.475745735902969"><ele>236.0</ele><time>2026-03-28T08:30:53Z</time></trkpt><trkpt lat="44.99133523898818" lon="8.47583864052992"><ele>236.0</ele><time>2026-03-28T08:30:56Z</time></trkpt><trkpt lat="44.99126392302425" lon="8.475851383709255"><ele>236.0</ele><time>2026-03-28T08:35:49.999Z</time></trkpt><trkpt lat="44.991305850870425" lon="8.475781897385597"><ele>236.0</ele><time>2026-03-28T08:35:51.999Z</time></trkpt><trkpt lat="44.991317203690805" lon="8.475876531036977"><ele>236.0</ele><time>2026-03-28T08:35:54.999Z</time></trkpt><trkpt lat="44.99129288372122" lon="8.47578243729354"><ele>236.0</ele><time>2026-03-28T08:35:57.999Z</time></trkpt><trkpt lat="44.99136303747954" lon="8.475798701020315"><ele>236.0</ele><time>2026-03-28T08:35:59.999Z</time></trkpt><trkpt lat="44.99134989058439" lon="8.47567758632448"><ele>236.00000000000003</ele><time>2026-03-28T08:36:03.999Z</time></trkpt><trkpt lat="44.99127857900793" lon="8.475632701941173"><ele>236.00000000000003</ele><time>2026-03-28T08:36:05.999Z</time></trkpt><trkpt lat="44.99116775904912" lon="8.475608437143421"><ele>236.0</ele><time>2026-03-28T08:36:07.999Z</time></trkpt><trkpt lat="44.99108112666041" lon="8.47556910799319"><ele>236.0</ele><time>2026-03-28T08:36:09.999Z</time></trkpt><trkpt lat="44.99097625693232" lon="8.475523367376748"><ele>236.0</ele><time>2026-03-28T08:36:11.999Z</time></trkpt><trkpt lat="44.99086332166858" lon="8.475476319967006"><ele>236.00000000000003</ele><time>2026-03-28T08:36:13.999Z</time></trkpt><trkpt lat="44.99077762764894" lon="8.475417076242039"><ele>236.00000000000003</ele><time>2026-03-28T08:36:15.999Z</time></trkpt><trkpt lat="44.99068092241311" lon="8.475315247658429"><ele>236.0</ele><time>2026-03-28T08:36:17.999Z</time></trkpt><trkpt lat="44.990609220407485" lon="8.475260247010453"><ele>236.0</ele><time>2026-03-28T08:36:19.999Z</time></trkpt><trkpt lat="44.990549139411854" lon="8.475135611854443"><ele>232.4</ele><time>2026-03-28T08:36:21.999Z</time></trkpt><trkpt lat="44.99047273426645" lon="8.47504144572585"><ele>228.8</ele><time>2026-03-28T08:36:23.999Z</time></trkpt><trkpt lat="44.99035757291981" lon="8.475033745620548"><ele>225.20000000000002</ele><time>2026-03-28T08:36:25.999Z</time></trkpt><trkpt lat="44.99027643653428" lon="8.475094784823337"><ele>221.60000000000002</ele><time>2026-03-28T08:36:27.999Z</time></trkpt><trkpt lat="44.99017980636693" lon="8.475069579986016"><ele>218.0</ele><time>2026-03-28T08:36:29.999Z</time></trkpt><trkpt lat="44.99007928934849" lon="8.475063345919603"><ele>215.2</ele><time>2026-03-28T08:36:31.999Z</time></trkpt><trkpt lat="44.99000167813121" lon="8.475125988273497"><ele>212.4</ele><time>2026-03-28T08:36:33.999Z</time></trkpt><trkpt lat="44.989950811643496" lon="8.475245659093995"><ele>209.6</ele><time>2026-03-28T08:36:35.999Z</time></trkpt><trkpt lat="44.989902765518615" lon="8.475368926038877"><ele>206.79999999999998</ele><time>2026-03-28T08:36:37.999Z</time></trkpt><trkpt lat="44.98985297951656" lon="8.475490151516249"><ele>204.0</ele><time>2026-03-28T08:36:39.999Z</time></trkpt><trkpt lat="44.98984630647199" lon="8.47561673794059"><ele>203.66666666666666</ele><time>2026-03-28T08:36:41.998Z</time></trkpt><trkpt lat="44.98988303481474" lon="8.475715485879613"><ele>203.33333333333331</ele><time>2026-03-28T08:36:43.998Z</time></trkpt><trkpt lat="44.98994394872749" lon="8.475817430811757"><ele>203.0</ele><time>2026-03-28T08:36:45.998Z</time></trkpt><trkpt lat="44.989987217129766" lon="8.475919475418763"><ele>202.66666666666666</ele><time>2026-03-28T08:36:47.998Z</time></trkpt><trkpt lat="44.990007522667334" lon="8.476044703608464"><ele>202.33333333333331</ele><time>2026-03-28T08:36:49.998Z</time></trkpt><trkpt lat="44.98998728482247" lon="8.47617992615511"><ele>202.0</ele><time>2026-03-28T08:36:51.998Z</time></trkpt><trkpt lat="44.989901322631844" lon="8.476295993703783"><ele>200.33333333333331</ele><time>2026-03-28T08:36:53.998Z</time></trkpt><trkpt lat="44.98984190796672" lon="8.476348004518272"><ele>198.66666666666666</ele><time>2026-03-28T08:36:54.998Z</time></trkpt><trkpt lat="44.98979533630876" lon="8.476416994387474"><ele>197.0</ele><time>2026-03-28T08:36:55.998Z</time></trkpt><trkpt lat="44.98974407682955" lon="8.476479476938634"><ele>195.33333333333331</ele><time>2026-03-28T08:36:56.998Z</time></trkpt><trkpt lat="44.989703152396515" lon="8.476548750287119"><ele>193.66666666666666</ele><time>2026-03-28T08:36:57.998Z</time></trkpt><trkpt lat="44.98965594030474" lon="8.4766180746894"><ele>192.0</ele><time>2026-03-28T08:36:58.998Z</time></trkpt><trkpt lat="44.98958667768062" lon="8.476760510205716"><ele>192.0</ele><time>2026-03-28T08:37:01Z</time></trkpt><trkpt lat="44.98951186769759" lon="8.476879028270353"><ele>192.0</ele><time>2026-03-28T08:37:03Z</time></trkpt><trkpt lat="44.98942403923719" lon="8.4769877895138"><ele>192.0</ele><time>2026-03-28T08:37:05Z</time></trkpt><trkpt lat="44.98937828396013" lon="8.477102250222405"><ele>192.0</ele><time>2026-03-28T08:37:07Z</time></trkpt><trkpt lat="44.98935123672436" lon="8.47721801120265"><ele>192.0</ele><time>2026-03-28T08:37:11Z</time></trkpt><trkpt lat="44.989230301803964" lon="8.477192894064812"><ele>187.8</ele><time>2026-03-28T08:37:13Z</time></trkpt><trkpt lat="44.98915378353173" lon="8.477170610579272"><ele>183.6</ele><time>2026-03-28T08:37:14Z</time></trkpt><trkpt lat="44.98907766396538" lon="8.4771924130848"><ele>179.4</ele><time>2026-03-28T08:37:15Z</time></trkpt><trkpt lat="44.988988773632414" lon="8.477209438412386"><ele>175.20000000000002</ele><time>2026-03-28T08:37:16Z</time></trkpt><trkpt lat="44.988873203484125" lon="8.477263551695378"><ele>171.0</ele><time>2026-03-28T08:37:17Z</time></trkpt><trkpt lat="44.98876244414185" lon="8.477317461485171"><ele>171.0</ele><time>2026-03-28T08:37:18Z</time></trkpt><trkpt lat="44.98867755437816" lon="8.477377916757629"><ele>171.0</ele><time>2026-03-28T08:37:19Z</time></trkpt><trkpt lat="44.98859415770348" lon="8.47736747235789"><ele>171.0</ele><time>2026-03-28T08:37:20Z</time></trkpt><trkpt lat="44.98850755979222" lon="8.4771903186699"><ele>171.0</ele><time>2026-03-28T08:37:22Z</time></trkpt><trkpt lat="44.98848080824761" lon="8.477031718200479"><ele>171.0</ele><time>2026-03-28T08:37:23Z</time></trkpt><trkpt lat="44.988453209666815" lon="8.476867598610598"><ele>170.66666666666666</ele><time>2026-03-28T08:37:24Z</time></trkpt><trkpt lat="44.98841884096276" lon="8.476658653275752"><ele>170.33333333333331</ele><time>2026-03-28T08:37:25Z</time></trkpt><trkpt lat="44.98837759566155" lon="8.476394549903965"><ele>170.0</ele><time>2026-03-28T08:37:26Z</time></trkpt><trkpt lat="44.988331035901005" lon="8.476089791050066"><ele>170.0</ele><time>2026-03-28T08:37:27Z</time></trkpt><trkpt lat="44.98828565122005" lon="8.475797746015688"><ele>170.0</ele><time>2026-03-28T08:37:28Z</time></trkpt><trkpt lat="44.988240181532774" lon="8.47551412819894"><ele>170.0</ele><time>2026-03-28T08:37:29Z</time></trkpt><trkpt lat="44.98820057408264" lon="8.475265454777599"><ele>170.0</ele><time>2026-03-28T08:37:30Z</time></trkpt><trkpt lat="44.98816649479811" lon="8.475047982733733"><ele>170.0</ele><time>2026-03-28T08:37:31Z</time></trkpt><trkpt lat="44.988134622635656" lon="8.474844595123514"><ele>170.0</ele><time>2026-03-28T08:37:32Z</time></trkpt><trkpt lat="44.988106413960494" lon="8.47466895640703"><ele>170.0</ele><time>2026-03-28T08:37:33Z</time></trkpt><trkpt lat="44.988078443874095" lon="8.474492457153081"><ele>170.0</ele><time>2026-03-28T08:37:34Z</time></trkpt><trkpt lat="44.98805041829557" lon="8.474315607714582"><ele>170.0</ele><time>2026-03-28T08:37:35Z</time></trkpt><trkpt lat="44.98801938303914" lon="8.47411976635108"><ele>170.0</ele><time>2026-03-28T08:37:35.999Z</time></trkpt><trkpt lat="44.987988243216684" lon="8.473922407526079"><ele>170.0</ele><time>2026-03-28T08:37:36.999Z</time></trkpt><trkpt lat="44.987954322048765" lon="8.4737065147196"><ele>170.66666666666666</ele><time>2026-03-28T08:37:37.999Z</time></trkpt><trkpt lat="44.98791873943298" lon="8.473480047557679"><ele>171.33333333333334</ele><time>2026-03-28T08:37:38.999Z</time></trkpt><trkpt lat="44.987883691309776" lon="8.473251726117065"><ele>172.0</ele><time>2026-03-28T08:37:39.999Z</time></trkpt><trkpt lat="44.98784949908136" lon="8.473016810646875"><ele>174.25</ele><time>2026-03-28T08:37:40.999Z</time></trkpt><trkpt lat="44.9878162114288" lon="8.472808004329847"><ele>176.5</ele><time>2026-03-28T08:37:41.999Z</time></trkpt><trkpt lat="44.98778886174612" lon="8.47263401140613"><ele>178.75</ele><time>2026-03-28T08:37:42.999Z</time></trkpt><trkpt lat="44.98776422551413" lon="8.472472245330037"><ele>181.0</ele><time>2026-03-28T08:37:43.999Z</time></trkpt><trkpt lat="44.987738998474455" lon="8.472306688763645"><ele>181.0</ele><time>2026-03-28T08:37:44.999Z</time></trkpt><trkpt lat="44.98771224285804" lon="8.47213754600662"><ele>181.0</ele><time>2026-03-28T08:37:45.999Z</time></trkpt><trkpt lat="44.987685483796874" lon="8.471968381597092"><ele>181.0</ele><time>2026-03-28T08:37:46.999Z</time></trkpt><trkpt lat="44.98765764641404" lon="8.471792512094375"><ele>181.0</ele><time>2026-03-28T08:37:47.999Z</time></trkpt><trkpt lat="44.987627489625254" lon="8.471602363561265"><ele>181.66666666666669</ele><time>2026-03-28T08:37:48.999Z</time></trkpt><trkpt lat="44.98759580689648" lon="8.471402592550886"><ele>182.33333333333334</ele><time>2026-03-28T08:37:49.999Z</time></trkpt><trkpt lat="44.987562351505616" lon="8.471191645036747"><ele>183.0</ele><time>2026-03-28T08:37:50.999Z</time></trkpt><trkpt lat="44.98752662632976" lon="8.47096638628019"><ele>180.0</ele><time>2026-03-28T08:37:51.999Z</time></trkpt><trkpt lat="44.987489462754816" lon="8.470732056898868"><ele>177.0</ele><time>2026-03-28T08:37:52.999Z</time></trkpt><trkpt lat="44.98745430693608" lon="8.470510387429837"><ele>174.0</ele><time>2026-03-28T08:37:53.999Z</time></trkpt><trkpt lat="44.987415843901914" lon="8.470263585220291"><ele>173.33333333333334</ele><time>2026-03-28T08:37:54.999Z</time></trkpt><trkpt lat="44.987380622092914" lon="8.470036223702465"><ele>172.66666666666669</ele><time>2026-03-28T08:37:55.999Z</time></trkpt><trkpt lat="44.98734319185681" lon="8.469802841624688"><ele>172.0</ele><time>2026-03-28T08:37:56.999Z</time></trkpt><trkpt lat="44.98730566212704" lon="8.4695630917844"><ele>171.33333333333334</ele><time>2026-03-28T08:37:57.999Z</time></trkpt><trkpt lat="44.987271704479824" lon="8.46934611317421"><ele>170.66666666666666</ele><time>2026-03-28T08:37:58.999Z</time></trkpt><trkpt lat="44.9872381023553" lon="8.469132908473467"><ele>170.0</ele><time>2026-03-28T08:37:59.999Z</time></trkpt><trkpt lat="44.987205650629924" lon="8.468929122470236"><ele>170.0</ele><time>2026-03-28T08:38:00.999Z</time></trkpt><trkpt lat="44.98717262146462" lon="8.46872171046835"><ele>170.0</ele><time>2026-03-28T08:38:01.999Z</time></trkpt><trkpt lat="44.98714083314845" lon="8.468522091111486"><ele>170.0</ele><time>2026-03-28T08:38:02.999Z</time></trkpt><trkpt lat="44.9871088679971" lon="8.468321360082124"><ele>170.0</ele><time>2026-03-28T08:38:03.999Z</time></trkpt><trkpt lat="44.98707613165372" lon="8.46811561648387"><ele>169.75</ele><time>2026-03-28T08:38:04.999Z</time></trkpt><trkpt lat="44.987047569208684" lon="8.467931895613962"><ele>169.5</ele><time>2026-03-28T08:38:05.999Z</time></trkpt><trkpt lat="44.98701713024048" lon="8.467742920461482"><ele>169.25</ele><time>2026-03-28T08:38:06.999Z</time></trkpt><trkpt lat="44.9869851947273" lon="8.46755350979054"><ele>169.0</ele><time>2026-03-28T08:38:07.999Z</time></trkpt><trkpt lat="44.98695812884665" lon="8.467379493037908"><ele>169.0</ele><time>2026-03-28T08:38:08.999Z</time></trkpt><trkpt lat="44.98693332985159" lon="8.467225572617927"><ele>169.0</ele><time>2026-03-28T08:38:09.999Z</time></trkpt><trkpt lat="44.98690720183949" lon="8.467067257531387"><ele>169.0</ele><time>2026-03-28T08:38:10.999Z</time></trkpt><trkpt lat="44.986897432346964" lon="8.466915594792406"><ele>169.0</ele><time>2026-03-28T08:38:11.999Z</time></trkpt><trkpt lat="44.986902988486975" lon="8.466768677041962"><ele>169.0</ele><time>2026-03-28T08:38:12.999Z</time></trkpt><trkpt lat="44.986949446555634" lon="8.466640793660376"><ele>169.75</ele><time>2026-03-28T08:38:13.999Z</time></trkpt><trkpt lat="44.987016160994045" lon="8.466524083314223"><ele>170.5</ele><time>2026-03-28T08:38:14.999Z</time></trkpt><trkpt lat="44.98710123244769" lon="8.46642463015621"><ele>171.25</ele><time>2026-03-28T08:38:15.999Z</time></trkpt><trkpt lat="44.987185078645815" lon="8.466303885155098"><ele>172.0</ele><time>2026-03-28T08:38:16.999Z</time></trkpt><trkpt lat="44.98729478171598" lon="8.466217508928048"><ele>172.5</ele><time>2026-03-28T08:38:17.999Z</time></trkpt><trkpt lat="44.987392730401375" lon="8.466108176189888"><ele>173.0</ele><time>2026-03-28T08:38:18.999Z</time></trkpt><trkpt lat="44.98748907112739" lon="8.465995736296067"><ele>173.5</ele><time>2026-03-28T08:38:19.999Z</time></trkpt><trkpt lat="44.98756376267807" lon="8.465860623965074"><ele>174.0</ele><time>2026-03-28T08:38:20.999Z</time></trkpt><trkpt lat="44.987640207636666" lon="8.465726518100855"><ele>174.0</ele><time>2026-03-28T08:38:21.999Z</time></trkpt><trkpt lat="44.987717245156524" lon="8.465599531926427"><ele>174.0</ele><time>2026-03-28T08:38:22.999Z</time></trkpt><trkpt lat="44.98775643475597" lon="8.465431722576078"><ele>174.0</ele><time>2026-03-28T08:38:23.999Z</time></trkpt><trkpt lat="44.987799708782696" lon="8.465264811066175"><ele>174.0</ele><time>2026-03-28T08:38:24.999Z</time></trkpt><trkpt lat="44.98784005934935" lon="8.465103923176923"><ele>174.75</ele><time>2026-03-28T08:38:25.999Z</time></trkpt><trkpt lat="44.98786099690151" lon="8.464935561402221"><ele>175.5</ele><time>2026-03-28T08:38:26.999Z</time></trkpt><trkpt lat="44.987881050882294" lon="8.464772661043222"><ele>176.25</ele><time>2026-03-28T08:38:27.999Z</time></trkpt><trkpt lat="44.987920131932036" lon="8.464619964967893"><ele>177.0</ele><time>2026-03-28T08:38:28.999Z</time></trkpt><trkpt lat="44.98797664059242" lon="8.464473625586667"><ele>179.0</ele><time>2026-03-28T08:38:29.999Z</time></trkpt><trkpt lat="44.988055632009555" lon="8.464356607501463"><ele>181.0</ele><time>2026-03-28T08:38:30.999Z</time></trkpt><trkpt lat="44.98814798040384" lon="8.464242963331602"><ele>183.0</ele><time>2026-03-28T08:38:31.999Z</time></trkpt><trkpt lat="44.988253502478045" lon="8.464155883896751"><ele>185.0</ele><time>2026-03-28T08:38:32.999Z</time></trkpt><trkpt lat="44.988375722898525" lon="8.464196556848409"><ele>185.0</ele><time>2026-03-28T08:38:33.999Z</time></trkpt><trkpt lat="44.98850662292291" lon="8.464228246342227"><ele>185.0</ele><time>2026-03-28T08:38:34.999Z</time></trkpt><trkpt lat="44.988625636210095" lon="8.464245352431755"><ele>185.0</ele><time>2026-03-28T08:38:35.999Z</time></trkpt><trkpt lat="44.98872050745405" lon="8.464237340879082"><ele>185.0</ele><time>2026-03-28T08:38:36.999Z</time></trkpt><trkpt lat="44.988799565651654" lon="8.46421626975992"><ele>185.0</ele><time>2026-03-28T08:38:37.999Z</time></trkpt><trkpt lat="44.98887087745881" lon="8.464200820136085"><ele>185.0</ele><time>2026-03-28T08:38:38.999Z</time></trkpt><trkpt lat="44.98893891622531" lon="8.464207513451825"><ele>185.0</ele><time>2026-03-28T08:38:39.999Z</time></trkpt><trkpt lat="44.989032950197526" lon="8.46412101799447"><ele>185.0</ele><time>2026-03-28T08:38:41.999Z</time></trkpt><trkpt lat="44.9890882293105" lon="8.464074844825406"><ele>185.0</ele><time>2026-03-28T08:38:42.999Z</time></trkpt><trkpt lat="44.98917176831836" lon="8.463992291001343"><ele>185.0</ele><time>2026-03-28T08:38:44.999Z</time></trkpt><trkpt lat="44.98937978073432" lon="8.464373712709925"><ele>184.16666666666666</ele><time>2026-03-28T08:38:46.999Z</time></trkpt><trkpt lat="44.989386917337896" lon="8.464496775106035"><ele>183.33333333333331</ele><time>2026-03-28T08:38:47.999Z</time></trkpt><trkpt lat="44.989381584503036" lon="8.464604789012107"><ele>182.5</ele><time>2026-03-28T08:38:48.999Z</time></trkpt><trkpt lat="44.98939795470176" lon="8.464707208828587"><ele>181.66666666666666</ele><time>2026-03-28T08:38:50.999Z</time></trkpt><trkpt lat="44.989483351799024" lon="8.464706697653329"><ele>180.83333333333334</ele><time>2026-03-28T08:39:15Z</time></trkpt><trkpt lat="44.98954568111381" lon="8.46466838640907"><ele>180.0</ele><time>2026-03-28T08:39:16Z</time></trkpt><trkpt lat="44.98964337306052" lon="8.464599738885958"><ele>180.0</ele><time>2026-03-28T08:39:18Z</time></trkpt><trkpt lat="44.98978002896035" lon="8.464493187235574"><ele>180.0</ele><time>2026-03-28T08:39:19Z</time></trkpt><trkpt lat="44.98985960041478" lon="8.464430464128544"><ele>180.0</ele><time>2026-03-28T08:39:20Z</time></trkpt><trkpt lat="44.989937092267866" lon="8.464367569895627"><ele>180.0</ele><time>2026-03-28T08:39:21Z</time></trkpt><trkpt lat="44.99002533322057" lon="8.464296178378198"><ele>180.0</ele><time>2026-03-28T08:39:22Z</time></trkpt><trkpt lat="44.99011604020083" lon="8.464238881112642"><ele>180.0</ele><time>2026-03-28T08:39:23Z</time></trkpt><trkpt lat="44.99019936222583" lon="8.464174128410903"><ele>180.0</ele><time>2026-03-28T08:39:24Z</time></trkpt><trkpt lat="44.99028371574059" lon="8.464131068326898"><ele>180.0</ele><time>2026-03-28T08:39:25Z</time></trkpt><trkpt lat="44.99036906204974" lon="8.464124944905356"><ele>180.0</ele><time>2026-03-28T08:39:26Z</time></trkpt><trkpt lat="44.990452112604196" lon="8.464144190749924"><ele>180.0</ele><time>2026-03-28T08:39:27Z</time></trkpt><trkpt lat="44.990534454739624" lon="8.464141933261214"><ele>180.0</ele><time>2026-03-28T08:39:28Z</time></trkpt><trkpt lat="44.99059786896044" lon="8.464126280305681"><ele>180.0</ele><time>2026-03-28T08:39:29Z</time></trkpt><trkpt lat="44.99068846728219" lon="8.464082954041212"><ele>180.0</ele><time>2026-03-28T08:39:31Z</time></trkpt><trkpt lat="44.99076146005789" lon="8.46403936541057"><ele>180.0</ele><time>2026-03-28T08:39:33Z</time></trkpt><trkpt lat="44.990828093749386" lon="8.463995674307762"><ele>180.0</ele><time>2026-03-28T08:39:35Z</time></trkpt><trkpt lat="44.99091102321703" lon="8.46392791930753"><ele>180.0</ele><time>2026-03-28T08:39:37Z</time></trkpt><trkpt lat="44.990968201321216" lon="8.463880594528522"><ele>180.0</ele><time>2026-03-28T08:39:38Z</time></trkpt><trkpt lat="44.99102728594309" lon="8.463846785928599"><ele>180.16666666666666</ele><time>2026-03-28T08:39:39Z</time></trkpt><trkpt lat="44.991086213508545" lon="8.463809957469605"><ele>180.33333333333334</ele><time>2026-03-28T08:39:40Z</time></trkpt><trkpt lat="44.991152200663855" lon="8.463765800606206"><ele>180.5</ele><time>2026-03-28T08:39:41Z</time></trkpt><trkpt lat="44.991221430040945" lon="8.463721340524547"><ele>180.66666666666669</ele><time>2026-03-28T08:39:42Z</time></trkpt><trkpt lat="44.99131767006216" lon="8.463661010845884"><ele>180.83333333333334</ele><time>2026-03-28T08:39:44Z</time></trkpt><trkpt lat="44.99137864364461" lon="8.463622251265914"><ele>181.0</ele><time>2026-03-28T08:39:45Z</time></trkpt><trkpt lat="44.991453610619836" lon="8.463560468767323"><ele>181.0</ele><time>2026-03-28T08:39:46Z</time></trkpt><trkpt lat="44.991539737635556" lon="8.463482921498878"><ele>181.0</ele><time>2026-03-28T08:39:47Z</time></trkpt><trkpt lat="44.99164763227999" lon="8.463379636079619"><ele>181.0</ele><time>2026-03-28T08:39:48Z</time></trkpt><trkpt lat="44.9917543601146" lon="8.463272253633852"><ele>181.0</ele><time>2026-03-28T08:39:49Z</time></trkpt><trkpt lat="44.99186743918204" lon="8.463162018185697"><ele>181.60000000000002</ele><time>2026-03-28T08:39:50Z</time></trkpt><trkpt lat="44.991965952860994" lon="8.463068655262923"><ele>182.2</ele><time>2026-03-28T08:39:51Z</time></trkpt><trkpt lat="44.992062979569894" lon="8.46299257585883"><ele>182.8</ele><time>2026-03-28T08:39:52Z</time></trkpt><trkpt lat="44.99214877958331" lon="8.46291754489422"><ele>183.39999999999998</ele><time>2026-03-28T08:39:53Z</time></trkpt><trkpt lat="44.99224299238043" lon="8.462855219830251"><ele>184.0</ele><time>2026-03-28T08:39:54Z</time></trkpt><trkpt lat="44.99234084424059" lon="8.462791534020461"><ele>184.39999999999998</ele><time>2026-03-28T08:39:55Z</time></trkpt><trkpt lat="44.992416244916676" lon="8.462679558458554"><ele>184.8</ele><time>2026-03-28T08:39:56Z</time></trkpt><trkpt lat="44.99247924209472" lon="8.462544170549169"><ele>185.2</ele><time>2026-03-28T08:39:56.999Z</time></trkpt><trkpt lat="44.99254320179462" lon="8.462415366163231"><ele>185.60000000000002</ele><time>2026-03-28T08:39:57.999Z</time></trkpt><trkpt lat="44.992608362452906" lon="8.462284123058886"><ele>186.0</ele><time>2026-03-28T08:39:58.999Z</time></trkpt><trkpt lat="44.99267196192876" lon="8.462142714027419"><ele>187.25</ele><time>2026-03-28T08:39:59.999Z</time></trkpt><trkpt lat="44.992728679538175" lon="8.461992793658787"><ele>188.5</ele><time>2026-03-28T08:40:00.999Z</time></trkpt><trkpt lat="44.9927788442377" lon="8.461836806607144"><ele>189.75</ele><time>2026-03-28T08:40:01.999Z</time></trkpt><trkpt lat="44.99282726484672" lon="8.461683260801472"><ele>191.0</ele><time>2026-03-28T08:40:02.999Z</time></trkpt><trkpt lat="44.99287464503678" lon="8.461534218122647"><ele>191.0</ele><time>2026-03-28T08:40:03.999Z</time></trkpt><trkpt lat="44.99292230253873" lon="8.461413380303426"><ele>191.0</ele><time>2026-03-28T08:40:04.999Z</time></trkpt><trkpt lat="44.99297011928197" lon="8.461314420313146"><ele>191.0</ele><time>2026-03-28T08:40:05.999Z</time></trkpt><trkpt lat="44.993035199595646" lon="8.461231865794122"><ele>191.0</ele><time>2026-03-28T08:40:06.999Z</time></trkpt><trkpt lat="44.99312120831733" lon="8.461143085330665"><ele>191.0</ele><time>2026-03-28T08:40:07.999Z</time></trkpt><trkpt lat="44.99321860446367" lon="8.461063310743262"><ele>191.0</ele><time>2026-03-28T08:40:08.999Z</time></trkpt><trkpt lat="44.993330753902484" lon="8.460985512005944"><ele>191.0</ele><time>2026-03-28T08:40:09.999Z</time></trkpt><trkpt lat="44.99341297144643" lon="8.460906117911293"><ele>191.0</ele><time>2026-03-28T08:40:10.999Z</time></trkpt><trkpt lat="44.99347280749901" lon="8.460826560987798"><ele>191.0</ele><time>2026-03-28T08:40:11.999Z</time></trkpt><trkpt lat="44.993526791076896" lon="8.4607153446841"><ele>191.0</ele><time>2026-03-28T08:40:12.999Z</time></trkpt><trkpt lat="44.9935694064308" lon="8.460563132108579"><ele>193.20000000000002</ele><time>2026-03-28T08:40:13.999Z</time></trkpt><trkpt lat="44.99359455447965" lon="8.460421590232144"><ele>195.4</ele><time>2026-03-28T08:40:14.999Z</time></trkpt><trkpt lat="44.99360857415244" lon="8.46029563367084"><ele>197.6</ele><time>2026-03-28T08:40:15.999Z</time></trkpt><trkpt lat="44.993626261728934" lon="8.460159743003091"><ele>199.8</ele><time>2026-03-28T08:40:16.999Z</time></trkpt><trkpt lat="44.99363657420786" lon="8.460030371348582"><ele>202.0</ele><time>2026-03-28T08:40:17.999Z</time></trkpt><trkpt lat="44.99364655091413" lon="8.459929540799658"><ele>201.99999999999997</ele><time>2026-03-28T08:40:18.999Z</time></trkpt><trkpt lat="44.9936462412947" lon="8.459833272589542"><ele>202.0</ele><time>2026-03-28T08:40:19.999Z</time></trkpt><trkpt lat="44.99365907214061" lon="8.459662437071648"><ele>202.0</ele><time>2026-03-28T08:40:21.999Z</time></trkpt><trkpt lat="44.9936809904557" lon="8.45954700565797"><ele>202.0</ele><time>2026-03-28T08:40:22.999Z</time></trkpt><trkpt lat="44.993712976161994" lon="8.459449189044882"><ele>201.99999999999997</ele><time>2026-03-28T08:40:23.999Z</time></trkpt><trkpt lat="44.9937533877692" lon="8.45935366011826"><ele>202.0</ele><time>2026-03-28T08:40:24.999Z</time></trkpt><trkpt lat="44.99380402265171" lon="8.459249430679954"><ele>202.0</ele><time>2026-03-28T08:40:25.999Z</time></trkpt><trkpt lat="44.99384945228966" lon="8.459093142782901"><ele>202.0</ele><time>2026-03-28T08:40:26.999Z</time></trkpt><trkpt lat="44.99390602194343" lon="8.458947911144751"><ele>202.0</ele><time>2026-03-28T08:40:27.999Z</time></trkpt><trkpt lat="44.99393219219541" lon="8.458813445774517"><ele>202.0</ele><time>2026-03-28T08:40:28.999Z</time></trkpt><trkpt lat="44.99394011606699" lon="8.458653329146593"><ele>202.0</ele><time>2026-03-28T08:40:29.999Z</time></trkpt><trkpt lat="44.99394854190261" lon="8.458545051659922"><ele>204.75</ele><time>2026-03-28T08:40:30.999Z</time></trkpt><trkpt lat="44.993908226898085" lon="8.458416550673473"><ele>207.5</ele><time>2026-03-28T08:40:31.999Z</time></trkpt><trkpt lat="44.99383295820544" lon="8.458279861451262"><ele>210.25</ele><time>2026-03-28T08:40:32.999Z</time></trkpt><trkpt lat="44.993748292464076" lon="8.458165738267322"><ele>213.0</ele><time>2026-03-28T08:40:33.999Z</time></trkpt><trkpt lat="44.99364898711637" lon="8.45807994947963"><ele>215.75</ele><time>2026-03-28T08:40:34.999Z</time></trkpt><trkpt lat="44.99353702723037" lon="8.457945567409784"><ele>218.5</ele><time>2026-03-28T08:40:35.999Z</time></trkpt><trkpt lat="44.99342935337824" lon="8.457807039093339"><ele>221.25</ele><time>2026-03-28T08:40:36.999Z</time></trkpt><trkpt lat="44.9933716605625" lon="8.457721396223379"><ele>224.0</ele><time>2026-03-28T08:40:37.999Z</time></trkpt><trkpt lat="44.99335808598195" lon="8.457562030392813"><ele>224.0</ele><time>2026-03-28T08:40:39.999Z</time></trkpt><trkpt lat="44.99340155879359" lon="8.457470559157649"><ele>223.99999999999997</ele><time>2026-03-28T08:40:40.999Z</time></trkpt><trkpt lat="44.99347756242253" lon="8.457338675407948"><ele>223.99999999999997</ele><time>2026-03-28T08:40:42.999Z</time></trkpt><trkpt lat="44.99355235055114" lon="8.457287517078656"><ele>224.0</ele><time>2026-03-28T08:40:43.999Z</time></trkpt><trkpt lat="44.99366252441112" lon="8.457232900405968"><ele>224.0</ele><time>2026-03-28T08:40:44.999Z</time></trkpt><trkpt lat="44.9937990465128" lon="8.45716155219302"><ele>226.0</ele><time>2026-03-28T08:40:45.999Z</time></trkpt><trkpt lat="44.99390221999524" lon="8.457074518351982"><ele>227.99999999999997</ele><time>2026-03-28T08:40:46.999Z</time></trkpt><trkpt lat="44.99396016361755" lon="8.457018829877054"><ele>229.99999999999997</ele><time>2026-03-28T08:40:47.999Z</time></trkpt><trkpt lat="44.99395486937948" lon="8.456916131632818"><ele>232.0</ele><time>2026-03-28T08:40:49.999Z</time></trkpt><trkpt lat="44.99379977035141" lon="8.45688706821509"><ele>234.0</ele><time>2026-03-28T08:40:51.999Z</time></trkpt><trkpt lat="44.99368389011008" lon="8.456872357492571"><ele>234.0</ele><time>2026-03-28T08:40:52.999Z</time></trkpt><trkpt lat="44.99358341235539" lon="8.456852555463957"><ele>234.0</ele><time>2026-03-28T08:40:53.999Z</time></trkpt><trkpt lat="44.99350623658449" lon="8.456864924530265"><ele>234.0</ele><time>2026-03-28T08:40:54.999Z</time></trkpt><trkpt lat="44.99340595260736" lon="8.456849127327633"><ele>234.0</ele><time>2026-03-28T08:40:55.999Z</time></trkpt><trkpt lat="44.99333190102212" lon="8.456831877610991"><ele>234.0</ele><time>2026-03-28T08:40:56.999Z</time></trkpt><trkpt lat="44.99324713268941" lon="8.456801911632194"><ele>234.0</ele><time>2026-03-28T08:40:58.999Z</time></trkpt><trkpt lat="44.99316459450739" lon="8.456714425250246"><ele>234.0</ele><time>2026-03-28T08:41:01.999Z</time></trkpt><trkpt lat="44.99312639832732" lon="8.45664202149459"><ele>233.99999999999997</ele><time>2026-03-28T08:41:02.999Z</time></trkpt><trkpt lat="44.99305483287079" lon="8.456507365228571"><ele>233.99999999999997</ele><time>2026-03-28T08:41:04.999Z</time></trkpt><trkpt lat="44.99298495835647" lon="8.456399463673973"><ele>234.0</ele><time>2026-03-28T08:41:06.999Z</time></trkpt><trkpt lat="44.99290318945177" lon="8.456399202069758"><ele>234.0</ele><time>2026-03-28T08:41:07.999Z</time></trkpt><trkpt lat="44.99279415766395" lon="8.456468194596143"><ele>234.0</ele><time>2026-03-28T08:41:08.999Z</time></trkpt><trkpt lat="44.99268092004518" lon="8.456515911569696"><ele>234.0</ele><time>2026-03-28T08:41:09.999Z</time></trkpt><trkpt lat="44.99254743481936" lon="8.456582737360886"><ele>234.0</ele><time>2026-03-28T08:41:10.999Z</time></trkpt><trkpt lat="44.992433076469446" lon="8.456631102047503"><ele>234.0</ele><time>2026-03-28T08:41:11.999Z</time></trkpt><trkpt lat="44.992314429594956" lon="8.45664034046569"><ele>234.79999999999998</ele><time>2026-03-28T08:41:13Z</time></trkpt><trkpt lat="44.99221807284223" lon="8.456640300749592"><ele>235.59999999999997</ele><time>2026-03-28T08:41:14Z</time></trkpt><trkpt lat="44.992115138998045" lon="8.45662709728793"><ele>236.4</ele><time>2026-03-28T08:41:15Z</time></trkpt><trkpt lat="44.9920108995241" lon="8.456599996269325"><ele>237.2</ele><time>2026-03-28T08:41:16Z</time></trkpt><trkpt lat="44.99192272759086" lon="8.45657015089805"><ele>238.0</ele><time>2026-03-28T08:41:17Z</time></trkpt><trkpt lat="44.991846335805946" lon="8.456515070018035"><ele>238.0</ele><time>2026-03-28T08:41:18Z</time></trkpt><trkpt lat="44.991784531892804" lon="8.456400151965656"><ele>238.0</ele><time>2026-03-28T08:41:19Z</time></trkpt><trkpt lat="44.99170869275183" lon="8.456240970351873"><ele>238.0</ele><time>2026-03-28T08:41:20Z</time></trkpt><trkpt lat="44.99161747144481" lon="8.456065854324498"><ele>238.0</ele><time>2026-03-28T08:41:21Z</time></trkpt><trkpt lat="44.991520733482915" lon="8.45591001999475"><ele>238.0</ele><time>2026-03-28T08:41:22Z</time></trkpt><trkpt lat="44.991424018199474" lon="8.455803556427608"><ele>238.0</ele><time>2026-03-28T08:41:23Z</time></trkpt><trkpt lat="44.9912933318855" lon="8.45574736014747"><ele>238.0</ele><time>2026-03-28T08:41:24Z</time></trkpt><trkpt lat="44.99116121181315" lon="8.455679257042755"><ele>238.0</ele><time>2026-03-28T08:41:25Z</time></trkpt><trkpt lat="44.9910141273513" lon="8.455645795305507"><ele>238.0</ele><time>2026-03-28T08:41:26Z</time></trkpt><trkpt lat="44.99087104877984" lon="8.455617284573053"><ele>238.0</ele><time>2026-03-28T08:41:27Z</time></trkpt><trkpt lat="44.99075837159237" lon="8.455598268634505"><ele>238.0</ele><time>2026-03-28T08:41:28Z</time></trkpt><trkpt lat="44.990661912940446" lon="8.455581989757029"><ele>238.0</ele><time>2026-03-28T08:41:29Z</time></trkpt><trkpt lat="44.9905955696665" lon="8.455556925767615"><ele>238.0</ele><time>2026-03-28T08:41:30Z</time></trkpt><trkpt lat="44.99052784120955" lon="8.455389105370553"><ele>238.5</ele><time>2026-03-28T08:41:32Z</time></trkpt><trkpt lat="44.990551232640996" lon="8.455242896708842"><ele>239.0</ele><time>2026-03-28T08:41:33Z</time></trkpt><trkpt lat="44.99053017946061" lon="8.455089964918779"><ele>239.5</ele><time>2026-03-28T08:41:34Z</time></trkpt><trkpt lat="44.99052992605198" lon="8.454926310463089"><ele>240.0</ele><time>2026-03-28T08:41:35Z</time></trkpt><trkpt lat="44.99051197127989" lon="8.45475848069221"><ele>238.5</ele><time>2026-03-28T08:41:36Z</time></trkpt><trkpt lat="44.990502598038674" lon="8.454578164638924"><ele>237.0</ele><time>2026-03-28T08:41:37Z</time></trkpt><trkpt lat="44.990495905806995" lon="8.454396361173494"><ele>235.5</ele><time>2026-03-28T08:41:38Z</time></trkpt><trkpt lat="44.99048908000603" lon="8.454213625611782"><ele>234.0</ele><time>2026-03-28T08:41:39Z</time></trkpt><trkpt lat="44.990489587852885" lon="8.454021279318376"><ele>234.0</ele><time>2026-03-28T08:41:40Z</time></trkpt><trkpt lat="44.99046988280565" lon="8.453838338741631"><ele>234.0</ele><time>2026-03-28T08:41:41Z</time></trkpt><trkpt lat="44.990463350829906" lon="8.45366857914942"><ele>234.0</ele><time>2026-03-28T08:41:42Z</time></trkpt><trkpt lat="44.990452985758495" lon="8.453494148127781"><ele>234.0</ele><time>2026-03-28T08:41:43Z</time></trkpt><trkpt lat="44.99043995980349" lon="8.453346731656213"><ele>234.2</ele><time>2026-03-28T08:41:44Z</time></trkpt><trkpt lat="44.99043462361127" lon="8.453201889991005"><ele>234.39999999999998</ele><time>2026-03-28T08:41:45Z</time></trkpt><trkpt lat="44.99043662177028" lon="8.453070027789588"><ele>234.6</ele><time>2026-03-28T08:41:46Z</time></trkpt><trkpt lat="44.99043544057704" lon="8.452940741032334"><ele>234.8</ele><time>2026-03-28T08:41:47Z</time></trkpt><trkpt lat="44.990424839292075" lon="8.4527995612867"><ele>235.0</ele><time>2026-03-28T08:41:48Z</time></trkpt><trkpt lat="44.99041244552936" lon="8.45264921383277"><ele>234.5</ele><time>2026-03-28T08:41:49Z</time></trkpt><trkpt lat="44.99041133492555" lon="8.452501177161658"><ele>234.0</ele><time>2026-03-28T08:41:50Z</time></trkpt><trkpt lat="44.99039525756439" lon="8.452329272241816"><ele>233.5</ele><time>2026-03-28T08:41:51Z</time></trkpt><trkpt lat="44.99038087886925" lon="8.452144078434785"><ele>233.0</ele><time>2026-03-28T08:41:52Z</time></trkpt><trkpt lat="44.990369773488744" lon="8.451964994905103"><ele>233.0</ele><time>2026-03-28T08:41:53Z</time></trkpt><trkpt lat="44.990354995571515" lon="8.451801920138733"><ele>233.0</ele><time>2026-03-28T08:41:54Z</time></trkpt><trkpt lat="44.99033897761841" lon="8.451644110182487"><ele>233.0</ele><time>2026-03-28T08:41:55Z</time></trkpt><trkpt lat="44.99032407925962" lon="8.451479165404763"><ele>233.0</ele><time>2026-03-28T08:41:56Z</time></trkpt><trkpt lat="44.99031506773316" lon="8.451296763465797"><ele>231.2</ele><time>2026-03-28T08:41:57Z</time></trkpt><trkpt lat="44.99028176312051" lon="8.451191541543789"><ele>229.4</ele><time>2026-03-28T08:41:58Z</time></trkpt><trkpt lat="44.99025577220467" lon="8.45103751196927"><ele>227.59999999999997</ele><time>2026-03-28T08:41:59Z</time></trkpt><trkpt lat="44.9902245248601" lon="8.450882353399622"><ele>225.79999999999998</ele><time>2026-03-28T08:42:00Z</time></trkpt><trkpt lat="44.99018736426579" lon="8.450739588627565"><ele>224.0</ele><time>2026-03-28T08:42:01Z</time></trkpt><trkpt lat="44.99014592963728" lon="8.450597966055321"><ele>224.0</ele><time>2026-03-28T08:42:02Z</time></trkpt><trkpt lat="44.99010496630316" lon="8.450451177108741"><ele>223.99999999999997</ele><time>2026-03-28T08:42:03Z</time></trkpt><trkpt lat="44.99004966317703" lon="8.450316013179757"><ele>223.99999999999997</ele><time>2026-03-28T08:42:04Z</time></trkpt><trkpt lat="44.98997456944404" lon="8.450219261776732"><ele>224.0</ele><time>2026-03-28T08:42:04.999Z</time></trkpt><trkpt lat="44.98986776710107" lon="8.450143303324069"><ele>224.0</ele><time>2026-03-28T08:42:05.999Z</time></trkpt><trkpt lat="44.98975802496805" lon="8.450117264824318"><ele>224.0</ele><time>2026-03-28T08:42:06.999Z</time></trkpt><trkpt lat="44.989652629987134" lon="8.450105328215521"><ele>223.99999999999997</ele><time>2026-03-28T08:42:07.999Z</time></trkpt><trkpt lat="44.98956026207621" lon="8.45008464388099"><ele>223.99999999999997</ele><time>2026-03-28T08:42:08.999Z</time></trkpt><trkpt lat="44.989462304404" lon="8.450055275028522"><ele>224.0</ele><time>2026-03-28T08:42:09.999Z</time></trkpt><trkpt lat="44.98939420435066" lon="8.449989675139244"><ele>224.0</ele><time>2026-03-28T08:42:10.999Z</time></trkpt><trkpt lat="44.989342050380635" lon="8.449896555402896"><ele>224.00000000000003</ele><time>2026-03-28T08:42:11.999Z</time></trkpt><trkpt lat="44.98930376697847" lon="8.449790372355496"><ele>224.0</ele><time>2026-03-28T08:42:12.999Z</time></trkpt><trkpt lat="44.98927382620415" lon="8.449695645160471"><ele>224.0</ele><time>2026-03-28T08:42:13.999Z</time></trkpt><trkpt lat="44.989229261783926" lon="8.449599290921089"><ele>224.0</ele><time>2026-03-28T08:42:14.999Z</time></trkpt><trkpt lat="44.98919883073696" lon="8.449513632849353"><ele>224.00000000000003</ele><time>2026-03-28T08:42:15.999Z</time></trkpt><trkpt lat="44.989182019968275" lon="8.449402940104644"><ele>224.0</ele><time>2026-03-28T08:42:16.999Z</time></trkpt><trkpt lat="44.98920957132374" lon="8.449271452909295"><ele>223.50000000000003</ele><time>2026-03-28T08:42:17.999Z</time></trkpt><trkpt lat="44.98920399496766" lon="8.449139821324358"><ele>223.0</ele><time>2026-03-28T08:42:18.999Z</time></trkpt><trkpt lat="44.98918056128337" lon="8.448996272128435"><ele>222.5</ele><time>2026-03-28T08:42:19.999Z</time></trkpt><trkpt lat="44.9891891334412" lon="8.448879537321673"><ele>222.0</ele><time>2026-03-28T08:42:20.999Z</time></trkpt><trkpt lat="44.98918243380932" lon="8.448762856770404"><ele>221.50000000000003</ele><time>2026-03-28T08:42:21.999Z</time></trkpt><trkpt lat="44.98917484838998" lon="8.448646033905547"><ele>221.0</ele><time>2026-03-28T08:42:22.999Z</time></trkpt><trkpt lat="44.98914921085746" lon="8.448514069937396"><ele>219.60000000000002</ele><time>2026-03-28T08:42:23.999Z</time></trkpt><trkpt lat="44.98914240711324" lon="8.44838249014514"><ele>218.20000000000002</ele><time>2026-03-28T08:42:24.999Z</time></trkpt><trkpt lat="44.9891295088524" lon="8.448249326475942"><ele>216.79999999999998</ele><time>2026-03-28T08:42:25.999Z</time></trkpt><trkpt lat="44.98911115088978" lon="8.448114569073093"><ele>215.39999999999998</ele><time>2026-03-28T08:42:26.999Z</time></trkpt><trkpt lat="44.989094279003844" lon="8.447972806421763"><ele>214.0</ele><time>2026-03-28T08:42:27.999Z</time></trkpt><trkpt lat="44.98907653987055" lon="8.447821623517319"><ele>211.79999999999998</ele><time>2026-03-28T08:42:28.999Z</time></trkpt><trkpt lat="44.989064622385754" lon="8.447671760283578"><ele>209.59999999999997</ele><time>2026-03-28T08:42:29.999Z</time></trkpt><trkpt lat="44.98905538613146" lon="8.447528161375182"><ele>207.4</ele><time>2026-03-28T08:42:30.999Z</time></trkpt><trkpt lat="44.98904861573024" lon="8.447370495127945"><ele>205.2</ele><time>2026-03-28T08:42:31.999Z</time></trkpt><trkpt lat="44.98905048639245" lon="8.44723148405133"><ele>203.0</ele><time>2026-03-28T08:42:32.999Z</time></trkpt><trkpt lat="44.98905124895029" lon="8.44709051406635"><ele>201.66666666666669</ele><time>2026-03-28T08:42:33.999Z</time></trkpt><trkpt lat="44.9890520016329" lon="8.446958306670938"><ele>200.33333333333334</ele><time>2026-03-28T08:42:34.999Z</time></trkpt><trkpt lat="44.98905239169621" lon="8.44682803891761"><ele>199.0</ele><time>2026-03-28T08:42:35.999Z</time></trkpt><trkpt lat="44.98906123991228" lon="8.446708758057913"><ele>197.66666666666669</ele><time>2026-03-28T08:42:36.999Z</time></trkpt><trkpt lat="44.989068369931225" lon="8.446601862301804"><ele>196.33333333333334</ele><time>2026-03-28T08:42:37.999Z</time></trkpt><trkpt lat="44.98908108693051" lon="8.446476782097164"><ele>195.0</ele><time>2026-03-28T08:42:38.999Z</time></trkpt><trkpt lat="44.98909544276744" lon="8.44633424523584"><ele>194.4</ele><time>2026-03-28T08:42:39.999Z</time></trkpt><trkpt lat="44.98910931090705" lon="8.446187051128502"><ele>193.8</ele><time>2026-03-28T08:42:40.999Z</time></trkpt><trkpt lat="44.98912399213655" lon="8.446051236124683"><ele>193.2</ele><time>2026-03-28T08:42:41.999Z</time></trkpt><trkpt lat="44.98913121202697" lon="8.445917561796293"><ele>192.6</ele><time>2026-03-28T08:42:42.999Z</time></trkpt><trkpt lat="44.989139063169006" lon="8.445785995389521"><ele>192.0</ele><time>2026-03-28T08:42:43.999Z</time></trkpt><trkpt lat="44.98913527479036" lon="8.445657364931824"><ele>192.0</ele><time>2026-03-28T08:42:44.999Z</time></trkpt><trkpt lat="44.989122966241474" lon="8.445509767095787"><ele>192.0</ele><time>2026-03-28T08:42:45.999Z</time></trkpt><trkpt lat="44.98911418872615" lon="8.4453656951023"><ele>192.0</ele><time>2026-03-28T08:42:46.999Z</time></trkpt><trkpt lat="44.989097625209006" lon="8.445210001929928"><ele>192.0</ele><time>2026-03-28T08:42:47.999Z</time></trkpt><trkpt lat="44.989084002816995" lon="8.445068722827155"><ele>192.0</ele><time>2026-03-28T08:42:48.999Z</time></trkpt><trkpt lat="44.98907021846216" lon="8.44493594119369"><ele>190.2</ele><time>2026-03-28T08:42:49.999Z</time></trkpt><trkpt lat="44.98906675049273" lon="8.444813623534472"><ele>188.39999999999998</ele><time>2026-03-28T08:42:50.999Z</time></trkpt><trkpt lat="44.98905550550396" lon="8.4446785089321"><ele>186.60000000000002</ele><time>2026-03-28T08:42:51.999Z</time></trkpt><trkpt lat="44.98904526511059" lon="8.444529205060462"><ele>184.8</ele><time>2026-03-28T08:42:52.999Z</time></trkpt><trkpt lat="44.98902943630702" lon="8.444395742518896"><ele>183.0</ele><time>2026-03-28T08:42:53.999Z</time></trkpt><trkpt lat="44.98900763802236" lon="8.444261533002905"><ele>181.4</ele><time>2026-03-28T08:42:54.999Z</time></trkpt><trkpt lat="44.98898514987336" lon="8.444115512543487"><ele>179.8</ele><time>2026-03-28T08:42:55.999Z</time></trkpt><trkpt lat="44.988955240811926" lon="8.44397443815365"><ele>178.2</ele><time>2026-03-28T08:42:56.999Z</time></trkpt><trkpt lat="44.98892219077152" lon="8.443820939960103"><ele>176.6</ele><time>2026-03-28T08:42:57.999Z</time></trkpt><trkpt lat="44.988881203144174" lon="8.443672454259772"><ele>175.0</ele><time>2026-03-28T08:42:58.999Z</time></trkpt><trkpt lat="44.98883226810797" lon="8.443510972993357"><ele>173.25</ele><time>2026-03-28T08:42:59.999Z</time></trkpt><trkpt lat="44.98879821787556" lon="8.443335353252847"><ele>171.5</ele><time>2026-03-28T08:43:00.999Z</time></trkpt><trkpt lat="44.98875308498312" lon="8.443180877019893"><ele>169.75</ele><time>2026-03-28T08:43:01.999Z</time></trkpt><trkpt lat="44.98870618057437" lon="8.443038067779122"><ele>168.0</ele><time>2026-03-28T08:43:02.999Z</time></trkpt><trkpt lat="44.98866149902417" lon="8.442913456751993"><ele>166.83333333333334</ele><time>2026-03-28T08:43:03.999Z</time></trkpt><trkpt lat="44.98862161093633" lon="8.442801786735929"><ele>165.66666666666666</ele><time>2026-03-28T08:43:04.999Z</time></trkpt><trkpt lat="44.988586715212925" lon="8.442699468329577"><ele>164.5</ele><time>2026-03-28T08:43:05.999Z</time></trkpt><trkpt lat="44.98855084032981" lon="8.442578701923585"><ele>163.33333333333331</ele><time>2026-03-28T08:43:06.999Z</time></trkpt><trkpt lat="44.98851872439422" lon="8.442455341337352"><ele>162.16666666666666</ele><time>2026-03-28T08:43:07.999Z</time></trkpt><trkpt lat="44.98849213060092" lon="8.44233192623875"><ele>161.0</ele><time>2026-03-28T08:43:08.999Z</time></trkpt><trkpt lat="44.98847942592147" lon="8.442217651054975"><ele>160.16666666666666</ele><time>2026-03-28T08:43:09.999Z</time></trkpt><trkpt lat="44.98847249255375" lon="8.442094964199878"><ele>159.33333333333331</ele><time>2026-03-28T08:43:10.999Z</time></trkpt><trkpt lat="44.988467803899354" lon="8.441985112547684"><ele>158.5</ele><time>2026-03-28T08:43:11.999Z</time></trkpt><trkpt lat="44.98846413383473" lon="8.441889973030758"><ele>157.66666666666666</ele><time>2026-03-28T08:43:12.999Z</time></trkpt><trkpt lat="44.98845607032082" lon="8.441738873075764"><ele>156.83333333333334</ele><time>2026-03-28T08:43:14.999Z</time></trkpt><trkpt lat="44.98843178940954" lon="8.441615501846092"><ele>156.0</ele><time>2026-03-28T08:43:16.999Z</time></trkpt><trkpt lat="44.98843744099558" lon="8.441518353577532"><ele>156.0</ele><time>2026-03-28T08:43:20Z</time></trkpt><trkpt lat="44.98843055350793" lon="8.441397587029012"><ele>156.0</ele><time>2026-03-28T08:43:23Z</time></trkpt><trkpt lat="44.98843185887124" lon="8.441252515985774"><ele>156.0</ele><time>2026-03-28T08:43:25Z</time></trkpt><trkpt lat="44.98843761191605" lon="8.441153823847388"><ele>156.0</ele><time>2026-03-28T08:43:27Z</time></trkpt><trkpt lat="44.988419663067184" lon="8.441065338678325"><ele>156.0</ele><time>2026-03-28T08:43:33Z</time></trkpt><trkpt lat="44.98839240509507" lon="8.440932107449504"><ele>156.0</ele><time>2026-03-28T08:43:35Z</time></trkpt><trkpt lat="44.98837775054304" lon="8.44081032560431"><ele>156.2</ele><time>2026-03-28T08:43:37Z</time></trkpt><trkpt lat="44.98837034678363" lon="8.440721254896715"><ele>156.39999999999998</ele><time>2026-03-28T08:43:38Z</time></trkpt><trkpt lat="44.98835995246781" lon="8.440551371093878"><ele>156.6</ele><time>2026-03-28T08:43:40Z</time></trkpt><trkpt lat="44.9883389408165" lon="8.440385946210059"><ele>156.79999999999998</ele><time>2026-03-28T08:43:42Z</time></trkpt><trkpt lat="44.988332266201525" lon="8.440289338648391"><ele>157.0</ele><time>2026-03-28T08:43:43Z</time></trkpt><trkpt lat="44.98830671431643" lon="8.440112842882476"><ele>157.16666666666669</ele><time>2026-03-28T08:43:45Z</time></trkpt><trkpt lat="44.98828877467191" lon="8.440006703682783"><ele>157.33333333333334</ele><time>2026-03-28T08:43:46Z</time></trkpt><trkpt lat="44.988269696910336" lon="8.439906545454512"><ele>157.5</ele><time>2026-03-28T08:43:47Z</time></trkpt><trkpt lat="44.9882522728076" lon="8.439816674865112"><ele>157.66666666666666</ele><time>2026-03-28T08:43:48Z</time></trkpt><trkpt lat="44.988234281118146" lon="8.439717070658684"><ele>157.83333333333331</ele><time>2026-03-28T08:43:49Z</time></trkpt><trkpt lat="44.9882174983354" lon="8.439604480354053"><ele>158.0</ele><time>2026-03-28T08:43:50Z</time></trkpt><trkpt lat="44.98819014466516" lon="8.43949124435443"><ele>157.33333333333331</ele><time>2026-03-28T08:43:51Z</time></trkpt><trkpt lat="44.98816728143762" lon="8.439391449145157"><ele>156.66666666666666</ele><time>2026-03-28T08:43:52Z</time></trkpt><trkpt lat="44.98814290229035" lon="8.43929405652911"><ele>156.0</ele><time>2026-03-28T08:43:53Z</time></trkpt><trkpt lat="44.9881140784975" lon="8.439186841926508"><ele>155.33333333333334</ele><time>2026-03-28T08:43:54Z</time></trkpt><trkpt lat="44.98808095028098" lon="8.439087124754918"><ele>154.66666666666669</ele><time>2026-03-28T08:43:55Z</time></trkpt><trkpt lat="44.98805626828746" lon="8.438983056875298"><ele>154.0</ele><time>2026-03-28T08:43:56Z</time></trkpt><trkpt lat="44.98802633393878" lon="8.438873971833731"><ele>153.0</ele><time>2026-03-28T08:43:57Z</time></trkpt><trkpt lat="44.98798472019182" lon="8.438756159890767"><ele>152.0</ele><time>2026-03-28T08:43:58Z</time></trkpt><trkpt lat="44.98794817491325" lon="8.438644964181524"><ele>151.0</ele><time>2026-03-28T08:43:59Z</time></trkpt><trkpt lat="44.98791413238801" lon="8.438546871206617"><ele>150.0</ele><time>2026-03-28T08:44:00Z</time></trkpt><trkpt lat="44.98788350208939" lon="8.438447940416097"><ele>149.0</ele><time>2026-03-28T08:44:01Z</time></trkpt><trkpt lat="44.987846537410284" lon="8.438352282077227"><ele>148.0</ele><time>2026-03-28T08:44:02Z</time></trkpt><trkpt lat="44.987809734363154" lon="8.438249501593376"><ele>148.0</ele><time>2026-03-28T08:44:03Z</time></trkpt><trkpt lat="44.9877723491998" lon="8.438158309413591"><ele>148.0</ele><time>2026-03-28T08:44:04Z</time></trkpt><trkpt lat="44.987738334780914" lon="8.438061771124481"><ele>148.0</ele><time>2026-03-28T08:44:05Z</time></trkpt><trkpt lat="44.987698449509224" lon="8.437988104158212"><ele>148.0</ele><time>2026-03-28T08:44:06Z</time></trkpt><trkpt lat="44.98765432267025" lon="8.43791088702291"><ele>148.0</ele><time>2026-03-28T08:44:07Z</time></trkpt><trkpt lat="44.98754888664644" lon="8.437809772805577"><ele>148.0</ele><time>2026-03-28T08:44:09Z</time></trkpt><trkpt lat="44.98748626198524" lon="8.437787039463176"><ele>146.6</ele><time>2026-03-28T08:44:10Z</time></trkpt><trkpt lat="44.98737699331348" lon="8.437800510151257"><ele>145.20000000000002</ele><time>2026-03-28T08:44:12Z</time></trkpt><trkpt lat="44.98725824182758" lon="8.437847111648566"><ele>143.8</ele><time>2026-03-28T08:44:14Z</time></trkpt><trkpt lat="44.987176661942996" lon="8.437845121916773"><ele>142.4</ele><time>2026-03-28T08:44:15Z</time></trkpt><trkpt lat="44.98710161396343" lon="8.437831039310899"><ele>141.0</ele><time>2026-03-28T08:44:15.999Z</time></trkpt><trkpt lat="44.98703722267332" lon="8.437837329006587"><ele>141.0</ele><time>2026-03-28T08:44:16.999Z</time></trkpt><trkpt lat="44.98691206704879" lon="8.437869726910645"><ele>141.0</ele><time>2026-03-28T08:44:18.999Z</time></trkpt><trkpt lat="44.98681208744475" lon="8.437874968684264"><ele>141.0</ele><time>2026-03-28T08:44:20.999Z</time></trkpt><trkpt lat="44.986781498069696" lon="8.437759134567516"><ele>141.0</ele><time>2026-03-28T08:44:22.999Z</time></trkpt><trkpt lat="44.986801097649845" lon="8.437610597511739"><ele>141.0</ele><time>2026-03-28T08:44:24.999Z</time></trkpt><trkpt lat="44.986813323951104" lon="8.437436242066145"><ele>141.0</ele><time>2026-03-28T08:44:26.999Z</time></trkpt><trkpt lat="44.98684094550213" lon="8.437278266582277"><ele>141.0</ele><time>2026-03-28T08:44:28.999Z</time></trkpt><trkpt lat="44.98685182222432" lon="8.4371822136914"><ele>141.0</ele><time>2026-03-28T08:44:29.999Z</time></trkpt><trkpt lat="44.986867505078585" lon="8.437095812655095"><ele>141.0</ele><time>2026-03-28T08:44:30.999Z</time></trkpt><trkpt lat="44.98688160282742" lon="8.43699386974594"><ele>141.0</ele><time>2026-03-28T08:44:31.999Z</time></trkpt><trkpt lat="44.986890443014595" lon="8.436889757569684"><ele>141.0</ele><time>2026-03-28T08:44:32.999Z</time></trkpt><trkpt lat="44.98690708046824" lon="8.436785515192206"><ele>141.0</ele><time>2026-03-28T08:44:33.999Z</time></trkpt><trkpt lat="44.98691515648912" lon="8.436685804733278"><ele>141.0</ele><time>2026-03-28T08:44:34.999Z</time></trkpt><trkpt lat="44.98691824612557" lon="8.43656744342806"><ele>141.0</ele><time>2026-03-28T08:44:35.999Z</time></trkpt><trkpt lat="44.986929688337334" lon="8.4364596333537"><ele>141.0</ele><time>2026-03-28T08:44:36.999Z</time></trkpt><trkpt lat="44.98693631700406" lon="8.436364843087786"><ele>141.0</ele><time>2026-03-28T08:44:37.999Z</time></trkpt><trkpt lat="44.98694909723497" lon="8.43627097359112"><ele>141.0</ele><time>2026-03-28T08:44:38.999Z</time></trkpt><trkpt lat="44.98696463409431" lon="8.43616541416863"><ele>141.0</ele><time>2026-03-28T08:44:39.999Z</time></trkpt><trkpt lat="44.986980812363946" lon="8.436076163428572"><ele>140.8</ele><time>2026-03-28T08:44:40.999Z</time></trkpt><trkpt lat="44.98704929413938" lon="8.435937095422684"><ele>140.6</ele><time>2026-03-28T08:44:42.999Z</time></trkpt><trkpt lat="44.98711497109639" lon="8.43588901778697"><ele>140.4</ele><time>2026-03-28T08:44:43.999Z</time></trkpt><trkpt lat="44.987192482676285" lon="8.435794159136016"><ele>140.2</ele><time>2026-03-28T08:44:45.999Z</time></trkpt><trkpt lat="44.9872196148966" lon="8.435634007944719"><ele>140.0</ele><time>2026-03-28T08:44:47.999Z</time></trkpt><trkpt lat="44.98722163012686" lon="8.435525593552127"><ele>140.2</ele><time>2026-03-28T08:44:48.999Z</time></trkpt><trkpt lat="44.98722949086217" lon="8.435413054697023"><ele>140.4</ele><time>2026-03-28T08:44:49.999Z</time></trkpt><trkpt lat="44.98724948175891" lon="8.435259125967441"><ele>140.6</ele><time>2026-03-28T08:44:51.999Z</time></trkpt><trkpt lat="44.98725515233226" lon="8.435165161538352"><ele>140.8</ele><time>2026-03-28T08:44:53.999Z</time></trkpt><trkpt lat="44.987214903629635" lon="8.435090825794509"><ele>141.0</ele><time>2026-03-28T08:44:55.999Z</time></trkpt><trkpt lat="44.987086936988675" lon="8.43505221007537"><ele>141.0</ele><time>2026-03-28T08:44:57.999Z</time></trkpt><trkpt lat="44.98701793446125" lon="8.435055551826288"><ele>141.0</ele><time>2026-03-28T08:44:58.999Z</time></trkpt><trkpt lat="44.986919507196525" lon="8.435079367069152"><ele>141.0</ele><time>2026-03-28T08:45:00.999Z</time></trkpt><trkpt lat="44.986817132354574" lon="8.435058634056704"><ele>141.0</ele><time>2026-03-28T08:45:02.999Z</time></trkpt><trkpt lat="44.98670570451995" lon="8.435011111204899"><ele>141.0</ele><time>2026-03-28T08:45:04.999Z</time></trkpt><trkpt lat="44.986607197107936" lon="8.435019046665031"><ele>141.66666666666666</ele><time>2026-03-28T08:45:06.999Z</time></trkpt><trkpt lat="44.98647581029013" lon="8.435004416626677"><ele>142.33333333333334</ele><time>2026-03-28T08:45:08.999Z</time></trkpt><trkpt lat="44.98640776974543" lon="8.43500302860606"><ele>143.0</ele><time>2026-03-28T08:45:09.999Z</time></trkpt><trkpt lat="44.98634447524035" lon="8.434992369878426"><ele>143.66666666666669</ele><time>2026-03-28T08:45:10.999Z</time></trkpt><trkpt lat="44.98627060209269" lon="8.434993358057579"><ele>144.33333333333334</ele><time>2026-03-28T08:45:11.999Z</time></trkpt><trkpt lat="44.98618959909358" lon="8.434999394854751"><ele>145.0</ele><time>2026-03-28T08:45:12.999Z</time></trkpt><trkpt lat="44.98611374658885" lon="8.434982302037916"><ele>145.0</ele><time>2026-03-28T08:45:13.999Z</time></trkpt><trkpt lat="44.98600351040179" lon="8.434988916472362"><ele>145.0</ele><time>2026-03-28T08:45:15.999Z</time></trkpt><trkpt lat="44.985963478418725" lon="8.43490433650689"><ele>145.0</ele><time>2026-03-28T08:45:17.999Z</time></trkpt><trkpt lat="44.98592721496646" lon="8.434733334562276"><ele>145.0</ele><time>2026-03-28T08:45:19.999Z</time></trkpt><trkpt lat="44.985923244629134" lon="8.434607204733165"><ele>145.0</ele><time>2026-03-28T08:45:20.999Z</time></trkpt><trkpt lat="44.98591663323165" lon="8.434486545413893"><ele>145.6</ele><time>2026-03-28T08:45:21.999Z</time></trkpt><trkpt lat="44.985911218274126" lon="8.434369174651405"><ele>146.2</ele><time>2026-03-28T08:45:22.999Z</time></trkpt><trkpt lat="44.98589605458779" lon="8.434276993324202"><ele>146.8</ele><time>2026-03-28T08:45:23.999Z</time></trkpt><trkpt lat="44.985893720990475" lon="8.434122161511839"><ele>147.4</ele><time>2026-03-28T08:45:25Z</time></trkpt><trkpt lat="44.98588570760024" lon="8.433987167437806"><ele>148.0</ele><time>2026-03-28T08:45:26Z</time></trkpt><trkpt lat="44.98588436268974" lon="8.433845043340972"><ele>147.0</ele><time>2026-03-28T08:45:27Z</time></trkpt><trkpt lat="44.9858709492457" lon="8.433720414362357"><ele>146.0</ele><time>2026-03-28T08:45:28Z</time></trkpt><trkpt lat="44.98587321989114" lon="8.433578492469795"><ele>145.0</ele><time>2026-03-28T08:45:29Z</time></trkpt><trkpt lat="44.985865667377205" lon="8.433445471431018"><ele>144.0</ele><time>2026-03-28T08:45:30Z</time></trkpt><trkpt lat="44.98586383405361" lon="8.433307800494331"><ele>143.0</ele><time>2026-03-28T08:45:31Z</time></trkpt><trkpt lat="44.985865403592086" lon="8.43316952255306"><ele>143.0</ele><time>2026-03-28T08:45:32Z</time></trkpt><trkpt lat="44.98585721804267" lon="8.433045060881929"><ele>143.0</ele><time>2026-03-28T08:45:33Z</time></trkpt><trkpt lat="44.98585157894003" lon="8.432926521402024"><ele>143.0</ele><time>2026-03-28T08:45:34Z</time></trkpt><trkpt lat="44.98584717525272" lon="8.432804147313735"><ele>143.0</ele><time>2026-03-28T08:45:35Z</time></trkpt><trkpt lat="44.98583488378204" lon="8.432681153200273"><ele>143.0</ele><time>2026-03-28T08:45:36Z</time></trkpt><trkpt lat="44.98582780799604" lon="8.43257983917315"><ele>143.0</ele><time>2026-03-28T08:45:37Z</time></trkpt><trkpt lat="44.985795239308125" lon="8.432450731190862"><ele>142.6</ele><time>2026-03-28T08:45:39Z</time></trkpt><trkpt lat="44.98571760882202" lon="8.432328673492696"><ele>142.20000000000002</ele><time>2026-03-28T08:45:41Z</time></trkpt><trkpt lat="44.98562132855127" lon="8.432197842738892"><ele>141.8</ele><time>2026-03-28T08:45:43Z</time></trkpt><trkpt lat="44.985556166333375" lon="8.432115259537564"><ele>141.4</ele><time>2026-03-28T08:45:44Z</time></trkpt><trkpt lat="44.9854923554807" lon="8.432012772573273"><ele>141.0</ele><time>2026-03-28T08:45:45Z</time></trkpt><trkpt lat="44.98543786310842" lon="8.431935203561146"><ele>140.6</ele><time>2026-03-28T08:45:46Z</time></trkpt><trkpt lat="44.985392406441456" lon="8.431863684274644"><ele>140.2</ele><time>2026-03-28T08:45:47Z</time></trkpt><trkpt lat="44.9853205126981" lon="8.43175867685821"><ele>139.8</ele><time>2026-03-28T08:45:49Z</time></trkpt><trkpt lat="44.98517574641701" lon="8.431702785519088"><ele>139.4</ele><time>2026-03-28T08:45:51Z</time></trkpt><trkpt lat="44.985070863348064" lon="8.431670294457936"><ele>139.0</ele><time>2026-03-28T08:45:52Z</time></trkpt><trkpt lat="44.98495543240417" lon="8.43164082626499"><ele>141.0</ele><time>2026-03-28T08:45:53Z</time></trkpt><trkpt lat="44.98481997947541" lon="8.431593699899299"><ele>143.0</ele><time>2026-03-28T08:45:54Z</time></trkpt><trkpt lat="44.9846675437347" lon="8.431543093857696"><ele>145.0</ele><time>2026-03-28T08:45:55Z</time></trkpt><trkpt lat="44.98451802712906" lon="8.43149673180378"><ele>147.0</ele><time>2026-03-28T08:45:56Z</time></trkpt><trkpt lat="44.9843954933225" lon="8.431459015451424"><ele>147.0</ele><time>2026-03-28T08:45:57Z</time></trkpt><trkpt lat="44.984277111968666" lon="8.431429271628227"><ele>147.0</ele><time>2026-03-28T08:45:58Z</time></trkpt><trkpt lat="44.98415252098737" lon="8.431409425504485"><ele>147.0</ele><time>2026-03-28T08:45:59Z</time></trkpt><trkpt lat="44.984046228082434" lon="8.43141030838301"><ele>147.0</ele><time>2026-03-28T08:46:00Z</time></trkpt><trkpt lat="44.98393443848785" lon="8.431428086944589"><ele>150.66666666666666</ele><time>2026-03-28T08:46:01Z</time></trkpt><trkpt lat="44.983804079584694" lon="8.431445148784281"><ele>154.33333333333331</ele><time>2026-03-28T08:46:02Z</time></trkpt><trkpt lat="44.98364231663766" lon="8.431429141713224"><ele>158.0</ele><time>2026-03-28T08:46:03Z</time></trkpt><trkpt lat="44.98347680288564" lon="8.4313983969675"><ele>161.66666666666666</ele><time>2026-03-28T08:46:04Z</time></trkpt><trkpt lat="44.9832984485736" lon="8.431365679396743"><ele>165.33333333333334</ele><time>2026-03-28T08:46:05Z</time></trkpt><trkpt lat="44.98311440478961" lon="8.431323450948897"><ele>169.0</ele><time>2026-03-28T08:46:06Z</time></trkpt><trkpt lat="44.98298139332729" lon="8.43127324518858"><ele>169.0</ele><time>2026-03-28T08:46:07Z</time></trkpt><trkpt lat="44.98286115738691" lon="8.431217996845845"><ele>169.0</ele><time>2026-03-28T08:46:08Z</time></trkpt><trkpt lat="44.982754361169505" lon="8.43116594726277"><ele>169.0</ele><time>2026-03-28T08:46:09Z</time></trkpt><trkpt lat="44.98265243083147" lon="8.431108337559005"><ele>169.0</ele><time>2026-03-28T08:46:10Z</time></trkpt><trkpt lat="44.982562379819264" lon="8.431060911256179"><ele>169.0</ele><time>2026-03-28T08:46:11Z</time></trkpt><trkpt lat="44.982453036972785" lon="8.431014462378865"><ele>173.75</ele><time>2026-03-28T08:46:12Z</time></trkpt><trkpt lat="44.98234348519372" lon="8.430943200799158"><ele>178.5</ele><time>2026-03-28T08:46:13Z</time></trkpt><trkpt lat="44.98223013323155" lon="8.430842987215032"><ele>183.25</ele><time>2026-03-28T08:46:13.999Z</time></trkpt><trkpt lat="44.982147426944174" lon="8.430739073861059"><ele>188.0</ele><time>2026-03-28T08:46:14.999Z</time></trkpt><trkpt lat="44.98207404634095" lon="8.430640772543738"><ele>188.0</ele><time>2026-03-28T08:46:15.999Z</time></trkpt><trkpt lat="44.981991525192264" lon="8.430555606257116"><ele>188.0</ele><time>2026-03-28T08:46:16.999Z</time></trkpt><trkpt lat="44.98191291848226" lon="8.430494411242062"><ele>188.0</ele><time>2026-03-28T08:46:17.999Z</time></trkpt><trkpt lat="44.98183888129005" lon="8.430407465526505"><ele>188.0</ele><time>2026-03-28T08:46:19.999Z</time></trkpt><trkpt lat="44.981774583106166" lon="8.430354369511596"><ele>188.0</ele><time>2026-03-28T08:46:22.999Z</time></trkpt><trkpt lat="44.981764910914386" lon="8.430259042399848"><ele>188.0</ele><time>2026-03-28T08:46:25.999Z</time></trkpt><trkpt lat="44.98176413270854" lon="8.43013212340328"><ele>187.0</ele><time>2026-03-28T08:47:17.999Z</time></trkpt><trkpt lat="44.9818127510842" lon="8.4300434381276"><ele>186.0</ele><time>2026-03-28T08:47:19.999Z</time></trkpt><trkpt lat="44.98189581885178" lon="8.430036045545773"><ele>185.0</ele><time>2026-03-28T08:47:21.999Z</time></trkpt><trkpt lat="44.981985884506514" lon="8.430105624807371"><ele>184.0</ele><time>2026-03-28T08:47:23.999Z</time></trkpt><trkpt lat="44.98204769240189" lon="8.43018564300596"><ele>183.0</ele><time>2026-03-28T08:47:25.999Z</time></trkpt><trkpt lat="44.98215150671604" lon="8.430204364864055"><ele>183.0</ele><time>2026-03-28T08:47:27.999Z</time></trkpt><trkpt lat="44.98227191684118" lon="8.430164969586649"><ele>183.0</ele><time>2026-03-28T08:47:29.999Z</time></trkpt><trkpt lat="44.982339740228575" lon="8.430155257899933"><ele>183.0</ele><time>2026-03-28T08:47:31Z</time></trkpt><trkpt lat="44.982407228993104" lon="8.430153290786015"><ele>183.0</ele><time>2026-03-28T08:47:32Z</time></trkpt><trkpt lat="44.9824777464199" lon="8.430160354949104"><ele>183.0</ele><time>2026-03-28T08:47:33Z</time></trkpt><trkpt lat="44.98255396941097" lon="8.430177387902013"><ele>183.0</ele><time>2026-03-28T08:47:34Z</time></trkpt><trkpt lat="44.98262758209433" lon="8.430178875818246"><ele>179.5</ele><time>2026-03-28T08:47:35Z</time></trkpt><trkpt lat="44.98270192370051" lon="8.430150074391232"><ele>176.0</ele><time>2026-03-28T08:47:36Z</time></trkpt><trkpt lat="44.98278117985477" lon="8.430132069769321"><ele>172.5</ele><time>2026-03-28T08:47:37Z</time></trkpt><trkpt lat="44.982867401396845" lon="8.430099576020298"><ele>169.0</ele><time>2026-03-28T08:47:38Z</time></trkpt><trkpt lat="44.98295821449089" lon="8.430081721105212"><ele>165.5</ele><time>2026-03-28T08:47:39Z</time></trkpt><trkpt lat="44.983046870963086" lon="8.43006429038744"><ele>162.0</ele><time>2026-03-28T08:47:40Z</time></trkpt><trkpt lat="44.98313397125095" lon="8.430057721352094"><ele>162.0</ele><time>2026-03-28T08:47:41Z</time></trkpt><trkpt lat="44.98322724491254" lon="8.430051293430356"><ele>162.0</ele><time>2026-03-28T08:47:42Z</time></trkpt><trkpt lat="44.983319298120904" lon="8.430059319240183"><ele>162.0</ele><time>2026-03-28T08:47:43Z</time></trkpt><trkpt lat="44.98340954425794" lon="8.430081140139361"><ele>162.0</ele><time>2026-03-28T08:47:44Z</time></trkpt><trkpt lat="44.983502007521274" lon="8.43009749951448"><ele>162.0</ele><time>2026-03-28T08:47:45Z</time></trkpt><trkpt lat="44.9835956273423" lon="8.430112265909523"><ele>159.79999999999998</ele><time>2026-03-28T08:47:46Z</time></trkpt><trkpt lat="44.98371305920355" lon="8.430145290410389"><ele>157.6</ele><time>2026-03-28T08:47:47Z</time></trkpt><trkpt lat="44.98381164513401" lon="8.430177502763037"><ele>155.39999999999998</ele><time>2026-03-28T08:47:48Z</time></trkpt><trkpt lat="44.98389893483909" lon="8.43019898383525"><ele>153.2</ele><time>2026-03-28T08:47:49Z</time></trkpt><trkpt lat="44.98398243737224" lon="8.430226474541419"><ele>151.0</ele><time>2026-03-28T08:47:50Z</time></trkpt><trkpt lat="44.98406928401618" lon="8.43027349854553"><ele>151.0</ele><time>2026-03-28T08:47:51Z</time></trkpt><trkpt lat="44.98416708609469" lon="8.430328136688797"><ele>151.0</ele><time>2026-03-28T08:47:52Z</time></trkpt><trkpt lat="44.98425774529971" lon="8.430371925870828"><ele>151.0</ele><time>2026-03-28T08:47:53Z</time></trkpt><trkpt lat="44.98434179841136" lon="8.430405866016768"><ele>151.0</ele><time>2026-03-28T08:47:54Z</time></trkpt><trkpt lat="44.98441819283505" lon="8.430429063073511"><ele>151.0</ele><time>2026-03-28T08:47:55Z</time></trkpt><trkpt lat="44.98449709569487" lon="8.43044893283133"><ele>151.0</ele><time>2026-03-28T08:47:56Z</time></trkpt><trkpt lat="44.98458135925359" lon="8.43046251566364"><ele>150.14285714285717</ele><time>2026-03-28T08:47:57Z</time></trkpt><trkpt lat="44.98466816105595" lon="8.430466273042896"><ele>149.28571428571428</ele><time>2026-03-28T08:47:58Z</time></trkpt><trkpt lat="44.98474168199897" lon="8.43045616373259"><ele>148.42857142857144</ele><time>2026-03-28T08:47:59Z</time></trkpt><trkpt lat="44.98480568988212" lon="8.430471168143185"><ele>147.57142857142858</ele><time>2026-03-28T08:48:00Z</time></trkpt><trkpt lat="44.9848890550802" lon="8.430440528736835"><ele>146.71428571428572</ele><time>2026-03-28T08:48:02Z</time></trkpt><trkpt lat="44.984951929973406" lon="8.430417720294622"><ele>145.85714285714286</ele><time>2026-03-28T08:48:03Z</time></trkpt><trkpt lat="44.98501659676516" lon="8.430391476723091"><ele>145.0</ele><time>2026-03-28T08:48:04Z</time></trkpt><trkpt lat="44.98509716875137" lon="8.430353742649002"><ele>144.6</ele><time>2026-03-28T08:48:05Z</time></trkpt><trkpt lat="44.98519071670209" lon="8.430326033323466"><ele>144.2</ele><time>2026-03-28T08:48:06Z</time></trkpt><trkpt lat="44.985283753644126" lon="8.43030449027079"><ele>143.8</ele><time>2026-03-28T08:48:07Z</time></trkpt><trkpt lat="44.98538824791715" lon="8.430277741729858"><ele>143.4</ele><time>2026-03-28T08:48:08Z</time></trkpt><trkpt lat="44.98549871243256" lon="8.430245329523538"><ele>143.0</ele><time>2026-03-28T08:48:09Z</time></trkpt><trkpt lat="44.985622572798285" lon="8.430205287610098"><ele>143.0</ele><time>2026-03-28T08:48:10Z</time></trkpt><trkpt lat="44.985732627403365" lon="8.430182939797486"><ele>143.0</ele><time>2026-03-28T08:48:11Z</time></trkpt><trkpt lat="44.9858281285485" lon="8.4301533792123"><ele>143.0</ele><time>2026-03-28T08:48:12Z</time></trkpt><trkpt lat="44.98593995996258" lon="8.430134132831075"><ele>143.0</ele><time>2026-03-28T08:48:13Z</time></trkpt><trkpt lat="44.98604520064465" lon="8.430108099087734"><ele>143.0</ele><time>2026-03-28T08:48:14Z</time></trkpt><trkpt lat="44.98614181316347" lon="8.430087539212566"><ele>142.33333333333331</ele><time>2026-03-28T08:48:15Z</time></trkpt><trkpt lat="44.98624692855705" lon="8.430072467161581"><ele>141.66666666666666</ele><time>2026-03-28T08:48:16Z</time></trkpt><trkpt lat="44.98634207885539" lon="8.43005317062785"><ele>141.0</ele><time>2026-03-28T08:48:17Z</time></trkpt><trkpt lat="44.98642039670839" lon="8.430037867241312"><ele>140.33333333333334</ele><time>2026-03-28T08:48:18Z</time></trkpt><trkpt lat="44.98648784125624" lon="8.430016253334854"><ele>139.66666666666669</ele><time>2026-03-28T08:48:19Z</time></trkpt><trkpt lat="44.986552975825575" lon="8.429971365479558"><ele>139.0</ele><time>2026-03-28T08:48:21Z</time></trkpt><trkpt lat="44.986548394133216" lon="8.429855975671066"><ele>139.0</ele><time>2026-03-28T08:48:23Z</time></trkpt><trkpt lat="44.986505788152215" lon="8.429770560257747"><ele>139.0</ele><time>2026-03-28T08:48:24Z</time></trkpt><trkpt lat="44.986434197749" lon="8.429692556449242"><ele>139.0</ele><time>2026-03-28T08:48:25Z</time></trkpt><trkpt lat="44.98637279547718" lon="8.429612377389834"><ele>139.0</ele><time>2026-03-28T08:48:25.999Z</time></trkpt><trkpt lat="44.98631097773676" lon="8.429513883991433"><ele>139.0</ele><time>2026-03-28T08:48:26.999Z</time></trkpt><trkpt lat="44.98625277238148" lon="8.429405824324272"><ele>139.0</ele><time>2026-03-28T08:48:27.999Z</time></trkpt><trkpt lat="44.986287387318846" lon="8.42922348005347"><ele>139.16666666666669</ele><time>2026-03-28T08:48:29.999Z</time></trkpt><trkpt lat="44.9862905661616" lon="8.429130984126386"><ele>139.33333333333334</ele><time>2026-03-28T08:48:30.999Z</time></trkpt><trkpt lat="44.986289677981055" lon="8.429007578430012"><ele>139.5</ele><time>2026-03-28T08:48:31.999Z</time></trkpt><trkpt lat="44.98628032539036" lon="8.42887751154159"><ele>139.66666666666666</ele><time>2026-03-28T08:48:32.999Z</time></trkpt><trkpt lat="44.986268004322405" lon="8.428786366563203"><ele>139.83333333333331</ele><time>2026-03-28T08:48:33.999Z</time></trkpt><trkpt lat="44.986271514140924" lon="8.428624767397752"><ele>140.0</ele><time>2026-03-28T08:48:35.999Z</time></trkpt><trkpt lat="44.98627068032429" lon="8.428534214647806"><ele>140.0</ele><time>2026-03-28T08:48:36.999Z</time></trkpt><trkpt lat="44.986264087296426" lon="8.428405046291628"><ele>140.0</ele><time>2026-03-28T08:48:38.999Z</time></trkpt><trkpt lat="44.9863011064602" lon="8.428332507132092"><ele>140.0</ele><time>2026-03-28T08:48:40.999Z</time></trkpt><trkpt lat="44.986391590948784" lon="8.428291559316087"><ele>140.0</ele><time>2026-03-28T08:48:42.999Z</time></trkpt><trkpt lat="44.98645878238546" lon="8.428307325510081"><ele>140.0</ele><time>2026-03-28T08:48:44.999Z</time></trkpt><trkpt lat="44.98652904504522" lon="8.428231214375113"><ele>140.0</ele><time>2026-03-28T08:48:46.999Z</time></trkpt><trkpt lat="44.98659669990812" lon="8.428110069567012"><ele>140.0</ele><time>2026-03-28T08:48:48.999Z</time></trkpt><trkpt lat="44.98660224016459" lon="8.427989057489128"><ele>140.0</ele><time>2026-03-28T08:48:50.999Z</time></trkpt><trkpt lat="44.98656723734631" lon="8.427845370249045"><ele>140.0</ele><time>2026-03-28T08:48:52.999Z</time></trkpt><trkpt lat="44.98654212883438" lon="8.427728208491848"><ele>140.0</ele><time>2026-03-28T08:48:53.999Z</time></trkpt><trkpt lat="44.98650614330327" lon="8.42758950493353"><ele>140.0</ele><time>2026-03-28T08:48:54.999Z</time></trkpt><trkpt lat="44.98648073695959" lon="8.42748113073547"><ele>140.0</ele><time>2026-03-28T08:48:55.999Z</time></trkpt><trkpt lat="44.986469452436395" lon="8.427364779694546"><ele>140.0</ele><time>2026-03-28T08:48:56.999Z</time></trkpt><trkpt lat="44.98646894020398" lon="8.427239795507974"><ele>140.0</ele><time>2026-03-28T08:48:57.999Z</time></trkpt><trkpt lat="44.98646383023077" lon="8.42711040956533"><ele>140.0</ele><time>2026-03-28T08:48:58.999Z</time></trkpt><trkpt lat="44.98645458445515" lon="8.42696941701084"><ele>140.0</ele><time>2026-03-28T08:48:59.999Z</time></trkpt><trkpt lat="44.986447923377824" lon="8.426855938554594"><ele>140.0</ele><time>2026-03-28T08:49:00.999Z</time></trkpt><trkpt lat="44.98644633800245" lon="8.426728936719988"><ele>140.0</ele><time>2026-03-28T08:49:01.999Z</time></trkpt><trkpt lat="44.98645610009224" lon="8.426588821809403"><ele>140.0</ele><time>2026-03-28T08:49:02.999Z</time></trkpt><trkpt lat="44.98647606987029" lon="8.426481292787795"><ele>140.0</ele><time>2026-03-28T08:49:03.999Z</time></trkpt><trkpt lat="44.986494420755434" lon="8.426387030758868"><ele>140.0</ele><time>2026-03-28T08:49:04.999Z</time></trkpt><trkpt lat="44.98648283230804" lon="8.42622531428338"><ele>140.0</ele><time>2026-03-28T08:49:06.999Z</time></trkpt><trkpt lat="44.98641482440559" lon="8.426097482109341"><ele>140.2</ele><time>2026-03-28T08:49:08.999Z</time></trkpt><trkpt lat="44.98640315636637" lon="8.425928421340103"><ele>140.4</ele><time>2026-03-28T08:49:10.999Z</time></trkpt><trkpt lat="44.98642317875465" lon="8.425822098857578"><ele>140.6</ele><time>2026-03-28T08:49:11.999Z</time></trkpt><trkpt lat="44.98643373233252" lon="8.42570719419704"><ele>140.8</ele><time>2026-03-28T08:49:12.999Z</time></trkpt><trkpt lat="44.9864259295203" lon="8.425587807951935"><ele>141.0</ele><time>2026-03-28T08:49:13.999Z</time></trkpt><trkpt lat="44.98641003966724" lon="8.42545745112978"><ele>141.0</ele><time>2026-03-28T08:49:14.999Z</time></trkpt><trkpt lat="44.986384290603105" lon="8.425322317868291"><ele>141.0</ele><time>2026-03-28T08:49:15.999Z</time></trkpt><trkpt lat="44.98636633980995" lon="8.425213175204176"><ele>141.0</ele><time>2026-03-28T08:49:16.999Z</time></trkpt><trkpt lat="44.986350661694345" lon="8.425080420187832"><ele>141.0</ele><time>2026-03-28T08:49:17.999Z</time></trkpt><trkpt lat="44.98633172443342" lon="8.424961867800137"><ele>141.0</ele><time>2026-03-28T08:49:18.999Z</time></trkpt><trkpt lat="44.98631481157088" lon="8.424840810104724"><ele>141.0</ele><time>2026-03-28T08:49:19.999Z</time></trkpt><trkpt lat="44.98630538329415" lon="8.424719561921783"><ele>140.83333333333334</ele><time>2026-03-28T08:49:20.999Z</time></trkpt><trkpt lat="44.9862943399584" lon="8.424607171727468"><ele>140.66666666666666</ele><time>2026-03-28T08:49:21.999Z</time></trkpt><trkpt lat="44.98626674986471" lon="8.424469550295711"><ele>140.5</ele><time>2026-03-28T08:49:22.999Z</time></trkpt><trkpt lat="44.98625351771182" lon="8.424360858331326"><ele>140.33333333333331</ele><time>2026-03-28T08:49:23.999Z</time></trkpt><trkpt lat="44.98625170828048" lon="8.424234596353093"><ele>140.16666666666666</ele><time>2026-03-28T08:49:24.999Z</time></trkpt><trkpt lat="44.98625017517923" lon="8.424143178575694"><ele>140.0</ele><time>2026-03-28T08:49:25.999Z</time></trkpt><trkpt lat="44.98624830337751" lon="8.423987336537653"><ele>140.0</ele><time>2026-03-28T08:49:27.999Z</time></trkpt><trkpt lat="44.98624459483156" lon="8.42389616098827"><ele>140.0</ele><time>2026-03-28T08:49:28.999Z</time></trkpt><trkpt lat="44.98623950027093" lon="8.42380415307297"><ele>140.0</ele><time>2026-03-28T08:49:29.999Z</time></trkpt><trkpt lat="44.98624648482428" lon="8.423636606445468"><ele>140.0</ele><time>2026-03-28T08:49:31.999Z</time></trkpt><trkpt lat="44.98625050601253" lon="8.423544350844644"><ele>140.0</ele><time>2026-03-28T08:49:32.999Z</time></trkpt><trkpt lat="44.98625097513528" lon="8.423362584794152"><ele>140.0</ele><time>2026-03-28T08:49:34.999Z</time></trkpt><trkpt lat="44.98626541670564" lon="8.423267068610635"><ele>140.33333333333331</ele><time>2026-03-28T08:49:35.999Z</time></trkpt><trkpt lat="44.98627197997503" lon="8.42317430874635"><ele>140.66666666666666</ele><time>2026-03-28T08:49:37Z</time></trkpt><trkpt lat="44.98628182620623" lon="8.423077583179156"><ele>141.0</ele><time>2026-03-28T08:49:38Z</time></trkpt><trkpt lat="44.986297833282705" lon="8.42297863078471"><ele>141.33333333333334</ele><time>2026-03-28T08:49:39Z</time></trkpt><trkpt lat="44.986323404188816" lon="8.422846418841251"><ele>141.66666666666669</ele><time>2026-03-28T08:49:41Z</time></trkpt><trkpt lat="44.98632790927333" lon="8.422682578910253"><ele>142.0</ele><time>2026-03-28T08:49:43Z</time></trkpt><trkpt lat="44.986339734022735" lon="8.422573149339598"><ele>142.0</ele><time>2026-03-28T08:49:44Z</time></trkpt><trkpt lat="44.98635601584573" lon="8.422475403020307"><ele>142.0</ele><time>2026-03-28T08:49:45Z</time></trkpt><trkpt lat="44.98637264510668" lon="8.422387962961704"><ele>142.0</ele><time>2026-03-28T08:49:46Z</time></trkpt><trkpt lat="44.986391903587794" lon="8.422291438569031"><ele>142.0</ele><time>2026-03-28T08:49:47Z</time></trkpt><trkpt lat="44.98641359107078" lon="8.422200495087415"><ele>142.0</ele><time>2026-03-28T08:49:48Z</time></trkpt><trkpt lat="44.9864396011756" lon="8.422075913198428"><ele>142.0</ele><time>2026-03-28T08:49:49Z</time></trkpt><trkpt lat="44.98645313672493" lon="8.421965316791695"><ele>142.0</ele><time>2026-03-28T08:49:50Z</time></trkpt><trkpt lat="44.98646125441641" lon="8.421796938406212"><ele>142.0</ele><time>2026-03-28T08:49:52Z</time></trkpt><trkpt lat="44.98645074128944" lon="8.42166958137855"><ele>142.0</ele><time>2026-03-28T08:49:53Z</time></trkpt><trkpt lat="44.986493626177776" lon="8.42158380917814"><ele>142.0</ele><time>2026-03-28T08:49:54Z</time></trkpt><trkpt lat="44.98651400784193" lon="8.421475788335654"><ele>142.0</ele><time>2026-03-28T08:49:55Z</time></trkpt><trkpt lat="44.98652588488289" lon="8.421333968750128"><ele>142.0</ele><time>2026-03-28T08:49:56Z</time></trkpt><trkpt lat="44.986547260173026" lon="8.421214807908255"><ele>142.0</ele><time>2026-03-28T08:49:57Z</time></trkpt><trkpt lat="44.98656659990874" lon="8.421108243601607"><ele>142.0</ele><time>2026-03-28T08:49:58Z</time></trkpt><trkpt lat="44.986596969836555" lon="8.4209665864514"><ele>142.0</ele><time>2026-03-28T08:49:59Z</time></trkpt><trkpt lat="44.98661232195407" lon="8.420842910791812"><ele>142.0</ele><time>2026-03-28T08:50:00Z</time></trkpt><trkpt lat="44.986634268869764" lon="8.4207133970475"><ele>142.0</ele><time>2026-03-28T08:50:01Z</time></trkpt><trkpt lat="44.98664331866876" lon="8.420567861484221"><ele>142.0</ele><time>2026-03-28T08:50:02Z</time></trkpt><trkpt lat="44.98665489160463" lon="8.420457463269273"><ele>142.0</ele><time>2026-03-28T08:50:03Z</time></trkpt><trkpt lat="44.986660686938755" lon="8.420331474626531"><ele>142.0</ele><time>2026-03-28T08:50:04Z</time></trkpt><trkpt lat="44.98666522574117" lon="8.42021875556285"><ele>142.0</ele><time>2026-03-28T08:50:05Z</time></trkpt><trkpt lat="44.9866716456643" lon="8.420090500526005"><ele>142.0</ele><time>2026-03-28T08:50:06Z</time></trkpt><trkpt lat="44.98669607497277" lon="8.41991399161131"><ele>142.0</ele><time>2026-03-28T08:50:08Z</time></trkpt><trkpt lat="44.98671058234208" lon="8.41978568225714"><ele>141.66666666666669</ele><time>2026-03-28T08:50:09Z</time></trkpt><trkpt lat="44.986719945995816" lon="8.41959195354311"><ele>141.33333333333334</ele><time>2026-03-28T08:50:10Z</time></trkpt><trkpt lat="44.98674083725315" lon="8.419485932088428"><ele>141.0</ele><time>2026-03-28T08:50:11Z</time></trkpt><trkpt lat="44.98675301003593" lon="8.419397154216103"><ele>140.66666666666666</ele><time>2026-03-28T08:50:12Z</time></trkpt><trkpt lat="44.98677666021795" lon="8.419306345830075"><ele>140.33333333333331</ele><time>2026-03-28T08:50:13Z</time></trkpt><trkpt lat="44.9867559476763" lon="8.419221691113657"><ele>140.0</ele><time>2026-03-28T08:50:14Z</time></trkpt><trkpt lat="44.986797605215635" lon="8.419089451423266"><ele>140.0</ele><time>2026-03-28T08:50:15Z</time></trkpt><trkpt lat="44.98681337538489" lon="8.418934492125505"><ele>140.0</ele><time>2026-03-28T08:50:17Z</time></trkpt><trkpt lat="44.9868626331701" lon="8.418772293837234"><ele>140.0</ele><time>2026-03-28T08:50:19Z</time></trkpt><trkpt lat="44.986905929237444" lon="8.418693530202265"><ele>140.0</ele><time>2026-03-28T08:50:20Z</time></trkpt><trkpt lat="44.98694294068393" lon="8.418609580751774"><ele>140.0</ele><time>2026-03-28T08:50:21Z</time></trkpt><trkpt lat="44.98701105439248" lon="8.418500085927748"><ele>140.16666666666666</ele><time>2026-03-28T08:50:23Z</time></trkpt><trkpt lat="44.98704590790565" lon="8.418424715732009"><ele>140.33333333333331</ele><time>2026-03-28T08:50:37.999Z</time></trkpt><trkpt lat="44.98707805824632" lon="8.418335795754624"><ele>140.5</ele><time>2026-03-28T08:50:38.999Z</time></trkpt><trkpt lat="44.98711413043497" lon="8.418211327024983"><ele>140.66666666666666</ele><time>2026-03-28T08:50:39.999Z</time></trkpt><trkpt lat="44.987144909538685" lon="8.418127299865283"><ele>140.83333333333334</ele><time>2026-03-28T08:50:40.999Z</time></trkpt><trkpt lat="44.987178495890404" lon="8.418047075968497"><ele>141.0</ele><time>2026-03-28T08:50:41.999Z</time></trkpt><trkpt lat="44.987234258671556" lon="8.417895600278689"><ele>141.2</ele><time>2026-03-28T08:50:43.999Z</time></trkpt><trkpt lat="44.9872568713646" lon="8.417760390132155"><ele>141.39999999999998</ele><time>2026-03-28T08:50:45.999Z</time></trkpt><trkpt lat="44.98728648601724" lon="8.41759829661229"><ele>141.6</ele><time>2026-03-28T08:50:47.999Z</time></trkpt><trkpt lat="44.98730575585518" lon="8.417483418819561"><ele>141.79999999999998</ele><time>2026-03-28T08:50:48.999Z</time></trkpt><trkpt lat="44.98732094972101" lon="8.417387456119101"><ele>142.0</ele><time>2026-03-28T08:50:49.999Z</time></trkpt><trkpt lat="44.98737614741772" lon="8.417214128855305"><ele>142.79999999999998</ele><time>2026-03-28T08:50:51.999Z</time></trkpt><trkpt lat="44.987404924348255" lon="8.41705830272557"><ele>143.6</ele><time>2026-03-28T08:50:53.999Z</time></trkpt><trkpt lat="44.987433439900784" lon="8.41695196774573"><ele>144.39999999999998</ele><time>2026-03-28T08:50:54.999Z</time></trkpt><trkpt lat="44.987455166590614" lon="8.416797881170536"><ele>145.2</ele><time>2026-03-28T08:50:56.999Z</time></trkpt><trkpt lat="44.98747879549974" lon="8.416612668758985"><ele>146.0</ele><time>2026-03-28T08:50:58.999Z</time></trkpt><trkpt lat="44.987490552283745" lon="8.416503567143247"><ele>146.0</ele><time>2026-03-28T08:50:59.999Z</time></trkpt><trkpt lat="44.98750695925409" lon="8.416377721768452"><ele>146.0</ele><time>2026-03-28T08:51:01.999Z</time></trkpt><trkpt lat="44.98752812131622" lon="8.41620826414554"><ele>146.0</ele><time>2026-03-28T08:51:03.999Z</time></trkpt><trkpt lat="44.98753016871321" lon="8.416101272092352"><ele>146.0</ele><time>2026-03-28T08:51:04.999Z</time></trkpt><trkpt lat="44.98756596565613" lon="8.415926515373155"><ele>146.0</ele><time>2026-03-28T08:51:06.999Z</time></trkpt><trkpt lat="44.98757992515884" lon="8.415836177299266"><ele>145.66666666666666</ele><time>2026-03-28T08:51:07.999Z</time></trkpt><trkpt lat="44.987589854120415" lon="8.415746838680812"><ele>145.33333333333331</ele><time>2026-03-28T08:51:08.999Z</time></trkpt><trkpt lat="44.987580673636536" lon="8.415552687322677"><ele>145.0</ele><time>2026-03-28T08:51:10.999Z</time></trkpt><trkpt lat="44.9875715555717" lon="8.415445013564653"><ele>144.66666666666666</ele><time>2026-03-28T08:51:11.999Z</time></trkpt><trkpt lat="44.98757344362459" lon="8.415344361397429"><ele>144.33333333333334</ele><time>2026-03-28T08:51:12.999Z</time></trkpt><trkpt lat="44.98757125179201" lon="8.415227384441053"><ele>144.0</ele><time>2026-03-28T08:51:13.999Z</time></trkpt><trkpt lat="44.98755784693779" lon="8.415111658070371"><ele>143.8</ele><time>2026-03-28T08:51:14.999Z</time></trkpt><trkpt lat="44.98755027830293" lon="8.414939118099696"><ele>143.60000000000002</ele><time>2026-03-28T08:51:16.999Z</time></trkpt><trkpt lat="44.98754860342948" lon="8.414841081064985"><ele>143.4</ele><time>2026-03-28T08:51:18.999Z</time></trkpt><trkpt lat="44.98754626648975" lon="8.414733107256655"><ele>143.20000000000002</ele><time>2026-03-28T08:51:20.999Z</time></trkpt><trkpt lat="44.98753291407041" lon="8.414583983020263"><ele>143.0</ele><time>2026-03-28T08:51:23.999Z</time></trkpt><trkpt lat="44.98756737264797" lon="8.414450598723054"><ele>143.0</ele><time>2026-03-28T08:51:26.999Z</time></trkpt><trkpt lat="44.98755361697617" lon="8.414292718696647"><ele>143.0</ele><time>2026-03-28T08:51:28.999Z</time></trkpt><trkpt lat="44.987543035670754" lon="8.414171249986875"><ele>143.0</ele><time>2026-03-28T08:51:30.999Z</time></trkpt><trkpt lat="44.98754333367679" lon="8.414054909997663"><ele>143.0</ele><time>2026-03-28T08:51:32.999Z</time></trkpt><trkpt lat="44.98756743543981" lon="8.413950807184603"><ele>143.0</ele><time>2026-03-28T08:51:34.999Z</time></trkpt><trkpt lat="44.98763306845348" lon="8.41381897178926"><ele>142.83333333333331</ele><time>2026-03-28T08:51:36.999Z</time></trkpt><trkpt lat="44.987685664466106" lon="8.413763716536652"><ele>142.66666666666666</ele><time>2026-03-28T08:51:37.999Z</time></trkpt><trkpt lat="44.987737640073185" lon="8.413638005280196"><ele>142.5</ele><time>2026-03-28T08:51:39.999Z</time></trkpt><trkpt lat="44.98775550170237" lon="8.413548457019594"><ele>142.33333333333334</ele><time>2026-03-28T08:51:40.999Z</time></trkpt><trkpt lat="44.987768411212905" lon="8.413379028924902"><ele>142.16666666666669</ele><time>2026-03-28T08:51:43Z</time></trkpt><trkpt lat="44.98779151810079" lon="8.413287999399794"><ele>142.0</ele><time>2026-03-28T08:51:44Z</time></trkpt><trkpt lat="44.98778595566046" lon="8.413156748717917"><ele>142.0</ele><time>2026-03-28T08:51:46Z</time></trkpt><trkpt lat="44.98777827227696" lon="8.413063736891463"><ele>142.0</ele><time>2026-03-28T08:51:47Z</time></trkpt><trkpt lat="44.987732843237076" lon="8.412940878883042"><ele>142.0</ele><time>2026-03-28T08:51:49Z</time></trkpt><trkpt lat="44.98759789518162" lon="8.412934268010996"><ele>142.0</ele><time>2026-03-28T08:51:51Z</time></trkpt><trkpt lat="44.987522389795295" lon="8.412950769830502"><ele>142.0</ele><time>2026-03-28T08:51:52Z</time></trkpt><trkpt lat="44.98745200061997" lon="8.412944164975501"><ele>142.0</ele><time>2026-03-28T08:51:53Z</time></trkpt><trkpt lat="44.98735323827387" lon="8.412931388339336"><ele>142.5</ele><time>2026-03-28T08:51:55Z</time></trkpt><trkpt lat="44.98728127786739" lon="8.412916838990496"><ele>143.0</ele><time>2026-03-28T08:51:57Z</time></trkpt><trkpt lat="44.98721024186367" lon="8.412901063630255"><ele>143.5</ele><time>2026-03-28T08:52:13Z</time></trkpt><trkpt lat="44.987135772961715" lon="8.412904590771133"><ele>144.0</ele><time>2026-03-28T08:52:15Z</time></trkpt><trkpt lat="44.98702851180771" lon="8.41290082012726"><ele>144.5</ele><time>2026-03-28T08:52:17Z</time></trkpt><trkpt lat="44.98693516391812" lon="8.412883757287087"><ele>145.0</ele><time>2026-03-28T08:52:19Z</time></trkpt><trkpt lat="44.986870142240655" lon="8.41288826259069"><ele>145.0</ele><time>2026-03-28T08:52:20Z</time></trkpt><trkpt lat="44.98679289034488" lon="8.412840353729985"><ele>145.0</ele><time>2026-03-28T08:52:21Z</time></trkpt><trkpt lat="44.986728507030996" lon="8.4126930606221"><ele>145.0</ele><time>2026-03-28T08:52:23Z</time></trkpt><trkpt lat="44.98664317422918" lon="8.412813752323137"><ele>145.0</ele><time>2026-03-28T08:52:24Z</time></trkpt><trkpt lat="44.98653150325075" lon="8.4127619411015"><ele>145.0</ele><time>2026-03-28T08:52:25.999Z</time></trkpt><trkpt lat="44.986471038809874" lon="8.412727672188012"><ele>145.5</ele><time>2026-03-28T08:52:26.999Z</time></trkpt><trkpt lat="44.98633402469894" lon="8.412680612036874"><ele>146.0</ele><time>2026-03-28T08:52:28.999Z</time></trkpt><trkpt lat="44.98626059772056" lon="8.412661979893896"><ele>146.5</ele><time>2026-03-28T08:52:29.999Z</time></trkpt><trkpt lat="44.98618581842584" lon="8.412632994559711"><ele>147.0</ele><time>2026-03-28T08:52:30.999Z</time></trkpt><trkpt lat="44.9861110501329" lon="8.412588344419662"><ele>147.5</ele><time>2026-03-28T08:52:31.999Z</time></trkpt><trkpt lat="44.98603971971721" lon="8.412568068079759"><ele>148.0</ele><time>2026-03-28T08:52:32.999Z</time></trkpt><trkpt lat="44.98595128331304" lon="8.412546516365735"><ele>148.0</ele><time>2026-03-28T08:52:33.999Z</time></trkpt><trkpt lat="44.985861116785614" lon="8.412521419237756"><ele>148.0</ele><time>2026-03-28T08:52:34.999Z</time></trkpt><trkpt lat="44.98577647664899" lon="8.412499490775815"><ele>148.0</ele><time>2026-03-28T08:52:35.999Z</time></trkpt><trkpt lat="44.98567078322496" lon="8.412459777009191"><ele>148.0</ele><time>2026-03-28T08:52:37.999Z</time></trkpt><trkpt lat="44.98556497719592" lon="8.412423687817283"><ele>148.0</ele><time>2026-03-28T08:52:39.999Z</time></trkpt><trkpt lat="44.98548701872073" lon="8.412368460764583"><ele>147.6</ele><time>2026-03-28T08:52:41.999Z</time></trkpt><trkpt lat="44.98548747824548" lon="8.412212950668469"><ele>147.20000000000002</ele><time>2026-03-28T08:52:43.999Z</time></trkpt><trkpt lat="44.985509262159425" lon="8.412083952397364"><ele>146.8</ele><time>2026-03-28T08:52:44.999Z</time></trkpt><trkpt lat="44.98554216514563" lon="8.411925790837723"><ele>146.4</ele><time>2026-03-28T08:52:45.999Z</time></trkpt><trkpt lat="44.98555429435963" lon="8.411830552937953"><ele>146.0</ele><time>2026-03-28T08:52:46.999Z</time></trkpt><trkpt lat="44.985561594926686" lon="8.411726714727745"><ele>146.0</ele><time>2026-03-28T08:52:47.999Z</time></trkpt><trkpt lat="44.985574842636844" lon="8.411593328434485"><ele>146.0</ele><time>2026-03-28T08:52:49.999Z</time></trkpt><trkpt lat="44.98557188426019" lon="8.411471326989625"><ele>146.0</ele><time>2026-03-28T08:52:52.999Z</time></trkpt><trkpt lat="44.98561778122715" lon="8.41135868044396"><ele>146.0</ele><time>2026-03-28T08:52:55.999Z</time></trkpt><trkpt lat="44.985644285964206" lon="8.411262294759268"><ele>146.0</ele><time>2026-03-28T08:52:57.999Z</time></trkpt><trkpt lat="44.98565392871025" lon="8.411160333811353"><ele>146.0</ele><time>2026-03-28T08:52:59.999Z</time></trkpt><trkpt lat="44.98566679748954" lon="8.411053772456436"><ele>146.0</ele><time>2026-03-28T08:53:01.999Z</time></trkpt><trkpt lat="44.98572052801727" lon="8.410889078592088"><ele>146.0</ele><time>2026-03-28T08:53:03.999Z</time></trkpt><trkpt lat="44.98573927082549" lon="8.410793933037526"><ele>146.0</ele><time>2026-03-28T08:53:04.999Z</time></trkpt><trkpt lat="44.98577835801285" lon="8.410649311425704"><ele>146.0</ele><time>2026-03-28T08:53:06.999Z</time></trkpt><trkpt lat="44.98583262718758" lon="8.410503731046965"><ele>146.0</ele><time>2026-03-28T08:53:08.999Z</time></trkpt><trkpt lat="44.98588344109664" lon="8.410325541080764"><ele>146.0</ele><time>2026-03-28T08:53:10.999Z</time></trkpt><trkpt lat="44.98591518419362" lon="8.41023612754179"><ele>146.0</ele><time>2026-03-28T08:53:11.999Z</time></trkpt><trkpt lat="44.9859394884238" lon="8.410131851815699"><ele>146.0</ele><time>2026-03-28T08:53:12.999Z</time></trkpt><trkpt lat="44.985969364828165" lon="8.410022422041637"><ele>146.0</ele><time>2026-03-28T08:53:13.999Z</time></trkpt><trkpt lat="44.98599715534095" lon="8.409908472884068"><ele>146.0</ele><time>2026-03-28T08:53:14.999Z</time></trkpt><trkpt lat="44.98602995047962" lon="8.409775684055129"><ele>146.0</ele><time>2026-03-28T08:53:15.999Z</time></trkpt><trkpt lat="44.98608044706583" lon="8.40959648774037"><ele>145.8</ele><time>2026-03-28T08:53:16.999Z</time></trkpt><trkpt lat="44.986116611966246" lon="8.409457650627008"><ele>145.6</ele><time>2026-03-28T08:53:17.999Z</time></trkpt><trkpt lat="44.986146164602765" lon="8.40934333794537"><ele>145.4</ele><time>2026-03-28T08:53:18.999Z</time></trkpt><trkpt lat="44.986170305086354" lon="8.409223698638558"><ele>145.2</ele><time>2026-03-28T08:53:19.999Z</time></trkpt><trkpt lat="44.98619922038081" lon="8.40909277508887"><ele>145.0</ele><time>2026-03-28T08:53:20.999Z</time></trkpt><trkpt lat="44.98623437612097" lon="8.408965430603601"><ele>145.0</ele><time>2026-03-28T08:53:21.999Z</time></trkpt><trkpt lat="44.98626780642347" lon="8.408837696716798"><ele>145.0</ele><time>2026-03-28T08:53:22.999Z</time></trkpt><trkpt lat="44.98629910142358" lon="8.40870921745279"><ele>145.0</ele><time>2026-03-28T08:53:23.999Z</time></trkpt><trkpt lat="44.98632312990684" lon="8.408585963950086"><ele>145.0</ele><time>2026-03-28T08:53:24.999Z</time></trkpt><trkpt lat="44.986347053541586" lon="8.408481405543618"><ele>145.0</ele><time>2026-03-28T08:53:25.999Z</time></trkpt><trkpt lat="44.986377395798634" lon="8.408376343761619"><ele>145.0</ele><time>2026-03-28T08:53:26.999Z</time></trkpt><trkpt lat="44.98637995535959" lon="8.408205628937754"><ele>145.0</ele><time>2026-03-28T08:53:28.999Z</time></trkpt><trkpt lat="44.98633857243583" lon="8.408079620969538"><ele>145.0</ele><time>2026-03-28T08:53:30.999Z</time></trkpt><trkpt lat="44.98632154756334" lon="8.407964590939022"><ele>145.0</ele><time>2026-03-28T08:53:32.999Z</time></trkpt><trkpt lat="44.98629148771568" lon="8.40787542078111"><ele>145.0</ele><time>2026-03-28T08:54:02Z</time></trkpt><trkpt lat="44.986253339268714" lon="8.407728036415143"><ele>145.0</ele><time>2026-03-28T08:54:04Z</time></trkpt><trkpt lat="44.98622651765956" lon="8.407626852185386"><ele>145.0</ele><time>2026-03-28T08:54:05Z</time></trkpt><trkpt lat="44.98619384562791" lon="8.407513072621926"><ele>145.4</ele><time>2026-03-28T08:54:06Z</time></trkpt><trkpt lat="44.98616617079143" lon="8.40740200926943"><ele>145.8</ele><time>2026-03-28T08:54:07Z</time></trkpt><trkpt lat="44.98612471150456" lon="8.40728439738467"><ele>146.2</ele><time>2026-03-28T08:54:08Z</time></trkpt><trkpt lat="44.98608316012141" lon="8.407155105234676"><ele>146.6</ele><time>2026-03-28T08:54:09Z</time></trkpt><trkpt lat="44.986051469875505" lon="8.407049620972222"><ele>147.0</ele><time>2026-03-28T08:54:10Z</time></trkpt><trkpt lat="44.98601624288058" lon="8.406888748850267"><ele>147.2</ele><time>2026-03-28T08:54:12Z</time></trkpt><trkpt lat="44.98596696472949" lon="8.406735318483781"><ele>147.39999999999998</ele><time>2026-03-28T08:54:14Z</time></trkpt><trkpt lat="44.98590042772058" lon="8.406577633167993"><ele>147.60000000000002</ele><time>2026-03-28T08:54:16Z</time></trkpt><trkpt lat="44.9858723324798" lon="8.406462993229722"><ele>147.8</ele><time>2026-03-28T08:54:17Z</time></trkpt><trkpt lat="44.98585146900909" lon="8.40634647566699"><ele>148.0</ele><time>2026-03-28T08:54:18Z</time></trkpt><trkpt lat="44.9858377418097" lon="8.406219714097015"><ele>149.16666666666669</ele><time>2026-03-28T08:54:19Z</time></trkpt><trkpt lat="44.9858190718616" lon="8.406088107078725"><ele>150.33333333333334</ele><time>2026-03-28T08:54:20Z</time></trkpt><trkpt lat="44.98579805163663" lon="8.405963164733926"><ele>151.5</ele><time>2026-03-28T08:54:21Z</time></trkpt><trkpt lat="44.9857850343803" lon="8.405849666741437"><ele>152.66666666666666</ele><time>2026-03-28T08:54:22Z</time></trkpt><trkpt lat="44.98575772950757" lon="8.405726537015642"><ele>153.83333333333331</ele><time>2026-03-28T08:54:23Z</time></trkpt><trkpt lat="44.9857414745251" lon="8.405606916124576"><ele>155.0</ele><time>2026-03-28T08:54:24Z</time></trkpt><trkpt lat="44.98571724602973" lon="8.40546658947999"><ele>155.4</ele><time>2026-03-28T08:54:25Z</time></trkpt><trkpt lat="44.98569667762528" lon="8.405348287346673"><ele>155.8</ele><time>2026-03-28T08:54:27Z</time></trkpt><trkpt lat="44.98568509965101" lon="8.405225612441727"><ele>156.2</ele><time>2026-03-28T08:54:29Z</time></trkpt><trkpt lat="44.98571217759967" lon="8.40512255400757"><ele>156.6</ele><time>2026-03-28T08:54:44.999Z</time></trkpt><trkpt lat="44.9857975042484" lon="8.405093955742549"><ele>157.0</ele><time>2026-03-28T08:54:46.999Z</time></trkpt><trkpt lat="44.985913056798594" lon="8.40509388042568"><ele>157.0</ele><time>2026-03-28T08:54:47.999Z</time></trkpt><trkpt lat="44.98602542028008" lon="8.405103115762582"><ele>157.0</ele><time>2026-03-28T08:54:48.999Z</time></trkpt><trkpt lat="44.98614631013434" lon="8.40508922379417"><ele>157.0</ele><time>2026-03-28T08:54:49.999Z</time></trkpt><trkpt lat="44.98628591502427" lon="8.405078058638445"><ele>157.0</ele><time>2026-03-28T08:54:50.999Z</time></trkpt><trkpt lat="44.98642700089604" lon="8.405078665316543"><ele>157.0</ele><time>2026-03-28T08:54:51.999Z</time></trkpt><trkpt lat="44.986561119802545" lon="8.405056130765631"><ele>157.0</ele><time>2026-03-28T08:54:52.999Z</time></trkpt><trkpt lat="44.986701204650615" lon="8.40504446894327"><ele>157.0</ele><time>2026-03-28T08:54:53.999Z</time></trkpt><trkpt lat="44.98683861276971" lon="8.405036985393517"><ele>157.0</ele><time>2026-03-28T08:54:54.999Z</time></trkpt><trkpt lat="44.98696246946385" lon="8.405023346555202"><ele>156.2</ele><time>2026-03-28T08:54:55.999Z</time></trkpt><trkpt lat="44.98706978693562" lon="8.405013126817112"><ele>155.39999999999998</ele><time>2026-03-28T08:54:56.999Z</time></trkpt><trkpt lat="44.987170099898556" lon="8.40500328620465"><ele>154.60000000000002</ele><time>2026-03-28T08:54:57.999Z</time></trkpt><trkpt lat="44.987262959191526" lon="8.404989505722128"><ele>153.8</ele><time>2026-03-28T08:54:58.999Z</time></trkpt><trkpt lat="44.98734218787801" lon="8.404974340868451"><ele>153.0</ele><time>2026-03-28T08:54:59.999Z</time></trkpt><trkpt lat="44.98743490416205" lon="8.404954921168551"><ele>153.0</ele><time>2026-03-28T08:55:01.999Z</time></trkpt><trkpt lat="44.987497752382495" lon="8.404941557906755"><ele>153.0</ele><time>2026-03-28T08:55:04.999Z</time></trkpt><trkpt lat="44.98748702519366" lon="8.404754812552845"><ele>153.0</ele><time>2026-03-28T08:55:07.999Z</time></trkpt><trkpt lat="44.98744830256069" lon="8.404621060258142"><ele>153.0</ele><time>2026-03-28T08:55:08.999Z</time></trkpt><trkpt lat="44.987431368352105" lon="8.404506909275955"><ele>153.0</ele><time>2026-03-28T08:55:09.999Z</time></trkpt><trkpt lat="44.98743857996093" lon="8.404366421611739"><ele>155.75</ele><time>2026-03-28T08:55:10.999Z</time></trkpt><trkpt lat="44.9874500680604" lon="8.404178125736552"><ele>158.5</ele><time>2026-03-28T08:55:11.999Z</time></trkpt><trkpt lat="44.98743831889331" lon="8.403996051265318"><ele>161.25</ele><time>2026-03-28T08:55:12.999Z</time></trkpt><trkpt lat="44.987418419415285" lon="8.40384864300884"><ele>164.0</ele><time>2026-03-28T08:55:13.999Z</time></trkpt><trkpt lat="44.98739407862884" lon="8.403680593022004"><ele>166.0</ele><time>2026-03-28T08:55:14.999Z</time></trkpt><trkpt lat="44.9873327985214" lon="8.40353431311272"><ele>168.0</ele><time>2026-03-28T08:55:15.999Z</time></trkpt><trkpt lat="44.987292565589684" lon="8.403410021041019"><ele>170.0</ele><time>2026-03-28T08:55:16.999Z</time></trkpt><trkpt lat="44.987266540390216" lon="8.403306431780539"><ele>172.0</ele><time>2026-03-28T08:55:17.999Z</time></trkpt><trkpt lat="44.987241358842184" lon="8.403183847910032"><ele>174.0</ele><time>2026-03-28T08:55:18.999Z</time></trkpt><trkpt lat="44.987223514843535" lon="8.403088471355439"><ele>175.33333333333334</ele><time>2026-03-28T08:55:19.999Z</time></trkpt><trkpt lat="44.98720436352206" lon="8.402986806527746"><ele>176.66666666666666</ele><time>2026-03-28T08:55:20.999Z</time></trkpt><trkpt lat="44.98718706908884" lon="8.402890323453772"><ele>178.0</ele><time>2026-03-28T08:55:21.999Z</time></trkpt><trkpt lat="44.98715570006244" lon="8.402794401039387"><ele>179.33333333333331</ele><time>2026-03-28T08:55:22.999Z</time></trkpt><trkpt lat="44.987152735854075" lon="8.402671508288975"><ele>180.66666666666666</ele><time>2026-03-28T08:55:23.999Z</time></trkpt><trkpt lat="44.98714214646611" lon="8.402492599287902"><ele>182.0</ele><time>2026-03-28T08:55:25.999Z</time></trkpt><trkpt lat="44.98716149165024" lon="8.402407181517392"><ele>182.0</ele><time>2026-03-28T08:55:26.999Z</time></trkpt><trkpt lat="44.987222631879455" lon="8.402298334432455"><ele>182.0</ele><time>2026-03-28T08:55:27.999Z</time></trkpt><trkpt lat="44.987311063469505" lon="8.402203601034513"><ele>182.0</ele><time>2026-03-28T08:55:28.999Z</time></trkpt><trkpt lat="44.98739799241492" lon="8.402099179696062"><ele>182.0</ele><time>2026-03-28T08:55:29.999Z</time></trkpt><trkpt lat="44.98743796218068" lon="8.401998468663262"><ele>182.0</ele><time>2026-03-28T08:55:30.999Z</time></trkpt><trkpt lat="44.98750676059278" lon="8.401921822152921"><ele>181.39999999999998</ele><time>2026-03-28T08:55:31.999Z</time></trkpt><trkpt lat="44.98756510024106" lon="8.401866481813915"><ele>180.79999999999998</ele><time>2026-03-28T08:55:32.999Z</time></trkpt><trkpt lat="44.9876080655372" lon="8.401747309824335"><ele>180.2</ele><time>2026-03-28T08:55:34.999Z</time></trkpt><trkpt lat="44.98753598292001" lon="8.401613889208898"><ele>179.6</ele><time>2026-03-28T08:55:36.999Z</time></trkpt><trkpt lat="44.98748860323668" lon="8.401522119546893"><ele>179.0</ele><time>2026-03-28T08:55:37.999Z</time></trkpt><trkpt lat="44.98741146933163" lon="8.40143800636364"><ele>182.0</ele><time>2026-03-28T08:55:38.999Z</time></trkpt><trkpt lat="44.98732565851904" lon="8.401350173290837"><ele>185.0</ele><time>2026-03-28T08:55:39.999Z</time></trkpt><trkpt lat="44.987221201104546" lon="8.401252240662489"><ele>188.0</ele><time>2026-03-28T08:55:40.999Z</time></trkpt><trkpt lat="44.98711155612732" lon="8.401152217238755"><ele>191.0</ele><time>2026-03-28T08:55:41.999Z</time></trkpt><trkpt lat="44.98702280453225" lon="8.401062344119163"><ele>192.20000000000002</ele><time>2026-03-28T08:55:42.999Z</time></trkpt><trkpt lat="44.98695792114028" lon="8.400985160427792"><ele>193.4</ele><time>2026-03-28T08:55:43.999Z</time></trkpt><trkpt lat="44.98688948144721" lon="8.400901383788748"><ele>194.6</ele><time>2026-03-28T08:55:44.999Z</time></trkpt><trkpt lat="44.986828432617884" lon="8.40083231247013"><ele>195.8</ele><time>2026-03-28T08:55:45.999Z</time></trkpt><trkpt lat="44.986734988178185" lon="8.400743871008562"><ele>197.0</ele><time>2026-03-28T08:55:47.999Z</time></trkpt><trkpt lat="44.986673202855194" lon="8.400662630919111"><ele>197.00000000000003</ele><time>2026-03-28T08:55:49.999Z</time></trkpt><trkpt lat="44.986680146404034" lon="8.400570773260446"><ele>197.0</ele><time>2026-03-28T08:55:52Z</time></trkpt><trkpt lat="44.98673539443091" lon="8.40046516766969"><ele>197.0</ele><time>2026-03-28T08:55:54Z</time></trkpt><trkpt lat="44.98676930912267" lon="8.400375226962678"><ele>197.0</ele><time>2026-03-28T08:56:08Z</time></trkpt><trkpt lat="44.9868418713443" lon="8.400231120296704"><ele>197.00000000000003</ele><time>2026-03-28T08:56:10Z</time></trkpt><trkpt lat="44.98688580708285" lon="8.400156599469726"><ele>197.0</ele><time>2026-03-28T08:56:11Z</time></trkpt><trkpt lat="44.986936440562076" lon="8.400041284493389"><ele>198.25</ele><time>2026-03-28T08:56:12Z</time></trkpt><trkpt lat="44.987001152919014" lon="8.399923948785487"><ele>199.5</ele><time>2026-03-28T08:56:13Z</time></trkpt><trkpt lat="44.98707795393206" lon="8.399791904091115"><ele>200.75</ele><time>2026-03-28T08:56:14Z</time></trkpt><trkpt lat="44.987153182948475" lon="8.399650380562507"><ele>202.0</ele><time>2026-03-28T08:56:15Z</time></trkpt><trkpt lat="44.987225194619995" lon="8.399530630513357"><ele>203.2</ele><time>2026-03-28T08:56:16Z</time></trkpt><trkpt lat="44.98729045603476" lon="8.399413518346291"><ele>204.39999999999998</ele><time>2026-03-28T08:56:17Z</time></trkpt><trkpt lat="44.98734971586232" lon="8.399297382651785"><ele>205.60000000000002</ele><time>2026-03-28T08:56:18Z</time></trkpt><trkpt lat="44.98738827853069" lon="8.399192304405338"><ele>206.8</ele><time>2026-03-28T08:56:19Z</time></trkpt><trkpt lat="44.987417833421496" lon="8.399063518623619"><ele>208.0</ele><time>2026-03-28T08:56:20Z</time></trkpt><trkpt lat="44.98741842577238" lon="8.398937230826466"><ele>207.99999999999997</ele><time>2026-03-28T08:56:21Z</time></trkpt><trkpt lat="44.98741404104437" lon="8.3988444881145"><ele>208.0</ele><time>2026-03-28T08:56:22Z</time></trkpt><trkpt lat="44.987367152009384" lon="8.398719922350457"><ele>208.0</ele><time>2026-03-28T08:56:24Z</time></trkpt><trkpt lat="44.987300122249195" lon="8.398671515075028"><ele>208.0</ele><time>2026-03-28T08:56:27Z</time></trkpt><trkpt lat="44.987267668031706" lon="8.39855963799106"><ele>207.99999999999997</ele><time>2026-03-28T08:56:29Z</time></trkpt><trkpt lat="44.98722246591902" lon="8.398490947123134"><ele>208.0</ele><time>2026-03-28T08:56:30Z</time></trkpt><trkpt lat="44.987199317736135" lon="8.398403171926061"><ele>208.60000000000002</ele><time>2026-03-28T08:56:31Z</time></trkpt><trkpt lat="44.98716506589344" lon="8.398320418020505"><ele>209.20000000000002</ele><time>2026-03-28T08:56:31.999Z</time></trkpt><trkpt lat="44.98710883685461" lon="8.3981603674926"><ele>209.8</ele><time>2026-03-28T08:56:33.999Z</time></trkpt><trkpt lat="44.98705481056336" lon="8.398041049838186"><ele>210.4</ele><time>2026-03-28T08:56:34.999Z</time></trkpt><trkpt lat="44.986991431286164" lon="8.397918073561641"><ele>211.0</ele><time>2026-03-28T08:56:35.999Z</time></trkpt><trkpt lat="44.98699042415732" lon="8.397814611247203"><ele>211.33333333333331</ele><time>2026-03-28T08:56:36.999Z</time></trkpt><trkpt lat="44.98695669794439" lon="8.397712969562393"><ele>211.66666666666666</ele><time>2026-03-28T08:56:37.999Z</time></trkpt><trkpt lat="44.98692460167767" lon="8.397609852280917"><ele>212.0</ele><time>2026-03-28T08:56:38.999Z</time></trkpt><trkpt lat="44.986896591066106" lon="8.397502199042236"><ele>212.33333333333331</ele><time>2026-03-28T08:56:39.999Z</time></trkpt><trkpt lat="44.986873016883806" lon="8.397394396954313"><ele>212.66666666666666</ele><time>2026-03-28T08:56:40.999Z</time></trkpt><trkpt lat="44.986846001956394" lon="8.397301975651034"><ele>213.0</ele><time>2026-03-28T08:56:41.999Z</time></trkpt><trkpt lat="44.986825826011966" lon="8.397201501189688"><ele>213.33333333333334</ele><time>2026-03-28T08:56:42.999Z</time></trkpt><trkpt lat="44.98680295731493" lon="8.39706200040093"><ele>213.66666666666669</ele><time>2026-03-28T08:56:44.999Z</time></trkpt><trkpt lat="44.98679461886217" lon="8.396970241438021"><ele>214.0</ele><time>2026-03-28T08:56:45.999Z</time></trkpt><trkpt lat="44.986779664598934" lon="8.396844292389417"><ele>214.33333333333334</ele><time>2026-03-28T08:56:46.999Z</time></trkpt><trkpt lat="44.98677575003253" lon="8.39671493056431"><ele>214.66666666666669</ele><time>2026-03-28T08:56:47.999Z</time></trkpt><trkpt lat="44.9867654688422" lon="8.39658733280868"><ele>215.0</ele><time>2026-03-28T08:56:48.999Z</time></trkpt><trkpt lat="44.9867527320498" lon="8.396487103107564"><ele>215.0</ele><time>2026-03-28T08:56:49.999Z</time></trkpt><trkpt lat="44.98672773789694" lon="8.396396782762569"><ele>215.0</ele><time>2026-03-28T08:56:50.999Z</time></trkpt><trkpt lat="44.986683189152444" lon="8.396296969480513"><ele>215.0</ele><time>2026-03-28T08:56:51.999Z</time></trkpt><trkpt lat="44.986608422910464" lon="8.396186701833303"><ele>215.0</ele><time>2026-03-28T08:56:52.999Z</time></trkpt><trkpt lat="44.98651196445099" lon="8.396089290475798"><ele>215.0</ele><time>2026-03-28T08:56:53.999Z</time></trkpt><trkpt lat="44.986446861557724" lon="8.396015546947327"><ele>215.4</ele><time>2026-03-28T08:56:54.999Z</time></trkpt><trkpt lat="44.98639281328153" lon="8.395935050070255"><ele>215.8</ele><time>2026-03-28T08:56:55.999Z</time></trkpt><trkpt lat="44.98634667820279" lon="8.395841645413876"><ele>216.2</ele><time>2026-03-28T08:56:56.999Z</time></trkpt><trkpt lat="44.98630786948469" lon="8.395739494909783"><ele>216.6</ele><time>2026-03-28T08:56:57.999Z</time></trkpt><trkpt lat="44.98626066847153" lon="8.395590045033156"><ele>217.0</ele><time>2026-03-28T08:56:58.999Z</time></trkpt><trkpt lat="44.98621047694484" lon="8.395429039861597"><ele>217.0</ele><time>2026-03-28T08:56:59.999Z</time></trkpt><trkpt lat="44.98616467271829" lon="8.395271686464453"><ele>217.0</ele><time>2026-03-28T08:57:00.999Z</time></trkpt><trkpt lat="44.98612285729262" lon="8.395128624698408"><ele>217.0</ele><time>2026-03-28T08:57:01.999Z</time></trkpt><trkpt lat="44.98608865999122" lon="8.395006457964072"><ele>217.0</ele><time>2026-03-28T08:57:02.999Z</time></trkpt><trkpt lat="44.98604854027217" lon="8.39487559664891"><ele>217.0</ele><time>2026-03-28T08:57:03.999Z</time></trkpt><trkpt lat="44.986007827786686" lon="8.394736816766937"><ele>217.25</ele><time>2026-03-28T08:57:04.999Z</time></trkpt><trkpt lat="44.985961823184134" lon="8.39459349655394"><ele>217.5</ele><time>2026-03-28T08:57:05.999Z</time></trkpt><trkpt lat="44.985912130357285" lon="8.394449523055124"><ele>217.75</ele><time>2026-03-28T08:57:06.999Z</time></trkpt><trkpt lat="44.98585691192191" lon="8.394302901857156"><ele>218.0</ele><time>2026-03-28T08:57:07.999Z</time></trkpt><trkpt lat="44.98580225528549" lon="8.394170235732954"><ele>218.0</ele><time>2026-03-28T08:57:08.999Z</time></trkpt><trkpt lat="44.98574596324371" lon="8.394069777971852"><ele>218.0</ele><time>2026-03-28T08:57:09.999Z</time></trkpt><trkpt lat="44.9856810652047" lon="8.393930666671954"><ele>218.0</ele><time>2026-03-28T08:57:10.999Z</time></trkpt><trkpt lat="44.98561646699484" lon="8.393793461673546"><ele>218.0</ele><time>2026-03-28T08:57:11.999Z</time></trkpt><trkpt lat="44.98554012057481" lon="8.393683250378484"><ele>218.0</ele><time>2026-03-28T08:57:12.999Z</time></trkpt><trkpt lat="44.985464530321984" lon="8.393566198480162"><ele>221.60000000000002</ele><time>2026-03-28T08:57:13.999Z</time></trkpt><trkpt lat="44.985419265457864" lon="8.393490154574016"><ele>225.20000000000002</ele><time>2026-03-28T08:57:14.999Z</time></trkpt><trkpt lat="44.98536773138892" lon="8.3933277752088"><ele>228.8</ele><time>2026-03-28T08:57:16.999Z</time></trkpt><trkpt lat="44.98533525058924" lon="8.39321292917527"><ele>232.4</ele><time>2026-03-28T08:57:17.999Z</time></trkpt><trkpt lat="44.98529938543254" lon="8.393096786629428"><ele>236.0</ele><time>2026-03-28T08:57:18.999Z</time></trkpt><trkpt lat="44.98526880552475" lon="8.392987152601334"><ele>237.33333333333334</ele><time>2026-03-28T08:57:19.999Z</time></trkpt><trkpt lat="44.985237235931294" lon="8.392879888041904"><ele>238.66666666666669</ele><time>2026-03-28T08:57:20.999Z</time></trkpt><trkpt lat="44.98527489497298" lon="8.392751791410328"><ele>240.0</ele><time>2026-03-28T08:57:21.999Z</time></trkpt><trkpt lat="44.98525936598326" lon="8.392657285242965"><ele>241.33333333333331</ele><time>2026-03-28T08:57:24.999Z</time></trkpt><trkpt lat="44.985235243699044" lon="8.392519880370308"><ele>242.66666666666666</ele><time>2026-03-28T08:57:39.999Z</time></trkpt><trkpt lat="44.98524867384973" lon="8.392408297538308"><ele>244.0</ele><time>2026-03-28T08:57:41.999Z</time></trkpt><trkpt lat="44.9852741088882" lon="8.392293308027538"><ele>243.99999999999997</ele><time>2026-03-28T08:57:43.999Z</time></trkpt><trkpt lat="44.98529774998303" lon="8.392194426821995"><ele>244.0</ele><time>2026-03-28T08:57:47.999Z</time></trkpt><trkpt lat="44.98532051271161" lon="8.39210198075929"><ele>244.0</ele><time>2026-03-28T08:58:02Z</time></trkpt><trkpt lat="44.985388972830265" lon="8.392111243938038"><ele>244.0</ele><time>2026-03-28T08:58:05Z</time></trkpt><trkpt lat="44.985491797248095" lon="8.392036063222648"><ele>243.99999999999997</ele><time>2026-03-28T08:58:07Z</time></trkpt><trkpt lat="44.98556874091178" lon="8.391952317308101"><ele>244.0</ele><time>2026-03-28T08:58:08Z</time></trkpt><trkpt lat="44.98561420197313" lon="8.391866053975853"><ele>241.79999999999998</ele><time>2026-03-28T08:58:09Z</time></trkpt><trkpt lat="44.98564074178767" lon="8.39177371213636"><ele>239.59999999999997</ele><time>2026-03-28T08:58:10Z</time></trkpt><trkpt lat="44.98564324634636" lon="8.391634325769239"><ele>237.4</ele><time>2026-03-28T08:58:12Z</time></trkpt><trkpt lat="44.985614161136596" lon="8.39154768741083"><ele>235.2</ele><time>2026-03-28T08:58:15Z</time></trkpt><trkpt lat="44.98550901071076" lon="8.391430560621975"><ele>233.0</ele><time>2026-03-28T08:58:17Z</time></trkpt><trkpt lat="44.98542452841664" lon="8.391424419333926"><ele>233.0</ele><time>2026-03-28T08:58:18Z</time></trkpt><trkpt lat="44.985336927147856" lon="8.391429816545196"><ele>233.0</ele><time>2026-03-28T08:58:19Z</time></trkpt><trkpt lat="44.98522744414724" lon="8.391444088642558"><ele>233.0</ele><time>2026-03-28T08:58:20Z</time></trkpt><trkpt lat="44.98510343838979" lon="8.39145636027719"><ele>233.0</ele><time>2026-03-28T08:58:21Z</time></trkpt><trkpt lat="44.98496241469783" lon="8.391460788017286"><ele>230.5</ele><time>2026-03-28T08:58:22Z</time></trkpt><trkpt lat="44.9848062458628" lon="8.391463363960986"><ele>228.0</ele><time>2026-03-28T08:58:23Z</time></trkpt><trkpt lat="44.98465877982277" lon="8.391468182585978"><ele>225.5</ele><time>2026-03-28T08:58:24Z</time></trkpt><trkpt lat="44.984522457260354" lon="8.391472507515989"><ele>223.0</ele><time>2026-03-28T08:58:25Z</time></trkpt><trkpt lat="44.98438433390181" lon="8.391462861960116"><ele>223.0</ele><time>2026-03-28T08:58:26Z</time></trkpt><trkpt lat="44.98423506616354" lon="8.391459111627773"><ele>223.0</ele><time>2026-03-28T08:58:27Z</time></trkpt><trkpt lat="44.98408062800216" lon="8.391441917510654"><ele>223.0</ele><time>2026-03-28T08:58:28Z</time></trkpt><trkpt lat="44.98392789829194" lon="8.391422998045602"><ele>221.5</ele><time>2026-03-28T08:58:29Z</time></trkpt><trkpt lat="44.98377604288897" lon="8.391401840458544"><ele>220.0</ele><time>2026-03-28T08:58:30Z</time></trkpt><trkpt lat="44.98363355371382" lon="8.391372334062773"><ele>218.5</ele><time>2026-03-28T08:58:31Z</time></trkpt><trkpt lat="44.983498519652585" lon="8.39134547896958"><ele>217.0</ele><time>2026-03-28T08:58:32Z</time></trkpt><trkpt lat="44.983365181098" lon="8.391317318957977"><ele>212.5</ele><time>2026-03-28T08:58:33Z</time></trkpt><trkpt lat="44.98323798971057" lon="8.391272105547415"><ele>208.0</ele><time>2026-03-28T08:58:34Z</time></trkpt><trkpt lat="44.98311994536962" lon="8.391222132121756"><ele>203.5</ele><time>2026-03-28T08:58:35Z</time></trkpt><trkpt lat="44.98299671194717" lon="8.391188448636374"><ele>199.0</ele><time>2026-03-28T08:58:36Z</time></trkpt><trkpt lat="44.98288728556032" lon="8.391131436623931"><ele>199.0</ele><time>2026-03-28T08:58:37Z</time></trkpt><trkpt lat="44.98277568988289" lon="8.39108082908164"><ele>199.0</ele><time>2026-03-28T08:58:38Z</time></trkpt><trkpt lat="44.9826809263081" lon="8.391028251834138"><ele>199.0</ele><time>2026-03-28T08:58:39Z</time></trkpt><trkpt lat="44.98257861505178" lon="8.390982485548081"><ele>199.0</ele><time>2026-03-28T08:58:40Z</time></trkpt><trkpt lat="44.982479551628536" lon="8.390939098654847"><ele>199.0</ele><time>2026-03-28T08:58:41Z</time></trkpt><trkpt lat="44.98239255377448" lon="8.390899618644246"><ele>197.75</ele><time>2026-03-28T08:58:42Z</time></trkpt><trkpt lat="44.98231617510487" lon="8.390859084657578"><ele>196.5</ele><time>2026-03-28T08:58:43Z</time></trkpt><trkpt lat="44.98225163594812" lon="8.390807273914918"><ele>195.25</ele><time>2026-03-28T08:58:43.999Z</time></trkpt><trkpt lat="44.98215179927405" lon="8.390716231898535"><ele>194.0</ele><time>2026-03-28T08:58:45.999Z</time></trkpt><trkpt lat="44.98192633020731" lon="8.390910551964707"><ele>194.0</ele><time>2026-03-28T08:58:47.999Z</time></trkpt><trkpt lat="44.9818359959422" lon="8.390941282975941"><ele>194.0</ele><time>2026-03-28T08:58:48.999Z</time></trkpt><trkpt lat="44.981747684713675" lon="8.390990573490507"><ele>194.0</ele><time>2026-03-28T08:58:49.999Z</time></trkpt><trkpt lat="44.98166113311466" lon="8.391047860945333"><ele>194.0</ele><time>2026-03-28T08:58:50.999Z</time></trkpt><trkpt lat="44.98157775699945" lon="8.391115764964168"><ele>194.0</ele><time>2026-03-28T08:58:51.999Z</time></trkpt><trkpt lat="44.98149052158219" lon="8.39118738117851"><ele>194.00000000000003</ele><time>2026-03-28T08:58:52.999Z</time></trkpt><trkpt lat="44.981416027218785" lon="8.391253185993815"><ele>194.0</ele><time>2026-03-28T08:58:53.999Z</time></trkpt><trkpt lat="44.98135657788294" lon="8.391325682563343"><ele>194.0</ele><time>2026-03-28T08:58:54.999Z</time></trkpt><trkpt lat="44.981290209072576" lon="8.391381998134255"><ele>194.0</ele><time>2026-03-28T08:58:55.999Z</time></trkpt><trkpt lat="44.98120279408071" lon="8.391444378342593"><ele>194.00000000000003</ele><time>2026-03-28T08:58:56.999Z</time></trkpt><trkpt lat="44.981123022660164" lon="8.39151389600491"><ele>194.0</ele><time>2026-03-28T08:58:57.999Z</time></trkpt><trkpt lat="44.98104001124766" lon="8.391575474238735"><ele>194.0</ele><time>2026-03-28T08:58:58.999Z</time></trkpt><trkpt lat="44.980968836111074" lon="8.391652586339173"><ele>194.0</ele><time>2026-03-28T08:58:59.999Z</time></trkpt><trkpt lat="44.98089479248075" lon="8.391733635142767"><ele>194.0</ele><time>2026-03-28T08:59:00.999Z</time></trkpt><trkpt lat="44.98082181537534" lon="8.391808064735308"><ele>194.0</ele><time>2026-03-28T08:59:01.999Z</time></trkpt><trkpt lat="44.98074125549768" lon="8.391892847043367"><ele>194.0</ele><time>2026-03-28T08:59:02.999Z</time></trkpt><trkpt lat="44.980658447548684" lon="8.391970476666184"><ele>193.2</ele><time>2026-03-28T08:59:03.999Z</time></trkpt><trkpt lat="44.98057702218238" lon="8.392062266003173"><ele>192.39999999999998</ele><time>2026-03-28T08:59:04.999Z</time></trkpt><trkpt lat="44.98049844457361" lon="8.392138203160872"><ele>191.6</ele><time>2026-03-28T08:59:05.999Z</time></trkpt><trkpt lat="44.98042698439113" lon="8.392216437051564"><ele>190.8</ele><time>2026-03-28T08:59:06.999Z</time></trkpt><trkpt lat="44.980350802372286" lon="8.392285517788478"><ele>190.0</ele><time>2026-03-28T08:59:07.999Z</time></trkpt><trkpt lat="44.98027499223025" lon="8.39235550190464"><ele>190.0</ele><time>2026-03-28T08:59:08.999Z</time></trkpt><trkpt lat="44.980202324313005" lon="8.392423836793654"><ele>190.0</ele><time>2026-03-28T08:59:09.999Z</time></trkpt><trkpt lat="44.980129666554845" lon="8.392495686270996"><ele>190.0</ele><time>2026-03-28T08:59:10.999Z</time></trkpt><trkpt lat="44.98007220407745" lon="8.392561694232556"><ele>190.0</ele><time>2026-03-28T08:59:11.999Z</time></trkpt><trkpt lat="44.980005910577304" lon="8.39262905966842"><ele>190.0</ele><time>2026-03-28T08:59:12.999Z</time></trkpt><trkpt lat="44.979945605683184" lon="8.392690765635226"><ele>190.0</ele><time>2026-03-28T08:59:13.999Z</time></trkpt><trkpt lat="44.97988410195217" lon="8.392749815039492"><ele>190.8</ele><time>2026-03-28T08:59:14.999Z</time></trkpt><trkpt lat="44.97978132227849" lon="8.392854725590404"><ele>191.6</ele><time>2026-03-28T08:59:16.999Z</time></trkpt><trkpt lat="44.97971277349406" lon="8.39289701369147"><ele>192.39999999999998</ele><time>2026-03-28T08:59:17.999Z</time></trkpt><trkpt lat="44.97964422534549" lon="8.392974206172964"><ele>193.2</ele><time>2026-03-28T08:59:18.999Z</time></trkpt><trkpt lat="44.97957334524825" lon="8.39304481787053"><ele>194.0</ele><time>2026-03-28T08:59:19.999Z</time></trkpt><trkpt lat="44.979503557954295" lon="8.39312841686363"><ele>194.0</ele><time>2026-03-28T08:59:20.999Z</time></trkpt><trkpt lat="44.97943993159928" lon="8.393208726409757"><ele>194.0</ele><time>2026-03-28T08:59:21.999Z</time></trkpt><trkpt lat="44.979380676143734" lon="8.393283420634953"><ele>194.0</ele><time>2026-03-28T08:59:22.999Z</time></trkpt><trkpt lat="44.979320480775954" lon="8.393438424625728"><ele>194.0</ele><time>2026-03-28T08:59:24.999Z</time></trkpt><trkpt lat="44.979205414137596" lon="8.393522804212946"><ele>194.0</ele><time>2026-03-28T08:59:25.999Z</time></trkpt><trkpt lat="44.97914036588924" lon="8.393614627632472"><ele>193.00000000000003</ele><time>2026-03-28T08:59:26.999Z</time></trkpt><trkpt lat="44.97909004795597" lon="8.393699280726855"><ele>192.0</ele><time>2026-03-28T08:59:27.999Z</time></trkpt><trkpt lat="44.97903517021897" lon="8.393786337866613"><ele>191.0</ele><time>2026-03-28T08:59:28.999Z</time></trkpt><trkpt lat="44.97897185924943" lon="8.393876837921312"><ele>190.0</ele><time>2026-03-28T08:59:29.999Z</time></trkpt><trkpt lat="44.978913898108345" lon="8.393971178037761"><ele>189.0</ele><time>2026-03-28T08:59:30.999Z</time></trkpt><trkpt lat="44.97886936842412" lon="8.394063516718159"><ele>188.0</ele><time>2026-03-28T08:59:31.999Z</time></trkpt><trkpt lat="44.97882848674925" lon="8.394158905289729"><ele>188.0</ele><time>2026-03-28T08:59:32.999Z</time></trkpt><trkpt lat="44.97879327802076" lon="8.394246304840339"><ele>188.0</ele><time>2026-03-28T08:59:33.999Z</time></trkpt><trkpt lat="44.978774691744945" lon="8.39440171742751"><ele>188.0</ele><time>2026-03-28T08:59:35.999Z</time></trkpt><trkpt lat="44.97878334800009" lon="8.394505470487989"><ele>188.0</ele><time>2026-03-28T08:59:37.999Z</time></trkpt><trkpt lat="44.978801945038015" lon="8.394643032704309"><ele>188.0</ele><time>2026-03-28T08:59:39.999Z</time></trkpt><trkpt lat="44.978799886318065" lon="8.394783679906876"><ele>187.5</ele><time>2026-03-28T08:59:41.999Z</time></trkpt><trkpt lat="44.978793847771115" lon="8.394873948049511"><ele>187.0</ele><time>2026-03-28T08:59:42.999Z</time></trkpt><trkpt lat="44.97879408395905" lon="8.394963069367249"><ele>186.5</ele><time>2026-03-28T08:59:43.999Z</time></trkpt><trkpt lat="44.97879208202853" lon="8.395052958898862"><ele>186.0</ele><time>2026-03-28T08:59:44.999Z</time></trkpt><trkpt lat="44.97881748278628" lon="8.395170498698082"><ele>185.5</ele><time>2026-03-28T08:59:46.999Z</time></trkpt><trkpt lat="44.978792043667305" lon="8.395285924576052"><ele>185.0</ele><time>2026-03-28T08:59:48.999Z</time></trkpt><trkpt lat="44.97873582296332" lon="8.395397320882585"><ele>185.0</ele><time>2026-03-28T08:59:50.999Z</time></trkpt><trkpt lat="44.97866248203731" lon="8.395443398742943"><ele>185.0</ele><time>2026-03-28T08:59:52.999Z</time></trkpt><trkpt lat="44.97859094026137" lon="8.39538829743429"><ele>185.0</ele><time>2026-03-28T08:59:54.999Z</time></trkpt><trkpt lat="44.97864637872439" lon="8.39523826451249"><ele>185.0</ele><time>2026-03-28T08:59:56.999Z</time></trkpt><trkpt lat="44.97872536629346" lon="8.39523141782073"><ele>185.0</ele><time>2026-03-28T08:59:57.999Z</time></trkpt><trkpt lat="44.978799038774994" lon="8.395268328923677"><ele>185.0</ele><time>2026-03-28T08:59:58.999Z</time></trkpt><trkpt lat="44.97886804786971" lon="8.395339338603058"><ele>185.0</ele><time>2026-03-28T09:00:00.999Z</time></trkpt><trkpt lat="44.97886280757109" lon="8.395459081815435"><ele>185.0</ele><time>2026-03-28T09:00:04Z</time></trkpt><trkpt lat="44.97887641042061" lon="8.395591105418633"><ele>185.0</ele><time>2026-03-28T09:00:06Z</time></trkpt><trkpt lat="44.97888448528889" lon="8.39570698493977"><ele>185.0</ele><time>2026-03-28T09:00:08Z</time></trkpt><trkpt lat="44.978879726769094" lon="8.39589078040251"><ele>185.0</ele><time>2026-03-28T09:00:10Z</time></trkpt><trkpt lat="44.97888228636128" lon="8.395986197308169"><ele>183.83333333333331</ele><time>2026-03-28T09:00:11Z</time></trkpt><trkpt lat="44.978885700196976" lon="8.39608925852453"><ele>182.66666666666666</ele><time>2026-03-28T09:00:12Z</time></trkpt><trkpt lat="44.97887862221081" lon="8.396196847698834"><ele>181.5</ele><time>2026-03-28T09:00:13Z</time></trkpt><trkpt lat="44.978870166572406" lon="8.39632967666056"><ele>180.33333333333334</ele><time>2026-03-28T09:00:14Z</time></trkpt><trkpt lat="44.978867581712485" lon="8.396466710673616"><ele>179.16666666666669</ele><time>2026-03-28T09:00:15Z</time></trkpt><trkpt lat="44.97886544980778" lon="8.396587924513772"><ele>178.0</ele><time>2026-03-28T09:00:16Z</time></trkpt><trkpt lat="44.978869726812455" lon="8.396688706311295"><ele>177.83333333333334</ele><time>2026-03-28T09:00:17Z</time></trkpt><trkpt lat="44.97886245858681" lon="8.396791886785312"><ele>177.66666666666669</ele><time>2026-03-28T09:00:18Z</time></trkpt><trkpt lat="44.9788595799774" lon="8.396934612223951"><ele>177.5</ele><time>2026-03-28T09:00:19Z</time></trkpt><trkpt lat="44.97885982331994" lon="8.39704533343"><ele>177.33333333333334</ele><time>2026-03-28T09:00:20Z</time></trkpt><trkpt lat="44.9788621685821" lon="8.397153489761175"><ele>177.16666666666666</ele><time>2026-03-28T09:00:21Z</time></trkpt><trkpt lat="44.97884622408383" lon="8.397274920839873"><ele>177.0</ele><time>2026-03-28T09:00:22Z</time></trkpt><trkpt lat="44.97882776780487" lon="8.397422737592548"><ele>177.0</ele><time>2026-03-28T09:00:23Z</time></trkpt><trkpt lat="44.97882104665395" lon="8.397540502536083"><ele>177.0</ele><time>2026-03-28T09:00:24Z</time></trkpt><trkpt lat="44.978818464692566" lon="8.397650174720159"><ele>177.0</ele><time>2026-03-28T09:00:25Z</time></trkpt><trkpt lat="44.9788043392004" lon="8.397757225624286"><ele>177.0</ele><time>2026-03-28T09:00:26Z</time></trkpt><trkpt lat="44.978782032662366" lon="8.397856314030902"><ele>177.0</ele><time>2026-03-28T09:00:27Z</time></trkpt><trkpt lat="44.978744990476" lon="8.397958837151656"><ele>177.0</ele><time>2026-03-28T09:00:28Z</time></trkpt><trkpt lat="44.97873111834432" lon="8.398051766681057"><ele>177.0</ele><time>2026-03-28T09:00:29Z</time></trkpt><trkpt lat="44.97869717981331" lon="8.398202848189227"><ele>177.0</ele><time>2026-03-28T09:00:31Z</time></trkpt><trkpt lat="44.978656902098614" lon="8.398389088686729"><ele>177.0</ele><time>2026-03-28T09:00:33Z</time></trkpt><trkpt lat="44.978630243063954" lon="8.398476054404739"><ele>177.0</ele><time>2026-03-28T09:00:34Z</time></trkpt><trkpt lat="44.978583198246305" lon="8.398548025656545"><ele>177.0</ele><time>2026-03-28T09:00:35Z</time></trkpt><trkpt lat="44.97851980942079" lon="8.398611844766442"><ele>177.0</ele><time>2026-03-28T09:00:36Z</time></trkpt><trkpt lat="44.97845271450433" lon="8.398665623711189"><ele>177.0</ele><time>2026-03-28T09:00:37Z</time></trkpt><trkpt lat="44.978384011413546" lon="8.398706021887183"><ele>177.0</ele><time>2026-03-28T09:00:38Z</time></trkpt><trkpt lat="44.97830679292008" lon="8.398768707027932"><ele>177.0</ele><time>2026-03-28T09:00:39Z</time></trkpt><trkpt lat="44.978238919762525" lon="8.398822500451317"><ele>177.0</ele><time>2026-03-28T09:00:40Z</time></trkpt><trkpt lat="44.9781656303532" lon="8.398882922108557"><ele>177.0</ele><time>2026-03-28T09:00:41Z</time></trkpt><trkpt lat="44.97809812252955" lon="8.398952599060449"><ele>177.5</ele><time>2026-03-28T09:00:42Z</time></trkpt><trkpt lat="44.97801728920112" lon="8.399001203361992"><ele>178.0</ele><time>2026-03-28T09:00:43Z</time></trkpt><trkpt lat="44.97795113626232" lon="8.399046667275655"><ele>178.5</ele><time>2026-03-28T09:00:44Z</time></trkpt><trkpt lat="44.97786852203962" lon="8.399103190781322"><ele>179.0</ele><time>2026-03-28T09:00:45Z</time></trkpt><trkpt lat="44.97779460886429" lon="8.399150502691386"><ele>179.5</ele><time>2026-03-28T09:00:46Z</time></trkpt><trkpt lat="44.977685083648595" lon="8.39918406625288"><ele>180.0</ele><time>2026-03-28T09:00:47Z</time></trkpt><trkpt lat="44.97759523936821" lon="8.3992064676025"><ele>179.0</ele><time>2026-03-28T09:00:48Z</time></trkpt><trkpt lat="44.97750969908702" lon="8.399227260186493"><ele>178.0</ele><time>2026-03-28T09:00:49Z</time></trkpt><trkpt lat="44.97743722005413" lon="8.399267317874973"><ele>177.0</ele><time>2026-03-28T09:00:50Z</time></trkpt><trkpt lat="44.97736766378481" lon="8.399295662187436"><ele>176.0</ele><time>2026-03-28T09:00:50.999Z</time></trkpt><trkpt lat="44.977283612323745" lon="8.399332184415009"><ele>175.0</ele><time>2026-03-28T09:00:51.999Z</time></trkpt><trkpt lat="44.97716318745776" lon="8.399383319623007"><ele>175.0</ele><time>2026-03-28T09:00:52.999Z</time></trkpt><trkpt lat="44.977032304637476" lon="8.399411054761229"><ele>175.0</ele><time>2026-03-28T09:00:54.999Z</time></trkpt><trkpt lat="44.976941451075156" lon="8.399445862295629"><ele>175.0</ele><time>2026-03-28T09:00:55.999Z</time></trkpt><trkpt lat="44.97685528745496" lon="8.399469135358956"><ele>175.0</ele><time>2026-03-28T09:00:56.999Z</time></trkpt><trkpt lat="44.97674661172955" lon="8.39950095257765"><ele>175.0</ele><time>2026-03-28T09:00:57.999Z</time></trkpt><trkpt lat="44.97661338210536" lon="8.399572256850842"><ele>175.28571428571428</ele><time>2026-03-28T09:00:59.999Z</time></trkpt><trkpt lat="44.97654406185539" lon="8.399589233132026"><ele>175.57142857142856</ele><time>2026-03-28T09:01:00.999Z</time></trkpt><trkpt lat="44.9764411618904" lon="8.399616085005558"><ele>175.85714285714286</ele><time>2026-03-28T09:01:02.999Z</time></trkpt><trkpt lat="44.97637860158325" lon="8.39962684597391"><ele>176.14285714285714</ele><time>2026-03-28T09:01:03.999Z</time></trkpt><trkpt lat="44.97631238913686" lon="8.399633064863725"><ele>176.42857142857142</ele><time>2026-03-28T09:01:04.999Z</time></trkpt><trkpt lat="44.97624443872655" lon="8.399665825633175"><ele>176.71428571428572</ele><time>2026-03-28T09:01:05.999Z</time></trkpt><trkpt lat="44.97618128489512" lon="8.399699309913721"><ele>177.0</ele><time>2026-03-28T09:01:06.999Z</time></trkpt><trkpt lat="44.97610914334377" lon="8.399753819665271"><ele>177.16666666666666</ele><time>2026-03-28T09:01:07.999Z</time></trkpt><trkpt lat="44.9760421785114" lon="8.39980512086592"><ele>177.33333333333334</ele><time>2026-03-28T09:01:08.999Z</time></trkpt><trkpt lat="44.97597900787016" lon="8.399845150588988"><ele>177.5</ele><time>2026-03-28T09:01:09.999Z</time></trkpt><trkpt lat="44.97591721585779" lon="8.399893527498826"><ele>177.66666666666669</ele><time>2026-03-28T09:01:10.999Z</time></trkpt><trkpt lat="44.97584958461542" lon="8.399935876019219"><ele>177.83333333333334</ele><time>2026-03-28T09:01:11.999Z</time></trkpt><trkpt lat="44.975738712894255" lon="8.399938789952227"><ele>178.0</ele><time>2026-03-28T09:01:13.999Z</time></trkpt><trkpt lat="44.97557294122612" lon="8.400008777157964"><ele>178.0</ele><time>2026-03-28T09:01:15.999Z</time></trkpt><trkpt lat="44.975459025048124" lon="8.400077752017273"><ele>178.0</ele><time>2026-03-28T09:01:17.999Z</time></trkpt><trkpt lat="44.97539176146383" lon="8.400127373341437"><ele>178.0</ele><time>2026-03-28T09:01:18.999Z</time></trkpt><trkpt lat="44.975330146171174" lon="8.400163326788181"><ele>178.0</ele><time>2026-03-28T09:01:19.999Z</time></trkpt><trkpt lat="44.975221312467156" lon="8.40022572943788"><ele>178.0</ele><time>2026-03-28T09:01:21.999Z</time></trkpt><trkpt lat="44.975152903425865" lon="8.40025121325835"><ele>178.0</ele><time>2026-03-28T09:01:22.999Z</time></trkpt><trkpt lat="44.97507378881789" lon="8.400266206434168"><ele>178.0</ele><time>2026-03-28T09:01:23.999Z</time></trkpt><trkpt lat="44.97499116411318" lon="8.40027284351667"><ele>178.0</ele><time>2026-03-28T09:01:24.999Z</time></trkpt><trkpt lat="44.97491739778267" lon="8.400289807584603"><ele>178.0</ele><time>2026-03-28T09:01:25.999Z</time></trkpt><trkpt lat="44.97483386344158" lon="8.400309488552434"><ele>178.0</ele><time>2026-03-28T09:01:26.999Z</time></trkpt><trkpt lat="44.97476938566805" lon="8.400302799675002"><ele>178.0</ele><time>2026-03-28T09:01:27.999Z</time></trkpt><trkpt lat="44.974674823097686" lon="8.400263272054163"><ele>177.4</ele><time>2026-03-28T09:01:29.999Z</time></trkpt><trkpt lat="44.97456022875813" lon="8.400216884293739"><ele>176.8</ele><time>2026-03-28T09:01:31.999Z</time></trkpt><trkpt lat="44.97448996795024" lon="8.400207022224997"><ele>176.2</ele><time>2026-03-28T09:01:32.999Z</time></trkpt><trkpt lat="44.97441466800852" lon="8.400198915264466"><ele>175.6</ele><time>2026-03-28T09:01:33.999Z</time></trkpt><trkpt lat="44.974299584215" lon="8.400215566948066"><ele>175.0</ele><time>2026-03-28T09:01:35.999Z</time></trkpt><trkpt lat="44.97421484878898" lon="8.40022820928466"><ele>175.5</ele><time>2026-03-28T09:01:36.999Z</time></trkpt><trkpt lat="44.97412628571871" lon="8.400242128815982"><ele>176.0</ele><time>2026-03-28T09:01:37.999Z</time></trkpt><trkpt lat="44.9740501167349" lon="8.40025627326387"><ele>176.5</ele><time>2026-03-28T09:01:38.999Z</time></trkpt><trkpt lat="44.9739716793131" lon="8.400268358240034"><ele>177.0</ele><time>2026-03-28T09:01:39.999Z</time></trkpt><trkpt lat="44.97389006302646" lon="8.400285893069258"><ele>177.5</ele><time>2026-03-28T09:01:40.999Z</time></trkpt><trkpt lat="44.97380612426191" lon="8.400295152722526"><ele>178.0</ele><time>2026-03-28T09:01:41.999Z</time></trkpt><trkpt lat="44.97373079810438" lon="8.400287892331878"><ele>178.0</ele><time>2026-03-28T09:01:42.999Z</time></trkpt><trkpt lat="44.97365735873338" lon="8.400288283519336"><ele>178.0</ele><time>2026-03-28T09:01:43.999Z</time></trkpt><trkpt lat="44.97359245947001" lon="8.400288894881843"><ele>178.0</ele><time>2026-03-28T09:01:44.999Z</time></trkpt><trkpt lat="44.97351827302808" lon="8.400284074355795"><ele>178.0</ele><time>2026-03-28T09:01:45.999Z</time></trkpt><trkpt lat="44.97344592001971" lon="8.40029030387531"><ele>178.0</ele><time>2026-03-28T09:01:46.999Z</time></trkpt><trkpt lat="44.97335646105671" lon="8.400303333734884"><ele>178.0</ele><time>2026-03-28T09:01:47.999Z</time></trkpt><trkpt lat="44.97326522886078" lon="8.400299539885452"><ele>177.0</ele><time>2026-03-28T09:01:48.999Z</time></trkpt><trkpt lat="44.97318502132071" lon="8.400317077419835"><ele>176.0</ele><time>2026-03-28T09:01:49.999Z</time></trkpt><trkpt lat="44.97307834538994" lon="8.400338039655352"><ele>175.0</ele><time>2026-03-28T09:01:50.999Z</time></trkpt><trkpt lat="44.97296202617066" lon="8.400341185464208"><ele>174.0</ele><time>2026-03-28T09:01:51.999Z</time></trkpt><trkpt lat="44.972873035027874" lon="8.400353036255844"><ele>173.0</ele><time>2026-03-28T09:01:52.999Z</time></trkpt><trkpt lat="44.97278417764041" lon="8.400361215987862"><ele>173.0</ele><time>2026-03-28T09:01:53.999Z</time></trkpt><trkpt lat="44.97269143446343" lon="8.400353799108595"><ele>173.0</ele><time>2026-03-28T09:01:54.999Z</time></trkpt><trkpt lat="44.972586337003634" lon="8.400367976844764"><ele>173.0</ele><time>2026-03-28T09:01:55.999Z</time></trkpt><trkpt lat="44.972483912824615" lon="8.400378681281957"><ele>173.0</ele><time>2026-03-28T09:01:56.999Z</time></trkpt><trkpt lat="44.97238041504178" lon="8.400400425281115"><ele>173.0</ele><time>2026-03-28T09:01:57.999Z</time></trkpt><trkpt lat="44.972259737728365" lon="8.400446253844496"><ele>173.25</ele><time>2026-03-28T09:01:58.999Z</time></trkpt><trkpt lat="44.972136689688774" lon="8.400516414101036"><ele>173.5</ele><time>2026-03-28T09:01:59.999Z</time></trkpt><trkpt lat="44.97207753345183" lon="8.40033897149648"><ele>173.75</ele><time>2026-03-28T09:02:00.999Z</time></trkpt><trkpt lat="44.97196770963231" lon="8.400307143924323"><ele>174.0</ele><time>2026-03-28T09:02:01.999Z</time></trkpt><trkpt lat="44.971850756167726" lon="8.400252821315004"><ele>174.0</ele><time>2026-03-28T09:02:02.999Z</time></trkpt><trkpt lat="44.97174474389356" lon="8.400201873780249"><ele>174.0</ele><time>2026-03-28T09:02:03.999Z</time></trkpt><trkpt lat="44.97166545342613" lon="8.400152988795984"><ele>174.0</ele><time>2026-03-28T09:02:04.999Z</time></trkpt><trkpt lat="44.97158180713921" lon="8.400096578316132"><ele>174.0</ele><time>2026-03-28T09:02:05.999Z</time></trkpt><trkpt lat="44.97149155891741" lon="8.40005581459258"><ele>174.0</ele><time>2026-03-28T09:02:06.999Z</time></trkpt><trkpt lat="44.97141748222804" lon="8.400018547874529"><ele>174.33333333333334</ele><time>2026-03-28T09:02:07.999Z</time></trkpt><trkpt lat="44.97135075138461" lon="8.399966744663406"><ele>174.66666666666666</ele><time>2026-03-28T09:02:09Z</time></trkpt><trkpt lat="44.97128095304401" lon="8.399915611999637"><ele>175.0</ele><time>2026-03-28T09:02:10Z</time></trkpt><trkpt lat="44.97121674997852" lon="8.399863810765936"><ele>175.33333333333331</ele><time>2026-03-28T09:02:11Z</time></trkpt><trkpt lat="44.971141391697834" lon="8.399813993093016"><ele>175.66666666666666</ele><time>2026-03-28T09:02:12Z</time></trkpt><trkpt lat="44.971070131157795" lon="8.399764629592491"><ele>176.0</ele><time>2026-03-28T09:02:13Z</time></trkpt><trkpt lat="44.970996095629346" lon="8.39971479606006"><ele>175.66666666666666</ele><time>2026-03-28T09:02:14Z</time></trkpt><trkpt lat="44.970916336846024" lon="8.399666416741988"><ele>175.33333333333331</ele><time>2026-03-28T09:02:15Z</time></trkpt><trkpt lat="44.97083869102635" lon="8.39962053136837"><ele>175.0</ele><time>2026-03-28T09:02:16Z</time></trkpt><trkpt lat="44.970765125156426" lon="8.39957203095981"><ele>174.66666666666666</ele><time>2026-03-28T09:02:17Z</time></trkpt><trkpt lat="44.97069905710386" lon="8.399528695209378"><ele>174.33333333333334</ele><time>2026-03-28T09:02:18Z</time></trkpt><trkpt lat="44.97064053762884" lon="8.399488974111131"><ele>174.0</ele><time>2026-03-28T09:02:19Z</time></trkpt><trkpt lat="44.97057260671972" lon="8.399455892653242"><ele>173.5</ele><time>2026-03-28T09:02:20Z</time></trkpt><trkpt lat="44.97050720565464" lon="8.399427779789947"><ele>173.0</ele><time>2026-03-28T09:02:21Z</time></trkpt><trkpt lat="44.970447923816344" lon="8.39938600712298"><ele>172.5</ele><time>2026-03-28T09:02:22Z</time></trkpt><trkpt lat="44.970349450960875" lon="8.399337823761483"><ele>172.0</ele><time>2026-03-28T09:02:24Z</time></trkpt><trkpt lat="44.97024559380601" lon="8.399305857664523"><ele>171.5</ele><time>2026-03-28T09:02:26Z</time></trkpt><trkpt lat="44.97017816219977" lon="8.399290744776517"><ele>171.0</ele><time>2026-03-28T09:02:27Z</time></trkpt><trkpt lat="44.97011231600055" lon="8.399242006747363"><ele>171.0</ele><time>2026-03-28T09:02:29Z</time></trkpt><trkpt lat="44.97010000661553" lon="8.399090910751735"><ele>171.0</ele><time>2026-03-28T09:02:31Z</time></trkpt><trkpt lat="44.97012557245867" lon="8.398987360272326"><ele>171.0</ele><time>2026-03-28T09:02:32Z</time></trkpt><trkpt lat="44.97013572800181" lon="8.398835509556566"><ele>171.0</ele><time>2026-03-28T09:02:33Z</time></trkpt><trkpt lat="44.97016808538269" lon="8.398741638479345"><ele>171.0</ele><time>2026-03-28T09:02:34Z</time></trkpt><trkpt lat="44.97020358236196" lon="8.398659715851124"><ele>171.0</ele><time>2026-03-28T09:02:35Z</time></trkpt><trkpt lat="44.97019358393697" lon="8.398523076615938"><ele>170.85714285714283</ele><time>2026-03-28T09:02:36Z</time></trkpt><trkpt lat="44.97020935622857" lon="8.398435254123939"><ele>170.71428571428572</ele><time>2026-03-28T09:02:37Z</time></trkpt><trkpt lat="44.9702196736361" lon="8.39830006923174"><ele>170.57142857142856</ele><time>2026-03-28T09:02:39Z</time></trkpt><trkpt lat="44.97013609586876" lon="8.398261946261975"><ele>170.42857142857142</ele><time>2026-03-28T09:02:43Z</time></trkpt><trkpt lat="44.97007187915983" lon="8.398271584535099"><ele>170.28571428571428</ele><time>2026-03-28T09:02:44Z</time></trkpt><trkpt lat="44.970006132523785" lon="8.398265785130876"><ele>170.14285714285714</ele><time>2026-03-28T09:02:45Z</time></trkpt><trkpt lat="44.96993594145113" lon="8.39825356586295"><ele>170.0</ele><time>2026-03-28T09:02:46Z</time></trkpt><trkpt lat="44.96987134753836" lon="8.39824465700672"><ele>169.4</ele><time>2026-03-28T09:02:47Z</time></trkpt><trkpt lat="44.969783084341444" lon="8.398228698905186"><ele>168.8</ele><time>2026-03-28T09:02:48Z</time></trkpt><trkpt lat="44.969694347049256" lon="8.398199049363496"><ele>168.2</ele><time>2026-03-28T09:02:49Z</time></trkpt><trkpt lat="44.96959862599556" lon="8.398183616171162"><ele>167.6</ele><time>2026-03-28T09:02:50Z</time></trkpt><trkpt lat="44.9695010317146" lon="8.398157975037316"><ele>167.0</ele><time>2026-03-28T09:02:51Z</time></trkpt><trkpt lat="44.96940216912014" lon="8.398134042779654"><ele>167.0</ele><time>2026-03-28T09:02:52Z</time></trkpt><trkpt lat="44.96931486104153" lon="8.398105562342415"><ele>167.0</ele><time>2026-03-28T09:02:53Z</time></trkpt><trkpt lat="44.969224552421444" lon="8.398089895094365"><ele>167.0</ele><time>2026-03-28T09:02:54Z</time></trkpt><trkpt lat="44.969134618239885" lon="8.398062142759848"><ele>167.0</ele><time>2026-03-28T09:02:55Z</time></trkpt><trkpt lat="44.969033876425414" lon="8.39804010560518"><ele>167.0</ele><time>2026-03-28T09:02:56Z</time></trkpt><trkpt lat="44.968947752324084" lon="8.398009529493036"><ele>166.8</ele><time>2026-03-28T09:02:57Z</time></trkpt><trkpt lat="44.96886598787704" lon="8.397972106010146"><ele>166.6</ele><time>2026-03-28T09:02:58Z</time></trkpt><trkpt lat="44.96875942752153" lon="8.397934915146593"><ele>166.4</ele><time>2026-03-28T09:02:59Z</time></trkpt><trkpt lat="44.968663108689256" lon="8.397905513433935"><ele>166.20000000000002</ele><time>2026-03-28T09:02:59.999Z</time></trkpt><trkpt lat="44.96859262598515" lon="8.39793123615377"><ele>166.0</ele><time>2026-03-28T09:04:11.999Z</time></trkpt><trkpt lat="44.96860646149868" lon="8.398057713711847"><ele>166.0</ele><time>2026-03-28T09:05:21.999Z</time></trkpt><trkpt lat="44.96860905636523" lon="8.398166059764959"><ele>166.0</ele><time>2026-03-28T09:05:22.999Z</time></trkpt><trkpt lat="44.96860669744196" lon="8.39828638179899"><ele>166.0</ele><time>2026-03-28T09:05:23.999Z</time></trkpt><trkpt lat="44.96860647560849" lon="8.398425461916924"><ele>166.0</ele><time>2026-03-28T09:05:24.999Z</time></trkpt><trkpt lat="44.96861937949944" lon="8.39859479181112"><ele>166.0</ele><time>2026-03-28T09:05:25.999Z</time></trkpt><trkpt lat="44.968648825049726" lon="8.398806450064324"><ele>168.66666666666669</ele><time>2026-03-28T09:05:26.999Z</time></trkpt><trkpt lat="44.96870034315713" lon="8.39905103341726"><ele>171.33333333333334</ele><time>2026-03-28T09:05:27.999Z</time></trkpt><trkpt lat="44.9687671866043" lon="8.3993037047883"><ele>174.0</ele><time>2026-03-28T09:05:28.999Z</time></trkpt><trkpt lat="44.96884618998149" lon="8.399604740630894"><ele>182.0</ele><time>2026-03-28T09:05:29.999Z</time></trkpt><trkpt lat="44.96893702034037" lon="8.399948661234154"><ele>190.0</ele><time>2026-03-28T09:05:30.999Z</time></trkpt><trkpt lat="44.96903729895118" lon="8.400315808539371"><ele>193.5</ele><time>2026-03-28T09:05:31.999Z</time></trkpt><trkpt lat="44.96913910372293" lon="8.400669716768661"><ele>197.0</ele><time>2026-03-28T09:05:32.999Z</time></trkpt><trkpt lat="44.969235662542644" lon="8.400935803672292"><ele>199.0</ele><time>2026-03-28T09:05:33.999Z</time></trkpt><trkpt lat="44.96932000139392" lon="8.401154665012353"><ele>201.0</ele><time>2026-03-28T09:05:34.999Z</time></trkpt><trkpt lat="44.96939363672376" lon="8.401356862942631"><ele>203.0</ele><time>2026-03-28T09:05:35.999Z</time></trkpt><trkpt lat="44.96944774311061" lon="8.401547568124455"><ele>203.0</ele><time>2026-03-28T09:05:36.999Z</time></trkpt><trkpt lat="44.96950147579957" lon="8.401751817580413"><ele>203.0</ele><time>2026-03-28T09:05:37.999Z</time></trkpt><trkpt lat="44.96954058453638" lon="8.401926980732066"><ele>203.0</ele><time>2026-03-28T09:05:38.999Z</time></trkpt><trkpt lat="44.96957828678856" lon="8.402094185809982"><ele>203.0</ele><time>2026-03-28T09:05:39.999Z</time></trkpt><trkpt lat="44.96961641370629" lon="8.402278469575226"><ele>204.75</ele><time>2026-03-28T09:05:40.999Z</time></trkpt><trkpt lat="44.96965237522097" lon="8.40245431019343"><ele>206.5</ele><time>2026-03-28T09:05:41.999Z</time></trkpt><trkpt lat="44.969717446872906" lon="8.402618078583567"><ele>208.25</ele><time>2026-03-28T09:05:42.999Z</time></trkpt><trkpt lat="44.96979935947186" lon="8.402771877556331"><ele>210.0</ele><time>2026-03-28T09:05:43.999Z</time></trkpt><trkpt lat="44.9698701498402" lon="8.402908402161058"><ele>210.66666666666666</ele><time>2026-03-28T09:05:44.999Z</time></trkpt><trkpt lat="44.96992535581464" lon="8.403017329659269"><ele>211.33333333333331</ele><time>2026-03-28T09:05:45.999Z</time></trkpt><trkpt lat="44.96997801097212" lon="8.403117106674205"><ele>212.0</ele><time>2026-03-28T09:05:46.999Z</time></trkpt><trkpt lat="44.97002462935542" lon="8.403224888972819"><ele>212.66666666666666</ele><time>2026-03-28T09:05:47.999Z</time></trkpt><trkpt lat="44.970070542310324" lon="8.403338592018693"><ele>213.33333333333331</ele><time>2026-03-28T09:05:48.999Z</time></trkpt><trkpt lat="44.97013248549753" lon="8.403418427652936"><ele>214.0</ele><time>2026-03-28T09:05:49.999Z</time></trkpt><trkpt lat="44.97018944268503" lon="8.403528216306933"><ele>214.16666666666666</ele><time>2026-03-28T09:05:51.999Z</time></trkpt><trkpt lat="44.9702571137224" lon="8.403594529498578"><ele>214.33333333333331</ele><time>2026-03-28T09:05:53.999Z</time></trkpt><trkpt lat="44.970315143209774" lon="8.403655027164964"><ele>214.5</ele><time>2026-03-28T09:05:54.999Z</time></trkpt><trkpt lat="44.970364484177665" lon="8.403749507672307"><ele>214.66666666666669</ele><time>2026-03-28T09:05:55.999Z</time></trkpt><trkpt lat="44.97041954438659" lon="8.403838932990169"><ele>214.83333333333334</ele><time>2026-03-28T09:05:56.999Z</time></trkpt><trkpt lat="44.97048297227987" lon="8.403933473088106"><ele>215.0</ele><time>2026-03-28T09:05:57.999Z</time></trkpt><trkpt lat="44.970521888363976" lon="8.404072840788402"><ele>217.0</ele><time>2026-03-28T09:05:58.999Z</time></trkpt><trkpt lat="44.97054754833135" lon="8.40425977616305"><ele>219.0</ele><time>2026-03-28T09:05:59.999Z</time></trkpt><trkpt lat="44.97056085599198" lon="8.404450774940159"><ele>221.0</ele><time>2026-03-28T09:06:00.999Z</time></trkpt><trkpt lat="44.97057654662532" lon="8.404575938889637"><ele>223.0</ele><time>2026-03-28T09:06:01.999Z</time></trkpt><trkpt lat="44.97059758640378" lon="8.404703104375171"><ele>223.0</ele><time>2026-03-28T09:06:02.999Z</time></trkpt><trkpt lat="44.97062483812182" lon="8.404848743358002"><ele>223.0</ele><time>2026-03-28T09:06:03.999Z</time></trkpt><trkpt lat="44.970669491737375" lon="8.405015584400703"><ele>223.0</ele><time>2026-03-28T09:06:04.999Z</time></trkpt><trkpt lat="44.97070257925388" lon="8.405202179513486"><ele>223.0</ele><time>2026-03-28T09:06:05.999Z</time></trkpt><trkpt lat="44.9707292965932" lon="8.405378058068797"><ele>221.75</ele><time>2026-03-28T09:06:06.999Z</time></trkpt><trkpt lat="44.97073661028557" lon="8.405560541682616"><ele>220.5</ele><time>2026-03-28T09:06:07.999Z</time></trkpt><trkpt lat="44.97072325126875" lon="8.40576579084825"><ele>219.25</ele><time>2026-03-28T09:06:08.999Z</time></trkpt><trkpt lat="44.97068535408475" lon="8.405983210134838"><ele>218.0</ele><time>2026-03-28T09:06:09.999Z</time></trkpt><trkpt lat="44.97065149776371" lon="8.406176075897578"><ele>218.25</ele><time>2026-03-28T09:06:10.999Z</time></trkpt><trkpt lat="44.97062525323188" lon="8.406355678427712"><ele>218.5</ele><time>2026-03-28T09:06:11.999Z</time></trkpt><trkpt lat="44.97060449155427" lon="8.406518671259642"><ele>218.75</ele><time>2026-03-28T09:06:12.999Z</time></trkpt><trkpt lat="44.97059553193119" lon="8.406672154297748"><ele>219.0</ele><time>2026-03-28T09:06:13.999Z</time></trkpt><trkpt lat="44.97061998072911" lon="8.406813967659172"><ele>219.0</ele><time>2026-03-28T09:06:14.999Z</time></trkpt><trkpt lat="44.97067666522629" lon="8.406958892633174"><ele>219.0</ele><time>2026-03-28T09:06:15.999Z</time></trkpt><trkpt lat="44.970758623637" lon="8.40710128899609"><ele>219.0</ele><time>2026-03-28T09:06:16.999Z</time></trkpt><trkpt lat="44.970854781885166" lon="8.40724251159864"><ele>219.0</ele><time>2026-03-28T09:06:17.999Z</time></trkpt><trkpt lat="44.97095422626893" lon="8.407376966257342"><ele>219.0</ele><time>2026-03-28T09:06:18.999Z</time></trkpt><trkpt lat="44.971064160107204" lon="8.407505876993445"><ele>219.0</ele><time>2026-03-28T09:06:20Z</time></trkpt><trkpt lat="44.971171296204" lon="8.407609670143"><ele>219.0</ele><time>2026-03-28T09:06:21Z</time></trkpt><trkpt lat="44.97128352324686" lon="8.407724503767877"><ele>219.0</ele><time>2026-03-28T09:06:22Z</time></trkpt><trkpt lat="44.97139998599099" lon="8.407838724200984"><ele>219.0</ele><time>2026-03-28T09:06:23Z</time></trkpt><trkpt lat="44.97151785341428" lon="8.407950338810105"><ele>219.0</ele><time>2026-03-28T09:06:24Z</time></trkpt><trkpt lat="44.971625176047425" lon="8.408053435940559"><ele>219.0</ele><time>2026-03-28T09:06:25Z</time></trkpt><trkpt lat="44.971730550855675" lon="8.408161106555285"><ele>219.0</ele><time>2026-03-28T09:06:26Z</time></trkpt><trkpt lat="44.97183663130412" lon="8.40827591546363"><ele>218.5</ele><time>2026-03-28T09:06:27Z</time></trkpt><trkpt lat="44.97195662205187" lon="8.408398086689918"><ele>218.0</ele><time>2026-03-28T09:06:28Z</time></trkpt><trkpt lat="44.972065821708" lon="8.408521414568888"><ele>217.5</ele><time>2026-03-28T09:06:29Z</time></trkpt><trkpt lat="44.97217842255685" lon="8.408620032843551"><ele>217.0</ele><time>2026-03-28T09:06:30Z</time></trkpt><trkpt lat="44.97227131812688" lon="8.40872460842223"><ele>218.8</ele><time>2026-03-28T09:06:31Z</time></trkpt><trkpt lat="44.972342758613046" lon="8.408841182477317"><ele>220.6</ele><time>2026-03-28T09:06:32Z</time></trkpt><trkpt lat="44.972397185189" lon="8.408957829580938"><ele>222.40000000000003</ele><time>2026-03-28T09:06:33Z</time></trkpt><trkpt lat="44.97245171274577" lon="8.409095806239185"><ele>224.20000000000002</ele><time>2026-03-28T09:06:34Z</time></trkpt><trkpt lat="44.97249591185361" lon="8.409266360508116"><ele>226.0</ele><time>2026-03-28T09:06:35Z</time></trkpt><trkpt lat="44.972542614981194" lon="8.409475526776257"><ele>224.5</ele><time>2026-03-28T09:06:36Z</time></trkpt><trkpt lat="44.97257337757656" lon="8.40969343090368"><ele>223.0</ele><time>2026-03-28T09:06:37Z</time></trkpt><trkpt lat="44.97258531598507" lon="8.40988856773423"><ele>221.5</ele><time>2026-03-28T09:06:38Z</time></trkpt><trkpt lat="44.97258867815986" lon="8.410080148412293"><ele>220.0</ele><time>2026-03-28T09:06:39Z</time></trkpt><trkpt lat="44.97258390761072" lon="8.410247424329047"><ele>219.99999999999997</ele><time>2026-03-28T09:06:40Z</time></trkpt><trkpt lat="44.972574117060574" lon="8.410383478797296"><ele>220.0</ele><time>2026-03-28T09:06:41Z</time></trkpt><trkpt lat="44.97256763862482" lon="8.410502305276209"><ele>220.0</ele><time>2026-03-28T09:06:42Z</time></trkpt><trkpt lat="44.97256114242767" lon="8.410611051204684"><ele>220.0</ele><time>2026-03-28T09:06:43Z</time></trkpt><trkpt lat="44.97254895303881" lon="8.41070968961175"><ele>219.99999999999997</ele><time>2026-03-28T09:06:44Z</time></trkpt><trkpt lat="44.97252943761421" lon="8.41085170030504"><ele>220.0</ele><time>2026-03-28T09:06:45Z</time></trkpt><trkpt lat="44.972499432519946" lon="8.410966160620868"><ele>221.5</ele><time>2026-03-28T09:06:46Z</time></trkpt><trkpt lat="44.97245069189633" lon="8.411108281493464"><ele>223.0</ele><time>2026-03-28T09:06:47Z</time></trkpt><trkpt lat="44.97237120762767" lon="8.411220625466608"><ele>224.5</ele><time>2026-03-28T09:06:48Z</time></trkpt><trkpt lat="44.972275462564994" lon="8.411323413465817"><ele>226.0</ele><time>2026-03-28T09:06:49Z</time></trkpt><trkpt lat="44.97214850056797" lon="8.411379156210144"><ele>224.66666666666666</ele><time>2026-03-28T09:06:50Z</time></trkpt><trkpt lat="44.971996234336" lon="8.411438996286243"><ele>223.33333333333331</ele><time>2026-03-28T09:06:51Z</time></trkpt><trkpt lat="44.97183446490077" lon="8.411510390557838"><ele>222.0</ele><time>2026-03-28T09:06:52Z</time></trkpt><trkpt lat="44.9716647757827" lon="8.41159427279489"><ele>222.0</ele><time>2026-03-28T09:06:53Z</time></trkpt><trkpt lat="44.9714964407478" lon="8.41167333635421"><ele>222.0</ele><time>2026-03-28T09:06:54Z</time></trkpt><trkpt lat="44.97133273005025" lon="8.411750170520948"><ele>222.0</ele><time>2026-03-28T09:06:55Z</time></trkpt><trkpt lat="44.971177819438864" lon="8.411823531099758"><ele>222.0</ele><time>2026-03-28T09:06:55.999Z</time></trkpt><trkpt lat="44.97101679171911" lon="8.411921272173103"><ele>222.0</ele><time>2026-03-28T09:06:56.999Z</time></trkpt><trkpt lat="44.970837275670554" lon="8.411990588012689"><ele>222.0</ele><time>2026-03-28T09:06:57.999Z</time></trkpt><trkpt lat="44.970657001624915" lon="8.41209253538915"><ele>217.66666666666669</ele><time>2026-03-28T09:06:58.999Z</time></trkpt><trkpt lat="44.97048681456799" lon="8.41219990987284"><ele>213.33333333333334</ele><time>2026-03-28T09:06:59.999Z</time></trkpt><trkpt lat="44.97033640821017" lon="8.412290540044854"><ele>209.0</ele><time>2026-03-28T09:07:00.999Z</time></trkpt><trkpt lat="44.97018808773229" lon="8.412403006296326"><ele>209.0</ele><time>2026-03-28T09:07:01.999Z</time></trkpt><trkpt lat="44.97005338707232" lon="8.412537185444021"><ele>209.0</ele><time>2026-03-28T09:07:02.999Z</time></trkpt><trkpt lat="44.96993990763349" lon="8.41265593557292"><ele>209.0</ele><time>2026-03-28T09:07:03.999Z</time></trkpt><trkpt lat="44.96982290603943" lon="8.412768772581149"><ele>209.0</ele><time>2026-03-28T09:07:04.999Z</time></trkpt><trkpt lat="44.969700019236456" lon="8.41290247537513"><ele>204.66666666666669</ele><time>2026-03-28T09:07:05.999Z</time></trkpt><trkpt lat="44.96956674749101" lon="8.413067318341637"><ele>200.33333333333331</ele><time>2026-03-28T09:07:06.999Z</time></trkpt><trkpt lat="44.969457034294464" lon="8.413228798972867"><ele>196.0</ele><time>2026-03-28T09:07:07.999Z</time></trkpt><trkpt lat="44.96936467065417" lon="8.413397143627163"><ele>196.0</ele><time>2026-03-28T09:07:08.999Z</time></trkpt><trkpt lat="44.9692741756461" lon="8.413584444887235"><ele>196.0</ele><time>2026-03-28T09:07:09.999Z</time></trkpt><trkpt lat="44.96918908699623" lon="8.413744316397397"><ele>196.0</ele><time>2026-03-28T09:07:10.999Z</time></trkpt><trkpt lat="44.969060042491336" lon="8.413874046933824"><ele>198.0</ele><time>2026-03-28T09:07:11.999Z</time></trkpt><trkpt lat="44.96891826292923" lon="8.414016173390992"><ele>200.0</ele><time>2026-03-28T09:07:12.999Z</time></trkpt><trkpt lat="44.96878376485261" lon="8.414159968523974"><ele>202.0</ele><time>2026-03-28T09:07:13.999Z</time></trkpt><trkpt lat="44.968686609210856" lon="8.414302720654078"><ele>202.0</ele><time>2026-03-28T09:07:14.999Z</time></trkpt><trkpt lat="44.96860607216663" lon="8.414470811437033"><ele>202.0</ele><time>2026-03-28T09:07:15.999Z</time></trkpt><trkpt lat="44.968546086344666" lon="8.414683912659976"><ele>202.0</ele><time>2026-03-28T09:07:16.999Z</time></trkpt><trkpt lat="44.9685065602954" lon="8.41492021655227"><ele>201.5</ele><time>2026-03-28T09:07:17.999Z</time></trkpt><trkpt lat="44.968467695494134" lon="8.415131489057984"><ele>201.0</ele><time>2026-03-28T09:07:18.999Z</time></trkpt><trkpt lat="44.96841960017886" lon="8.415335462644572"><ele>200.5</ele><time>2026-03-28T09:07:19.999Z</time></trkpt><trkpt lat="44.96835810516656" lon="8.415509424725103"><ele>200.0</ele><time>2026-03-28T09:07:20.999Z</time></trkpt><trkpt lat="44.96829846329922" lon="8.41567592605758"><ele>200.0</ele><time>2026-03-28T09:07:21.999Z</time></trkpt><trkpt lat="44.968229152445815" lon="8.41584247967883"><ele>200.0</ele><time>2026-03-28T09:07:22.999Z</time></trkpt><trkpt lat="44.9681685184108" lon="8.416011840925357"><ele>200.0</ele><time>2026-03-28T09:07:23.999Z</time></trkpt><trkpt lat="44.96812602124336" lon="8.416202646605008"><ele>200.0</ele><time>2026-03-28T09:07:24.999Z</time></trkpt><trkpt lat="44.968099004105554" lon="8.416379263015635"><ele>198.0</ele><time>2026-03-28T09:07:25.999Z</time></trkpt><trkpt lat="44.96809026303279" lon="8.416584574991987"><ele>196.0</ele><time>2026-03-28T09:07:26.999Z</time></trkpt><trkpt lat="44.96805201656038" lon="8.416798379600419"><ele>194.0</ele><time>2026-03-28T09:07:27.999Z</time></trkpt><trkpt lat="44.968034072106164" lon="8.416992801713967"><ele>192.0</ele><time>2026-03-28T09:07:28.999Z</time></trkpt><trkpt lat="44.96800922670583" lon="8.41717614611665"><ele>190.25</ele><time>2026-03-28T09:07:29.999Z</time></trkpt><trkpt lat="44.96798645856137" lon="8.417369226010496"><ele>188.5</ele><time>2026-03-28T09:07:30.999Z</time></trkpt><trkpt lat="44.967955900096825" lon="8.417559638718414"><ele>186.75</ele><time>2026-03-28T09:07:31.999Z</time></trkpt><trkpt lat="44.967923941277284" lon="8.417755027103269"><ele>185.0</ele><time>2026-03-28T09:07:32.999Z</time></trkpt><trkpt lat="44.967894401308406" lon="8.417967084458597"><ele>183.33333333333331</ele><time>2026-03-28T09:07:33.999Z</time></trkpt><trkpt lat="44.967867740998706" lon="8.418183439927372"><ele>181.66666666666666</ele><time>2026-03-28T09:07:34.999Z</time></trkpt><trkpt lat="44.967842211445095" lon="8.41840161957692"><ele>180.0</ele><time>2026-03-28T09:07:35.999Z</time></trkpt><trkpt lat="44.96780375535636" lon="8.418613677121872"><ele>178.33333333333334</ele><time>2026-03-28T09:07:36.999Z</time></trkpt><trkpt lat="44.96778388358891" lon="8.418825849349757"><ele>176.66666666666669</ele><time>2026-03-28T09:07:37.999Z</time></trkpt><trkpt lat="44.96775089189138" lon="8.419066483563409"><ele>175.0</ele><time>2026-03-28T09:07:38.999Z</time></trkpt><trkpt lat="44.96772100299292" lon="8.419294335133323"><ele>175.0</ele><time>2026-03-28T09:07:39.999Z</time></trkpt><trkpt lat="44.96769597936781" lon="8.419512578797908"><ele>175.0</ele><time>2026-03-28T09:07:40.999Z</time></trkpt><trkpt lat="44.96767124112095" lon="8.41970841554222"><ele>175.0</ele><time>2026-03-28T09:07:41.999Z</time></trkpt><trkpt lat="44.96764182592622" lon="8.419883108646161"><ele>175.0</ele><time>2026-03-28T09:07:42.999Z</time></trkpt><trkpt lat="44.96762525560336" lon="8.420057950259125"><ele>173.75</ele><time>2026-03-28T09:07:43.999Z</time></trkpt><trkpt lat="44.967599269394924" lon="8.420223394866678"><ele>172.5</ele><time>2026-03-28T09:07:44.999Z</time></trkpt><trkpt lat="44.96757406849027" lon="8.42038719982667"><ele>171.25</ele><time>2026-03-28T09:07:45.999Z</time></trkpt><trkpt lat="44.96755620995421" lon="8.420570779520942"><ele>170.0</ele><time>2026-03-28T09:07:46.999Z</time></trkpt><trkpt lat="44.96749738083349" lon="8.4207382626221"><ele>174.75</ele><time>2026-03-28T09:07:47.999Z</time></trkpt><trkpt lat="44.96743213659664" lon="8.420910855164456"><ele>179.5</ele><time>2026-03-28T09:07:48.999Z</time></trkpt><trkpt lat="44.96737390859894" lon="8.421090747267103"><ele>184.25</ele><time>2026-03-28T09:07:49.999Z</time></trkpt><trkpt lat="44.96731641182823" lon="8.421248846865547"><ele>189.0</ele><time>2026-03-28T09:07:50.999Z</time></trkpt><trkpt lat="44.96726424566335" lon="8.421400924726951"><ele>189.0</ele><time>2026-03-28T09:07:51.999Z</time></trkpt><trkpt lat="44.96722418271115" lon="8.421548670835643"><ele>189.0</ele><time>2026-03-28T09:07:52.999Z</time></trkpt><trkpt lat="44.96718568659816" lon="8.421683409536827"><ele>189.0</ele><time>2026-03-28T09:07:53.999Z</time></trkpt><trkpt lat="44.96714821744966" lon="8.421816445130917"><ele>189.0</ele><time>2026-03-28T09:07:54.999Z</time></trkpt><trkpt lat="44.96711149471063" lon="8.421935357899406"><ele>189.0</ele><time>2026-03-28T09:07:55.999Z</time></trkpt><trkpt lat="44.967076961627825" lon="8.422044987792198"><ele>189.0</ele><time>2026-03-28T09:07:56.999Z</time></trkpt><trkpt lat="44.967056986481836" lon="8.42214132000694"><ele>189.0</ele><time>2026-03-28T09:07:57.999Z</time></trkpt><trkpt lat="44.967036577046734" lon="8.422228896505398"><ele>189.0</ele><time>2026-03-28T09:07:58.999Z</time></trkpt><trkpt lat="44.96699852395328" lon="8.422341762612017"><ele>189.0</ele><time>2026-03-28T09:08:00.999Z</time></trkpt><trkpt lat="44.96691965086767" lon="8.422416819693575"><ele>189.0</ele><time>2026-03-28T09:08:04.999Z</time></trkpt><trkpt lat="44.966964455695575" lon="8.422663645072726"><ele>187.39999999999998</ele><time>2026-03-28T09:08:06.999Z</time></trkpt><trkpt lat="44.96695730755934" lon="8.422788588900131"><ele>185.8</ele><time>2026-03-28T09:08:07.999Z</time></trkpt><trkpt lat="44.966947722080484" lon="8.42291322937167"><ele>184.2</ele><time>2026-03-28T09:08:08.999Z</time></trkpt><trkpt lat="44.96695321218108" lon="8.423039492315189"><ele>182.60000000000002</ele><time>2026-03-28T09:08:09.999Z</time></trkpt><trkpt lat="44.96698322572454" lon="8.423170731314052"><ele>181.0</ele><time>2026-03-28T09:08:10.999Z</time></trkpt><trkpt lat="44.96703272355565" lon="8.42329577517192"><ele>179.5</ele><time>2026-03-28T09:08:11.999Z</time></trkpt><trkpt lat="44.96708543259165" lon="8.423421152672462"><ele>178.0</ele><time>2026-03-28T09:08:12.999Z</time></trkpt><trkpt lat="44.96712977457426" lon="8.423532053159297"><ele>176.5</ele><time>2026-03-28T09:08:13.999Z</time></trkpt><trkpt lat="44.96715916393552" lon="8.423625564308146"><ele>175.0</ele><time>2026-03-28T09:08:14.999Z</time></trkpt><trkpt lat="44.96720621021778" lon="8.423690612226263"><ele>173.5</ele><time>2026-03-28T09:08:15.999Z</time></trkpt><trkpt lat="44.96727671730218" lon="8.423718362310606"><ele>172.0</ele><time>2026-03-28T09:08:16.999Z</time></trkpt><trkpt lat="44.96736174797013" lon="8.423693783147192"><ele>172.0</ele><time>2026-03-28T09:08:17.999Z</time></trkpt><trkpt lat="44.96745771788568" lon="8.423655064827537"><ele>172.0</ele><time>2026-03-28T09:08:18.998Z</time></trkpt><trkpt lat="44.96755446647452" lon="8.42364563137469"><ele>172.0</ele><time>2026-03-28T09:08:19.998Z</time></trkpt><trkpt lat="44.96765175619716" lon="8.423661549632019"><ele>172.0</ele><time>2026-03-28T09:08:20.998Z</time></trkpt><trkpt lat="44.96775057166706" lon="8.423698147883655"><ele>172.0</ele><time>2026-03-28T09:08:21.998Z</time></trkpt><trkpt lat="44.96784642084053" lon="8.42374437642902"><ele>168.79999999999998</ele><time>2026-03-28T09:08:22.998Z</time></trkpt><trkpt lat="44.96794233967232" lon="8.423799290729297"><ele>165.6</ele><time>2026-03-28T09:08:23.998Z</time></trkpt><trkpt lat="44.96804167858147" lon="8.42385575390123"><ele>162.39999999999998</ele><time>2026-03-28T09:08:24.998Z</time></trkpt><trkpt lat="44.96813767782998" lon="8.423924003203584"><ele>159.2</ele><time>2026-03-28T09:08:26Z</time></trkpt><trkpt lat="44.96824190645018" lon="8.424013688411511"><ele>156.0</ele><time>2026-03-28T09:08:27Z</time></trkpt><trkpt lat="44.96833187180252" lon="8.424126159107864"><ele>155.25</ele><time>2026-03-28T09:08:28Z</time></trkpt><trkpt lat="44.96841919214515" lon="8.424239741593782"><ele>154.5</ele><time>2026-03-28T09:08:29Z</time></trkpt><trkpt lat="44.96850346447953" lon="8.42437230298295"><ele>153.75</ele><time>2026-03-28T09:08:30Z</time></trkpt><trkpt lat="44.96857277973947" lon="8.424515852030781"><ele>153.0</ele><time>2026-03-28T09:08:31Z</time></trkpt><trkpt lat="44.968650312355635" lon="8.424666172877183"><ele>152.5</ele><time>2026-03-28T09:08:32Z</time></trkpt><trkpt lat="44.96872232076463" lon="8.424818607357988"><ele>152.0</ele><time>2026-03-28T09:08:33Z</time></trkpt><trkpt lat="44.968792473866955" lon="8.424945964770215"><ele>151.5</ele><time>2026-03-28T09:08:34Z</time></trkpt><trkpt lat="44.96886373571395" lon="8.425077247920392"><ele>151.0</ele><time>2026-03-28T09:08:35Z</time></trkpt><trkpt lat="44.968927389746526" lon="8.425209401315147"><ele>151.0</ele><time>2026-03-28T09:08:36Z</time></trkpt><trkpt lat="44.96898790763753" lon="8.425325245734431"><ele>151.0</ele><time>2026-03-28T09:08:37Z</time></trkpt><trkpt lat="44.96904064498221" lon="8.425438654186118"><ele>151.0</ele><time>2026-03-28T09:08:38Z</time></trkpt><trkpt lat="44.96908489894633" lon="8.425540878188315"><ele>151.0</ele><time>2026-03-28T09:08:39Z</time></trkpt><trkpt lat="44.969118746279015" lon="8.42563127750175"><ele>151.0</ele><time>2026-03-28T09:08:40Z</time></trkpt><trkpt lat="44.96915400554915" lon="8.425756392493216"><ele>151.0</ele><time>2026-03-28T09:08:42Z</time></trkpt><trkpt lat="44.969179699549464" lon="8.425845927613233"><ele>151.0</ele><time>2026-03-28T09:09:00Z</time></trkpt><trkpt lat="44.969061285958865" lon="8.425892430730007"><ele>151.0</ele><time>2026-03-28T09:09:01Z</time></trkpt><trkpt lat="44.96900388529686" lon="8.425940705976455"><ele>151.0</ele><time>2026-03-28T09:09:02Z</time></trkpt><trkpt lat="44.96888505331767" lon="8.426010687008517"><ele>151.0</ele><time>2026-03-28T09:09:04Z</time></trkpt><trkpt lat="44.968808975947894" lon="8.426052732737281"><ele>151.0</ele><time>2026-03-28T09:09:05Z</time></trkpt><trkpt lat="44.96872576235522" lon="8.426098286510353"><ele>151.0</ele><time>2026-03-28T09:09:06Z</time></trkpt><trkpt lat="44.96863753697694" lon="8.426147340720533"><ele>151.0</ele><time>2026-03-28T09:09:07Z</time></trkpt><trkpt lat="44.968547214398114" lon="8.426197913451132"><ele>151.0</ele><time>2026-03-28T09:09:08Z</time></trkpt><trkpt lat="44.968463031540566" lon="8.426245513915866"><ele>151.0</ele><time>2026-03-28T09:09:09Z</time></trkpt><trkpt lat="44.968377354881156" lon="8.426305114737584"><ele>151.0</ele><time>2026-03-28T09:09:10Z</time></trkpt><trkpt lat="44.96828896422475" lon="8.426361311287193"><ele>151.0</ele><time>2026-03-28T09:09:11Z</time></trkpt><trkpt lat="44.9681969024031" lon="8.42640845263146"><ele>151.0</ele><time>2026-03-28T09:09:12Z</time></trkpt><trkpt lat="44.968103568822784" lon="8.42645706700989"><ele>151.0</ele><time>2026-03-28T09:09:13Z</time></trkpt><trkpt lat="44.96800391736416" lon="8.426519622628929"><ele>151.0</ele><time>2026-03-28T09:09:14Z</time></trkpt><trkpt lat="44.967896277709826" lon="8.426583702055002"><ele>151.0</ele><time>2026-03-28T09:09:15Z</time></trkpt><trkpt lat="44.96777668680421" lon="8.426656771089853"><ele>151.0</ele><time>2026-03-28T09:09:15.999Z</time></trkpt><trkpt lat="44.96764787071904" lon="8.426739019635548"><ele>151.0</ele><time>2026-03-28T09:09:16.999Z</time></trkpt><trkpt lat="44.96750741847566" lon="8.426822970277035"><ele>151.0</ele><time>2026-03-28T09:09:17.999Z</time></trkpt><trkpt lat="44.96735765285323" lon="8.426905632845228"><ele>151.25</ele><time>2026-03-28T09:09:18.999Z</time></trkpt><trkpt lat="44.967217992251854" lon="8.426981624904117"><ele>151.5</ele><time>2026-03-28T09:09:19.999Z</time></trkpt><trkpt lat="44.967083094001396" lon="8.4270616352832"><ele>151.75</ele><time>2026-03-28T09:09:20.999Z</time></trkpt><trkpt lat="44.966954734354296" lon="8.42713839338744"><ele>152.0</ele><time>2026-03-28T09:09:21.999Z</time></trkpt><trkpt lat="44.966822620517085" lon="8.427210051195713"><ele>151.75</ele><time>2026-03-28T09:09:22.999Z</time></trkpt><trkpt lat="44.966688635801646" lon="8.427285173749057"><ele>151.5</ele><time>2026-03-28T09:09:23.999Z</time></trkpt><trkpt lat="44.9665476267839" lon="8.427369554433891"><ele>151.25</ele><time>2026-03-28T09:09:24.999Z</time></trkpt><trkpt lat="44.96641034823683" lon="8.427450424441922"><ele>151.0</ele><time>2026-03-28T09:09:25.999Z</time></trkpt><trkpt lat="44.96627287528096" lon="8.427527292602262"><ele>151.0</ele><time>2026-03-28T09:09:26.999Z</time></trkpt><trkpt lat="44.96614920193567" lon="8.427595422207174"><ele>151.0</ele><time>2026-03-28T09:09:27.999Z</time></trkpt><trkpt lat="44.96603562688641" lon="8.427669182511785"><ele>151.0</ele><time>2026-03-28T09:09:28.999Z</time></trkpt><trkpt lat="44.96592345979382" lon="8.427733952445712"><ele>151.0</ele><time>2026-03-28T09:09:29.999Z</time></trkpt><trkpt lat="44.96582030266512" lon="8.427796624961095"><ele>151.4</ele><time>2026-03-28T09:09:30.999Z</time></trkpt><trkpt lat="44.965723924789664" lon="8.427849077955662"><ele>151.8</ele><time>2026-03-28T09:09:31.999Z</time></trkpt><trkpt lat="44.96563450945375" lon="8.427897641527494"><ele>152.20000000000002</ele><time>2026-03-28T09:09:32.999Z</time></trkpt><trkpt lat="44.96554044929451" lon="8.427958048597972"><ele>152.6</ele><time>2026-03-28T09:09:33.999Z</time></trkpt><trkpt lat="44.965450733677486" lon="8.428013847371545"><ele>153.0</ele><time>2026-03-28T09:09:34.999Z</time></trkpt><trkpt lat="44.9653718789207" lon="8.428053891328627"><ele>152.33333333333334</ele><time>2026-03-28T09:09:35.999Z</time></trkpt><trkpt lat="44.96530199961346" lon="8.428096079928032"><ele>151.66666666666666</ele><time>2026-03-28T09:09:36.999Z</time></trkpt><trkpt lat="44.96524117381681" lon="8.428132811238592"><ele>151.0</ele><time>2026-03-28T09:09:37.999Z</time></trkpt><trkpt lat="44.96515420121864" lon="8.428239157190912"><ele>150.33333333333331</ele><time>2026-03-28T09:09:39.999Z</time></trkpt><trkpt lat="44.965169429761254" lon="8.428388029038388"><ele>149.66666666666666</ele><time>2026-03-28T09:09:41.999Z</time></trkpt><trkpt lat="44.96522348397628" lon="8.428305955893029"><ele>149.0</ele><time>2026-03-28T09:09:44.999Z</time></trkpt><trkpt lat="44.96522343603187" lon="8.428174900141737"><ele>149.0</ele><time>2026-03-28T09:09:51.999Z</time></trkpt><trkpt lat="44.965352713248514" lon="8.428112740976744"><ele>149.0</ele><time>2026-03-28T09:09:52.999Z</time></trkpt><trkpt lat="44.965450636699885" lon="8.428054687096205"><ele>149.0</ele><time>2026-03-28T09:09:53.999Z</time></trkpt><trkpt lat="44.965552456440996" lon="8.427995262248968"><ele>149.0</ele><time>2026-03-28T09:09:54.999Z</time></trkpt><trkpt lat="44.96564691460957" lon="8.42792133261705"><ele>149.0</ele><time>2026-03-28T09:09:55.999Z</time></trkpt><trkpt lat="44.96573586821933" lon="8.427872901949653"><ele>149.0</ele><time>2026-03-28T09:09:56.999Z</time></trkpt><trkpt lat="44.96580975437631" lon="8.427831257546295"><ele>149.0</ele><time>2026-03-28T09:09:57.999Z</time></trkpt><trkpt lat="44.96588578539876" lon="8.427787134432492"><ele>149.0</ele><time>2026-03-28T09:09:58.999Z</time></trkpt><trkpt lat="44.96599462281596" lon="8.427746991522143"><ele>149.0</ele><time>2026-03-28T09:10:00.999Z</time></trkpt><trkpt lat="44.96605891069749" lon="8.427788521618597"><ele>149.0</ele><time>2026-03-28T09:10:02.999Z</time></trkpt><trkpt lat="44.96614232232308" lon="8.428066167456146"><ele>149.0</ele><time>2026-03-28T09:10:04.999Z</time></trkpt><trkpt lat="44.96618960265454" lon="8.42820665725613"><ele>149.0</ele><time>2026-03-28T09:10:05.999Z</time></trkpt><trkpt lat="44.96624002494002" lon="8.428368411339969"><ele>149.0</ele><time>2026-03-28T09:10:06.999Z</time></trkpt><trkpt lat="44.966302678790704" lon="8.428537278913982"><ele>149.0</ele><time>2026-03-28T09:10:07.999Z</time></trkpt><trkpt lat="44.966370595215125" lon="8.428709742349486"><ele>149.66666666666666</ele><time>2026-03-28T09:10:08.999Z</time></trkpt><trkpt lat="44.966436742497926" lon="8.428886405623965"><ele>150.33333333333334</ele><time>2026-03-28T09:10:09.999Z</time></trkpt><trkpt lat="44.96651866826635" lon="8.429068321583475"><ele>151.0</ele><time>2026-03-28T09:10:10.999Z</time></trkpt><trkpt lat="44.96661612104977" lon="8.429248165348405"><ele>152.33333333333334</ele><time>2026-03-28T09:10:11.999Z</time></trkpt><trkpt lat="44.96673245791829" lon="8.42940648129986"><ele>153.66666666666666</ele><time>2026-03-28T09:10:12.999Z</time></trkpt><trkpt lat="44.96686209167999" lon="8.429547727634537"><ele>155.0</ele><time>2026-03-28T09:10:13.999Z</time></trkpt><trkpt lat="44.96700537824372" lon="8.42968147200603"><ele>155.0</ele><time>2026-03-28T09:10:14.999Z</time></trkpt><trkpt lat="44.967167145345044" lon="8.429811681065638"><ele>155.0</ele><time>2026-03-28T09:10:15.999Z</time></trkpt><trkpt lat="44.967316062309884" lon="8.42994340604067"><ele>155.0</ele><time>2026-03-28T09:10:16.999Z</time></trkpt><trkpt lat="44.96747769297095" lon="8.430081902391006"><ele>158.0</ele><time>2026-03-28T09:10:17.999Z</time></trkpt><trkpt lat="44.96762954472953" lon="8.430208352765755"><ele>161.0</ele><time>2026-03-28T09:10:18.999Z</time></trkpt><trkpt lat="44.9677836914102" lon="8.430336789495305"><ele>164.0</ele><time>2026-03-28T09:10:19.999Z</time></trkpt><trkpt lat="44.96792912460865" lon="8.430466330843725"><ele>163.0</ele><time>2026-03-28T09:10:20.999Z</time></trkpt><trkpt lat="44.968070554687735" lon="8.430578346877141"><ele>162.0</ele><time>2026-03-28T09:10:21.999Z</time></trkpt><trkpt lat="44.96823226045324" lon="8.4306715125739"><ele>161.0</ele><time>2026-03-28T09:10:22.999Z</time></trkpt><trkpt lat="44.96840314194516" lon="8.430737354646979"><ele>164.0</ele><time>2026-03-28T09:10:23.999Z</time></trkpt><trkpt lat="44.96857665179326" lon="8.430804481068785"><ele>167.0</ele><time>2026-03-28T09:10:24.999Z</time></trkpt><trkpt lat="44.96874820098135" lon="8.43086708949817"><ele>170.0</ele><time>2026-03-28T09:10:25.999Z</time></trkpt><trkpt lat="44.968916222212556" lon="8.430932700312795"><ele>170.0</ele><time>2026-03-28T09:10:26.999Z</time></trkpt><trkpt lat="44.96909334473633" lon="8.431006583121555"><ele>170.0</ele><time>2026-03-28T09:10:27.999Z</time></trkpt><trkpt lat="44.969267497251565" lon="8.43107453428909"><ele>170.0</ele><time>2026-03-28T09:10:28.999Z</time></trkpt><trkpt lat="44.96944347767018" lon="8.43114099376879"><ele>171.33333333333331</ele><time>2026-03-28T09:10:29.999Z</time></trkpt><trkpt lat="44.969611815874856" lon="8.43120310076477"><ele>172.66666666666666</ele><time>2026-03-28T09:10:31Z</time></trkpt><trkpt lat="44.969762502816494" lon="8.431279619450848"><ele>174.0</ele><time>2026-03-28T09:10:32Z</time></trkpt><trkpt lat="44.9699095387387" lon="8.431359525044265"><ele>176.33333333333334</ele><time>2026-03-28T09:10:33Z</time></trkpt><trkpt lat="44.97002864077031" lon="8.43148491103675"><ele>178.66666666666669</ele><time>2026-03-28T09:10:34Z</time></trkpt><trkpt lat="44.970148037055836" lon="8.431639421261284"><ele>181.0</ele><time>2026-03-28T09:10:35Z</time></trkpt><trkpt lat="44.97026842011041" lon="8.43179761985055"><ele>181.0</ele><time>2026-03-28T09:10:36Z</time></trkpt><trkpt lat="44.97038438069202" lon="8.43195063510033"><ele>181.0</ele><time>2026-03-28T09:10:37Z</time></trkpt><trkpt lat="44.970504194012705" lon="8.432082510264044"><ele>181.0</ele><time>2026-03-28T09:10:38Z</time></trkpt><trkpt lat="44.97063408061782" lon="8.432182004761131"><ele>180.0</ele><time>2026-03-28T09:10:39Z</time></trkpt><trkpt lat="44.97077825193643" lon="8.432230590835431"><ele>179.0</ele><time>2026-03-28T09:10:40Z</time></trkpt><trkpt lat="44.97093279166317" lon="8.432250186709531"><ele>178.0</ele><time>2026-03-28T09:10:41Z</time></trkpt><trkpt lat="44.9710833646003" lon="8.432309641737382"><ele>181.33333333333334</ele><time>2026-03-28T09:10:42Z</time></trkpt><trkpt lat="44.9712229183619" lon="8.432437049190929"><ele>184.66666666666666</ele><time>2026-03-28T09:10:43Z</time></trkpt><trkpt lat="44.97136315299393" lon="8.432602645235361"><ele>188.0</ele><time>2026-03-28T09:10:44Z</time></trkpt><trkpt lat="44.97149669315262" lon="8.432772238036355"><ele>188.0</ele><time>2026-03-28T09:10:45Z</time></trkpt><trkpt lat="44.971633142027315" lon="8.432962004839892"><ele>188.0</ele><time>2026-03-28T09:10:46Z</time></trkpt><trkpt lat="44.971771194806415" lon="8.433129330931681"><ele>188.0</ele><time>2026-03-28T09:10:47Z</time></trkpt><trkpt lat="44.97190662732879" lon="8.43330513035589"><ele>190.0</ele><time>2026-03-28T09:10:48Z</time></trkpt><trkpt lat="44.97204569043443" lon="8.433472357608704"><ele>192.0</ele><time>2026-03-28T09:10:49Z</time></trkpt><trkpt lat="44.97218272226819" lon="8.433641291077697"><ele>194.0</ele><time>2026-03-28T09:10:50Z</time></trkpt><trkpt lat="44.97230779842215" lon="8.433798777675838"><ele>196.0</ele><time>2026-03-28T09:10:51Z</time></trkpt><trkpt lat="44.97242834815062" lon="8.433961404269706"><ele>198.0</ele><time>2026-03-28T09:10:52Z</time></trkpt><trkpt lat="44.97253660024235" lon="8.434133601759834"><ele>200.0</ele><time>2026-03-28T09:10:53Z</time></trkpt><trkpt lat="44.97263466357367" lon="8.43430410469383"><ele>200.0</ele><time>2026-03-28T09:10:54Z</time></trkpt><trkpt lat="44.97272118277276" lon="8.434449658454401"><ele>200.0</ele><time>2026-03-28T09:10:55Z</time></trkpt><trkpt lat="44.97279921429179" lon="8.43463300299915"><ele>200.0</ele><time>2026-03-28T09:10:56Z</time></trkpt><trkpt lat="44.97289714109093" lon="8.43480730924627"><ele>200.0</ele><time>2026-03-28T09:10:57Z</time></trkpt><trkpt lat="44.9729650509706" lon="8.434981091827261"><ele>200.0</ele><time>2026-03-28T09:10:58Z</time></trkpt><trkpt lat="44.97305840746437" lon="8.435130895983901"><ele>200.0</ele><time>2026-03-28T09:10:59Z</time></trkpt><trkpt lat="44.97317666271973" lon="8.435258240473534"><ele>200.0</ele><time>2026-03-28T09:11:00Z</time></trkpt><trkpt lat="44.973322710641526" lon="8.435350203385926"><ele>200.66666666666669</ele><time>2026-03-28T09:11:01Z</time></trkpt><trkpt lat="44.973494271931685" lon="8.43540997528469"><ele>201.33333333333331</ele><time>2026-03-28T09:11:02Z</time></trkpt><trkpt lat="44.97367494845943" lon="8.435449220588218"><ele>202.0</ele><time>2026-03-28T09:11:03Z</time></trkpt><trkpt lat="44.973849362332636" lon="8.435450094629276"><ele>202.0</ele><time>2026-03-28T09:11:04Z</time></trkpt><trkpt lat="44.97402921050223" lon="8.435415928786874"><ele>202.0</ele><time>2026-03-28T09:11:05Z</time></trkpt><trkpt lat="44.974217434837406" lon="8.435369553743184"><ele>202.0</ele><time>2026-03-28T09:11:06Z</time></trkpt><trkpt lat="44.974410139030816" lon="8.435326211430604"><ele>203.66666666666666</ele><time>2026-03-28T09:11:07Z</time></trkpt><trkpt lat="44.97460698732675" lon="8.435270489617688"><ele>205.33333333333331</ele><time>2026-03-28T09:11:08Z</time></trkpt><trkpt lat="44.97479843391723" lon="8.435224432408592"><ele>207.0</ele><time>2026-03-28T09:11:09Z</time></trkpt><trkpt lat="44.974964389756515" lon="8.435184132583643"><ele>206.75</ele><time>2026-03-28T09:11:10Z</time></trkpt><trkpt lat="44.97510687287214" lon="8.435153250696564"><ele>206.5</ele><time>2026-03-28T09:11:11Z</time></trkpt><trkpt lat="44.975239128536025" lon="8.435123558437297"><ele>206.25</ele><time>2026-03-28T09:11:12Z</time></trkpt><trkpt lat="44.975351064525455" lon="8.435099960087186"><ele>206.0</ele><time>2026-03-28T09:11:13Z</time></trkpt><trkpt lat="44.97546821470957" lon="8.435060516471708"><ele>206.0</ele><time>2026-03-28T09:11:14Z</time></trkpt><trkpt lat="44.97559127203074" lon="8.435004244553758"><ele>206.0</ele><time>2026-03-28T09:11:15Z</time></trkpt><trkpt lat="44.97571772149245" lon="8.434915814548894"><ele>206.0</ele><time>2026-03-28T09:11:16Z</time></trkpt><trkpt lat="44.9758513049861" lon="8.434805772493345"><ele>206.0</ele><time>2026-03-28T09:11:16.999Z</time></trkpt><trkpt lat="44.97598122475846" lon="8.434690719737402"><ele>204.75</ele><time>2026-03-28T09:11:17.999Z</time></trkpt><trkpt lat="44.97609123324258" lon="8.434581078047543"><ele>203.5</ele><time>2026-03-28T09:11:18.999Z</time></trkpt><trkpt lat="44.97620641959045" lon="8.43448521414254"><ele>202.25</ele><time>2026-03-28T09:11:19.999Z</time></trkpt><trkpt lat="44.97634275007929" lon="8.43445483047234"><ele>201.0</ele><time>2026-03-28T09:11:20.999Z</time></trkpt><trkpt lat="44.976487790896286" lon="8.434446197170411"><ele>201.0</ele><time>2026-03-28T09:11:21.999Z</time></trkpt><trkpt lat="44.976643907335486" lon="8.434449856247918"><ele>201.0</ele><time>2026-03-28T09:11:22.999Z</time></trkpt><trkpt lat="44.97679626694885" lon="8.434495982901284"><ele>201.0</ele><time>2026-03-28T09:11:23.999Z</time></trkpt><trkpt lat="44.97692997055572" lon="8.434525998170367"><ele>201.0</ele><time>2026-03-28T09:11:24.999Z</time></trkpt><trkpt lat="44.97705643365517" lon="8.434552036291114"><ele>200.5</ele><time>2026-03-28T09:11:25.999Z</time></trkpt><trkpt lat="44.977190731980784" lon="8.434592414565389"><ele>200.0</ele><time>2026-03-28T09:11:26.999Z</time></trkpt><trkpt lat="44.977330013647205" lon="8.43466239195388"><ele>199.5</ele><time>2026-03-28T09:11:27.999Z</time></trkpt><trkpt lat="44.97746636747226" lon="8.434762431031315"><ele>199.0</ele><time>2026-03-28T09:11:28.999Z</time></trkpt><trkpt lat="44.97758728848755" lon="8.434880159151247"><ele>200.6</ele><time>2026-03-28T09:11:29.999Z</time></trkpt><trkpt lat="44.97769830180697" lon="8.434990544908365"><ele>202.2</ele><time>2026-03-28T09:11:30.999Z</time></trkpt><trkpt lat="44.97780616983608" lon="8.435081720654356"><ele>203.79999999999998</ele><time>2026-03-28T09:11:31.999Z</time></trkpt><trkpt lat="44.97789049987165" lon="8.435157579338316"><ele>205.39999999999998</ele><time>2026-03-28T09:11:32.999Z</time></trkpt><trkpt lat="44.97795967066871" lon="8.435217415491215"><ele>207.0</ele><time>2026-03-28T09:11:33.999Z</time></trkpt><trkpt lat="44.97806048138835" lon="8.435290505616694"><ele>207.0</ele><time>2026-03-28T09:11:35.999Z</time></trkpt><trkpt lat="44.97813810999931" lon="8.435230035052692"><ele>207.0</ele><time>2026-03-28T09:11:37.999Z</time></trkpt><trkpt lat="44.97823566448463" lon="8.435195481473826"><ele>207.0</ele><time>2026-03-28T09:11:39.999Z</time></trkpt><trkpt lat="44.97829941347953" lon="8.43514469087402"><ele>207.0</ele><time>2026-03-28T09:11:40.999Z</time></trkpt><trkpt lat="44.97840950499986" lon="8.435102875336762"><ele>207.0</ele><time>2026-03-28T09:11:41.999Z</time></trkpt><trkpt lat="44.97852371183166" lon="8.435054251813987"><ele>206.0</ele><time>2026-03-28T09:11:42.999Z</time></trkpt><trkpt lat="44.978650612699255" lon="8.435005512493674"><ele>205.0</ele><time>2026-03-28T09:11:43.999Z</time></trkpt><trkpt lat="44.978764706432564" lon="8.43494823736702"><ele>204.0</ele><time>2026-03-28T09:11:44.999Z</time></trkpt><trkpt lat="44.97886764271578" lon="8.434896395350046"><ele>203.0</ele><time>2026-03-28T09:11:45.999Z</time></trkpt><trkpt lat="44.97896481648454" lon="8.434842099396844"><ele>203.0</ele><time>2026-03-28T09:11:46.999Z</time></trkpt><trkpt lat="44.97905883048039" lon="8.434775009520534"><ele>203.0</ele><time>2026-03-28T09:11:47.999Z</time></trkpt><trkpt lat="44.97915478699022" lon="8.434691199468647"><ele>203.0</ele><time>2026-03-28T09:11:48.999Z</time></trkpt><trkpt lat="44.97925229820648" lon="8.434587299777405"><ele>203.0</ele><time>2026-03-28T09:11:49.999Z</time></trkpt><trkpt lat="44.97934741193676" lon="8.434480395071015"><ele>203.75</ele><time>2026-03-28T09:11:50.999Z</time></trkpt><trkpt lat="44.97945286135775" lon="8.43438964347534"><ele>204.5</ele><time>2026-03-28T09:11:51.999Z</time></trkpt><trkpt lat="44.979539129793956" lon="8.434273012974353"><ele>205.25</ele><time>2026-03-28T09:11:52.999Z</time></trkpt><trkpt lat="44.9796471696889" lon="8.434192237067826"><ele>206.0</ele><time>2026-03-28T09:11:53.999Z</time></trkpt><trkpt lat="44.979734765070376" lon="8.434114586922291"><ele>206.0</ele><time>2026-03-28T09:11:54.999Z</time></trkpt><trkpt lat="44.97983475517183" lon="8.434044179694583"><ele>206.0</ele><time>2026-03-28T09:11:55.999Z</time></trkpt><trkpt lat="44.97993757146343" lon="8.43397529205493"><ele>206.0</ele><time>2026-03-28T09:11:56.999Z</time></trkpt><trkpt lat="44.98004188397174" lon="8.43389351303545"><ele>206.0</ele><time>2026-03-28T09:11:57.999Z</time></trkpt><trkpt lat="44.98015937876432" lon="8.433841811516185"><ele>206.00000000000003</ele><time>2026-03-28T09:11:58.999Z</time></trkpt><trkpt lat="44.980260870495044" lon="8.433787718147721"><ele>206.0</ele><time>2026-03-28T09:11:59.999Z</time></trkpt><trkpt lat="44.98035106651347" lon="8.433746411910786"><ele>206.0</ele><time>2026-03-28T09:12:00.999Z</time></trkpt><trkpt lat="44.98043397894522" lon="8.433716299825527"><ele>206.0</ele><time>2026-03-28T09:12:01.999Z</time></trkpt><trkpt lat="44.98050587498531" lon="8.433683320640034"><ele>206.00000000000003</ele><time>2026-03-28T09:12:02.999Z</time></trkpt><trkpt lat="44.98057028516888" lon="8.4336557628119"><ele>206.0</ele><time>2026-03-28T09:12:03.999Z</time></trkpt><trkpt lat="44.980646249188545" lon="8.433653506323823"><ele>206.0</ele><time>2026-03-28T09:12:04.999Z</time></trkpt><trkpt lat="44.980741588525184" lon="8.433604056524311"><ele>206.0</ele><time>2026-03-28T09:12:05.999Z</time></trkpt><trkpt lat="44.980856278913734" lon="8.433584667478728"><ele>206.0</ele><time>2026-03-28T09:12:06.999Z</time></trkpt><trkpt lat="44.98094518212856" lon="8.433549312489273"><ele>206.0</ele><time>2026-03-28T09:12:07.999Z</time></trkpt><trkpt lat="44.981020624794624" lon="8.433505475857885"><ele>206.0</ele><time>2026-03-28T09:12:08.999Z</time></trkpt><trkpt lat="44.98108954348592" lon="8.433453403120868"><ele>207.33333333333334</ele><time>2026-03-28T09:12:09.999Z</time></trkpt><trkpt lat="44.98116408634896" lon="8.433456263983942"><ele>208.66666666666669</ele><time>2026-03-28T09:12:10.999Z</time></trkpt><trkpt lat="44.981236255858164" lon="8.43342394957365"><ele>210.0</ele><time>2026-03-28T09:12:11.999Z</time></trkpt><trkpt lat="44.98131574190807" lon="8.433385378050437"><ele>211.33333333333331</ele><time>2026-03-28T09:12:12.999Z</time></trkpt><trkpt lat="44.98139651653345" lon="8.433357820802788"><ele>212.66666666666666</ele><time>2026-03-28T09:12:13.999Z</time></trkpt><trkpt lat="44.981460637429564" lon="8.433331945498988"><ele>214.0</ele><time>2026-03-28T09:12:14.999Z</time></trkpt><trkpt lat="44.981527385985565" lon="8.433285254894122"><ele>212.79999999999998</ele><time>2026-03-28T09:12:15.999Z</time></trkpt><trkpt lat="44.98168994854597" lon="8.433176223105582"><ele>211.59999999999997</ele><time>2026-03-28T09:12:18.999Z</time></trkpt><trkpt lat="44.981768513107426" lon="8.433126775878428"><ele>210.4</ele><time>2026-03-28T09:12:20.999Z</time></trkpt><trkpt lat="44.981820965321134" lon="8.433076118752846"><ele>209.2</ele><time>2026-03-28T09:12:21.999Z</time></trkpt><trkpt lat="44.981889448172254" lon="8.433016759997079"><ele>208.0</ele><time>2026-03-28T09:12:22.999Z</time></trkpt><trkpt lat="44.98194472883071" lon="8.432964188155657"><ele>206.4</ele><time>2026-03-28T09:12:23.999Z</time></trkpt><trkpt lat="44.98199723801171" lon="8.432904300881445"><ele>204.8</ele><time>2026-03-28T09:12:24.999Z</time></trkpt><trkpt lat="44.982083413372116" lon="8.432768878022843"><ele>203.2</ele><time>2026-03-28T09:12:26.999Z</time></trkpt><trkpt lat="44.98211179445835" lon="8.432627306215128"><ele>201.6</ele><time>2026-03-28T09:12:28.999Z</time></trkpt><trkpt lat="44.98212451408406" lon="8.432453955002412"><ele>200.0</ele><time>2026-03-28T09:12:30.999Z</time></trkpt><trkpt lat="44.982114560254246" lon="8.432340065820702"><ele>200.00000000000003</ele><time>2026-03-28T09:12:31.999Z</time></trkpt><trkpt lat="44.9820935488139" lon="8.43222042066368"><ele>200.0</ele><time>2026-03-28T09:12:32.999Z</time></trkpt><trkpt lat="44.98208586810323" lon="8.432101070556655"><ele>200.0</ele><time>2026-03-28T09:12:33.999Z</time></trkpt><trkpt lat="44.98206527831781" lon="8.431984148624476"><ele>200.0</ele><time>2026-03-28T09:12:34.999Z</time></trkpt><trkpt lat="44.982038581579474" lon="8.431894917835802"><ele>200.00000000000003</ele><time>2026-03-28T09:12:35.999Z</time></trkpt><trkpt lat="44.982035918041596" lon="8.431798971811796"><ele>200.0</ele><time>2026-03-28T09:12:37Z</time></trkpt><trkpt lat="44.98207202573951" lon="8.431699415846065"><ele>199.00000000000003</ele><time>2026-03-28T09:12:38Z</time></trkpt><trkpt lat="44.98212252592421" lon="8.43162472422154"><ele>198.0</ele><time>2026-03-28T09:12:39Z</time></trkpt><trkpt lat="44.98219538743469" lon="8.43158058296156"><ele>197.0</ele><time>2026-03-28T09:12:40Z</time></trkpt><trkpt lat="44.98226233283529" lon="8.431576326796502"><ele>196.0</ele><time>2026-03-28T09:12:41Z</time></trkpt><trkpt lat="44.98235068059597" lon="8.431593127390682"><ele>195.00000000000003</ele><time>2026-03-28T09:12:42Z</time></trkpt><trkpt lat="44.982434225633135" lon="8.431652238353015"><ele>194.0</ele><time>2026-03-28T09:12:43Z</time></trkpt><trkpt lat="44.98250448104984" lon="8.431715231572499"><ele>190.2</ele><time>2026-03-28T09:12:44Z</time></trkpt><trkpt lat="44.98260318672037" lon="8.431683374418613"><ele>186.39999999999998</ele><time>2026-03-28T09:12:45Z</time></trkpt><trkpt lat="44.98269629047227" lon="8.4316865623603"><ele>182.6</ele><time>2026-03-28T09:12:46Z</time></trkpt><trkpt lat="44.98277859956029" lon="8.43172051406614"><ele>178.8</ele><time>2026-03-28T09:12:47Z</time></trkpt><trkpt lat="44.98286925421034" lon="8.431719349599746"><ele>175.0</ele><time>2026-03-28T09:12:48Z</time></trkpt><trkpt lat="44.982966191080216" lon="8.431719372744933"><ele>175.0</ele><time>2026-03-28T09:12:49Z</time></trkpt><trkpt lat="44.98302795406191" lon="8.43176913940085"><ele>175.0</ele><time>2026-03-28T09:12:50Z</time></trkpt><trkpt lat="44.9831140583844" lon="8.431771238963378"><ele>175.0</ele><time>2026-03-28T09:12:51Z</time></trkpt><trkpt lat="44.983200657307684" lon="8.431776558189254"><ele>175.0</ele><time>2026-03-28T09:12:52Z</time></trkpt><trkpt lat="44.983292941108516" lon="8.431789681680678"><ele>175.0</ele><time>2026-03-28T09:12:53Z</time></trkpt><trkpt lat="44.98337911538715" lon="8.431800987827186"><ele>175.0</ele><time>2026-03-28T09:12:54Z</time></trkpt><trkpt lat="44.983469210585696" lon="8.431783705576832"><ele>172.57142857142858</ele><time>2026-03-28T09:12:55Z</time></trkpt><trkpt lat="44.9834107571078" lon="8.431817193537062"><ele>170.14285714285714</ele><time>2026-03-28T09:26:47.999Z</time></trkpt><trkpt lat="44.98347067164533" lon="8.431851780292124"><ele>167.71428571428572</ele><time>2026-03-28T09:27:13.999Z</time></trkpt><trkpt lat="44.98353420934194" lon="8.431870546809648"><ele>165.28571428571428</ele><time>2026-03-28T09:27:19Z</time></trkpt><trkpt lat="44.98360690673421" lon="8.431879732617263"><ele>162.85714285714286</ele><time>2026-03-28T09:27:26Z</time></trkpt><trkpt lat="44.983678102053155" lon="8.431893220210544"><ele>160.42857142857144</ele><time>2026-03-28T09:27:34Z</time></trkpt><trkpt lat="44.98374593351494" lon="8.431916990955552"><ele>158.0</ele><time>2026-03-28T09:27:39Z</time></trkpt><trkpt lat="44.98381364877451" lon="8.431927739163758"><ele>158.00000000000003</ele><time>2026-03-28T09:27:44Z</time></trkpt><trkpt lat="44.98388215166235" lon="8.431927581037646"><ele>158.0</ele><time>2026-03-28T09:27:49Z</time></trkpt><trkpt lat="44.98394514413176" lon="8.431935114287091"><ele>158.0</ele><time>2026-03-28T09:27:53.999Z</time></trkpt><trkpt lat="44.984013903931356" lon="8.431963697830936"><ele>158.0</ele><time>2026-03-28T09:27:58.999Z</time></trkpt><trkpt lat="44.98408251605891" lon="8.431979754254018"><ele>158.0</ele><time>2026-03-28T09:28:03.999Z</time></trkpt><trkpt lat="44.984146576315915" lon="8.431982722467406"><ele>158.00000000000003</ele><time>2026-03-28T09:28:08.999Z</time></trkpt><trkpt lat="44.98421680405031" lon="8.431971091247274"><ele>158.0</ele><time>2026-03-28T09:28:13.999Z</time></trkpt><trkpt lat="44.984292588412096" lon="8.431981206905421"><ele>156.16666666666666</ele><time>2026-03-28T09:28:16.999Z</time></trkpt><trkpt lat="44.98436983189167" lon="8.431985702614472"><ele>154.33333333333331</ele><time>2026-03-28T09:28:20.999Z</time></trkpt><trkpt lat="44.984453390502885" lon="8.431990425906017"><ele>152.5</ele><time>2026-03-28T09:28:23.999Z</time></trkpt><trkpt lat="44.984518272013936" lon="8.431987758130694"><ele>150.66666666666666</ele><time>2026-03-28T09:28:25.999Z</time></trkpt><trkpt lat="44.98460787462012" lon="8.431988336546459"><ele>148.83333333333334</ele><time>2026-03-28T09:28:28.999Z</time></trkpt><trkpt lat="44.984698661783035" lon="8.43199757620301"><ele>147.0</ele><time>2026-03-28T09:28:31.999Z</time></trkpt><trkpt lat="44.98476246883032" lon="8.432006986550958"><ele>147.0</ele><time>2026-03-28T09:28:33.999Z</time></trkpt><trkpt lat="44.98484526688048" lon="8.432015630567493"><ele>147.0</ele><time>2026-03-28T09:28:36.999Z</time></trkpt><trkpt lat="44.98490357910967" lon="8.431954127211407"><ele>147.0</ele><time>2026-03-28T09:28:38.999Z</time></trkpt><trkpt lat="44.98499056668396" lon="8.431924379056658"><ele>147.0</ele><time>2026-03-28T09:28:41.999Z</time></trkpt><trkpt lat="44.98507682221904" lon="8.431916950176111"><ele>147.0</ele><time>2026-03-28T09:28:44.999Z</time></trkpt><trkpt lat="44.98513999703547" lon="8.43192350019818"><ele>147.0</ele><time>2026-03-28T09:28:46.999Z</time></trkpt><trkpt lat="44.98522586176144" lon="8.431913511099308"><ele>146.14285714285714</ele><time>2026-03-28T09:28:49.999Z</time></trkpt><trkpt lat="44.985297009035044" lon="8.431909549660789"><ele>145.28571428571428</ele><time>2026-03-28T09:28:52.999Z</time></trkpt><trkpt lat="44.98537408746226" lon="8.431898217464173"><ele>144.42857142857144</ele><time>2026-03-28T09:28:55.999Z</time></trkpt><trkpt lat="44.985426510618744" lon="8.43195528441162"><ele>143.57142857142856</ele><time>2026-03-28T09:28:59.999Z</time></trkpt><trkpt lat="44.98546866812856" lon="8.432041325152586"><ele>142.71428571428572</ele><time>2026-03-28T09:29:04.999Z</time></trkpt><trkpt lat="44.985513561331125" lon="8.432112366007075"><ele>141.85714285714286</ele><time>2026-03-28T09:29:09.999Z</time></trkpt><trkpt lat="44.985560901760586" lon="8.432178809529168"><ele>141.0</ele><time>2026-03-28T09:29:15.999Z</time></trkpt><trkpt lat="44.9856197057096" lon="8.432263485547976"><ele>141.0</ele><time>2026-03-28T09:30:58.999Z</time></trkpt><trkpt lat="44.98567795884379" lon="8.43229981779501"><ele>141.0</ele><time>2026-03-28T09:30:59.999Z</time></trkpt><trkpt lat="44.985759014477225" lon="8.432412687870777"><ele>141.0</ele><time>2026-03-28T09:31:01.999Z</time></trkpt><trkpt lat="44.98582081557295" lon="8.432563803150536"><ele>141.0</ele><time>2026-03-28T09:31:03.999Z</time></trkpt><trkpt lat="44.98584055858898" lon="8.432723366674669"><ele>141.0</ele><time>2026-03-28T09:31:05.999Z</time></trkpt><trkpt lat="44.985842002466576" lon="8.432904304676901"><ele>141.4</ele><time>2026-03-28T09:31:07.999Z</time></trkpt><trkpt lat="44.98584619653762" lon="8.43300209087578"><ele>141.8</ele><time>2026-03-28T09:31:08.999Z</time></trkpt><trkpt lat="44.98585149665681" lon="8.43311353761658"><ele>142.20000000000002</ele><time>2026-03-28T09:31:09.999Z</time></trkpt><trkpt lat="44.985854946423544" lon="8.43324564125591"><ele>142.6</ele><time>2026-03-28T09:31:10.999Z</time></trkpt><trkpt lat="44.98585639963725" lon="8.433388239195782"><ele>143.0</ele><time>2026-03-28T09:31:11.999Z</time></trkpt><trkpt lat="44.98585977748266" lon="8.433541377988279"><ele>143.0</ele><time>2026-03-28T09:31:12.999Z</time></trkpt><trkpt lat="44.9858645160292" lon="8.433678860928746"><ele>143.0</ele><time>2026-03-28T09:31:13.999Z</time></trkpt><trkpt lat="44.98587093034875" lon="8.433819007953728"><ele>143.0</ele><time>2026-03-28T09:31:14.999Z</time></trkpt><trkpt lat="44.98587867960144" lon="8.433957919882745"><ele>143.0</ele><time>2026-03-28T09:31:15.999Z</time></trkpt><trkpt lat="44.98588645555683" lon="8.434094207787242"><ele>143.0</ele><time>2026-03-28T09:31:16.999Z</time></trkpt><trkpt lat="44.985892116917" lon="8.434235430394668"><ele>143.4</ele><time>2026-03-28T09:31:17.999Z</time></trkpt><trkpt lat="44.98589815777179" lon="8.434368209043965"><ele>143.8</ele><time>2026-03-28T09:31:18.999Z</time></trkpt><trkpt lat="44.98591172874882" lon="8.43449431144821"><ele>144.2</ele><time>2026-03-28T09:31:19.999Z</time></trkpt><trkpt lat="44.98593018811819" lon="8.434626386522327"><ele>144.6</ele><time>2026-03-28T09:31:20.999Z</time></trkpt><trkpt lat="44.985943215840635" lon="8.43476611521597"><ele>145.0</ele><time>2026-03-28T09:31:21.999Z</time></trkpt><trkpt lat="44.98595251209453" lon="8.43489702718204"><ele>145.0</ele><time>2026-03-28T09:31:22.999Z</time></trkpt><trkpt lat="44.98596447440868" lon="8.435029579625702"><ele>145.0</ele><time>2026-03-28T09:31:23.999Z</time></trkpt><trkpt lat="44.98597527837477" lon="8.43517229577063"><ele>145.0</ele><time>2026-03-28T09:31:24.999Z</time></trkpt><trkpt lat="44.9859843588608" lon="8.435316730986536"><ele>145.0</ele><time>2026-03-28T09:31:25.999Z</time></trkpt><trkpt lat="44.985991230207674" lon="8.435462153117053"><ele>145.0</ele><time>2026-03-28T09:31:26.999Z</time></trkpt><trkpt lat="44.98599786474942" lon="8.435590814863032"><ele>144.28571428571428</ele><time>2026-03-28T09:31:27.999Z</time></trkpt><trkpt lat="44.98600306204586" lon="8.435702910383833"><ele>143.57142857142858</ele><time>2026-03-28T09:31:28.999Z</time></trkpt><trkpt lat="44.98601118636397" lon="8.435802470571915"><ele>142.85714285714286</ele><time>2026-03-28T09:31:30Z</time></trkpt><trkpt lat="44.98602114721425" lon="8.435896800710383"><ele>142.14285714285714</ele><time>2026-03-28T09:31:31Z</time></trkpt><trkpt lat="44.98603551211067" lon="8.436005900472733"><ele>141.42857142857144</ele><time>2026-03-28T09:31:32Z</time></trkpt><trkpt lat="44.986048376016846" lon="8.436100141255709"><ele>140.71428571428572</ele><time>2026-03-28T09:31:33Z</time></trkpt><trkpt lat="44.98604687493914" lon="8.436194588627648"><ele>140.0</ele><time>2026-03-28T09:31:34Z</time></trkpt><trkpt lat="44.986024917355024" lon="8.43629677770558"><ele>140.5</ele><time>2026-03-28T09:31:35Z</time></trkpt><trkpt lat="44.98598143894152" lon="8.436398292510793"><ele>141.0</ele><time>2026-03-28T09:31:36Z</time></trkpt><trkpt lat="44.985917462020105" lon="8.436490575632913"><ele>141.5</ele><time>2026-03-28T09:31:37Z</time></trkpt><trkpt lat="44.9858447990758" lon="8.436571242335582"><ele>142.0</ele><time>2026-03-28T09:31:38Z</time></trkpt><trkpt lat="44.98577713425185" lon="8.436634910067905"><ele>142.5</ele><time>2026-03-28T09:31:39Z</time></trkpt><trkpt lat="44.98570104663421" lon="8.4366776463759"><ele>143.0</ele><time>2026-03-28T09:31:40Z</time></trkpt><trkpt lat="44.985629190719166" lon="8.43668792892715"><ele>143.4</ele><time>2026-03-28T09:31:41Z</time></trkpt><trkpt lat="44.9855510691338" lon="8.4367160562006"><ele>143.8</ele><time>2026-03-28T09:31:42Z</time></trkpt><trkpt lat="44.985467858828976" lon="8.436801001734093"><ele>144.2</ele><time>2026-03-28T09:31:43Z</time></trkpt><trkpt lat="44.98538089320554" lon="8.436925515018807"><ele>144.6</ele><time>2026-03-28T09:31:44Z</time></trkpt><trkpt lat="44.98529398052111" lon="8.437040378433085"><ele>145.0</ele><time>2026-03-28T09:31:45Z</time></trkpt><trkpt lat="44.98521631475092" lon="8.43714431329675"><ele>145.4</ele><time>2026-03-28T09:31:46Z</time></trkpt><trkpt lat="44.985135622415555" lon="8.437246961319707"><ele>145.8</ele><time>2026-03-28T09:31:47Z</time></trkpt><trkpt lat="44.98505179158451" lon="8.437351610269449"><ele>146.2</ele><time>2026-03-28T09:31:48Z</time></trkpt><trkpt lat="44.984968550229176" lon="8.437452284832005"><ele>146.6</ele><time>2026-03-28T09:31:49Z</time></trkpt><trkpt lat="44.98489293688699" lon="8.437535763147757"><ele>147.0</ele><time>2026-03-28T09:31:50Z</time></trkpt><trkpt lat="44.98482390401384" lon="8.43760398554495"><ele>147.79999999999998</ele><time>2026-03-28T09:31:51Z</time></trkpt><trkpt lat="44.984747856598005" lon="8.437669549463495"><ele>148.6</ele><time>2026-03-28T09:31:52Z</time></trkpt><trkpt lat="44.98467562343272" lon="8.437707856180236"><ele>149.39999999999998</ele><time>2026-03-28T09:31:53Z</time></trkpt><trkpt lat="44.984593431728086" lon="8.437711544260182"><ele>150.2</ele><time>2026-03-28T09:31:54Z</time></trkpt><trkpt lat="44.98448665470879" lon="8.437680883725866"><ele>151.0</ele><time>2026-03-28T09:31:55Z</time></trkpt><trkpt lat="44.98437836917821" lon="8.437626537201893"><ele>151.0</ele><time>2026-03-28T09:31:56Z</time></trkpt><trkpt lat="44.98428363120606" lon="8.437570072289482"><ele>151.0</ele><time>2026-03-28T09:31:57Z</time></trkpt><trkpt lat="44.984205406011455" lon="8.437538777187733"><ele>151.0</ele><time>2026-03-28T09:31:58Z</time></trkpt><trkpt lat="44.984116235933485" lon="8.43751000056062"><ele>151.0</ele><time>2026-03-28T09:31:59Z</time></trkpt><trkpt lat="44.98403702853156" lon="8.437485107077993"><ele>151.0</ele><time>2026-03-28T09:32:00Z</time></trkpt><trkpt lat="44.98395611503225" lon="8.437478513528083"><ele>151.0</ele><time>2026-03-28T09:32:01Z</time></trkpt><trkpt lat="44.98388346094791" lon="8.437503406585188"><ele>152.2857142857143</ele><time>2026-03-28T09:32:02Z</time></trkpt><trkpt lat="44.98380639794546" lon="8.437562866041"><ele>153.57142857142858</ele><time>2026-03-28T09:32:03Z</time></trkpt><trkpt lat="44.9837524114765" lon="8.437619557092278"><ele>154.85714285714286</ele><time>2026-03-28T09:32:04Z</time></trkpt><trkpt lat="44.98372228426672" lon="8.437699223847494"><ele>156.14285714285717</ele><time>2026-03-28T09:32:06Z</time></trkpt><trkpt lat="44.98365342790525" lon="8.437715972119866"><ele>157.42857142857144</ele><time>2026-03-28T09:32:34.999Z</time></trkpt><trkpt lat="44.9835786633128" lon="8.437795203081885"><ele>158.71428571428572</ele><time>2026-03-28T09:32:36.999Z</time></trkpt><trkpt lat="44.98352838871636" lon="8.43785387480455"><ele>160.0</ele><time>2026-03-28T09:32:37.999Z</time></trkpt><trkpt lat="44.98346836497372" lon="8.437920956388696"><ele>160.14285714285714</ele><time>2026-03-28T09:32:38.999Z</time></trkpt><trkpt lat="44.98340770319533" lon="8.438002382244315"><ele>160.28571428571428</ele><time>2026-03-28T09:32:39.999Z</time></trkpt><trkpt lat="44.98335713080646" lon="8.43807886628272"><ele>160.42857142857144</ele><time>2026-03-28T09:32:40.999Z</time></trkpt><trkpt lat="44.98330960262796" lon="8.438142636566766"><ele>160.57142857142856</ele><time>2026-03-28T09:32:41.999Z</time></trkpt><trkpt lat="44.983249829179904" lon="8.438189100008623"><ele>160.71428571428572</ele><time>2026-03-28T09:32:42.999Z</time></trkpt><trkpt lat="44.983176888594855" lon="8.438195815114307"><ele>160.85714285714286</ele><time>2026-03-28T09:32:43.999Z</time></trkpt><trkpt lat="44.98310031374821" lon="8.438156938457075"><ele>161.0</ele><time>2026-03-28T09:32:44.999Z</time></trkpt><trkpt lat="44.9830298303244" lon="8.43811471012916"><ele>162.5</ele><time>2026-03-28T09:32:45.999Z</time></trkpt><trkpt lat="44.98295390631123" lon="8.438091910855208"><ele>164.0</ele><time>2026-03-28T09:32:46.999Z</time></trkpt><trkpt lat="44.9828825055007" lon="8.438093101659833"><ele>165.5</ele><time>2026-03-28T09:32:47.999Z</time></trkpt><trkpt lat="44.982802348586056" lon="8.438099358948861"><ele>167.0</ele><time>2026-03-28T09:32:48.999Z</time></trkpt><trkpt lat="44.98271141662736" lon="8.438102864093642"><ele>168.5</ele><time>2026-03-28T09:32:49.999Z</time></trkpt><trkpt lat="44.98264250551069" lon="8.438090341510707"><ele>170.0</ele><time>2026-03-28T09:32:50.999Z</time></trkpt><trkpt lat="44.98255870298188" lon="8.437997870556146"><ele>170.0</ele><time>2026-03-28T09:32:52.999Z</time></trkpt><trkpt lat="44.98248155813391" lon="8.437931715009096"><ele>170.0</ele><time>2026-03-28T09:32:54.999Z</time></trkpt><trkpt lat="44.98242090369532" lon="8.43798102179945"><ele>170.0</ele><time>2026-03-28T09:32:57.999Z</time></trkpt><trkpt lat="44.98246073222183" lon="8.438074091007802"><ele>170.0</ele><time>2026-03-28T09:32:59.999Z</time></trkpt><trkpt lat="44.98251641971819" lon="8.438122178798718"><ele>170.0</ele><time>2026-03-28T09:33:00.999Z</time></trkpt><trkpt lat="44.98258311812951" lon="8.438182825636764"><ele>170.0</ele><time>2026-03-28T09:33:01.999Z</time></trkpt><trkpt lat="44.98264874673726" lon="8.438290735453949"><ele>170.0</ele><time>2026-03-28T09:33:02.999Z</time></trkpt><trkpt lat="44.982707180409676" lon="8.438452481970454"><ele>170.0</ele><time>2026-03-28T09:33:03.999Z</time></trkpt><trkpt lat="44.98274733926145" lon="8.438641029163394"><ele>170.0</ele><time>2026-03-28T09:33:04.999Z</time></trkpt><trkpt lat="44.98277106967948" lon="8.438843938374347"><ele>170.0</ele><time>2026-03-28T09:33:05.999Z</time></trkpt><trkpt lat="44.98279479768973" lon="8.43904443534129"><ele>171.33333333333331</ele><time>2026-03-28T09:33:06.999Z</time></trkpt><trkpt lat="44.982825071536254" lon="8.439251589367949"><ele>172.66666666666666</ele><time>2026-03-28T09:33:07.999Z</time></trkpt><trkpt lat="44.982869544031246" lon="8.439460390550066"><ele>174.0</ele><time>2026-03-28T09:33:08.999Z</time></trkpt><trkpt lat="44.982936726594595" lon="8.439671100181409"><ele>175.66666666666666</ele><time>2026-03-28T09:33:09.999Z</time></trkpt><trkpt lat="44.983023865198206" lon="8.439882662277077"><ele>177.33333333333331</ele><time>2026-03-28T09:33:10.999Z</time></trkpt><trkpt lat="44.983105288511624" lon="8.440109365170194"><ele>179.0</ele><time>2026-03-28T09:33:11.999Z</time></trkpt><trkpt lat="44.98315773122842" lon="8.440364219476832"><ele>181.66666666666666</ele><time>2026-03-28T09:33:12.999Z</time></trkpt><trkpt lat="44.98319872315447" lon="8.44063563427668"><ele>184.33333333333334</ele><time>2026-03-28T09:33:13.999Z</time></trkpt><trkpt lat="44.98325152917041" lon="8.440906199462592"><ele>187.0</ele><time>2026-03-28T09:33:14.999Z</time></trkpt><trkpt lat="44.98332659816829" lon="8.441156963272677"><ele>185.66666666666669</ele><time>2026-03-28T09:33:15.999Z</time></trkpt><trkpt lat="44.98341317994618" lon="8.44139871507109"><ele>184.33333333333334</ele><time>2026-03-28T09:33:16.999Z</time></trkpt><trkpt lat="44.983491720611546" lon="8.441638874767971"><ele>183.0</ele><time>2026-03-28T09:33:17.999Z</time></trkpt><trkpt lat="44.98357292143993" lon="8.441877560328777"><ele>183.0</ele><time>2026-03-28T09:33:18.999Z</time></trkpt><trkpt lat="44.98367096256411" lon="8.442108059113709"><ele>183.0</ele><time>2026-03-28T09:33:19.999Z</time></trkpt><trkpt lat="44.98376644935081" lon="8.442343910430042"><ele>183.0</ele><time>2026-03-28T09:33:20.999Z</time></trkpt><trkpt lat="44.98388423904807" lon="8.442567904249223"><ele>186.0</ele><time>2026-03-28T09:33:21.999Z</time></trkpt><trkpt lat="44.98403059273017" lon="8.4427630367737"><ele>189.0</ele><time>2026-03-28T09:33:22.999Z</time></trkpt><trkpt lat="44.98419855890245" lon="8.442934455018333"><ele>192.0</ele><time>2026-03-28T09:33:23.999Z</time></trkpt><trkpt lat="44.98437686036249" lon="8.443100432102618"><ele>195.0</ele><time>2026-03-28T09:33:24.999Z</time></trkpt><trkpt lat="44.98455542962491" lon="8.443268910341702"><ele>198.0</ele><time>2026-03-28T09:33:25.999Z</time></trkpt><trkpt lat="44.98473140082848" lon="8.443430421050941"><ele>201.0</ele><time>2026-03-28T09:33:26.999Z</time></trkpt><trkpt lat="44.984904201570394" lon="8.443590720434937"><ele>200.33333333333331</ele><time>2026-03-28T09:33:27.999Z</time></trkpt><trkpt lat="44.985074852222226" lon="8.443753061936325"><ele>199.66666666666666</ele><time>2026-03-28T09:33:28.999Z</time></trkpt><trkpt lat="44.98524469719343" lon="8.443909274499315"><ele>199.0</ele><time>2026-03-28T09:33:29.999Z</time></trkpt><trkpt lat="44.985410580460204" lon="8.444060580648554"><ele>202.0</ele><time>2026-03-28T09:33:30.999Z</time></trkpt><trkpt lat="44.985582868669084" lon="8.44421531083119"><ele>205.0</ele><time>2026-03-28T09:33:31.999Z</time></trkpt><trkpt lat="44.98575559811525" lon="8.444368881292847"><ele>208.0</ele><time>2026-03-28T09:33:32.999Z</time></trkpt><trkpt lat="44.98592532781689" lon="8.444524865433035"><ele>211.0</ele><time>2026-03-28T09:33:33.999Z</time></trkpt><trkpt lat="44.98609066089357" lon="8.44467718614346"><ele>214.0</ele><time>2026-03-28T09:33:34.999Z</time></trkpt><trkpt lat="44.9862339427566" lon="8.44480060690018"><ele>217.0</ele><time>2026-03-28T09:33:36Z</time></trkpt><trkpt lat="44.98636077194041" lon="8.444908764325367"><ele>217.0</ele><time>2026-03-28T09:33:37Z</time></trkpt><trkpt lat="44.98646340093626" lon="8.445042859173139"><ele>217.0</ele><time>2026-03-28T09:33:38Z</time></trkpt><trkpt lat="44.98651684857898" lon="8.445230265848517"><ele>217.0</ele><time>2026-03-28T09:33:39Z</time></trkpt><trkpt lat="44.98658870055583" lon="8.44543455142275"><ele>217.0</ele><time>2026-03-28T09:33:40Z</time></trkpt><trkpt lat="44.98667200936718" lon="8.445620300997996"><ele>217.0</ele><time>2026-03-28T09:33:41Z</time></trkpt><trkpt lat="44.98679043184323" lon="8.445811374422396"><ele>217.0</ele><time>2026-03-28T09:33:42Z</time></trkpt><trkpt lat="44.98694090423103" lon="8.445988446593804"><ele>217.0</ele><time>2026-03-28T09:33:43Z</time></trkpt><trkpt lat="44.98710984786367" lon="8.446140488458466"><ele>217.0</ele><time>2026-03-28T09:33:44Z</time></trkpt><trkpt lat="44.98728149228188" lon="8.44628084142495"><ele>217.0</ele><time>2026-03-28T09:33:45Z</time></trkpt><trkpt lat="44.987455206584606" lon="8.446420111251324"><ele>217.0</ele><time>2026-03-28T09:33:46Z</time></trkpt><trkpt lat="44.98761296178118" lon="8.446548884911081"><ele>217.33333333333331</ele><time>2026-03-28T09:33:47Z</time></trkpt><trkpt lat="44.98775529142549" lon="8.446661161535523"><ele>217.66666666666669</ele><time>2026-03-28T09:33:48Z</time></trkpt><trkpt lat="44.98790481440588" lon="8.446757322788036"><ele>218.0</ele><time>2026-03-28T09:33:49Z</time></trkpt><trkpt lat="44.988054458315084" lon="8.446857522465274"><ele>218.0</ele><time>2026-03-28T09:33:50Z</time></trkpt><trkpt lat="44.98819877603469" lon="8.446944314988025"><ele>218.0</ele><time>2026-03-28T09:33:51Z</time></trkpt><trkpt lat="44.98830069907868" lon="8.447038122088546"><ele>218.0</ele><time>2026-03-28T09:33:52Z</time></trkpt><trkpt lat="44.98838569726375" lon="8.447154933455824"><ele>218.0</ele><time>2026-03-28T09:33:53Z</time></trkpt><trkpt lat="44.98843315325052" lon="8.447340681406432"><ele>216.66666666666669</ele><time>2026-03-28T09:33:54Z</time></trkpt><trkpt lat="44.98848090562069" lon="8.447558653537113"><ele>215.33333333333331</ele><time>2026-03-28T09:33:55Z</time></trkpt><trkpt lat="44.98853490908658" lon="8.447802030511633"><ele>214.0</ele><time>2026-03-28T09:33:56Z</time></trkpt><trkpt lat="44.9885990747081" lon="8.4480634983735"><ele>214.0</ele><time>2026-03-28T09:33:57Z</time></trkpt><trkpt lat="44.98869647545287" lon="8.44832486396376"><ele>214.0</ele><time>2026-03-28T09:33:58Z</time></trkpt><trkpt lat="44.98881446196569" lon="8.448605799256569"><ele>214.0</ele><time>2026-03-28T09:33:59Z</time></trkpt><trkpt lat="44.98893148548451" lon="8.448889830303326"><ele>216.0</ele><time>2026-03-28T09:34:00Z</time></trkpt><trkpt lat="44.9890305742682" lon="8.449136771386213"><ele>218.0</ele><time>2026-03-28T09:34:01Z</time></trkpt><trkpt lat="44.989114374606814" lon="8.449360056784778"><ele>220.0</ele><time>2026-03-28T09:34:02Z</time></trkpt><trkpt lat="44.98918668779689" lon="8.449563105904472"><ele>221.0</ele><time>2026-03-28T09:34:03Z</time></trkpt><trkpt lat="44.98925253656341" lon="8.449749860831124"><ele>222.0</ele><time>2026-03-28T09:34:04Z</time></trkpt><trkpt lat="44.989316859603996" lon="8.449913095133876"><ele>223.0</ele><time>2026-03-28T09:34:05Z</time></trkpt><trkpt lat="44.98938645701746" lon="8.45004431127682"><ele>224.0</ele><time>2026-03-28T09:34:06Z</time></trkpt><trkpt lat="44.98947693701198" lon="8.450126641171398"><ele>224.0</ele><time>2026-03-28T09:34:07Z</time></trkpt><trkpt lat="44.98959956727725" lon="8.450157451939216"><ele>224.0</ele><time>2026-03-28T09:34:08Z</time></trkpt><trkpt lat="44.989744600644144" lon="8.450170492181487"><ele>224.0</ele><time>2026-03-28T09:34:09Z</time></trkpt><trkpt lat="44.989863285941645" lon="8.450195040579041"><ele>224.0</ele><time>2026-03-28T09:34:10Z</time></trkpt><trkpt lat="44.98997216255071" lon="8.450270233727128"><ele>224.0</ele><time>2026-03-28T09:34:11Z</time></trkpt><trkpt lat="44.99007036959389" lon="8.45039842167861"><ele>224.0</ele><time>2026-03-28T09:34:12Z</time></trkpt><trkpt lat="44.990120345046" lon="8.450592729830479"><ele>224.0</ele><time>2026-03-28T09:34:13Z</time></trkpt><trkpt lat="44.9901674410999" lon="8.450806332005282"><ele>224.0</ele><time>2026-03-28T09:34:14Z</time></trkpt><trkpt lat="44.990227520648865" lon="8.451031238598548"><ele>227.0</ele><time>2026-03-28T09:34:15Z</time></trkpt><trkpt lat="44.99026730527617" lon="8.451313313567836"><ele>230.0</ele><time>2026-03-28T09:34:16Z</time></trkpt><trkpt lat="44.990316021846006" lon="8.45162830808453"><ele>233.0</ele><time>2026-03-28T09:34:17Z</time></trkpt><trkpt lat="44.99035019667068" lon="8.4519192569593"><ele>235.0</ele><time>2026-03-28T09:34:18Z</time></trkpt><trkpt lat="44.99036327316377" lon="8.452192269681818"><ele>237.0</ele><time>2026-03-28T09:34:19Z</time></trkpt><trkpt lat="44.99037806840063" lon="8.452468184140164"><ele>239.0</ele><time>2026-03-28T09:34:20Z</time></trkpt><trkpt lat="44.99040200803808" lon="8.45274753135026"><ele>237.66666666666669</ele><time>2026-03-28T09:34:21Z</time></trkpt><trkpt lat="44.99041919286878" lon="8.453034600144877"><ele>236.33333333333331</ele><time>2026-03-28T09:34:22Z</time></trkpt><trkpt lat="44.99043211482875" lon="8.453319384530927"><ele>235.0</ele><time>2026-03-28T09:34:23Z</time></trkpt><trkpt lat="44.99044555979581" lon="8.453611800680351"><ele>234.66666666666666</ele><time>2026-03-28T09:34:24Z</time></trkpt><trkpt lat="44.990458943649266" lon="8.453900305325167"><ele>234.33333333333331</ele><time>2026-03-28T09:34:25Z</time></trkpt><trkpt lat="44.990471815042525" lon="8.45417836076749"><ele>234.0</ele><time>2026-03-28T09:34:26Z</time></trkpt><trkpt lat="44.99048005324061" lon="8.454439339162244"><ele>235.5</ele><time>2026-03-28T09:34:27Z</time></trkpt><trkpt lat="44.99048551959402" lon="8.454667431124088"><ele>237.0</ele><time>2026-03-28T09:34:28Z</time></trkpt><trkpt lat="44.99049236948255" lon="8.45487091857994"><ele>238.5</ele><time>2026-03-28T09:34:29Z</time></trkpt><trkpt lat="44.990501054933034" lon="8.455056429615924"><ele>240.0</ele><time>2026-03-28T09:34:30Z</time></trkpt><trkpt lat="44.990504180032126" lon="8.45522236083406"><ele>240.0</ele><time>2026-03-28T09:34:31Z</time></trkpt><trkpt lat="44.99051089239715" lon="8.455368440210522"><ele>240.0</ele><time>2026-03-28T09:34:32Z</time></trkpt><trkpt lat="44.9905203618698" lon="8.455493250097511"><ele>240.0</ele><time>2026-03-28T09:34:33Z</time></trkpt><trkpt lat="44.99054443036648" lon="8.455592173233894"><ele>240.0</ele><time>2026-03-28T09:34:34Z</time></trkpt><trkpt lat="44.99059621982125" lon="8.455651566698494"><ele>240.0</ele><time>2026-03-28T09:34:35Z</time></trkpt><trkpt lat="44.99067448353253" lon="8.455670020860685"><ele>240.0</ele><time>2026-03-28T09:34:35.999Z</time></trkpt><trkpt lat="44.990781528089364" lon="8.455658839263002"><ele>239.5</ele><time>2026-03-28T09:34:36.999Z</time></trkpt><trkpt lat="44.99089884103183" lon="8.455660084096321"><ele>239.0</ele><time>2026-03-28T09:34:37.999Z</time></trkpt><trkpt lat="44.99102687679199" lon="8.45568747226588"><ele>238.5</ele><time>2026-03-28T09:34:38.999Z</time></trkpt><trkpt lat="44.991155112742334" lon="8.455721020876398"><ele>238.0</ele><time>2026-03-28T09:34:39.999Z</time></trkpt><trkpt lat="44.99127532513376" lon="8.45575783109899"><ele>238.0</ele><time>2026-03-28T09:34:40.999Z</time></trkpt><trkpt lat="44.991383734994145" lon="8.455811028695473"><ele>238.0</ele><time>2026-03-28T09:34:41.999Z</time></trkpt><trkpt lat="44.991489358101255" lon="8.455901778860627"><ele>238.0</ele><time>2026-03-28T09:34:42.999Z</time></trkpt><trkpt lat="44.99157691632668" lon="8.45603730513648"><ele>238.0</ele><time>2026-03-28T09:34:43.999Z</time></trkpt><trkpt lat="44.99165489070053" lon="8.456208244786868"><ele>238.0</ele><time>2026-03-28T09:34:44.999Z</time></trkpt><trkpt lat="44.99172305351987" lon="8.45636293680521"><ele>238.0</ele><time>2026-03-28T09:34:45.999Z</time></trkpt><trkpt lat="44.99178792726522" lon="8.456497915400233"><ele>238.0</ele><time>2026-03-28T09:34:46.999Z</time></trkpt><trkpt lat="44.99184733735068" lon="8.45659773581929"><ele>238.0</ele><time>2026-03-28T09:34:47.999Z</time></trkpt><trkpt lat="44.99191753480874" lon="8.456655008028944"><ele>238.0</ele><time>2026-03-28T09:34:48.999Z</time></trkpt><trkpt lat="44.99202579697095" lon="8.456681061053699"><ele>238.0</ele><time>2026-03-28T09:34:49.999Z</time></trkpt><trkpt lat="44.99215378444724" lon="8.456672149615045"><ele>238.0</ele><time>2026-03-28T09:34:50.999Z</time></trkpt><trkpt lat="44.99226737106871" lon="8.456689599280743"><ele>238.0</ele><time>2026-03-28T09:34:51.999Z</time></trkpt><trkpt lat="44.992374312653105" lon="8.456680855827917"><ele>238.0</ele><time>2026-03-28T09:34:52.999Z</time></trkpt><trkpt lat="44.992489102668294" lon="8.456630853808367"><ele>237.2</ele><time>2026-03-28T09:34:53.999Z</time></trkpt><trkpt lat="44.99260499906103" lon="8.456586628718462"><ele>236.4</ele><time>2026-03-28T09:34:54.999Z</time></trkpt><trkpt lat="44.99270584603487" lon="8.456541291199207"><ele>235.59999999999997</ele><time>2026-03-28T09:34:55.999Z</time></trkpt><trkpt lat="44.992793003399946" lon="8.456495402453132"><ele>234.79999999999998</ele><time>2026-03-28T09:34:56.999Z</time></trkpt><trkpt lat="44.99286614276241" lon="8.456467784083104"><ele>234.0</ele><time>2026-03-28T09:34:57.999Z</time></trkpt><trkpt lat="44.992943812543274" lon="8.456498038187208"><ele>234.0</ele><time>2026-03-28T09:34:58.999Z</time></trkpt><trkpt lat="44.99307971151601" lon="8.456629901609222"><ele>233.99999999999997</ele><time>2026-03-28T09:35:00.999Z</time></trkpt><trkpt lat="44.993125944887545" lon="8.456711072258082"><ele>233.99999999999997</ele><time>2026-03-28T09:35:01.999Z</time></trkpt><trkpt lat="44.993218303366184" lon="8.456777246998955"><ele>234.0</ele><time>2026-03-28T09:35:03.999Z</time></trkpt><trkpt lat="44.99330078654431" lon="8.456828767174894"><ele>234.0</ele><time>2026-03-28T09:35:04.999Z</time></trkpt><trkpt lat="44.993419159202844" lon="8.456817630582592"><ele>234.0</ele><time>2026-03-28T09:35:05.999Z</time></trkpt><trkpt lat="44.99353667965723" lon="8.456790936491641"><ele>234.0</ele><time>2026-03-28T09:35:06.999Z</time></trkpt><trkpt lat="44.99367348616558" lon="8.456804887729856"><ele>234.0</ele><time>2026-03-28T09:35:07.999Z</time></trkpt><trkpt lat="44.99381662642349" lon="8.456812749729936"><ele>234.0</ele><time>2026-03-28T09:35:08.999Z</time></trkpt><trkpt lat="44.99396219015491" lon="8.456805444017558"><ele>234.0</ele><time>2026-03-28T09:35:09.999Z</time></trkpt><trkpt lat="44.99409020113427" lon="8.456784697548436"><ele>234.0</ele><time>2026-03-28T09:35:10.999Z</time></trkpt><trkpt lat="44.994222374992276" lon="8.45674982254079"><ele>234.0</ele><time>2026-03-28T09:35:11.999Z</time></trkpt><trkpt lat="44.99435054022366" lon="8.456724134826406"><ele>234.0</ele><time>2026-03-28T09:35:12.999Z</time></trkpt><trkpt lat="44.994479744290466" lon="8.456698283177492"><ele>236.5</ele><time>2026-03-28T09:35:13.999Z</time></trkpt><trkpt lat="44.994598102446254" lon="8.456658139318488"><ele>239.0</ele><time>2026-03-28T09:35:14.999Z</time></trkpt><trkpt lat="44.994706256469456" lon="8.456615945407966"><ele>241.5</ele><time>2026-03-28T09:35:15.999Z</time></trkpt><trkpt lat="44.99482623447204" lon="8.456634442532513"><ele>244.0</ele><time>2026-03-28T09:35:16.999Z</time></trkpt><trkpt lat="44.99494746176299" lon="8.456731438498679"><ele>245.75</ele><time>2026-03-28T09:35:17.999Z</time></trkpt><trkpt lat="44.995074105667996" lon="8.45680059209751"><ele>247.5</ele><time>2026-03-28T09:35:18.999Z</time></trkpt><trkpt lat="44.99519939714165" lon="8.456843532529504"><ele>249.25</ele><time>2026-03-28T09:35:19.999Z</time></trkpt><trkpt lat="44.9953373987895" lon="8.456866864812321"><ele>251.0</ele><time>2026-03-28T09:35:20.999Z</time></trkpt><trkpt lat="44.99547080553289" lon="8.45690283822854"><ele>251.0</ele><time>2026-03-28T09:35:21.999Z</time></trkpt><trkpt lat="44.99556106383267" lon="8.456939420656314"><ele>251.00000000000003</ele><time>2026-03-28T09:35:22.999Z</time></trkpt><trkpt lat="44.99568317537691" lon="8.457021882804685"><ele>251.00000000000003</ele><time>2026-03-28T09:35:24.999Z</time></trkpt><trkpt lat="44.995780462471956" lon="8.457096169348821"><ele>251.0</ele><time>2026-03-28T09:35:25.999Z</time></trkpt><trkpt lat="44.9958780684333" lon="8.457156109024142"><ele>251.0</ele><time>2026-03-28T09:35:26.999Z</time></trkpt><trkpt lat="44.995978434229194" lon="8.457221588954004"><ele>253.25</ele><time>2026-03-28T09:35:27.999Z</time></trkpt><trkpt lat="44.996073972290645" lon="8.457292263832626"><ele>255.5</ele><time>2026-03-28T09:35:28.999Z</time></trkpt><trkpt lat="44.99615041874088" lon="8.4573917697955"><ele>257.75</ele><time>2026-03-28T09:35:29.999Z</time></trkpt><trkpt lat="44.996230950127746" lon="8.457507267134824"><ele>260.0</ele><time>2026-03-28T09:35:30.999Z</time></trkpt><trkpt lat="44.99631633714051" lon="8.457646847225806"><ele>260.0</ele><time>2026-03-28T09:35:31.999Z</time></trkpt><trkpt lat="44.996425356560124" lon="8.457793196929801"><ele>260.0</ele><time>2026-03-28T09:35:32.999Z</time></trkpt><trkpt lat="44.996541865535015" lon="8.457955539570946"><ele>260.0</ele><time>2026-03-28T09:35:33.999Z</time></trkpt><trkpt lat="44.99665969473625" lon="8.458112618450048"><ele>256.0</ele><time>2026-03-28T09:35:34.999Z</time></trkpt><trkpt lat="44.99677182189076" lon="8.458246150809657"><ele>252.0</ele><time>2026-03-28T09:35:35.999Z</time></trkpt><trkpt lat="44.99687063654818" lon="8.458351152695913"><ele>248.0</ele><time>2026-03-28T09:35:36.999Z</time></trkpt><trkpt lat="44.99698255197957" lon="8.45845118818019"><ele>244.0</ele><time>2026-03-28T09:35:37.999Z</time></trkpt><trkpt lat="44.99709437846933" lon="8.4585909849321"><ele>244.0</ele><time>2026-03-28T09:35:38.999Z</time></trkpt><trkpt lat="44.997201940882356" lon="8.45875202298785"><ele>244.0</ele><time>2026-03-28T09:35:39.999Z</time></trkpt><trkpt lat="44.99731077603176" lon="8.458919083785478"><ele>244.0</ele><time>2026-03-28T09:35:41Z</time></trkpt><trkpt lat="44.99739089001473" lon="8.459100634875169"><ele>244.0</ele><time>2026-03-28T09:35:42Z</time></trkpt><trkpt lat="44.99742998604954" lon="8.459317464771601"><ele>244.0</ele><time>2026-03-28T09:35:43Z</time></trkpt><trkpt lat="44.99745902878864" lon="8.45955469395786"><ele>244.0</ele><time>2026-03-28T09:35:44Z</time></trkpt><trkpt lat="44.997507304856526" lon="8.459801993842408"><ele>244.0</ele><time>2026-03-28T09:35:45Z</time></trkpt><trkpt lat="44.99757901405671" lon="8.46003917425746"><ele>244.0</ele><time>2026-03-28T09:35:46Z</time></trkpt><trkpt lat="44.9976585475242" lon="8.46023532696201"><ele>244.0</ele><time>2026-03-28T09:35:47Z</time></trkpt><trkpt lat="44.997736298328064" lon="8.46039975360567"><ele>246.75</ele><time>2026-03-28T09:35:48Z</time></trkpt><trkpt lat="44.99781613397877" lon="8.460561644241489"><ele>249.5</ele><time>2026-03-28T09:35:49Z</time></trkpt><trkpt lat="44.99790237695143" lon="8.460733955258082"><ele>252.25</ele><time>2026-03-28T09:35:50Z</time></trkpt><trkpt lat="44.99799226425887" lon="8.460914296936393"><ele>255.0</ele><time>2026-03-28T09:35:51Z</time></trkpt><trkpt lat="44.99807908434823" lon="8.461102420690258"><ele>258.6666666666667</ele><time>2026-03-28T09:35:52Z</time></trkpt><trkpt lat="44.99815973719873" lon="8.46130129930258"><ele>262.33333333333337</ele><time>2026-03-28T09:35:53Z</time></trkpt><trkpt lat="44.99822059564004" lon="8.461514013218876"><ele>266.0</ele><time>2026-03-28T09:35:54Z</time></trkpt><trkpt lat="44.99826448643697" lon="8.46174755119895"><ele>266.0</ele><time>2026-03-28T09:35:55Z</time></trkpt><trkpt lat="44.998313157453325" lon="8.462003341527232"><ele>266.0</ele><time>2026-03-28T09:35:56Z</time></trkpt><trkpt lat="44.99836560382084" lon="8.462280353767909"><ele>266.0</ele><time>2026-03-28T09:35:57Z</time></trkpt><trkpt lat="44.99840721501006" lon="8.462514545957927"><ele>263.0</ele><time>2026-03-28T09:35:58Z</time></trkpt><trkpt lat="44.99844458139426" lon="8.462746186085933"><ele>260.0</ele><time>2026-03-28T09:35:59Z</time></trkpt><trkpt lat="44.9984645776359" lon="8.46297742355815"><ele>257.0</ele><time>2026-03-28T09:36:00Z</time></trkpt><trkpt lat="44.998469820107516" lon="8.463222271035365"><ele>257.0</ele><time>2026-03-28T09:36:01Z</time></trkpt><trkpt lat="44.99846746460519" lon="8.46347698632954"><ele>257.0</ele><time>2026-03-28T09:36:02Z</time></trkpt><trkpt lat="44.99845789988953" lon="8.463732604106218"><ele>257.0</ele><time>2026-03-28T09:36:03Z</time></trkpt><trkpt lat="44.998446332161656" lon="8.463987803015002"><ele>258.0</ele><time>2026-03-28T09:36:04Z</time></trkpt><trkpt lat="44.99844367413104" lon="8.464252126624382"><ele>259.0</ele><time>2026-03-28T09:36:05Z</time></trkpt><trkpt lat="44.998446592340024" lon="8.46452012731366"><ele>260.0</ele><time>2026-03-28T09:36:06Z</time></trkpt><trkpt lat="44.998454346482795" lon="8.464781983853797"><ele>263.33333333333337</ele><time>2026-03-28T09:36:07Z</time></trkpt><trkpt lat="44.998475440869306" lon="8.465022377229857"><ele>266.6666666666667</ele><time>2026-03-28T09:36:08Z</time></trkpt><trkpt lat="44.998505099528565" lon="8.46526644097032"><ele>270.0</ele><time>2026-03-28T09:36:09Z</time></trkpt><trkpt lat="44.99854037386811" lon="8.465519748259235"><ele>270.0</ele><time>2026-03-28T09:36:10Z</time></trkpt><trkpt lat="44.998569841282574" lon="8.465787490195009"><ele>270.0</ele><time>2026-03-28T09:36:11Z</time></trkpt><trkpt lat="44.998581265680734" lon="8.466063937922671"><ele>270.0</ele><time>2026-03-28T09:36:12Z</time></trkpt><trkpt lat="44.998591910516616" lon="8.466344153189413"><ele>270.0</ele><time>2026-03-28T09:36:13Z</time></trkpt><trkpt lat="44.998623501316814" lon="8.466622252928621"><ele>270.0</ele><time>2026-03-28T09:36:14Z</time></trkpt><trkpt lat="44.99868048728574" lon="8.466897681783193"><ele>270.0</ele><time>2026-03-28T09:36:15Z</time></trkpt><trkpt lat="44.998759136639926" lon="8.467159894385915"><ele>267.3333333333333</ele><time>2026-03-28T09:36:16Z</time></trkpt><trkpt lat="44.99882583966897" lon="8.467392311048764"><ele>264.66666666666663</ele><time>2026-03-28T09:36:17Z</time></trkpt><trkpt lat="44.998867372498545" lon="8.467645536180523"><ele>262.0</ele><time>2026-03-28T09:36:18Z</time></trkpt><trkpt lat="44.99887839184471" lon="8.467905475731477"><ele>259.66666666666663</ele><time>2026-03-28T09:36:19Z</time></trkpt><trkpt lat="44.99885968791746" lon="8.468145267278503"><ele>257.3333333333333</ele><time>2026-03-28T09:36:20Z</time></trkpt><trkpt lat="44.998810139796895" lon="8.46839321346969"><ele>255.0</ele><time>2026-03-28T09:36:21Z</time></trkpt><trkpt lat="44.998740346722656" lon="8.468630900089845"><ele>253.66666666666669</ele><time>2026-03-28T09:36:22Z</time></trkpt><trkpt lat="44.99864243294714" lon="8.468850300817177"><ele>252.33333333333334</ele><time>2026-03-28T09:36:23Z</time></trkpt><trkpt lat="44.99852114549792" lon="8.469058044112629"><ele>251.0</ele><time>2026-03-28T09:36:24Z</time></trkpt><trkpt lat="44.99838378727199" lon="8.469245193077835"><ele>254.66666666666669</ele><time>2026-03-28T09:36:25Z</time></trkpt><trkpt lat="44.99823583349803" lon="8.469420519758508"><ele>258.3333333333333</ele><time>2026-03-28T09:36:26Z</time></trkpt><trkpt lat="44.99809102208637" lon="8.469596964750808"><ele>262.0</ele><time>2026-03-28T09:36:27Z</time></trkpt><trkpt lat="44.99794677811579" lon="8.46977685867048"><ele>263.3333333333333</ele><time>2026-03-28T09:36:28Z</time></trkpt><trkpt lat="44.99780203935632" lon="8.469959905832741"><ele>264.6666666666667</ele><time>2026-03-28T09:36:29Z</time></trkpt><trkpt lat="44.99765478949531" lon="8.470141001994502"><ele>266.0</ele><time>2026-03-28T09:36:30Z</time></trkpt><trkpt lat="44.99750663686853" lon="8.470323958626727"><ele>263.6666666666667</ele><time>2026-03-28T09:36:31Z</time></trkpt><trkpt lat="44.99735828415675" lon="8.470514310215997"><ele>261.3333333333333</ele><time>2026-03-28T09:36:32Z</time></trkpt><trkpt lat="44.99721877271661" lon="8.47070635927851"><ele>259.0</ele><time>2026-03-28T09:36:33Z</time></trkpt><trkpt lat="44.997082209791294" lon="8.470880717769514"><ele>259.0</ele><time>2026-03-28T09:36:34Z</time></trkpt><trkpt lat="44.99694876002839" lon="8.471058144517752"><ele>259.0</ele><time>2026-03-28T09:36:35Z</time></trkpt><trkpt lat="44.996813208841694" lon="8.471244571942048"><ele>259.0</ele><time>2026-03-28T09:36:36Z</time></trkpt><trkpt lat="44.99667105937915" lon="8.471434879444692"><ele>258.0</ele><time>2026-03-28T09:36:37Z</time></trkpt><trkpt lat="44.99653673275344" lon="8.47163540597413"><ele>257.0</ele><time>2026-03-28T09:36:37.999Z</time></trkpt><trkpt lat="44.99642711305982" lon="8.471829232413253"><ele>256.0</ele><time>2026-03-28T09:36:38.999Z</time></trkpt><trkpt lat="44.99632985409327" lon="8.472008553382425"><ele>253.5</ele><time>2026-03-28T09:36:39.999Z</time></trkpt><trkpt lat="44.996236198827454" lon="8.47219295030024"><ele>251.0</ele><time>2026-03-28T09:36:40.999Z</time></trkpt><trkpt lat="44.99615396898278" lon="8.47236141169085"><ele>248.5</ele><time>2026-03-28T09:36:41.999Z</time></trkpt><trkpt lat="44.99609507772473" lon="8.472540021818926"><ele>246.0</ele><time>2026-03-28T09:36:42.999Z</time></trkpt><trkpt lat="44.99607816644123" lon="8.472755608623425"><ele>246.0</ele><time>2026-03-28T09:36:43.999Z</time></trkpt><trkpt lat="44.996084324277284" lon="8.472998396757454"><ele>246.0</ele><time>2026-03-28T09:36:44.999Z</time></trkpt><trkpt lat="44.996092881183124" lon="8.473256155199998"><ele>246.0</ele><time>2026-03-28T09:36:45.999Z</time></trkpt><trkpt lat="44.9960902578687" lon="8.473517751825174"><ele>246.0</ele><time>2026-03-28T09:36:46.999Z</time></trkpt><trkpt lat="44.99607541417978" lon="8.47376797704589"><ele>246.0</ele><time>2026-03-28T09:36:47.999Z</time></trkpt><trkpt lat="44.99605441899247" lon="8.474007347089753"><ele>246.0</ele><time>2026-03-28T09:36:48.999Z</time></trkpt><trkpt lat="44.99602604173032" lon="8.474242594986116"><ele>246.33333333333331</ele><time>2026-03-28T09:36:49.999Z</time></trkpt><trkpt lat="44.99599477602473" lon="8.47447873956667"><ele>246.66666666666666</ele><time>2026-03-28T09:36:50.999Z</time></trkpt><trkpt lat="44.995972126713234" lon="8.474718309118346"><ele>247.0</ele><time>2026-03-28T09:36:51.999Z</time></trkpt><trkpt lat="44.99595641402446" lon="8.474964485427458"><ele>247.0</ele><time>2026-03-28T09:36:52.999Z</time></trkpt><trkpt lat="44.99594131456071" lon="8.475195899490975"><ele>247.0</ele><time>2026-03-28T09:36:53.999Z</time></trkpt><trkpt lat="44.9959285738093" lon="8.47541617410059"><ele>247.0</ele><time>2026-03-28T09:36:54.999Z</time></trkpt><trkpt lat="44.99592300280563" lon="8.475633078268505"><ele>246.0</ele><time>2026-03-28T09:36:55.999Z</time></trkpt><trkpt lat="44.99593621979296" lon="8.47584625985009"><ele>245.0</ele><time>2026-03-28T09:36:56.999Z</time></trkpt><trkpt lat="44.99599457867771" lon="8.476052300781754"><ele>244.0</ele><time>2026-03-28T09:36:57.999Z</time></trkpt><trkpt lat="44.9961010880935" lon="8.476240668402342"><ele>246.66666666666666</ele><time>2026-03-28T09:36:58.999Z</time></trkpt><trkpt lat="44.99621527071905" lon="8.476427664201033"><ele>249.33333333333331</ele><time>2026-03-28T09:36:59.999Z</time></trkpt><trkpt lat="44.99630668299506" lon="8.476600551643676"><ele>252.0</ele><time>2026-03-28T09:37:00.999Z</time></trkpt><trkpt lat="44.99638438967089" lon="8.476785184648627"><ele>252.0</ele><time>2026-03-28T09:37:01.999Z</time></trkpt><trkpt lat="44.99645330503601" lon="8.476993808378243"><ele>252.0</ele><time>2026-03-28T09:37:02.999Z</time></trkpt><trkpt lat="44.996492981089396" lon="8.477208082671101"><ele>252.0</ele><time>2026-03-28T09:37:03.999Z</time></trkpt><trkpt lat="44.99650472977184" lon="8.477425895726249"><ele>253.0</ele><time>2026-03-28T09:37:04.999Z</time></trkpt><trkpt lat="44.99651325608528" lon="8.477655335716653"><ele>254.0</ele><time>2026-03-28T09:37:05.999Z</time></trkpt><trkpt lat="44.9965266473031" lon="8.477893911040198"><ele>255.0</ele><time>2026-03-28T09:37:06.999Z</time></trkpt><trkpt lat="44.99654793870883" lon="8.478135785115503"><ele>255.33333333333331</ele><time>2026-03-28T09:37:07.999Z</time></trkpt><trkpt lat="44.996566266770216" lon="8.478383635921121"><ele>255.66666666666666</ele><time>2026-03-28T09:37:08.999Z</time></trkpt><trkpt lat="44.99658402512099" lon="8.478630474197926"><ele>256.0</ele><time>2026-03-28T09:37:09.999Z</time></trkpt><trkpt lat="44.99660636569982" lon="8.478874805025265"><ele>257.3333333333333</ele><time>2026-03-28T09:37:10.999Z</time></trkpt><trkpt lat="44.99662611977622" lon="8.479125967714912"><ele>258.6666666666667</ele><time>2026-03-28T09:37:11.999Z</time></trkpt><trkpt lat="44.99664221310931" lon="8.47937754541778"><ele>260.0</ele><time>2026-03-28T09:37:12.999Z</time></trkpt><trkpt lat="44.996652503815795" lon="8.479628408688303"><ele>261.6666666666667</ele><time>2026-03-28T09:37:13.999Z</time></trkpt><trkpt lat="44.9966382378799" lon="8.47988259346105"><ele>263.3333333333333</ele><time>2026-03-28T09:37:14.999Z</time></trkpt><trkpt lat="44.99659916286446" lon="8.48013895558696"><ele>265.0</ele><time>2026-03-28T09:37:15.999Z</time></trkpt><trkpt lat="44.99655529594097" lon="8.480394676215075"><ele>267.3333333333333</ele><time>2026-03-28T09:37:16.999Z</time></trkpt><trkpt lat="44.99651958759341" lon="8.480649272832226"><ele>269.6666666666667</ele><time>2026-03-28T09:37:17.999Z</time></trkpt><trkpt lat="44.99648545711116" lon="8.480902133378077"><ele>272.0</ele><time>2026-03-28T09:37:18.999Z</time></trkpt><trkpt lat="44.99645540591353" lon="8.481151664244017"><ele>273.33333333333337</ele><time>2026-03-28T09:37:19.999Z</time></trkpt><trkpt lat="44.99643083545318" lon="8.481408509826263"><ele>274.6666666666667</ele><time>2026-03-28T09:37:20.999Z</time></trkpt><trkpt lat="44.99642092843927" lon="8.48165157918243"><ele>276.0</ele><time>2026-03-28T09:37:21.999Z</time></trkpt><trkpt lat="44.99642337637547" lon="8.481861921391399"><ele>276.0</ele><time>2026-03-28T09:37:22.999Z</time></trkpt><trkpt lat="44.99644577826864" lon="8.482062767033268"><ele>276.0</ele><time>2026-03-28T09:37:23.999Z</time></trkpt><trkpt lat="44.99650164970415" lon="8.482248044920592"><ele>276.0</ele><time>2026-03-28T09:37:24.999Z</time></trkpt><trkpt lat="44.99658228967567" lon="8.482430333571237"><ele>276.0</ele><time>2026-03-28T09:37:25.999Z</time></trkpt><trkpt lat="44.996671338469476" lon="8.482587809260552"><ele>275.3333333333333</ele><time>2026-03-28T09:37:26.999Z</time></trkpt><trkpt lat="44.996789249672474" lon="8.482732354289643"><ele>274.66666666666663</ele><time>2026-03-28T09:37:27.999Z</time></trkpt><trkpt lat="44.9969367904686" lon="8.482866055612023"><ele>274.0</ele><time>2026-03-28T09:37:28.999Z</time></trkpt><trkpt lat="44.99707935348604" lon="8.48297357241379"><ele>274.0</ele><time>2026-03-28T09:37:29.999Z</time></trkpt><trkpt lat="44.99720152762626" lon="8.483070469060404"><ele>274.0</ele><time>2026-03-28T09:37:30.999Z</time></trkpt><trkpt lat="44.99731834930835" lon="8.483164396676699"><ele>274.0</ele><time>2026-03-28T09:37:31.999Z</time></trkpt><trkpt lat="44.99742874364109" lon="8.4832581933359"><ele>274.0</ele><time>2026-03-28T09:37:32.999Z</time></trkpt><trkpt lat="44.99753649258094" lon="8.48334878192743"><ele>273.25</ele><time>2026-03-28T09:37:33.999Z</time></trkpt><trkpt lat="44.99763952715053" lon="8.483435922663482"><ele>272.5</ele><time>2026-03-28T09:37:34.999Z</time></trkpt><trkpt lat="44.99773847475877" lon="8.48352340183175"><ele>271.75</ele><time>2026-03-28T09:37:35.999Z</time></trkpt><trkpt lat="44.99783317492909" lon="8.483604029348731"><ele>271.0</ele><time>2026-03-28T09:37:36.999Z</time></trkpt><trkpt lat="44.99792463549244" lon="8.483676510930199"><ele>271.0</ele><time>2026-03-28T09:37:37.999Z</time></trkpt><trkpt lat="44.99801516520042" lon="8.483737561605126"><ele>271.0</ele><time>2026-03-28T09:37:38.999Z</time></trkpt><trkpt lat="44.998100700556165" lon="8.483786233685368"><ele>271.0</ele><time>2026-03-28T09:37:39.999Z</time></trkpt><trkpt lat="44.998179372877054" lon="8.483815232067915"><ele>271.0</ele><time>2026-03-28T09:37:40.999Z</time></trkpt><trkpt lat="44.99824670501817" lon="8.48382116501385"><ele>271.0</ele><time>2026-03-28T09:37:41.999Z</time></trkpt><trkpt lat="44.99833879134074" lon="8.483849766194256"><ele>271.0</ele><time>2026-03-28T09:37:43.999Z</time></trkpt><trkpt lat="44.998403337866684" lon="8.483915215008146"><ele>272.6</ele><time>2026-03-28T09:37:52Z</time></trkpt><trkpt lat="44.998447434337926" lon="8.483985659975282"><ele>274.20000000000005</ele><time>2026-03-28T09:37:53Z</time></trkpt><trkpt lat="44.99850758550919" lon="8.484067447737758"><ele>275.79999999999995</ele><time>2026-03-28T09:37:54Z</time></trkpt><trkpt lat="44.998587504790585" lon="8.48414828516093"><ele>277.4</ele><time>2026-03-28T09:37:55Z</time></trkpt><trkpt lat="44.99868653406475" lon="8.48422238606786"><ele>279.0</ele><time>2026-03-28T09:37:56Z</time></trkpt><trkpt lat="44.99879571577107" lon="8.484311385983286"><ele>279.0</ele><time>2026-03-28T09:37:57Z</time></trkpt><trkpt lat="44.99890186978838" lon="8.484397914110476"><ele>279.0</ele><time>2026-03-28T09:37:58Z</time></trkpt><trkpt lat="44.998994650323944" lon="8.484470038994472"><ele>279.0</ele><time>2026-03-28T09:37:59Z</time></trkpt><trkpt lat="44.99912096691668" lon="8.484472849352866"><ele>279.0</ele><time>2026-03-28T09:38:00Z</time></trkpt><trkpt lat="44.99926226045924" lon="8.484437750924847"><ele>278.25</ele><time>2026-03-28T09:38:01Z</time></trkpt><trkpt lat="44.99941923971119" lon="8.48438999237071"><ele>277.5</ele><time>2026-03-28T09:38:02Z</time></trkpt><trkpt lat="44.9995603345818" lon="8.484354125338307"><ele>276.75</ele><time>2026-03-28T09:38:03Z</time></trkpt><trkpt lat="44.99968281385986" lon="8.484325807897655"><ele>276.0</ele><time>2026-03-28T09:38:04Z</time></trkpt><trkpt lat="44.99980126762599" lon="8.484291964668959"><ele>276.0</ele><time>2026-03-28T09:38:05Z</time></trkpt><trkpt lat="44.99992277753738" lon="8.484252315833164"><ele>276.0</ele><time>2026-03-28T09:38:06Z</time></trkpt><trkpt lat="45.000043311610206" lon="8.484208083199"><ele>276.0</ele><time>2026-03-28T09:38:07Z</time></trkpt><trkpt lat="45.0001589179092" lon="8.484183714771294"><ele>276.0</ele><time>2026-03-28T09:38:08Z</time></trkpt><trkpt lat="45.00028477337668" lon="8.484213750899025"><ele>276.0</ele><time>2026-03-28T09:38:09Z</time></trkpt><trkpt lat="45.000407666047124" lon="8.484289796614975"><ele>276.0</ele><time>2026-03-28T09:38:10Z</time></trkpt><trkpt lat="45.0005117333505" lon="8.484418447616358"><ele>276.0</ele><time>2026-03-28T09:38:11Z</time></trkpt><trkpt lat="45.000583034062345" lon="8.48459318764151"><ele>276.0</ele><time>2026-03-28T09:38:12Z</time></trkpt><trkpt lat="45.00067081498334" lon="8.484765025414086"><ele>274.75</ele><time>2026-03-28T09:38:13Z</time></trkpt><trkpt lat="45.00074661187071" lon="8.48494238651918"><ele>273.5</ele><time>2026-03-28T09:38:14Z</time></trkpt><trkpt lat="45.00082936040649" lon="8.485111258660943"><ele>272.25</ele><time>2026-03-28T09:38:15Z</time></trkpt><trkpt lat="45.00090784264472" lon="8.485275343894395"><ele>271.0</ele><time>2026-03-28T09:38:16Z</time></trkpt><trkpt lat="45.00099134902083" lon="8.485456980626243"><ele>267.0</ele><time>2026-03-28T09:38:17Z</time></trkpt><trkpt lat="45.00107386542061" lon="8.48563884674754"><ele>263.0</ele><time>2026-03-28T09:38:18Z</time></trkpt><trkpt lat="45.00116015345323" lon="8.485823978588034"><ele>259.0</ele><time>2026-03-28T09:38:19Z</time></trkpt><trkpt lat="45.00124198387422" lon="8.486012100547056"><ele>259.0</ele><time>2026-03-28T09:38:20Z</time></trkpt><trkpt lat="45.00131540381587" lon="8.486184455953131"><ele>259.0</ele><time>2026-03-28T09:38:21Z</time></trkpt><trkpt lat="45.001386140624206" lon="8.486348575258358"><ele>259.0</ele><time>2026-03-28T09:38:22Z</time></trkpt><trkpt lat="45.00146780190377" lon="8.486509449331491"><ele>259.0</ele><time>2026-03-28T09:38:23Z</time></trkpt><trkpt lat="45.00156637598468" lon="8.48665762668496"><ele>259.75</ele><time>2026-03-28T09:38:24Z</time></trkpt><trkpt lat="45.00167844844308" lon="8.48678590993222"><ele>260.5</ele><time>2026-03-28T09:38:25Z</time></trkpt><trkpt lat="45.00178167024108" lon="8.486866832693867"><ele>261.25</ele><time>2026-03-28T09:38:26Z</time></trkpt><trkpt lat="45.001868779353075" lon="8.486926102448978"><ele>262.0</ele><time>2026-03-28T09:38:27Z</time></trkpt><trkpt lat="45.00195193617016" lon="8.486983262562038"><ele>262.0</ele><time>2026-03-28T09:38:28Z</time></trkpt><trkpt lat="45.00204137569628" lon="8.487044492049343"><ele>262.0</ele><time>2026-03-28T09:38:29Z</time></trkpt><trkpt lat="45.002144184128156" lon="8.487115096642512"><ele>262.0</ele><time>2026-03-28T09:38:30Z</time></trkpt><trkpt lat="45.0022516941763" lon="8.487201720961453"><ele>262.0</ele><time>2026-03-28T09:38:31Z</time></trkpt><trkpt lat="45.002365361365584" lon="8.487292317967519"><ele>262.0</ele><time>2026-03-28T09:38:32Z</time></trkpt><trkpt lat="45.00247314429417" lon="8.487373975078468"><ele>262.0</ele><time>2026-03-28T09:38:33Z</time></trkpt><trkpt lat="45.00255867533465" lon="8.487439546331139"><ele>262.0</ele><time>2026-03-28T09:38:34Z</time></trkpt><trkpt lat="45.0026336629376" lon="8.487491621434602"><ele>262.0</ele><time>2026-03-28T09:38:35Z</time></trkpt><trkpt lat="45.00269564817275" lon="8.487525908745793"><ele>262.0</ele><time>2026-03-28T09:38:36Z</time></trkpt><trkpt lat="45.002778002367066" lon="8.487554186448092"><ele>262.0</ele><time>2026-03-28T09:38:38Z</time></trkpt><trkpt lat="45.00284572493353" lon="8.487528684989611"><ele>262.0</ele><time>2026-03-28T09:38:41Z</time></trkpt><trkpt lat="45.00289388675028" lon="8.487634081112715"><ele>262.0</ele><time>2026-03-28T09:38:43Z</time></trkpt><trkpt lat="45.00289426392516" lon="8.4877644349026"><ele>262.0</ele><time>2026-03-28T09:38:44Z</time></trkpt><trkpt lat="45.00290958741604" lon="8.487895372339555"><ele>262.0</ele><time>2026-03-28T09:38:45Z</time></trkpt><trkpt lat="45.00294185399686" lon="8.488032979958392"><ele>262.0</ele><time>2026-03-28T09:38:46Z</time></trkpt><trkpt lat="45.00296912577222" lon="8.488184106335753"><ele>260.4</ele><time>2026-03-28T09:38:47Z</time></trkpt><trkpt lat="45.002988807604915" lon="8.488337890738496"><ele>258.79999999999995</ele><time>2026-03-28T09:38:47.999Z</time></trkpt><trkpt lat="45.00302270772347" lon="8.488471187722732"><ele>257.2</ele><time>2026-03-28T09:38:48.999Z</time></trkpt><trkpt lat="45.00305181447526" lon="8.488597618882837"><ele>255.6</ele><time>2026-03-28T09:38:49.999Z</time></trkpt><trkpt lat="45.003085266931734" lon="8.488737896941169"><ele>254.0</ele><time>2026-03-28T09:38:50.999Z</time></trkpt><trkpt lat="45.00311567492908" lon="8.488868978135754"><ele>253.00000000000003</ele><time>2026-03-28T09:38:51.999Z</time></trkpt><trkpt lat="45.00314492440133" lon="8.488991997782467"><ele>252.0</ele><time>2026-03-28T09:38:52.999Z</time></trkpt><trkpt lat="45.00317134859389" lon="8.489106990878192"><ele>251.0</ele><time>2026-03-28T09:38:53.999Z</time></trkpt><trkpt lat="45.00320297748083" lon="8.489218268773937"><ele>250.0</ele><time>2026-03-28T09:38:54.999Z</time></trkpt><trkpt lat="45.003226775833234" lon="8.489329624453138"><ele>249.00000000000003</ele><time>2026-03-28T09:38:55.999Z</time></trkpt><trkpt lat="45.00324443438964" lon="8.489425789988811"><ele>248.0</ele><time>2026-03-28T09:38:56.999Z</time></trkpt><trkpt lat="45.00329085683039" lon="8.489598332220801"><ele>247.16666666666669</ele><time>2026-03-28T09:38:58.999Z</time></trkpt><trkpt lat="45.003324063049" lon="8.489692354523378"><ele>246.33333333333334</ele><time>2026-03-28T09:38:59.999Z</time></trkpt><trkpt lat="45.003366557639694" lon="8.489791570966215"><ele>245.5</ele><time>2026-03-28T09:39:00.999Z</time></trkpt><trkpt lat="45.003416226312645" lon="8.489900339501864"><ele>244.66666666666669</ele><time>2026-03-28T09:39:01.999Z</time></trkpt><trkpt lat="45.003457062154204" lon="8.490008358005898"><ele>243.83333333333334</ele><time>2026-03-28T09:39:02.999Z</time></trkpt><trkpt lat="45.003492953987326" lon="8.490123349716773"><ele>243.0</ele><time>2026-03-28T09:39:03.999Z</time></trkpt><trkpt lat="45.003532226248794" lon="8.490244187925414"><ele>245.8</ele><time>2026-03-28T09:39:04.999Z</time></trkpt><trkpt lat="45.00357402529297" lon="8.490372109369169"><ele>248.60000000000002</ele><time>2026-03-28T09:39:05.999Z</time></trkpt><trkpt lat="45.00360973053816" lon="8.490502475768734"><ele>251.39999999999998</ele><time>2026-03-28T09:39:06.999Z</time></trkpt><trkpt lat="45.00363678204854" lon="8.490627003038007"><ele>254.2</ele><time>2026-03-28T09:39:07.999Z</time></trkpt><trkpt lat="45.00366318758261" lon="8.490740691077162"><ele>257.0</ele><time>2026-03-28T09:39:08.999Z</time></trkpt><trkpt lat="45.00368807806726" lon="8.490850097133471"><ele>257.0</ele><time>2026-03-28T09:39:09.999Z</time></trkpt><trkpt lat="45.00371054470643" lon="8.490960201188052"><ele>257.0</ele><time>2026-03-28T09:39:10.999Z</time></trkpt><trkpt lat="45.00372971538989" lon="8.491073472574584"><ele>257.0</ele><time>2026-03-28T09:39:11.999Z</time></trkpt><trkpt lat="45.00375401800043" lon="8.491200579978473"><ele>257.0</ele><time>2026-03-28T09:39:12.999Z</time></trkpt><trkpt lat="45.00376977671124" lon="8.491324694229789"><ele>257.0</ele><time>2026-03-28T09:39:13.999Z</time></trkpt><trkpt lat="45.003778464540886" lon="8.491439300032289"><ele>257.0</ele><time>2026-03-28T09:39:14.999Z</time></trkpt><trkpt lat="45.00378216220389" lon="8.491552035560606"><ele>257.0</ele><time>2026-03-28T09:39:15.999Z</time></trkpt><trkpt lat="45.0037789771261" lon="8.491665686471315"><ele>257.0</ele><time>2026-03-28T09:39:16.999Z</time></trkpt><trkpt lat="45.00377443784981" lon="8.49178689977523"><ele>257.0</ele><time>2026-03-28T09:39:17.999Z</time></trkpt><trkpt lat="45.00376612786566" lon="8.491909187944067"><ele>257.0</ele><time>2026-03-28T09:39:18.999Z</time></trkpt><trkpt lat="45.00374941476539" lon="8.492030488716573"><ele>257.0</ele><time>2026-03-28T09:39:19.999Z</time></trkpt><trkpt lat="45.00372788047713" lon="8.49214398970561"><ele>257.0</ele><time>2026-03-28T09:39:20.999Z</time></trkpt><trkpt lat="45.00370932042405" lon="8.492253884825029"><ele>258.0</ele><time>2026-03-28T09:39:21.999Z</time></trkpt><trkpt lat="45.003686996360884" lon="8.492366806538303"><ele>259.0</ele><time>2026-03-28T09:39:22.999Z</time></trkpt><trkpt lat="45.00364819622573" lon="8.49245917463117"><ele>260.0</ele><time>2026-03-28T09:39:23.999Z</time></trkpt><trkpt lat="45.00358675554819" lon="8.492546744871417"><ele>261.0</ele><time>2026-03-28T09:39:24.999Z</time></trkpt><trkpt lat="45.0035165123855" lon="8.492637131752955"><ele>262.0</ele><time>2026-03-28T09:39:25.999Z</time></trkpt><trkpt lat="45.003431510485576" lon="8.492743291366514"><ele>259.3333333333333</ele><time>2026-03-28T09:39:26.999Z</time></trkpt><trkpt lat="45.003323518445" lon="8.492886637965263"><ele>256.6666666666667</ele><time>2026-03-28T09:39:27.999Z</time></trkpt><trkpt lat="45.00319455260243" lon="8.493060043425755"><ele>254.0</ele><time>2026-03-28T09:39:28.999Z</time></trkpt><trkpt lat="45.00306544265333" lon="8.493250653887335"><ele>254.0</ele><time>2026-03-28T09:39:29.999Z</time></trkpt><trkpt lat="45.002921298302745" lon="8.493420153266614"><ele>254.0</ele><time>2026-03-28T09:39:30.999Z</time></trkpt><trkpt lat="45.0027772130546" lon="8.493593771618665"><ele>254.0</ele><time>2026-03-28T09:39:31.999Z</time></trkpt><trkpt lat="45.00262938254618" lon="8.493768612329543"><ele>251.0</ele><time>2026-03-28T09:39:32.999Z</time></trkpt><trkpt lat="45.00247883059057" lon="8.493930655614221"><ele>248.0</ele><time>2026-03-28T09:39:33.999Z</time></trkpt><trkpt lat="45.002325629873674" lon="8.494086275793276"><ele>245.0</ele><time>2026-03-28T09:39:34.999Z</time></trkpt><trkpt lat="45.00217396639295" lon="8.494246254974936"><ele>245.0</ele><time>2026-03-28T09:39:35.999Z</time></trkpt><trkpt lat="45.00204580484405" lon="8.494422702303073"><ele>245.0</ele><time>2026-03-28T09:39:36.999Z</time></trkpt><trkpt lat="45.00193679696971" lon="8.494635956745844"><ele>245.0</ele><time>2026-03-28T09:39:37.999Z</time></trkpt><trkpt lat="45.0018459292293" lon="8.494882913758902"><ele>245.0</ele><time>2026-03-28T09:39:38.999Z</time></trkpt><trkpt lat="45.00176550757968" lon="8.495149078928884"><ele>245.0</ele><time>2026-03-28T09:39:39.999Z</time></trkpt><trkpt lat="45.00165996894449" lon="8.495406351312747"><ele>245.0</ele><time>2026-03-28T09:39:40.999Z</time></trkpt><trkpt lat="45.00152209037994" lon="8.495625765561023"><ele>245.0</ele><time>2026-03-28T09:39:41.999Z</time></trkpt><trkpt lat="45.00137808491318" lon="8.495828352654163"><ele>245.0</ele><time>2026-03-28T09:39:42.999Z</time></trkpt><trkpt lat="45.00124229402909" lon="8.496033200127677"><ele>245.0</ele><time>2026-03-28T09:39:43.999Z</time></trkpt><trkpt lat="45.00110507379194" lon="8.49623681869771"><ele>246.33333333333334</ele><time>2026-03-28T09:39:44.999Z</time></trkpt><trkpt lat="45.00097034356674" lon="8.496445145007668"><ele>247.66666666666669</ele><time>2026-03-28T09:39:45.999Z</time></trkpt><trkpt lat="45.000847355385496" lon="8.496664349699284"><ele>249.0</ele><time>2026-03-28T09:39:46.999Z</time></trkpt><trkpt lat="45.000736212376374" lon="8.49690092727479"><ele>245.0</ele><time>2026-03-28T09:39:47.999Z</time></trkpt><trkpt lat="45.0006377328792" lon="8.497146281724051"><ele>241.0</ele><time>2026-03-28T09:39:48.999Z</time></trkpt><trkpt lat="45.000531464293154" lon="8.49739792004129"><ele>237.0</ele><time>2026-03-28T09:39:49.999Z</time></trkpt><trkpt lat="45.000427151735124" lon="8.49764510246051"><ele>237.0</ele><time>2026-03-28T09:39:50.999Z</time></trkpt><trkpt lat="45.00032136038814" lon="8.49789259443889"><ele>237.0</ele><time>2026-03-28T09:39:51.999Z</time></trkpt><trkpt lat="45.00021124759385" lon="8.498134540096084"><ele>237.0</ele><time>2026-03-28T09:39:53Z</time></trkpt><trkpt lat="45.000079595665525" lon="8.498361648997891"><ele>238.66666666666669</ele><time>2026-03-28T09:39:54Z</time></trkpt><trkpt lat="44.999932539065895" lon="8.498566964589198"><ele>240.33333333333334</ele><time>2026-03-28T09:39:55Z</time></trkpt><trkpt lat="44.999771483221295" lon="8.498759658385925"><ele>242.0</ele><time>2026-03-28T09:39:56Z</time></trkpt><trkpt lat="44.99960133450597" lon="8.498931863578735"><ele>242.0</ele><time>2026-03-28T09:39:57Z</time></trkpt><trkpt lat="44.999427510656915" lon="8.499100930940216"><ele>242.0</ele><time>2026-03-28T09:39:58Z</time></trkpt><trkpt lat="44.99926036897554" lon="8.49926797279244"><ele>242.0</ele><time>2026-03-28T09:39:59Z</time></trkpt><trkpt lat="44.99909545859756" lon="8.499441708308073"><ele>241.0</ele><time>2026-03-28T09:40:00Z</time></trkpt><trkpt lat="44.998939359717546" lon="8.4996099907373"><ele>240.0</ele><time>2026-03-28T09:40:01Z</time></trkpt><trkpt lat="44.99878329820958" lon="8.499774902143185"><ele>239.0</ele><time>2026-03-28T09:40:02Z</time></trkpt><trkpt lat="44.998621395141186" lon="8.499954183053722"><ele>239.0</ele><time>2026-03-28T09:40:03Z</time></trkpt><trkpt lat="44.99846144433786" lon="8.50014767869829"><ele>239.0</ele><time>2026-03-28T09:40:04Z</time></trkpt><trkpt lat="44.99830069467435" lon="8.500349304095296"><ele>239.0</ele><time>2026-03-28T09:40:05Z</time></trkpt><trkpt lat="44.998147001472546" lon="8.500552731126236"><ele>238.66666666666669</ele><time>2026-03-28T09:40:06Z</time></trkpt><trkpt lat="44.99799897834007" lon="8.50076477374674"><ele>238.33333333333331</ele><time>2026-03-28T09:40:07Z</time></trkpt><trkpt lat="44.9978595181228" lon="8.500982378098197"><ele>238.0</ele><time>2026-03-28T09:40:08Z</time></trkpt><trkpt lat="44.99772850504361" lon="8.501211642385915"><ele>239.0</ele><time>2026-03-28T09:40:09Z</time></trkpt><trkpt lat="44.9976018100445" lon="8.501443886273965"><ele>240.0</ele><time>2026-03-28T09:40:10Z</time></trkpt><trkpt lat="44.99749328384976" lon="8.501685927169607"><ele>241.0</ele><time>2026-03-28T09:40:11Z</time></trkpt><trkpt lat="44.99741685681076" lon="8.501948599833796"><ele>240.33333333333331</ele><time>2026-03-28T09:40:12Z</time></trkpt><trkpt lat="44.99736431470575" lon="8.502228748584157"><ele>239.66666666666669</ele><time>2026-03-28T09:40:13Z</time></trkpt><trkpt lat="44.997328355052616" lon="8.502523197246072"><ele>239.0</ele><time>2026-03-28T09:40:14Z</time></trkpt><trkpt lat="44.99729899808999" lon="8.50283773379584"><ele>238.33333333333334</ele><time>2026-03-28T09:40:15Z</time></trkpt><trkpt lat="44.9972668412863" lon="8.50314536445761"><ele>237.66666666666669</ele><time>2026-03-28T09:40:16Z</time></trkpt><trkpt lat="44.997228787935995" lon="8.503451665699698"><ele>237.0</ele><time>2026-03-28T09:40:17Z</time></trkpt><trkpt lat="44.997193714875195" lon="8.50375259241245"><ele>236.66666666666669</ele><time>2026-03-28T09:40:18Z</time></trkpt><trkpt lat="44.997168284364335" lon="8.504048941661795"><ele>236.33333333333334</ele><time>2026-03-28T09:40:19Z</time></trkpt><trkpt lat="44.99715737771086" lon="8.504347580971036"><ele>236.0</ele><time>2026-03-28T09:40:20Z</time></trkpt><trkpt lat="44.997162137523034" lon="8.504645769867917"><ele>236.33333333333334</ele><time>2026-03-28T09:40:21Z</time></trkpt><trkpt lat="44.9971649262537" lon="8.504936855748841"><ele>236.66666666666669</ele><time>2026-03-28T09:40:22Z</time></trkpt><trkpt lat="44.99715973849675" lon="8.505221301134075"><ele>237.0</ele><time>2026-03-28T09:40:23Z</time></trkpt><trkpt lat="44.99714422196344" lon="8.505479142602388"><ele>237.0</ele><time>2026-03-28T09:40:24Z</time></trkpt><trkpt lat="44.997111129413476" lon="8.505742866342093"><ele>237.0</ele><time>2026-03-28T09:40:25Z</time></trkpt><trkpt lat="44.99705753363481" lon="8.505999195668082"><ele>237.0</ele><time>2026-03-28T09:40:26Z</time></trkpt><trkpt lat="44.996991073972296" lon="8.50622895094827"><ele>236.66666666666669</ele><time>2026-03-28T09:40:27Z</time></trkpt><trkpt lat="44.99691805521479" lon="8.506441044300612"><ele>236.33333333333334</ele><time>2026-03-28T09:40:28Z</time></trkpt><trkpt lat="44.99683352470833" lon="8.506646060553226"><ele>236.0</ele><time>2026-03-28T09:40:29Z</time></trkpt><trkpt lat="44.99674891684623" lon="8.506841748989807"><ele>236.0</ele><time>2026-03-28T09:40:30Z</time></trkpt><trkpt lat="44.996679360428594" lon="8.507021803840523"><ele>236.0</ele><time>2026-03-28T09:40:31Z</time></trkpt><trkpt lat="44.99661387441287" lon="8.507187624767658"><ele>236.0</ele><time>2026-03-28T09:40:32Z</time></trkpt><trkpt lat="44.99654947752792" lon="8.507342295107202"><ele>236.0</ele><time>2026-03-28T09:40:33Z</time></trkpt><trkpt lat="44.99649226071744" lon="8.507490370055326"><ele>235.75</ele><time>2026-03-28T09:40:34Z</time></trkpt><trkpt lat="44.996443352635886" lon="8.507645248629467"><ele>235.5</ele><time>2026-03-28T09:40:35Z</time></trkpt><trkpt lat="44.99639118202329" lon="8.507835885288657"><ele>235.25</ele><time>2026-03-28T09:40:36Z</time></trkpt><trkpt lat="44.99635792243172" lon="8.508077190507915"><ele>235.0</ele><time>2026-03-28T09:40:37Z</time></trkpt><trkpt lat="44.99635646707201" lon="8.508358427109478"><ele>235.0</ele><time>2026-03-28T09:40:38Z</time></trkpt><trkpt lat="44.99635361853495" lon="8.508635894153254"><ele>235.0</ele><time>2026-03-28T09:40:39Z</time></trkpt><trkpt lat="44.99636488314816" lon="8.508937379709705"><ele>235.0</ele><time>2026-03-28T09:40:40Z</time></trkpt><trkpt lat="44.996378228357614" lon="8.509277673480653"><ele>231.0</ele><time>2026-03-28T09:40:41Z</time></trkpt><trkpt lat="44.99638622596077" lon="8.509621061940306"><ele>227.0</ele><time>2026-03-28T09:40:42Z</time></trkpt><trkpt lat="44.99639949905858" lon="8.509935920458998"><ele>227.0</ele><time>2026-03-28T09:40:43Z</time></trkpt><trkpt lat="44.99643008911994" lon="8.51022385149697"><ele>227.0</ele><time>2026-03-28T09:40:44Z</time></trkpt><trkpt lat="44.99648536363919" lon="8.510492129665511"><ele>227.0</ele><time>2026-03-28T09:40:45Z</time></trkpt><trkpt lat="44.99655218055307" lon="8.510747675887096"><ele>227.0</ele><time>2026-03-28T09:40:46Z</time></trkpt><trkpt lat="44.99661005045059" lon="8.510997404471235"><ele>227.0</ele><time>2026-03-28T09:40:47Z</time></trkpt><trkpt lat="44.996658942235165" lon="8.511242210761345"><ele>227.0</ele><time>2026-03-28T09:40:48Z</time></trkpt><trkpt lat="44.9967085928535" lon="8.511480787974353"><ele>223.66666666666669</ele><time>2026-03-28T09:40:49Z</time></trkpt><trkpt lat="44.996758229023946" lon="8.511707353248555"><ele>220.33333333333331</ele><time>2026-03-28T09:40:50Z</time></trkpt><trkpt lat="44.996799606574356" lon="8.511929724903014"><ele>217.0</ele><time>2026-03-28T09:40:51Z</time></trkpt><trkpt lat="44.9968227290824" lon="8.51216099243909"><ele>215.33333333333331</ele><time>2026-03-28T09:40:52Z</time></trkpt><trkpt lat="44.996826207917906" lon="8.512416763963314"><ele>213.66666666666669</ele><time>2026-03-28T09:40:52.999Z</time></trkpt><trkpt lat="44.99680253532969" lon="8.512684956293853"><ele>212.0</ele><time>2026-03-28T09:40:53.999Z</time></trkpt><trkpt lat="44.99675408471684" lon="8.512957145016998"><ele>211.33333333333334</ele><time>2026-03-28T09:40:54.999Z</time></trkpt><trkpt lat="44.996695339841786" lon="8.513236747790407"><ele>210.66666666666669</ele><time>2026-03-28T09:40:55.999Z</time></trkpt><trkpt lat="44.996630227849764" lon="8.513519303213378"><ele>210.0</ele><time>2026-03-28T09:40:56.999Z</time></trkpt><trkpt lat="44.99656880934814" lon="8.51380729647546"><ele>210.0</ele><time>2026-03-28T09:40:57.999Z</time></trkpt><trkpt lat="44.996515798923596" lon="8.514098593916238"><ele>210.0</ele><time>2026-03-28T09:40:58.999Z</time></trkpt><trkpt lat="44.99648222940622" lon="8.514399901650755"><ele>210.0</ele><time>2026-03-28T09:40:59.999Z</time></trkpt><trkpt lat="44.99647079737366" lon="8.514702974095588"><ele>210.33333333333331</ele><time>2026-03-28T09:41:00.999Z</time></trkpt><trkpt lat="44.996465836156" lon="8.515007420969692"><ele>210.66666666666666</ele><time>2026-03-28T09:41:01.999Z</time></trkpt><trkpt lat="44.996459355505166" lon="8.515306694265576"><ele>211.0</ele><time>2026-03-28T09:41:02.999Z</time></trkpt><trkpt lat="44.99645075651685" lon="8.515601247479744"><ele>211.0</ele><time>2026-03-28T09:41:03.999Z</time></trkpt><trkpt lat="44.99644713769871" lon="8.515888993504301"><ele>211.0</ele><time>2026-03-28T09:41:04.999Z</time></trkpt><trkpt lat="44.996455379832966" lon="8.51617246597328"><ele>211.0</ele><time>2026-03-28T09:41:05.999Z</time></trkpt><trkpt lat="44.99648003633339" lon="8.516453353885408"><ele>211.0</ele><time>2026-03-28T09:41:06.999Z</time></trkpt><trkpt lat="44.99651954597864" lon="8.51672974652936"><ele>211.0</ele><time>2026-03-28T09:41:07.999Z</time></trkpt><trkpt lat="44.99656932393373" lon="8.51700215410498"><ele>211.0</ele><time>2026-03-28T09:41:08.999Z</time></trkpt><trkpt lat="44.99661894965095" lon="8.517275939672357"><ele>211.0</ele><time>2026-03-28T09:41:09.999Z</time></trkpt><trkpt lat="44.996667026153396" lon="8.517549975449459"><ele>211.0</ele><time>2026-03-28T09:41:10.999Z</time></trkpt><trkpt lat="44.99671701506178" lon="8.517826023399325"><ele>211.0</ele><time>2026-03-28T09:41:11.999Z</time></trkpt><trkpt lat="44.996765196907056" lon="8.518101681539804"><ele>209.33333333333331</ele><time>2026-03-28T09:41:12.999Z</time></trkpt><trkpt lat="44.99681073050787" lon="8.518377738288875"><ele>207.66666666666669</ele><time>2026-03-28T09:41:13.999Z</time></trkpt><trkpt lat="44.99685686327058" lon="8.51865495444343"><ele>206.0</ele><time>2026-03-28T09:41:14.999Z</time></trkpt><trkpt lat="44.996904418580286" lon="8.518929441946925"><ele>206.0</ele><time>2026-03-28T09:41:15.999Z</time></trkpt><trkpt lat="44.99695024170941" lon="8.51920143055442"><ele>206.0</ele><time>2026-03-28T09:41:16.999Z</time></trkpt><trkpt lat="44.996996518865316" lon="8.519474484387908"><ele>206.0</ele><time>2026-03-28T09:41:17.999Z</time></trkpt><trkpt lat="44.997043835825366" lon="8.519744196923385"><ele>206.0</ele><time>2026-03-28T09:41:18.999Z</time></trkpt><trkpt lat="44.99709033945144" lon="8.520013780035177"><ele>206.0</ele><time>2026-03-28T09:41:19.999Z</time></trkpt><trkpt lat="44.997137287587904" lon="8.520280063181374"><ele>206.0</ele><time>2026-03-28T09:41:20.999Z</time></trkpt><trkpt lat="44.99718550968593" lon="8.520546389463656"><ele>205.0</ele><time>2026-03-28T09:41:21.999Z</time></trkpt><trkpt lat="44.99723410113086" lon="8.520816898174733"><ele>204.0</ele><time>2026-03-28T09:41:22.999Z</time></trkpt><trkpt lat="44.99728477455288" lon="8.521090859009785"><ele>203.0</ele><time>2026-03-28T09:41:23.999Z</time></trkpt><trkpt lat="44.997334522961204" lon="8.521365693198913"><ele>202.33333333333334</ele><time>2026-03-28T09:41:24.999Z</time></trkpt><trkpt lat="44.99738842850823" lon="8.521635188792139"><ele>201.66666666666669</ele><time>2026-03-28T09:41:25.999Z</time></trkpt><trkpt lat="44.997438380520045" lon="8.521914505525851"><ele>201.0</ele><time>2026-03-28T09:41:26.999Z</time></trkpt><trkpt lat="44.99748454285548" lon="8.52219533884258"><ele>197.66666666666666</ele><time>2026-03-28T09:41:27.999Z</time></trkpt><trkpt lat="44.99752577093481" lon="8.522473683342305"><ele>194.33333333333331</ele><time>2026-03-28T09:41:28.999Z</time></trkpt><trkpt lat="44.997559623621065" lon="8.522754563546938"><ele>191.0</ele><time>2026-03-28T09:41:29.999Z</time></trkpt><trkpt lat="44.997583645495396" lon="8.52303906114862"><ele>191.0</ele><time>2026-03-28T09:41:30.999Z</time></trkpt><trkpt lat="44.99759953998965" lon="8.523326093034301"><ele>191.0</ele><time>2026-03-28T09:41:31.999Z</time></trkpt><trkpt lat="44.9975989028336" lon="8.523619070849193"><ele>191.0</ele><time>2026-03-28T09:41:32.999Z</time></trkpt><trkpt lat="44.99756582309283" lon="8.523913249680904"><ele>190.66666666666666</ele><time>2026-03-28T09:41:33.999Z</time></trkpt><trkpt lat="44.9975053844086" lon="8.52419992441989"><ele>190.33333333333334</ele><time>2026-03-28T09:41:34.999Z</time></trkpt><trkpt lat="44.99744328868923" lon="8.524477331512328"><ele>190.0</ele><time>2026-03-28T09:41:35.999Z</time></trkpt><trkpt lat="44.99738672793043" lon="8.524756821930398"><ele>193.33333333333334</ele><time>2026-03-28T09:41:36.999Z</time></trkpt><trkpt lat="44.99733260095196" lon="8.525036748463146"><ele>196.66666666666669</ele><time>2026-03-28T09:41:37.999Z</time></trkpt><trkpt lat="44.99728463053121" lon="8.525317053621299"><ele>200.0</ele><time>2026-03-28T09:41:38.999Z</time></trkpt><trkpt lat="44.99723976378659" lon="8.525603447860437"><ele>200.0</ele><time>2026-03-28T09:41:39.999Z</time></trkpt><trkpt lat="44.997187450224494" lon="8.525886366300377"><ele>200.0</ele><time>2026-03-28T09:41:40.999Z</time></trkpt><trkpt lat="44.99713571186115" lon="8.526168874491445"><ele>200.0</ele><time>2026-03-28T09:41:41.999Z</time></trkpt><trkpt lat="44.99708804779589" lon="8.526451979730647"><ele>200.0</ele><time>2026-03-28T09:41:42.999Z</time></trkpt><trkpt lat="44.997046395549916" lon="8.526704231386587"><ele>200.0</ele><time>2026-03-28T09:41:43.999Z</time></trkpt><trkpt lat="44.99701716946297" lon="8.526970587347847"><ele>200.0</ele><time>2026-03-28T09:41:44.999Z</time></trkpt><trkpt lat="44.99699249513533" lon="8.527242813510501"><ele>200.0</ele><time>2026-03-28T09:41:45.999Z</time></trkpt><trkpt lat="44.99694045299759" lon="8.527486164933554"><ele>200.0</ele><time>2026-03-28T09:41:46.999Z</time></trkpt><trkpt lat="44.99685610899127" lon="8.527719216731539"><ele>200.0</ele><time>2026-03-28T09:41:47.999Z</time></trkpt><trkpt lat="44.99677757433352" lon="8.527915920990766"><ele>200.66666666666669</ele><time>2026-03-28T09:41:48.999Z</time></trkpt><trkpt lat="44.99670936087472" lon="8.528090485677641"><ele>201.33333333333331</ele><time>2026-03-28T09:41:49.999Z</time></trkpt><trkpt lat="44.99662506244612" lon="8.528263886396648"><ele>202.0</ele><time>2026-03-28T09:41:50.999Z</time></trkpt><trkpt lat="44.996512522812495" lon="8.528432525698399"><ele>203.33333333333331</ele><time>2026-03-28T09:41:51.999Z</time></trkpt><trkpt lat="44.99637939302525" lon="8.528594233458636"><ele>204.66666666666669</ele><time>2026-03-28T09:41:52.999Z</time></trkpt><trkpt lat="44.99626736927974" lon="8.528776728304623"><ele>206.0</ele><time>2026-03-28T09:41:53.999Z</time></trkpt><trkpt lat="44.99619169283745" lon="8.529004203471786"><ele>206.0</ele><time>2026-03-28T09:41:54.999Z</time></trkpt><trkpt lat="44.99614927574185" lon="8.529273671944006"><ele>206.0</ele><time>2026-03-28T09:41:55.999Z</time></trkpt><trkpt lat="44.9961298127309" lon="8.529568301055077"><ele>206.0</ele><time>2026-03-28T09:41:56.999Z</time></trkpt><trkpt lat="44.996109246780435" lon="8.529874696423288"><ele>202.66666666666669</ele><time>2026-03-28T09:41:57.999Z</time></trkpt><trkpt lat="44.99607082705441" lon="8.53014973340147"><ele>199.33333333333331</ele><time>2026-03-28T09:41:59Z</time></trkpt><trkpt lat="44.99602045799989" lon="8.530384698673904"><ele>196.0</ele><time>2026-03-28T09:42:00Z</time></trkpt><trkpt lat="44.995973346455614" lon="8.530606754200637"><ele>195.33333333333331</ele><time>2026-03-28T09:42:01Z</time></trkpt><trkpt lat="44.99592981071664" lon="8.530824681211735"><ele>194.66666666666669</ele><time>2026-03-28T09:42:02Z</time></trkpt><trkpt lat="44.99592705786079" lon="8.53104803700089"><ele>194.0</ele><time>2026-03-28T09:42:03Z</time></trkpt><trkpt lat="44.995980146910355" lon="8.531283818298917"><ele>195.66666666666669</ele><time>2026-03-28T09:42:04Z</time></trkpt><trkpt lat="44.99607672519614" lon="8.53152074367391"><ele>197.33333333333331</ele><time>2026-03-28T09:42:05Z</time></trkpt><trkpt lat="44.996187841238" lon="8.531759691127448"><ele>199.0</ele><time>2026-03-28T09:42:06Z</time></trkpt><trkpt lat="44.996279353676506" lon="8.53200963748982"><ele>201.0</ele><time>2026-03-28T09:42:07Z</time></trkpt><trkpt lat="44.99635061094729" lon="8.532250579367126"><ele>203.0</ele><time>2026-03-28T09:42:08Z</time></trkpt><trkpt lat="44.99640564065724" lon="8.532484524378509"><ele>205.0</ele><time>2026-03-28T09:42:09Z</time></trkpt><trkpt lat="44.99644237596931" lon="8.532721662260975"><ele>206.66666666666666</ele><time>2026-03-28T09:42:10Z</time></trkpt><trkpt lat="44.996471665161245" lon="8.532969358361477"><ele>208.33333333333331</ele><time>2026-03-28T09:42:11Z</time></trkpt><trkpt lat="44.99650224115399" lon="8.533219653216985"><ele>210.0</ele><time>2026-03-28T09:42:12Z</time></trkpt><trkpt lat="44.99652269504027" lon="8.53347443677645"><ele>211.33333333333331</ele><time>2026-03-28T09:42:13Z</time></trkpt><trkpt lat="44.996525474009644" lon="8.533733885859677"><ele>212.66666666666666</ele><time>2026-03-28T09:42:14Z</time></trkpt><trkpt lat="44.996512665032974" lon="8.533988938078467"><ele>214.0</ele><time>2026-03-28T09:42:15Z</time></trkpt><trkpt lat="44.99648274364798" lon="8.534236160361118"><ele>214.0</ele><time>2026-03-28T09:42:16Z</time></trkpt><trkpt lat="44.9964368245412" lon="8.53447155768954"><ele>214.0</ele><time>2026-03-28T09:42:17Z</time></trkpt><trkpt lat="44.996376477518844" lon="8.534695791269941"><ele>214.0</ele><time>2026-03-28T09:42:18Z</time></trkpt><trkpt lat="44.996273583376436" lon="8.534892408089668"><ele>213.33333333333331</ele><time>2026-03-28T09:42:19Z</time></trkpt><trkpt lat="44.996195767265085" lon="8.535109287633052"><ele>212.66666666666669</ele><time>2026-03-28T09:42:20Z</time></trkpt><trkpt lat="44.99610223992429" lon="8.535306212008322"><ele>212.0</ele><time>2026-03-28T09:42:21Z</time></trkpt><trkpt lat="44.99601960724802" lon="8.53548609854108"><ele>211.0</ele><time>2026-03-28T09:42:22Z</time></trkpt><trkpt lat="44.995938996602945" lon="8.535644799250466"><ele>210.0</ele><time>2026-03-28T09:42:23Z</time></trkpt><trkpt lat="44.99585666301121" lon="8.535809331001836"><ele>209.0</ele><time>2026-03-28T09:42:24Z</time></trkpt><trkpt lat="44.99575523801475" lon="8.535981328092749"><ele>208.0</ele><time>2026-03-28T09:42:25Z</time></trkpt><trkpt lat="44.995652878257175" lon="8.536159107593978"><ele>212.66666666666666</ele><time>2026-03-28T09:42:26Z</time></trkpt><trkpt lat="44.99559444282601" lon="8.536368097278283"><ele>217.33333333333331</ele><time>2026-03-28T09:42:27Z</time></trkpt><trkpt lat="44.995584936451" lon="8.536610487014666"><ele>222.0</ele><time>2026-03-28T09:42:28Z</time></trkpt><trkpt lat="44.99561983378829" lon="8.536867109931121"><ele>222.66666666666669</ele><time>2026-03-28T09:42:29Z</time></trkpt><trkpt lat="44.99569245308886" lon="8.537119688857736"><ele>223.33333333333334</ele><time>2026-03-28T09:42:30Z</time></trkpt><trkpt lat="44.99577257918277" lon="8.53733110149256"><ele>224.0</ele><time>2026-03-28T09:42:31Z</time></trkpt><trkpt lat="44.995835436204054" lon="8.537538174441098"><ele>221.33333333333334</ele><time>2026-03-28T09:42:32Z</time></trkpt><trkpt lat="44.995878972426766" lon="8.537767771703681"><ele>218.66666666666669</ele><time>2026-03-28T09:42:33Z</time></trkpt><trkpt lat="44.99590788410289" lon="8.53800213769538"><ele>216.0</ele><time>2026-03-28T09:42:34Z</time></trkpt><trkpt lat="44.995925371377744" lon="8.53823650209213"><ele>216.0</ele><time>2026-03-28T09:42:35Z</time></trkpt><trkpt lat="44.99593619848887" lon="8.538465333949357"><ele>216.0</ele><time>2026-03-28T09:42:36Z</time></trkpt><trkpt lat="44.99594739039586" lon="8.538680365320602"><ele>216.0</ele><time>2026-03-28T09:42:37Z</time></trkpt><trkpt lat="44.995960132458116" lon="8.538903081122184"><ele>215.0</ele><time>2026-03-28T09:42:38Z</time></trkpt><trkpt lat="44.99595544907465" lon="8.539136085794906"><ele>214.0</ele><time>2026-03-28T09:42:39Z</time></trkpt><trkpt lat="44.995930641236455" lon="8.539368974095515"><ele>213.0</ele><time>2026-03-28T09:42:40Z</time></trkpt><trkpt lat="44.99590485848599" lon="8.539597281884989"><ele>212.66666666666669</ele><time>2026-03-28T09:42:41Z</time></trkpt><trkpt lat="44.99588665561169" lon="8.5398292823968"><ele>212.33333333333334</ele><time>2026-03-28T09:42:42Z</time></trkpt><trkpt lat="44.995877832910146" lon="8.540061262892111"><ele>212.0</ele><time>2026-03-28T09:42:43Z</time></trkpt><trkpt lat="44.995884434659565" lon="8.54029776025108"><ele>212.0</ele><time>2026-03-28T09:42:44Z</time></trkpt><trkpt lat="44.9959096308864" lon="8.540534705267468"><ele>212.0</ele><time>2026-03-28T09:42:45Z</time></trkpt><trkpt lat="44.99594084161547" lon="8.540773173830596"><ele>212.0</ele><time>2026-03-28T09:42:46Z</time></trkpt><trkpt lat="44.99597073089491" lon="8.541011279132022"><ele>213.66666666666669</ele><time>2026-03-28T09:42:47Z</time></trkpt><trkpt lat="44.99599291955814" lon="8.541245160505358"><ele>215.33333333333331</ele><time>2026-03-28T09:42:48Z</time></trkpt><trkpt lat="44.99601691882737" lon="8.541477977583684"><ele>217.0</ele><time>2026-03-28T09:42:49Z</time></trkpt><trkpt lat="44.99604709508083" lon="8.541703587204136"><ele>217.0</ele><time>2026-03-28T09:42:50Z</time></trkpt><trkpt lat="44.996070343505" lon="8.541927049525011"><ele>217.0</ele><time>2026-03-28T09:42:51Z</time></trkpt><trkpt lat="44.99608060958724" lon="8.542149708777306"><ele>217.0</ele><time>2026-03-28T09:42:52Z</time></trkpt><trkpt lat="44.99608513250106" lon="8.542373058072343"><ele>219.0</ele><time>2026-03-28T09:42:52.999Z</time></trkpt><trkpt lat="44.99609380960934" lon="8.542590534202345"><ele>221.0</ele><time>2026-03-28T09:42:53.999Z</time></trkpt><trkpt lat="44.996125227576826" lon="8.542791469858185"><ele>223.0</ele><time>2026-03-28T09:42:54.999Z</time></trkpt><trkpt lat="44.99618545665343" lon="8.542988848807894"><ele>223.0</ele><time>2026-03-28T09:42:55.999Z</time></trkpt><trkpt lat="44.99625713476465" lon="8.54319288456369"><ele>223.0</ele><time>2026-03-28T09:42:56.999Z</time></trkpt><trkpt lat="44.99633550096033" lon="8.543397101921618"><ele>223.0</ele><time>2026-03-28T09:42:57.999Z</time></trkpt><trkpt lat="44.996411787541255" lon="8.543587929409819"><ele>223.66666666666666</ele><time>2026-03-28T09:42:58.999Z</time></trkpt><trkpt lat="44.99647733070776" lon="8.543776035898809"><ele>224.33333333333331</ele><time>2026-03-28T09:42:59.999Z</time></trkpt><trkpt lat="44.99651402469857" lon="8.543994248644692"><ele>225.0</ele><time>2026-03-28T09:43:00.999Z</time></trkpt><trkpt lat="44.996519984327996" lon="8.544222281023716"><ele>225.0</ele><time>2026-03-28T09:43:01.999Z</time></trkpt><trkpt lat="44.996510997923664" lon="8.54445506756068"><ele>225.0</ele><time>2026-03-28T09:43:02.999Z</time></trkpt><trkpt lat="44.9964764121698" lon="8.544682214967654"><ele>225.0</ele><time>2026-03-28T09:43:03.999Z</time></trkpt><trkpt lat="44.996437293411205" lon="8.544905721842987"><ele>223.66666666666669</ele><time>2026-03-28T09:43:04.999Z</time></trkpt><trkpt lat="44.996398951056854" lon="8.545125254654282"><ele>222.33333333333334</ele><time>2026-03-28T09:43:05.999Z</time></trkpt><trkpt lat="44.9963583643986" lon="8.54535438174002"><ele>221.0</ele><time>2026-03-28T09:43:06.999Z</time></trkpt><trkpt lat="44.996318523489855" lon="8.545589521781482"><ele>221.0</ele><time>2026-03-28T09:43:07.999Z</time></trkpt><trkpt lat="44.996291780364984" lon="8.545826506932308"><ele>221.0</ele><time>2026-03-28T09:43:08.999Z</time></trkpt><trkpt lat="44.996277420259844" lon="8.54607142770997"><ele>221.0</ele><time>2026-03-28T09:43:09.999Z</time></trkpt><trkpt lat="44.99627526444883" lon="8.54631965678012"><ele>221.0</ele><time>2026-03-28T09:43:10.999Z</time></trkpt><trkpt lat="44.996279416931124" lon="8.54656178073692"><ele>221.0</ele><time>2026-03-28T09:43:11.999Z</time></trkpt><trkpt lat="44.99627886292769" lon="8.546802298523552"><ele>221.0</ele><time>2026-03-28T09:43:12.999Z</time></trkpt><trkpt lat="44.99627342504127" lon="8.547021814287001"><ele>222.33333333333334</ele><time>2026-03-28T09:43:13.999Z</time></trkpt><trkpt lat="44.99626798991055" lon="8.547240755217107"><ele>223.66666666666669</ele><time>2026-03-28T09:43:14.999Z</time></trkpt><trkpt lat="44.996264204057674" lon="8.547475943175774"><ele>225.0</ele><time>2026-03-28T09:43:15.999Z</time></trkpt><trkpt lat="44.99625959447114" lon="8.547724004478487"><ele>224.33333333333331</ele><time>2026-03-28T09:43:16.999Z</time></trkpt><trkpt lat="44.9962542385712" lon="8.547958736823965"><ele>223.66666666666666</ele><time>2026-03-28T09:43:17.999Z</time></trkpt><trkpt lat="44.996256297442116" lon="8.548179087356882"><ele>223.0</ele><time>2026-03-28T09:43:18.999Z</time></trkpt><trkpt lat="44.99627465550525" lon="8.548404267128234"><ele>223.0</ele><time>2026-03-28T09:43:19.999Z</time></trkpt><trkpt lat="44.99629350956755" lon="8.548627273247481"><ele>223.0</ele><time>2026-03-28T09:43:20.999Z</time></trkpt><trkpt lat="44.99629827111334" lon="8.548851779191548"><ele>223.0</ele><time>2026-03-28T09:43:21.999Z</time></trkpt><trkpt lat="44.9962945473019" lon="8.549077437570887"><ele>221.33333333333331</ele><time>2026-03-28T09:43:22.999Z</time></trkpt><trkpt lat="44.996280047141255" lon="8.549296259791637"><ele>219.66666666666669</ele><time>2026-03-28T09:43:23.999Z</time></trkpt><trkpt lat="44.99627063848199" lon="8.549520718769234"><ele>218.0</ele><time>2026-03-28T09:43:24.999Z</time></trkpt><trkpt lat="44.996258841972775" lon="8.54974424161981"><ele>217.5</ele><time>2026-03-28T09:43:25.999Z</time></trkpt><trkpt lat="44.99624568665197" lon="8.549959727482888"><ele>217.0</ele><time>2026-03-28T09:43:26.999Z</time></trkpt><trkpt lat="44.99623254537235" lon="8.550160458635473"><ele>216.5</ele><time>2026-03-28T09:43:27.999Z</time></trkpt><trkpt lat="44.99621959653753" lon="8.55037266887809"><ele>216.0</ele><time>2026-03-28T09:43:28.999Z</time></trkpt><trkpt lat="44.99620881105328" lon="8.55059730521836"><ele>214.33333333333331</ele><time>2026-03-28T09:43:29.999Z</time></trkpt><trkpt lat="44.996197522261916" lon="8.550825693423594"><ele>212.66666666666666</ele><time>2026-03-28T09:43:30.999Z</time></trkpt><trkpt lat="44.996187945250156" lon="8.551041846349397"><ele>211.0</ele><time>2026-03-28T09:43:31.999Z</time></trkpt><trkpt lat="44.99618140555197" lon="8.55124735892482"><ele>210.33333333333331</ele><time>2026-03-28T09:43:32.999Z</time></trkpt><trkpt lat="44.99617933762524" lon="8.551461771181016"><ele>209.66666666666669</ele><time>2026-03-28T09:43:33.999Z</time></trkpt><trkpt lat="44.99619012334218" lon="8.551695189245464"><ele>209.0</ele><time>2026-03-28T09:43:34.999Z</time></trkpt><trkpt lat="44.99620952030855" lon="8.551941524231925"><ele>208.33333333333334</ele><time>2026-03-28T09:43:35.999Z</time></trkpt><trkpt lat="44.996239329733086" lon="8.552188126110146"><ele>207.66666666666669</ele><time>2026-03-28T09:43:36.999Z</time></trkpt><trkpt lat="44.99626976006119" lon="8.552419926338677"><ele>207.0</ele><time>2026-03-28T09:43:37.999Z</time></trkpt><trkpt lat="44.99629674960952" lon="8.552641950151232"><ele>207.0</ele><time>2026-03-28T09:43:38.999Z</time></trkpt><trkpt lat="44.99632583492454" lon="8.552858747143091"><ele>207.0</ele><time>2026-03-28T09:43:39.999Z</time></trkpt><trkpt lat="44.99635543728444" lon="8.5530681719935"><ele>207.0</ele><time>2026-03-28T09:43:40.999Z</time></trkpt><trkpt lat="44.996391379361356" lon="8.553282529329847"><ele>206.33333333333331</ele><time>2026-03-28T09:43:41.999Z</time></trkpt><trkpt lat="44.99643712050306" lon="8.553498155008544"><ele>205.66666666666666</ele><time>2026-03-28T09:43:42.999Z</time></trkpt><trkpt lat="44.99649607595433" lon="8.553712015672042"><ele>205.0</ele><time>2026-03-28T09:43:43.999Z</time></trkpt><trkpt lat="44.9965648998799" lon="8.553929645372662"><ele>204.66666666666666</ele><time>2026-03-28T09:43:44.999Z</time></trkpt><trkpt lat="44.99664051198598" lon="8.554148514093388"><ele>204.33333333333331</ele><time>2026-03-28T09:43:45.999Z</time></trkpt><trkpt lat="44.99672333837907" lon="8.55436952982804"><ele>204.0</ele><time>2026-03-28T09:43:46.999Z</time></trkpt><trkpt lat="44.996815420229126" lon="8.554585337604102"><ele>203.66666666666669</ele><time>2026-03-28T09:43:47.999Z</time></trkpt><trkpt lat="44.99691576899061" lon="8.554799962724495"><ele>203.33333333333334</ele><time>2026-03-28T09:43:48.999Z</time></trkpt><trkpt lat="44.99701367337827" lon="8.555011315945306"><ele>203.0</ele><time>2026-03-28T09:43:49.999Z</time></trkpt><trkpt lat="44.99710433783952" lon="8.555208226359637"><ele>204.0</ele><time>2026-03-28T09:43:50.999Z</time></trkpt><trkpt lat="44.99719474499133" lon="8.555399835031448"><ele>205.0</ele><time>2026-03-28T09:43:51.999Z</time></trkpt><trkpt lat="44.99727691160831" lon="8.55558477436217"><ele>206.0</ele><time>2026-03-28T09:43:52.999Z</time></trkpt><trkpt lat="44.99735798542051" lon="8.555764295437369"><ele>206.0</ele><time>2026-03-28T09:43:53.999Z</time></trkpt><trkpt lat="44.99744041648395" lon="8.555942045543675"><ele>206.0</ele><time>2026-03-28T09:43:54.999Z</time></trkpt><trkpt lat="44.997525697939196" lon="8.556118118720615"><ele>206.0</ele><time>2026-03-28T09:43:55.999Z</time></trkpt><trkpt lat="44.99760785552235" lon="8.55630270545779"><ele>207.33333333333334</ele><time>2026-03-28T09:43:56.999Z</time></trkpt><trkpt lat="44.99768792052393" lon="8.556491035744237"><ele>208.66666666666669</ele><time>2026-03-28T09:43:57.999Z</time></trkpt><trkpt lat="44.997773672757155" lon="8.55667982045416"><ele>210.0</ele><time>2026-03-28T09:43:58.999Z</time></trkpt><trkpt lat="44.997862626389356" lon="8.556861965778234"><ele>210.66666666666669</ele><time>2026-03-28T09:43:59.999Z</time></trkpt><trkpt lat="44.997952716461754" lon="8.557046331848275"><ele>211.33333333333334</ele><time>2026-03-28T09:44:00.999Z</time></trkpt><trkpt lat="44.99804087086031" lon="8.557228741085607"><ele>212.0</ele><time>2026-03-28T09:44:01.999Z</time></trkpt><trkpt lat="44.998132248379854" lon="8.557420419506977"><ele>212.0</ele><time>2026-03-28T09:44:02.999Z</time></trkpt><trkpt lat="44.99821993362849" lon="8.557616236869682"><ele>212.0</ele><time>2026-03-28T09:44:04Z</time></trkpt><trkpt lat="44.998291568872865" lon="8.557820128219742"><ele>212.0</ele><time>2026-03-28T09:44:05Z</time></trkpt><trkpt lat="44.998341706442645" lon="8.55803709425695"><ele>215.0</ele><time>2026-03-28T09:44:06Z</time></trkpt><trkpt lat="44.99836374713244" lon="8.558269205776186"><ele>218.0</ele><time>2026-03-28T09:44:07Z</time></trkpt><trkpt lat="44.9983775188063" lon="8.558510311804811"><ele>221.0</ele><time>2026-03-28T09:44:08Z</time></trkpt><trkpt lat="44.99837632786535" lon="8.558755271047342"><ele>221.33333333333334</ele><time>2026-03-28T09:44:09Z</time></trkpt><trkpt lat="44.998365424923755" lon="8.558998222958296"><ele>221.66666666666669</ele><time>2026-03-28T09:44:10Z</time></trkpt><trkpt lat="44.998351492797845" lon="8.559246156283656"><ele>222.0</ele><time>2026-03-28T09:44:11Z</time></trkpt><trkpt lat="44.99833034148821" lon="8.5594863186303"><ele>220.33333333333331</ele><time>2026-03-28T09:44:12Z</time></trkpt><trkpt lat="44.998289975611755" lon="8.559719883635204"><ele>218.66666666666666</ele><time>2026-03-28T09:44:13Z</time></trkpt><trkpt lat="44.99823683007" lon="8.559950656123664"><ele>217.0</ele><time>2026-03-28T09:44:14Z</time></trkpt><trkpt lat="44.99818015547386" lon="8.560177514444822"><ele>218.33333333333331</ele><time>2026-03-28T09:44:15Z</time></trkpt><trkpt lat="44.99813351493919" lon="8.560400409590244"><ele>219.66666666666669</ele><time>2026-03-28T09:44:16Z</time></trkpt><trkpt lat="44.998086734794136" lon="8.560625010694949"><ele>221.0</ele><time>2026-03-28T09:44:17Z</time></trkpt><trkpt lat="44.998032412283486" lon="8.560835139201066"><ele>221.0</ele><time>2026-03-28T09:44:18Z</time></trkpt><trkpt lat="44.997967508371765" lon="8.561026903609903"><ele>221.0</ele><time>2026-03-28T09:44:19Z</time></trkpt><trkpt lat="44.99789888327269" lon="8.561212784801342"><ele>221.0</ele><time>2026-03-28T09:44:20Z</time></trkpt><trkpt lat="44.99783015187829" lon="8.561415600752532"><ele>221.5</ele><time>2026-03-28T09:44:21Z</time></trkpt><trkpt lat="44.997765056706086" lon="8.561603161667128"><ele>222.0</ele><time>2026-03-28T09:44:22Z</time></trkpt><trkpt lat="44.997704368856496" lon="8.56176237671049"><ele>222.5</ele><time>2026-03-28T09:44:23Z</time></trkpt><trkpt lat="44.997647583432986" lon="8.561914138225506"><ele>223.0</ele><time>2026-03-28T09:44:24Z</time></trkpt><trkpt lat="44.997598464158735" lon="8.56206066171348"><ele>221.8</ele><time>2026-03-28T09:44:25Z</time></trkpt><trkpt lat="44.997550311372066" lon="8.562202930049615"><ele>220.60000000000002</ele><time>2026-03-28T09:44:26Z</time></trkpt><trkpt lat="44.99750060298001" lon="8.562338037672234"><ele>219.39999999999998</ele><time>2026-03-28T09:44:27Z</time></trkpt><trkpt lat="44.9974504176799" lon="8.562465315205715"><ele>218.2</ele><time>2026-03-28T09:44:28Z</time></trkpt><trkpt lat="44.99740779588769" lon="8.562588358137821"><ele>217.0</ele><time>2026-03-28T09:44:29Z</time></trkpt><trkpt lat="44.9973647683733" lon="8.562701987369929"><ele>216.99999999999997</ele><time>2026-03-28T09:44:30Z</time></trkpt><trkpt lat="44.99732016183628" lon="8.562809503736108"><ele>217.0</ele><time>2026-03-28T09:44:31Z</time></trkpt><trkpt lat="44.99728784497202" lon="8.562912244953349"><ele>217.0</ele><time>2026-03-28T09:44:32Z</time></trkpt><trkpt lat="44.997257018208515" lon="8.563006483017318"><ele>217.0</ele><time>2026-03-28T09:44:33Z</time></trkpt><trkpt lat="44.997229496893" lon="8.563095710384307"><ele>216.99999999999997</ele><time>2026-03-28T09:44:34Z</time></trkpt><trkpt lat="44.99718635552954" lon="8.563221718993672"><ele>217.0</ele><time>2026-03-28T09:44:36Z</time></trkpt><trkpt lat="44.997287170691706" lon="8.563323167040258"><ele>217.0</ele><time>2026-03-28T09:44:40Z</time></trkpt><trkpt lat="44.997363852717385" lon="8.563324962850782"><ele>217.0</ele><time>2026-03-28T09:44:41Z</time></trkpt><trkpt lat="44.99746800661545" lon="8.563336289088424"><ele>217.0</ele><time>2026-03-28T09:44:42Z</time></trkpt><trkpt lat="44.99758649057135" lon="8.563354705873113"><ele>217.0</ele><time>2026-03-28T09:44:43Z</time></trkpt><trkpt lat="44.99771245898604" lon="8.56333278630828"><ele>217.0</ele><time>2026-03-28T09:44:44Z</time></trkpt><trkpt lat="44.99782308103259" lon="8.563270635252731"><ele>216.33333333333331</ele><time>2026-03-28T09:44:45Z</time></trkpt><trkpt lat="44.99790166748597" lon="8.563209877594169"><ele>215.66666666666666</ele><time>2026-03-28T09:44:46Z</time></trkpt><trkpt lat="44.997972403913124" lon="8.563165079116187"><ele>215.0</ele><time>2026-03-28T09:44:47Z</time></trkpt><trkpt lat="44.998028163769625" lon="8.56312372570205"><ele>214.33333333333331</ele><time>2026-03-28T09:44:48Z</time></trkpt><trkpt lat="44.998093363907415" lon="8.563156375798357"><ele>213.66666666666666</ele><time>2026-03-28T09:44:51Z</time></trkpt><trkpt lat="44.998017941319844" lon="8.563280736936688"><ele>213.0</ele><time>2026-03-28T09:44:53Z</time></trkpt><trkpt lat="44.997927638428855" lon="8.563291339911347"><ele>213.0</ele><time>2026-03-28T09:44:54Z</time></trkpt><trkpt lat="44.997803523853534" lon="8.563228300065344"><ele>213.0</ele><time>2026-03-28T09:44:55Z</time></trkpt><trkpt lat="44.99775272942531" lon="8.563423538245376"><ele>213.0</ele><time>2026-03-28T09:44:56Z</time></trkpt><trkpt lat="44.99771880594307" lon="8.563543383568298"><ele>213.0</ele><time>2026-03-28T09:44:57Z</time></trkpt><trkpt lat="44.99772364215677" lon="8.563674693522183"><ele>213.60000000000002</ele><time>2026-03-28T09:44:58Z</time></trkpt><trkpt lat="44.99773297534895" lon="8.563823747755034"><ele>214.20000000000002</ele><time>2026-03-28T09:44:58.999Z</time></trkpt><trkpt lat="44.99773572668068" lon="8.564024115719148"><ele>214.8</ele><time>2026-03-28T09:44:59.999Z</time></trkpt><trkpt lat="44.99769673481541" lon="8.564141788396835"><ele>215.4</ele><time>2026-03-28T09:45:00.999Z</time></trkpt><trkpt lat="44.997638484063195" lon="8.564198620627813"><ele>216.0</ele><time>2026-03-28T09:45:01.999Z</time></trkpt><trkpt lat="44.9975418029743" lon="8.564250253936882"><ele>217.4</ele><time>2026-03-28T09:45:02.999Z</time></trkpt><trkpt lat="44.99745635250903" lon="8.564325465862899"><ele>218.8</ele><time>2026-03-28T09:45:03.999Z</time></trkpt><trkpt lat="44.997369361430216" lon="8.56438457308397"><ele>220.20000000000002</ele><time>2026-03-28T09:45:04.999Z</time></trkpt><trkpt lat="44.997291000646605" lon="8.564496939341094"><ele>221.60000000000002</ele><time>2026-03-28T09:45:05.999Z</time></trkpt><trkpt lat="44.99724169293333" lon="8.564648613587485"><ele>223.0</ele><time>2026-03-28T09:45:06.999Z</time></trkpt><trkpt lat="44.99721155039371" lon="8.564837440632948"><ele>225.25</ele><time>2026-03-28T09:45:07.999Z</time></trkpt><trkpt lat="44.997178569944744" lon="8.564990570921672"><ele>227.5</ele><time>2026-03-28T09:45:08.999Z</time></trkpt><trkpt lat="44.99714453464375" lon="8.565144468753731"><ele>229.75</ele><time>2026-03-28T09:45:09.999Z</time></trkpt><trkpt lat="44.99711875193585" lon="8.565289511176085"><ele>232.0</ele><time>2026-03-28T09:45:10.999Z</time></trkpt><trkpt lat="44.99701197594692" lon="8.565374397554296"><ele>234.75</ele><time>2026-03-28T09:45:11.999Z</time></trkpt><trkpt lat="44.996907932409606" lon="8.565494811454668"><ele>237.5</ele><time>2026-03-28T09:45:12.999Z</time></trkpt><trkpt lat="44.996837882764616" lon="8.565635060086459"><ele>240.25</ele><time>2026-03-28T09:45:13.999Z</time></trkpt><trkpt lat="44.99679574886995" lon="8.565765333738034"><ele>243.0</ele><time>2026-03-28T09:45:14.999Z</time></trkpt><trkpt lat="44.996772294222005" lon="8.56589690721959"><ele>243.0</ele><time>2026-03-28T09:45:15.999Z</time></trkpt><trkpt lat="44.99673376893395" lon="8.565995860870476"><ele>243.0</ele><time>2026-03-28T09:45:16.999Z</time></trkpt><trkpt lat="44.996705465241774" lon="8.566081189200638"><ele>243.0</ele><time>2026-03-28T09:45:17.999Z</time></trkpt><trkpt lat="44.99665625516355" lon="8.566230217715079"><ele>243.0</ele><time>2026-03-28T09:45:19.999Z</time></trkpt><trkpt lat="44.99662300739225" lon="8.566311543615795"><ele>243.0</ele><time>2026-03-28T09:45:20.999Z</time></trkpt><trkpt lat="44.99666118886861" lon="8.566421386486402"><ele>243.0</ele><time>2026-03-28T09:45:21.999Z</time></trkpt><trkpt lat="44.996632870114375" lon="8.56657437778922"><ele>243.5</ele><time>2026-03-28T09:45:23.999Z</time></trkpt><trkpt lat="44.99648940802873" lon="8.566619096156106"><ele>244.0</ele><time>2026-03-28T09:45:25.999Z</time></trkpt><trkpt lat="44.99667124469615" lon="8.566720512201579"><ele>244.5</ele><time>2026-03-28T09:45:27.999Z</time></trkpt><trkpt lat="44.99671523063944" lon="8.566651434800674"><ele>245.0</ele><time>2026-03-28T09:45:29.999Z</time></trkpt><trkpt lat="44.9967666668833" lon="8.566592921156456"><ele>245.0</ele><time>2026-03-28T09:46:22Z</time></trkpt><trkpt lat="44.996753469597046" lon="8.566493035074467"><ele>245.0</ele><time>2026-03-28T09:47:33.999Z</time></trkpt><trkpt lat="44.996747337629934" lon="8.56639711838598"><ele>245.0</ele><time>2026-03-28T09:47:39.999Z</time></trkpt><trkpt lat="44.99680169937944" lon="8.566314623547106"><ele>245.0</ele><time>2026-03-28T09:47:45.999Z</time></trkpt></trkseg></trk></gpx>